# Wetter Temperatur Luftdruck Luftfeuchtigkeit Sichtweite Windgeschwindigkeit Windrichtung Zeit
1 Clouds -12 1023 77 10000 2.57 190 17:25 01.02.2023
2 Clear -21 1025 81 10000 1.03 120 14:22 01.02.2023
3 Clear -22 1025 81 10000 2.57 320 13:20 01.02.2023
4 Clear -22 1025 80 10000 1.54 110 12:27 01.02.2023
5 Clear -22 1025 81 10000 1.03 130 11:52 01.02.2023
6 Clear -20 1026 81 10000 1.54 140 08:42 01.02.2023
7 Clear -12 1026 49 10000 4.63 230 23:58 31.01.2023
8 Clear -9 1027 56 10000 5.14 220 21:26 31.01.2023
9 Clear -10 1027 54 10000 4.12 260 19:32 31.01.2023
10 Clear -11 1028 55 10000 3.6 280 17:54 31.01.2023
11 Clear -12 1027 60 10000 5.66 320 15:36 31.01.2023
12 Clear -13 1027 55 10000 5.14 320 15:18 31.01.2023
13 Clear -12 1026 97 10000 1.78 248 13:45 31.01.2023
14 Clouds -9 1022 80 10000 4.63 280 11:43 31.01.2023
15 Clouds -8 1021 82 10000 4.63 260 10:26 31.01.2023
16 Clouds -8 1020 88 10000 2.57 250 09:50 31.01.2023
17 Clouds -8 1020 91 9656 2.06 260 08:59 31.01.2023
18 Clouds -9 1020 91 10000 2.06 260 08:34 31.01.2023
19 Snow -9 1020 90 6437 2.06 140 05:32 31.01.2023
20 Snow -9 1022 87 3621 2.06 20 23:54 30.01.2023
21 Snow -9 1022 85 3621 3.09 20 22:50 30.01.2023
22 Snow -9 1022 85 9656 2.06 40 21:56 30.01.2023
23 Snow -8 1022 84 4828 3.09 20 20:47 30.01.2023
24 Snow -8 1023 85 2816 4.12 10 19:49 30.01.2023
25 Clouds -9 1024 85 2816 2.57 10 17:28 30.01.2023
26 Clouds -9 1025 88 9656 3.09 350 15:35 30.01.2023
27 Clouds -12 1026 100 5488 1.3 297 14:26 30.01.2023
28 Clouds -10 1025 100 3941 1.35 222 12:26 30.01.2023
29 Clouds -8 1024 91 10000 3.09 250 10:43 30.01.2023
30 Clouds -8 1024 90 10000 2.57 240 09:54 30.01.2023
31 Clouds -8 1024 93 10000 1.54 250 08:41 30.01.2023
32 Clouds -9 1023 88 8047 3.09 270 06:23 30.01.2023
33 Clouds -8 1019 88 10000 4.12 360 01:38 30.01.2023
34 Snow -9 1018 89 1207 5.14 20 23:34 29.01.2023
35 Snow -9 1017 89 1609 7.72 20 22:37 29.01.2023
36 Snow -9 1017 88 1609 6.17 20 21:30 29.01.2023
37 Snow -9 1017 88 1207 7.72 20 20:36 29.01.2023
38 Snow -10 1018 87 1207 8.23 20 19:33 29.01.2023
39 Snow -10 1019 86 2012 8.75 20 18:42 29.01.2023
40 Snow -10 1021 86 1006 7.72 30 17:28 29.01.2023
41 Snow -10 1023 85 1609 10.8 40 16:20 29.01.2023
42 Snow -9 1024 79 8047 8.23 40 14:43 29.01.2023
43 Snow -8 1026 66 10000 6.17 40 13:25 29.01.2023
44 Snow -7 1026 62 10000 6.17 30 12:39 29.01.2023
45 Clouds -7 1026 62 10000 6.17 30 12:21 29.01.2023
46 Clouds -7 1027 62 10000 5.66 40 11:42 29.01.2023
47 Clouds -7 1027 62 10000 5.66 40 11:23 29.01.2023
48 Clouds -4 1027 70 10000 2.57 40 08:55 29.01.2023
49 Clouds -3 1026 69 10000 2.06 10 06:49 29.01.2023
50 Clouds -1 1023 64 10000 5.66 260 00:19 29.01.2023
51 Clouds 0 1019 68 10000 8.23 250 21:50 28.01.2023
52 Clouds 1 1017 68 10000 8.23 240 20:24 28.01.2023
53 Clouds 1 1016 64 10000 11.32 260 19:46 28.01.2023
54 Clouds 2 1015 65 10000 10.8 250 18:23 28.01.2023
55 Clouds 1 1014 82 10000 12.86 270 16:59 28.01.2023
56 Clouds 1 1014 82 10000 12.86 270 16:59 28.01.2023
57 Clouds 2 1014 85 10000 8.75 220 16:20 28.01.2023
58 Clouds 1 1013 88 10000 7.2 230 15:38 28.01.2023
59 Clouds 1 1013 88 10000 7.2 230 15:38 28.01.2023
60 Snow -1 1012 93 4828 6.17 190 14:21 28.01.2023
61 Snow -2 1011 91 2816 7.2 180 12:49 28.01.2023
62 Snow -1 1012 87 10000 5.66 170 11:54 28.01.2023
63 Snow -1 1012 82 10000 7.72 180 10:34 28.01.2023
64 Clear -4 1015 83 10000 4.63 170 06:52 28.01.2023
65 Clouds -4 1017 88 10000 1.54 130 01:36 28.01.2023
66 Snow -4 1017 90 4828 2.57 100 00:23 28.01.2023
67 Clouds -4 1016 78 6437 1.54 60 20:57 27.01.2023
68 Clear -5 1017 65 10000 2.57 230 18:25 27.01.2023
69 Clear -6 1018 71 10000 2.57 250 17:57 27.01.2023
70 Clear -6 1018 68 10000 2.57 250 17:18 27.01.2023
71 Clear -7 1018 71 10000 4.63 250 16:34 27.01.2023
72 Clouds -12 1017 85 10000 1.54 280 14:55 27.01.2023
73 Clouds -12 1017 85 10000 1.54 280 14:24 27.01.2023
74 Clouds -10 1015 77 10000 3.09 240 12:49 27.01.2023
75 Clouds -7 1012 72 10000 4.12 260 08:42 27.01.2023
76 Clouds -5 1009 79 10000 4.63 240 05:58 27.01.2023
77 Snow -5 1000 84 10000 8.23 260 22:56 26.01.2023
78 Snow -4 999 86 9656 9.26 270 21:40 26.01.2023
79 Snow -4 997 89 4828 7.2 260 20:39 26.01.2023
80 Snow -5 996 87 8047 3.6 290 19:26 26.01.2023
81 Snow -5 995 88 4828 5.66 320 17:42 26.01.2023
82 Snow -6 995 89 9656 6.17 10 16:27 26.01.2023
83 Snow -6 994 91 3219 5.66 10 15:56 26.01.2023
84 Snow -7 994 91 2012 6.17 360 15:32 26.01.2023
85 Snow -6 994 91 2414 6.69 10 14:58 26.01.2023
86 Snow -6 995 93 2414 7.2 20 13:30 26.01.2023
87 Snow -5 996 93 10000 9.77 30 11:53 26.01.2023
88 Snow -5 998 92 2414 8.75 30 10:33 26.01.2023
89 Snow -5 1000 92 2414 9.26 40 09:44 26.01.2023
90 Snow -5 1002 92 2816 7.72 40 08:26 26.01.2023
91 Snow -6 1006 92 2012 8.75 30 06:27 26.01.2023
92 Snow -10 1019 82 2816 8.75 40 23:40 25.01.2023
93 Snow -10 1021 74 10000 10.29 40 22:36 25.01.2023
94 Clouds -9 1024 73 10000 6.17 50 21:25 25.01.2023
95 Clouds -10 1023 73 10000 5.66 20 20:48 25.01.2023
96 Clear -10 1025 68 10000 5.66 30 18:24 25.01.2023
97 Clouds -11 1028 69 10000 4.63 40 15:57 25.01.2023
98 Clear -13 1028 69 10000 4.63 40 13:58 25.01.2023
99 Clear -12 1027 69 10000 4.12 50 11:53 25.01.2023
100 Clear -10 1027 67 10000 3.6 30 09:52 25.01.2023
101 Clear -10 1027 67 10000 3.6 30 09:18 25.01.2023
102 Clouds -7 1024 64 10000 4.63 360 06:18 25.01.2023
103 Clouds 0 1018 62 10000 6.17 300 00:27 25.01.2023
104 Clouds 2 1014 78 10000 6.17 260 21:55 24.01.2023
105 Clouds 2 1014 78 10000 7.2 270 21:27 24.01.2023
106 Clouds 1 1012 80 10000 8.75 250 19:37 24.01.2023
107 Clouds 1 1012 81 10000 7.72 260 18:30 24.01.2023
108 Clouds 1 1012 82 10000 9.77 250 17:18 24.01.2023
109 Clouds 1 1011 85 10000 10.29 250 16:52 24.01.2023
110 Clouds 0 1009 90 2816 8.75 240 14:27 24.01.2023
111 Clouds 0 1008 81 10000 8.23 240 12:24 24.01.2023
112 Clouds 0 1008 80 10000 7.2 230 10:29 24.01.2023
113 Clouds -1 1009 76 10000 5.66 240 08:20 24.01.2023
114 Clouds -1 1008 74 10000 6.69 240 07:50 24.01.2023
115 Clouds -1 1008 77 10000 6.17 280 02:57 24.01.2023
116 Clouds -1 1008 78 10000 3.6 280 00:41 24.01.2023
117 Clouds -1 1008 78 10000 4.12 260 23:34 23.01.2023
118 Clouds 0 1006 76 10000 4.12 350 21:50 23.01.2023
119 Clear 0 1006 77 10000 6.17 360 19:30 23.01.2023
120 Clouds -2 1006 89 10000 7.72 20 17:41 23.01.2023
121 Clouds -2 1008 91 10000 7.2 10 15:33 23.01.2023
122 Mist -2 1008 93 10000 6.17 30 13:58 23.01.2023
123 Mist -2 1008 93 10000 6.17 30 13:22 23.01.2023
124 Mist -2 1008 93 10000 6.17 30 12:45 23.01.2023
125 Mist -2 1009 94 10000 4.12 60 11:42 23.01.2023
126 Clouds -2 1011 94 6437 3.09 20 08:27 23.01.2023
127 Snow -1 1014 88 8047 3.6 180 02:49 23.01.2023
128 Clouds 0 1015 89 10000 3.6 170 23:22 22.01.2023
129 Clouds 0 1016 90 10000 4.63 180 21:33 22.01.2023
130 Mist 0 1016 91 9656 2.06 180 20:50 22.01.2023
131 Clouds 0 1016 93 6437 2.57 190 19:53 22.01.2023
132 Clouds 0 1016 93 4828 4.12 190 19:19 22.01.2023
133 Clouds -1 1018 91 10000 4.63 190 17:57 22.01.2023
134 Clouds -1 1018 91 10000 4.63 190 17:57 22.01.2023
135 Clouds -1 1018 91 10000 4.63 190 17:27 22.01.2023
136 Clouds -1 1019 92 10000 3.6 180 16:39 22.01.2023
137 Clouds -2 1019 93 4828 3.6 110 14:55 22.01.2023
138 Clouds -2 1019 91 10000 2.06 130 13:49 22.01.2023
139 Clouds -2 1019 88 9656 2.06 100 12:53 22.01.2023
140 Clouds -2 1020 88 9656 3.09 170 11:39 22.01.2023
141 Clouds -2 1021 87 10000 2.57 190 09:36 22.01.2023
142 Clouds -2 1021 87 10000 3.6 230 08:44 22.01.2023
143 Clouds -2 1022 83 10000 4.12 260 02:54 22.01.2023
144 Clouds -3 1021 82 10000 5.14 230 23:42 21.01.2023
145 Clouds -2 1021 82 10000 5.14 240 22:47 21.01.2023
146 Clouds -2 1020 84 10000 2.57 160 20:43 21.01.2023
147 Clouds -3 1021 88 10000 2.06 150 18:49 21.01.2023
148 Clouds -4 1022 88 10000 2.57 120 15:19 21.01.2023
149 Clouds -18 1022 100 5823 0.86 310 13:30 21.01.2023
150 Clouds -18 1021 100 8412 0.84 319 12:42 21.01.2023
151 Clouds -18 1020 100 7392 1.12 10 11:28 21.01.2023
152 Clouds -18 1020 100 7392 1.12 10 10:46 21.01.2023
153 Clear -5 1015 89 10000 3.6 10 05:40 21.01.2023
154 Snow -2 1010 93 4828 7.72 20 00:27 21.01.2023
155 Snow -2 1008 93 2012 8.75 30 22:26 20.01.2023
156 Snow -2 1007 92 2816 8.75 30 21:35 20.01.2023
157 Snow -2 1005 92 9656 9.26 40 20:42 20.01.2023
158 Snow -2 1004 92 10000 9.77 30 18:23 20.01.2023
159 Snow -2 1003 94 137 5.09 51 15:27 20.01.2023
160 Snow -2 1003 92 2012 8.75 40 14:33 20.01.2023
161 Snow -2 1003 95 2414 7.72 50 12:24 20.01.2023
162 Snow -2 1003 94 4023 8.75 50 08:59 20.01.2023
163 Snow -2 1004 94 3621 7.72 40 07:43 20.01.2023
164 Snow -3 1009 81 10000 8.23 50 02:33 20.01.2023
165 Clouds -2 1013 77 10000 5.66 60 22:38 19.01.2023
166 Clouds -2 1013 77 10000 5.66 60 22:38 19.01.2023
167 Clouds -2 1013 77 10000 5.66 60 22:18 19.01.2023
168 Clouds -1 1014 75 10000 5.66 50 20:21 19.01.2023
169 Clouds 0 1016 67 10000 5.14 40 18:57 19.01.2023
170 Clouds 0 1018 71 10000 2.57 30 15:22 19.01.2023
171 Clouds -1 1017 77 10000 2.06 300 10:52 19.01.2023
172 Clouds -2 1017 84 10000 3.09 290 08:59 19.01.2023
173 Clouds 1 1009 87 10000 4.63 250 23:19 18.01.2023
174 Clouds 1 1006 87 10000 6.17 250 20:54 18.01.2023
175 Clouds 1 1006 88 10000 6.17 250 20:18 18.01.2023
176 Clouds 1 1006 89 10000 6.17 240 19:36 18.01.2023
177 Snow 0 1005 94 10000 5.66 230 17:32 18.01.2023
178 Snow 0 1004 95 2414 5.14 240 15:18 18.01.2023
179 Mist -1 1003 95 2012 2.06 270 13:18 18.01.2023
180 Mist -1 1001 95 3219 1.54 200 10:29 18.01.2023
181 Mist -1 1001 93 3621 3.09 220 07:57 18.01.2023
182 Clouds -2 1002 80 10000 4.12 240 01:26 18.01.2023
183 Snow -3 1003 75 10000 3.09 200 23:22 17.01.2023
184 Clear -2 1003 70 10000 3.6 220 20:31 17.01.2023
185 Clear -2 1004 70 10000 3.6 210 19:27 17.01.2023
186 Clear -4 1006 73 10000 4.63 220 17:56 17.01.2023
187 Clouds -7 1007 78 10000 3.09 230 15:57 17.01.2023
188 Clouds -10 1007 90 10000 4.12 220 14:55 17.01.2023
189 Clouds -17 1008 99 7478 1.21 210 13:47 17.01.2023
190 Clear -10 1007 86 10000 4.12 230 11:51 17.01.2023
191 Clear -10 1007 86 10000 4.12 230 11:23 17.01.2023
192 Clear -9 1008 87 10000 4.12 240 09:31 17.01.2023
193 Clear -7 1009 81 10000 4.12 240 07:53 17.01.2023
194 Clouds -5 1012 80 10000 2.57 260 03:55 17.01.2023
195 Clouds -5 1014 79 10000 2.57 250 00:57 17.01.2023
196 Clouds -5 1015 76 10000 3.6 260 23:32 16.01.2023
197 Clouds -4 1015 68 10000 3.6 310 21:52 16.01.2023
198 Clouds -4 1016 66 10000 3.6 220 20:24 16.01.2023
199 Clouds -5 1017 68 10000 2.57 330 19:35 16.01.2023
200 Clouds -5 1018 72 10000 2.06 260 18:53 16.01.2023
201 Clouds -6 1018 72 10000 2.06 260 18:21 16.01.2023
202 Clouds -7 1020 75 10000 2.06 290 17:34 16.01.2023
203 Clear -12 1022 89 10000 1.54 360 14:38 16.01.2023
204 Clear -11 1023 83 10000 1.54 360 13:38 16.01.2023
205 Clear -13 1024 88 10000 1.54 350 10:32 16.01.2023
206 Clear -10 1024 87 10000 4.12 10 09:53 16.01.2023
207 Clear -7 1027 71 10000 0 0 23:22 15.01.2023
208 Clear -6 1027 68 10000 2.57 40 21:42 15.01.2023
209 Clear -5 1027 70 10000 4.12 10 20:35 15.01.2023
210 Clear -5 1027 73 10000 2.06 20 19:49 15.01.2023
211 Clear -7 1028 76 10000 3.09 360 17:46 15.01.2023
212 Clear -9 1028 76 10000 4.12 360 15:44 15.01.2023
213 Clouds -9 1027 81 10000 6.17 360 12:31 15.01.2023
214 Clouds -9 1026 84 10000 5.14 360 11:35 15.01.2023
215 Clouds -9 1025 82 10000 4.63 10 10:28 15.01.2023
216 Clouds -8 1025 81 10000 3.09 10 09:35 15.01.2023
217 Clouds -8 1022 87 10000 1.54 260 01:48 15.01.2023
218 Clouds -5 1020 79 10000 2.06 260 22:57 14.01.2023
219 Clouds -5 1018 80 10000 4.63 340 21:58 14.01.2023
220 Clouds -5 1018 80 10000 4.63 340 21:36 14.01.2023
221 Clouds -5 1018 80 10000 4.63 340 21:18 14.01.2023
222 Clouds -5 1018 82 10000 4.12 360 20:39 14.01.2023
223 Clouds -5 1018 80 10000 4.12 10 18:40 14.01.2023
224 Clouds -6 1018 80 10000 5.14 10 16:59 14.01.2023
225 Clouds -7 1018 73 10000 5.14 360 15:28 14.01.2023
226 Clouds -7 1017 73 10000 5.66 350 14:25 14.01.2023
227 Clouds -7 1017 77 10000 4.12 340 13:42 14.01.2023
228 Clouds -6 1016 74 10000 5.66 360 11:46 14.01.2023
229 Clouds -6 1016 77 10000 5.14 360 10:46 14.01.2023
230 Clouds -5 1014 78 10000 3.6 350 08:19 14.01.2023
231 Snow -4 1009 93 4828 5.66 340 23:36 13.01.2023
232 Snow -3 1009 93 3219 5.66 340 22:47 13.01.2023
233 Snow -3 1008 94 2012 5.14 330 22:29 13.01.2023
234 Snow -3 1007 94 1609 5.66 330 21:35 13.01.2023
235 Snow -3 1004 94 2012 6.69 330 19:43 13.01.2023
236 Snow -2 1003 94 1207 10.29 360 18:21 13.01.2023
237 Snow -1 1003 94 2816 10.29 20 16:35 13.01.2023
238 Snow -2 1003 95 2414 8.75 20 13:24 13.01.2023
239 Snow -2 1003 95 4023 9.77 20 12:20 13.01.2023
240 Snow -2 1004 96 9656 9.77 20 10:26 13.01.2023
241 Snow -2 1005 95 4828 8.23 20 09:46 13.01.2023
242 Snow -2 1006 95 3219 8.75 20 08:56 13.01.2023
243 Snow -2 1006 95 3219 7.72 20 08:25 13.01.2023
244 Snow -2 1008 96 4828 7.72 20 06:53 13.01.2023
245 Snow -2 1010 95 2414 7.2 30 05:23 13.01.2023
246 Mist -1 1014 95 8047 5.66 20 00:37 13.01.2023
247 Snow -1 1015 94 8047 4.63 20 22:44 12.01.2023
248 Snow -1 1015 93 4828 5.14 20 20:55 12.01.2023
249 Snow -2 1016 91 2012 5.14 40 19:46 12.01.2023
250 Snow -3 1019 87 4023 4.63 20 17:53 12.01.2023
251 Clouds -3 1020 89 10000 6.17 30 16:34 12.01.2023
252 Clouds -6 1020 89 10000 6.69 30 14:45 12.01.2023
253 Clouds -6 1020 89 10000 6.69 30 14:45 12.01.2023
254 Clouds -6 1020 89 10000 6.69 30 14:45 12.01.2023
255 Clouds -6 1020 89 10000 6.69 30 14:22 12.01.2023
256 Snow -7 1021 88 8047 5.14 30 12:55 12.01.2023
257 Snow -8 1022 84 8047 6.17 30 10:54 12.01.2023
258 Clouds -8 1022 84 9656 6.17 30 09:29 12.01.2023
259 Clouds -8 1024 79 10000 6.17 40 05:27 12.01.2023
260 Clouds -9 1026 76 10000 5.66 40 23:59 11.01.2023
261 Clouds -9 1026 76 10000 5.66 40 23:41 11.01.2023
262 Clouds -9 1026 75 10000 5.66 40 23:21 11.01.2023
263 Clear -9 1026 72 10000 5.66 50 21:47 11.01.2023
264 Clear -8 1026 72 10000 5.14 30 20:37 11.01.2023
265 Clear -9 1027 73 10000 4.12 20 18:39 11.01.2023
266 Clear -10 1028 76 10000 4.12 40 17:24 11.01.2023
267 Clear -12 1027 80 10000 5.66 40 15:23 11.01.2023
268 Clear -13 1027 80 10000 4.12 20 13:51 11.01.2023
269 Clear -13 1026 80 10000 3.6 20 12:20 11.01.2023
270 Clear -12 1026 78 10000 3.6 20 10:45 11.01.2023
271 Clear -12 1025 78 10000 4.12 20 08:21 11.01.2023
272 Clear -11 1024 76 10000 4.12 30 07:26 11.01.2023
273 Clear -8 1022 80 10000 3.09 240 01:46 11.01.2023
274 Clear -6 1020 71 10000 4.12 260 22:46 10.01.2023
275 Clear -6 1020 71 10000 4.12 260 22:46 10.01.2023
276 Clear -6 1020 66 10000 3.09 270 21:44 10.01.2023
277 Clear -5 1019 64 10000 4.63 260 20:43 10.01.2023
278 Clouds -5 1019 65 10000 5.66 290 19:48 10.01.2023
279 Clear -6 1019 65 10000 4.12 290 18:48 10.01.2023
280 Clear -6 1019 65 10000 4.12 290 18:48 10.01.2023
281 Clear -7 1019 66 10000 3.6 290 17:59 10.01.2023
282 Clear -7 1019 67 10000 5.14 280 16:47 10.01.2023
283 Clear -7 1018 69 10000 4.12 280 15:31 10.01.2023
284 Clear -8 1017 73 10000 4.12 280 14:33 10.01.2023
285 Clear -8 1016 74 10000 5.66 310 12:25 10.01.2023
286 Clouds -5 1013 71 10000 6.17 290 09:42 10.01.2023
287 Clouds -4 1012 73 10000 7.2 290 08:35 10.01.2023
288 Clouds -3 1011 74 10000 6.17 330 07:34 10.01.2023
289 Clouds 0 1009 88 10000 8.23 270 04:58 10.01.2023
290 Snow -1 1009 88 4828 7.72 240 23:50 09.01.2023
291 Clouds -2 1009 85 9656 8.23 220 21:55 09.01.2023
292 Clouds -2 1009 85 8047 8.23 220 20:46 09.01.2023
293 Snow -2 1010 83 10000 8.23 230 19:41 09.01.2023
294 Clouds -2 1011 83 10000 6.69 250 18:21 09.01.2023
295 Clouds -2 1012 83 10000 5.66 230 17:49 09.01.2023
296 Clouds -3 1013 83 10000 6.17 240 16:33 09.01.2023
297 Clouds -3 1013 82 10000 6.17 230 15:31 09.01.2023
298 Clouds -4 1014 82 8047 4.63 260 14:53 09.01.2023
299 Clouds -4 1013 83 10000 4.12 240 14:20 09.01.2023
300 Clouds -4 1014 84 10000 2.57 280 12:49 09.01.2023
301 Clouds -4 1014 85 10000 2.06 280 11:45 09.01.2023
302 Clouds -4 1014 84 10000 2.57 240 11:19 09.01.2023
303 Clouds -4 1017 84 10000 4.12 260 06:53 09.01.2023
304 Clouds -6 1019 84 10000 4.12 250 02:55 09.01.2023
305 Clouds -6 1021 83 10000 3.6 270 00:58 09.01.2023
306 Clouds -6 1022 79 10000 5.66 240 21:50 08.01.2023
307 Clouds -6 1022 79 10000 5.66 240 21:21 08.01.2023
308 Clouds -6 1023 79 10000 6.69 220 20:33 08.01.2023
309 Clouds -8 1026 82 8047 5.66 220 17:59 08.01.2023
310 Clouds -8 1026 81 8047 5.66 230 17:21 08.01.2023
311 Clouds -8 1027 82 9656 5.66 250 16:37 08.01.2023
312 Clouds -8 1027 82 10000 5.14 250 15:34 08.01.2023
313 Clouds -9 1028 81 10000 5.14 250 13:58 08.01.2023
314 Clouds -9 1028 81 10000 5.14 250 13:30 08.01.2023
315 Clouds -9 1028 80 10000 6.17 250 12:43 08.01.2023
316 Clouds -8 1028 75 10000 3.6 280 09:55 08.01.2023
317 Clouds -8 1028 74 10000 4.12 280 09:35 08.01.2023
318 Clouds -8 1028 71 10000 3.09 290 07:45 08.01.2023
319 Clouds -5 1024 77 10000 7.2 340 23:59 07.01.2023
320 Clouds -4 1023 81 10000 5.66 280 22:47 07.01.2023
321 Clouds -4 1023 82 10000 5.66 280 22:24 07.01.2023
322 Clouds -4 1022 83 10000 5.14 280 21:47 07.01.2023
323 Clouds -3 1021 84 10000 6.17 260 20:43 07.01.2023
324 Clouds -3 1021 84 10000 6.17 260 20:22 07.01.2023
325 Clouds -3 1020 83 10000 7.2 260 18:33 07.01.2023
326 Clouds -3 1020 85 10000 6.69 260 17:50 07.01.2023
327 Clouds -3 1020 85 10000 6.69 260 17:28 07.01.2023
328 Clouds -3 1020 85 10000 6.17 260 16:37 07.01.2023
329 Clouds -3 1019 86 10000 5.14 260 15:46 07.01.2023
330 Clouds -3 1019 86 10000 5.14 260 15:26 07.01.2023
331 Clouds -3 1019 85 10000 5.66 260 14:27 07.01.2023
332 Clouds -3 1018 86 10000 4.63 280 13:47 07.01.2023
333 Clouds -3 1018 86 10000 4.63 280 13:23 07.01.2023
334 Clouds -2 1018 85 10000 5.14 280 12:22 07.01.2023
335 Clouds -2 1017 88 10000 6.17 280 11:36 07.01.2023
336 Clouds -1 1016 88 10000 5.14 280 10:25 07.01.2023
337 Clouds 0 1016 91 10000 4.63 270 08:25 07.01.2023
338 Clouds 0 1015 91 10000 4.63 260 07:44 07.01.2023
339 Mist 0 1015 93 9656 5.66 260 06:50 07.01.2023
340 Mist 0 1015 94 4828 2.06 220 00:42 07.01.2023
341 Clouds 0 1015 94 4023 2.06 200 22:23 06.01.2023
342 Snow 0 1015 93 4023 1.54 120 21:58 06.01.2023
343 Snow 0 1014 92 4828 1.03 130 21:18 06.01.2023
344 Mist -1 1014 94 8047 1.54 60 19:57 06.01.2023
345 Mist -1 1014 94 8047 1.54 60 19:39 06.01.2023
346 Mist -1 1014 94 8047 1.54 60 19:21 06.01.2023
347 Mist -1 1015 94 9656 2.06 60 18:28 06.01.2023
348 Mist -2 1015 95 9656 2.57 10 16:55 06.01.2023
349 Clouds -2 1016 96 6437 2.57 10 16:24 06.01.2023
350 Clouds -2 1015 96 4828 3.09 20 15:53 06.01.2023
351 Clouds -3 1015 96 4828 3.09 20 15:34 06.01.2023
352 Clouds -3 1015 95 805 2.57 10 13:56 06.01.2023
353 Fog -3 1015 96 805 3.09 20 12:22 06.01.2023
354 Mist -4 1015 96 2012 3.6 20 10:58 06.01.2023
355 Clouds -4 1015 95 2012 5.14 20 08:55 06.01.2023
356 Clouds -4 1016 94 10000 4.12 20 05:33 06.01.2023
357 Mist -4 1016 94 10000 4.12 20 23:53 05.01.2023
358 Snow -4 1016 95 4828 4.12 40 22:54 05.01.2023
359 Snow -5 1016 95 3219 3.6 30 21:42 05.01.2023
360 Snow -4 1015 95 2414 5.14 360 19:19 05.01.2023
361 Snow -4 1015 95 2816 6.17 360 17:28 05.01.2023
362 Clouds -3 1015 95 6437 6.17 350 15:59 05.01.2023
363 Clouds -3 1015 94 4828 5.14 350 15:40 05.01.2023
364 Mist -3 1014 96 6437 6.69 20 14:35 05.01.2023
365 Mist -2 1013 96 3621 9.26 30 12:43 05.01.2023
366 Rain -2 1012 95 6437 10.29 30 11:44 05.01.2023
367 Snow -3 1013 93 8047 9.77 40 09:52 05.01.2023
368 Snow -3 1013 93 10000 11.83 40 08:28 05.01.2023
369 Snow -4 1014 92 4828 9.26 30 07:18 05.01.2023
370 Snow -1 1016 76 10000 11.32 40 03:39 05.01.2023
371 Clouds 2 1016 79 10000 7.2 50 22:53 04.01.2023
372 Clouds 3 1015 78 10000 5.66 40 21:33 04.01.2023
373 Clouds 3 1015 77 10000 5.14 40 20:26 04.01.2023
374 Clouds 3 1015 77 10000 4.63 30 19:56 04.01.2023
375 Clouds 3 1015 77 10000 4.63 30 19:56 04.01.2023
376 Clouds 3 1015 78 10000 4.63 30 19:31 04.01.2023
377 Clouds 2 1015 81 10000 4.12 40 18:30 04.01.2023
378 Clouds 2 1015 89 10000 5.14 20 16:32 04.01.2023
379 Mist 2 1014 92 9656 3.6 10 15:40 04.01.2023
380 Mist 1 1013 92 6437 3.09 20 13:53 04.01.2023
381 Mist 1 1011 93 6437 4.63 20 11:40 04.01.2023
382 Mist 1 1011 93 6437 4.63 20 11:19 04.01.2023
383 Mist 1 1011 94 6437 5.14 20 10:42 04.01.2023
384 Mist 1 1011 94 6437 5.14 20 10:21 04.01.2023
385 Mist 1 1010 92 8047 4.63 10 07:19 04.01.2023
386 Clouds 2 1011 88 10000 4.12 20 01:43 04.01.2023
387 Clouds 2 1011 86 10000 5.66 30 23:59 03.01.2023
388 Clouds 2 1011 86 10000 5.66 30 23:32 03.01.2023
389 Clouds 3 1012 83 10000 5.14 20 22:40 03.01.2023
390 Clouds 4 1012 76 10000 3.09 50 20:52 03.01.2023
391 Clouds 3 1013 82 10000 2.57 40 19:20 03.01.2023
392 Clouds 3 1018 85 10000 3.09 110 16:55 03.01.2023
393 Clouds 2 1018 87 10000 1.54 110 15:51 03.01.2023
394 Clouds 1 1019 87 10000 2.06 140 13:52 03.01.2023
395 Clouds 2 1019 87 10000 2.06 140 13:29 03.01.2023
396 Clouds 2 1018 87 10000 2.57 200 12:57 03.01.2023
397 Clouds 2 1018 87 10000 2.57 200 12:29 03.01.2023
398 Clouds 2 1019 89 10000 3.09 220 10:30 03.01.2023
399 Clouds 3 1020 87 10000 3.09 210 06:41 03.01.2023
400 Clouds 3 1020 86 10000 4.12 220 04:18 03.01.2023
401 Clouds 3 1020 86 10000 3.6 220 03:42 03.01.2023
402 Clouds 3 1019 85 10000 5.14 250 00:36 03.01.2023
403 Clouds 3 1018 87 10000 4.12 240 22:41 02.01.2023
404 Mist 4 1017 87 10000 4.12 260 21:55 02.01.2023
405 Mist 4 1017 90 9656 4.63 260 20:39 02.01.2023
406 Mist 4 1016 93 6437 4.12 240 19:44 02.01.2023
407 Mist 2 1017 96 4828 2.06 200 17:18 02.01.2023
408 Snow 1 1016 92 3219 2.57 150 14:52 02.01.2023
409 Clouds 1 1016 91 10000 2.06 180 13:23 02.01.2023
410 Clouds 1 1016 87 10000 2.06 210 11:40 02.01.2023
411 Clouds 1 1016 86 10000 1.54 200 10:34 02.01.2023
412 Clouds 1 1015 87 10000 2.06 260 07:33 02.01.2023
413 Clouds 2 1013 87 10000 4.63 260 00:58 02.01.2023
414 Clouds 3 1011 93 10000 4.63 230 21:58 01.01.2023
415 Clouds 3 1011 93 10000 4.63 230 21:24 01.01.2023
416 Clouds 3 1010 95 10000 6.69 260 20:47 01.01.2023
417 Mist 3 1010 97 4828 5.66 250 19:42 01.01.2023
418 Mist 3 1010 96 6437 5.66 240 17:56 01.01.2023
419 Mist 4 1010 96 8047 5.66 250 17:21 01.01.2023
420 Mist 4 1010 95 8047 4.63 260 16:32 01.01.2023
421 Mist 3 1008 95 4828 5.66 240 14:53 01.01.2023
422 Mist 4 1007 96 8047 5.14 240 13:38 01.01.2023
423 Mist 4 1006 96 8047 3.6 230 12:40 01.01.2023
424 Mist 4 1005 97 8047 2.57 270 11:36 01.01.2023
425 Mist 4 1004 97 3219 3.09 270 10:35 01.01.2023
426 Mist 4 1003 96 4828 2.06 330 08:51 01.01.2023
427 Mist 4 1003 97 3219 3.09 330 08:20 01.01.2023
428 Mist 4 1003 96 6437 3.09 350 07:18 01.01.2023
429 Fog 6 1007 98 604 1.54 100 01:42 01.01.2023
430 Fog 6 1008 98 604 2.06 60 23:42 31.12.2022
431 Fog 6 1008 95 201 2.57 120 22:33 31.12.2022
432 Mist 7 1009 97 4023 2.06 120 21:36 31.12.2022
433 Mist 7 1010 98 4828 2.06 140 21:18 31.12.2022
434 Mist 7 1011 100 9656 1.54 160 19:33 31.12.2022
435 Mist 6 1011 97 6437 1.54 150 18:42 31.12.2022
436 Mist 6 1012 98 8047 1.03 190 18:18 31.12.2022
437 Clouds 7 1012 98 10000 2.06 160 17:46 31.12.2022
438 Mist 6 1013 97 4828 3.6 130 16:50 31.12.2022
439 Mist 6 1013 98 3621 3.09 130 16:22 31.12.2022
440 Fog 6 1014 98 604 1.54 210 14:39 31.12.2022
441 Fog 6 1014 99 805 2.57 180 13:38 31.12.2022
442 Fog 6 1014 97 402 3.6 180 12:40 31.12.2022
443 Fog 6 1014 99 402 2.57 170 12:19 31.12.2022
444 Fog 6 1014 96 402 2.57 190 11:50 31.12.2022
445 Mist 6 1015 95 1006 3.6 250 10:36 31.12.2022
446 Fog 6 1015 98 402 3.09 200 09:54 31.12.2022
447 Fog 6 1015 97 402 3.09 200 09:35 31.12.2022
448 Rain 7 1015 96 2012 5.14 210 07:49 31.12.2022
449 Clouds 7 1016 89 10000 4.12 190 00:37 31.12.2022
450 Clouds 7 1016 87 9656 3.6 160 23:47 30.12.2022
451 Rain 8 1016 81 10000 3.6 170 22:49 30.12.2022
452 Clouds 7 1016 83 10000 4.12 160 21:44 30.12.2022
453 Clouds 7 1016 83 10000 4.12 160 21:26 30.12.2022
454 Clouds 6 1017 82 10000 4.12 150 18:59 30.12.2022
455 Clouds 7 1018 81 10000 6.17 190 17:51 30.12.2022
456 Clouds 6 1018 81 10000 6.17 190 17:32 30.12.2022
457 Clouds 5 1019 84 10000 3.6 180 15:57 30.12.2022
458 Clouds 5 1019 84 10000 4.63 170 14:53 30.12.2022
459 Clouds 5 1019 83 10000 4.63 180 11:58 30.12.2022
460 Clouds 5 1020 82 10000 3.09 190 08:21 30.12.2022
461 Clouds 4 1020 78 10000 1.54 170 03:40 30.12.2022
462 Clouds 3 1019 78 10000 2.57 180 01:53 30.12.2022
463 Clouds 3 1018 75 10000 3.6 190 22:58 29.12.2022
464 Clouds 3 1018 75 10000 3.6 190 21:31 29.12.2022
465 Clear 4 1018 71 10000 5.14 190 20:54 29.12.2022
466 Clear 4 1018 74 10000 5.14 190 20:25 29.12.2022
467 Clouds 3 1019 79 10000 5.66 190 18:30 29.12.2022
468 Clouds 2 1019 82 10000 5.66 180 17:33 29.12.2022
469 Mist 2 1020 83 10000 4.12 180 16:55 29.12.2022
470 Mist 1 1020 85 10000 4.12 180 16:21 29.12.2022
471 Mist 0 1020 87 10000 3.6 170 15:33 29.12.2022
472 Mist -1 1021 90 10000 3.6 20 13:34 29.12.2022
473 Mist -2 1021 90 10000 3.09 20 11:33 29.12.2022
474 Clear -1 1021 90 10000 2.06 120 08:22 29.12.2022
475 Snow -1 1021 92 3219 4.12 170 00:23 29.12.2022
476 Snow -1 1021 92 2816 4.63 160 23:28 28.12.2022
477 Snow -1 1020 90 1609 4.63 180 21:22 28.12.2022
478 Snow -1 1019 89 2414 5.14 180 20:50 28.12.2022
479 Snow -1 1019 87 10000 6.69 180 19:25 28.12.2022
480 Snow -2 1020 88 10000 6.17 190 16:56 28.12.2022
481 Snow -3 1020 90 2816 5.66 180 15:25 28.12.2022
482 Snow -4 1021 90 4828 5.14 170 12:56 28.12.2022
483 Snow -4 1021 91 3219 5.14 170 12:23 28.12.2022
484 Snow -4 1022 92 1609 4.63 160 11:29 28.12.2022
485 Snow -4 1022 89 4828 3.6 220 09:18 28.12.2022
486 Clouds -5 1022 85 8047 6.17 200 07:27 28.12.2022
487 Clouds -6 1022 84 10000 3.6 180 06:43 28.12.2022
488 Clouds -8 1022 83 10000 2.06 100 00:24 28.12.2022
489 Clouds -6 1021 73 10000 4.63 250 20:31 27.12.2022
490 Clouds -6 1021 73 10000 5.14 260 19:40 27.12.2022
491 Clouds -6 1021 79 10000 5.66 280 17:47 27.12.2022
492 Clouds -7 1021 84 9656 6.69 250 16:43 27.12.2022
493 Snow -7 1021 84 6437 6.69 260 15:31 27.12.2022
494 Snow -5 1018 88 3219 6.69 240 12:36 27.12.2022
495 Snow -5 1018 88 1207 6.69 230 11:30 27.12.2022
496 Snow -5 1018 88 1207 6.69 230 11:30 27.12.2022
497 Snow -5 1017 86 4023 6.69 240 09:47 27.12.2022
498 Clouds -5 1017 86 4828 6.69 240 09:23 27.12.2022
499 Clouds -4 1017 81 10000 8.75 230 08:20 27.12.2022
500 Clouds -4 1018 81 10000 8.75 240 04:32 27.12.2022
501 Clouds -4 1017 81 10000 5.14 230 22:48 26.12.2022
502 Clouds -4 1017 80 10000 4.12 240 21:25 26.12.2022
503 Clouds -5 1017 79 10000 5.66 250 20:42 26.12.2022
504 Clouds -6 1017 77 10000 4.63 270 18:44 26.12.2022
505 Clouds -6 1017 77 10000 5.66 270 17:51 26.12.2022
506 Clouds -7 1017 79 10000 4.12 260 16:21 26.12.2022
507 Clouds -8 1015 82 10000 3.6 270 14:34 26.12.2022
508 Clouds -8 1013 78 10000 4.12 270 12:51 26.12.2022
509 Clouds -7 1010 80 10000 5.14 250 08:27 26.12.2022
510 Snow -5 1003 84 4828 8.75 260 23:59 25.12.2022
511 Clouds -5 1003 83 4828 8.75 260 23:38 25.12.2022
512 Snow -5 1002 83 4828 8.23 240 22:38 25.12.2022
513 Snow -5 1002 84 9656 6.17 260 21:49 25.12.2022
514 Snow -5 999 78 10000 11.32 220 18:51 25.12.2022
515 Snow -5 999 80 8047 12.35 220 17:52 25.12.2022
516 Snow -6 999 79 4828 12.35 220 17:34 25.12.2022
517 Clouds -7 999 78 10000 12.35 230 15:41 25.12.2022
518 Clouds -7 997 72 10000 12.86 220 12:45 25.12.2022
519 Clouds -8 997 73 10000 10.29 210 09:28 25.12.2022
520 Clouds -8 995 67 10000 11.83 210 23:51 24.12.2022
521 Clouds -8 995 71 8047 13.38 200 21:54 24.12.2022
522 Clouds -8 994 64 10000 12.86 210 19:36 24.12.2022
523 Clouds -9 993 66 10000 13.89 210 16:46 24.12.2022
524 Clouds -9 991 71 9656 13.38 210 14:55 24.12.2022
525 Clouds -9 989 73 2816 13.38 210 13:30 24.12.2022
526 Snow -9 987 79 1609 13.89 220 11:26 24.12.2022
527 Snow -9 986 81 1207 17.49 220 10:22 24.12.2022
528 Snow -9 985 83 2816 14.4 210 09:37 24.12.2022
529 Snow -9 983 88 1609 13.38 210 06:56 24.12.2022
530 Snow -6 979 89 604 15.43 230 02:50 24.12.2022
531 Snow -2 977 82 10000 15.43 240 23:47 23.12.2022
532 Snow 0 977 90 10000 15.95 240 22:28 23.12.2022
533 Clouds 6 974 92 10000 9.77 90 20:41 23.12.2022
534 Clouds 6 978 95 10000 9.26 80 19:39 23.12.2022
535 Rain 6 978 95 10000 9.26 80 19:21 23.12.2022
536 Rain 6 980 93 9656 9.77 80 18:46 23.12.2022
537 Rain 6 981 93 8047 8.23 60 18:20 23.12.2022
538 Clouds 5 986 86 10000 13.38 100 16:35 23.12.2022
539 Rain 4 988 88 10000 10.8 80 15:42 23.12.2022
540 Snow 1 1001 94 10000 10.29 50 11:58 23.12.2022
541 Mist 1 1007 95 10000 9.26 50 09:37 23.12.2022
542 Rain 0 1011 95 10000 10.29 50 08:45 23.12.2022
543 Snow -2 1015 95 2012 9.26 40 07:19 23.12.2022
544 Snow -2 1016 93 2012 10.29 40 06:48 23.12.2022
545 Clouds -5 1027 81 10000 6.69 40 23:23 22.12.2022
546 Clear -6 1027 81 10000 7.72 50 22:57 22.12.2022
547 Clear -5 1028 78 10000 5.66 40 21:26 22.12.2022
548 Clouds -5 1029 79 10000 7.72 40 19:26 22.12.2022
549 Clouds -5 1029 79 10000 7.72 40 19:26 22.12.2022
550 Clear -5 1030 79 10000 7.2 30 18:51 22.12.2022
551 Clear -6 1030 80 10000 7.2 40 17:31 22.12.2022
552 Clouds -6 1031 80 10000 6.69 40 16:39 22.12.2022
553 Clouds -7 1032 81 10000 7.2 50 15:35 22.12.2022
554 Clouds -7 1033 84 10000 7.72 50 14:51 22.12.2022
555 Clear -8 1033 87 10000 4.12 20 13:35 22.12.2022
556 Clouds -7 1033 86 10000 4.63 30 12:59 22.12.2022
557 Clouds -8 1033 86 10000 4.12 30 10:55 22.12.2022
558 Clouds -8 1033 85 10000 4.12 30 10:30 22.12.2022
559 Clear -7 1033 83 10000 3.09 30 09:21 22.12.2022
560 Clouds -7 1033 83 10000 1.54 30 08:28 22.12.2022
561 Clouds -7 1033 81 10000 1.54 300 06:41 22.12.2022
562 Clouds -4 1033 75 10000 2.57 340 04:18 22.12.2022
563 Clouds -1 1029 73 10000 5.66 270 23:51 21.12.2022
564 Clouds 0 1028 75 10000 6.17 240 22:24 21.12.2022
565 Clouds 0 1028 76 10000 5.66 240 21:24 21.12.2022
566 Clouds 1 1028 76 10000 7.72 220 20:54 21.12.2022
567 Clouds 0 1028 78 10000 7.72 220 20:29 21.12.2022
568 Clouds 0 1027 79 10000 6.69 230 19:44 21.12.2022
569 Clouds 0 1027 79 10000 6.69 230 19:25 21.12.2022
570 Clouds 0 1028 79 10000 7.2 180 18:47 21.12.2022
571 Clouds 0 1028 80 10000 5.66 170 17:49 21.12.2022
572 Clouds -3 1029 84 10000 5.66 170 14:59 21.12.2022
573 Clouds -4 1029 87 10000 3.6 170 13:28 21.12.2022
574 Clouds -5 1030 88 10000 5.14 130 11:47 21.12.2022
575 Clouds -5 1030 88 10000 5.14 130 11:20 21.12.2022
576 Clouds -5 1030 86 10000 3.6 170 09:47 21.12.2022
577 Clouds -4 1030 83 10000 5.66 230 07:48 21.12.2022
578 Clouds -5 1030 85 10000 5.66 240 03:48 21.12.2022
579 Clear -4 1030 84 10000 4.63 240 22:56 20.12.2022
580 Clouds -2 1030 81 10000 6.17 240 21:23 20.12.2022
581 Clouds -2 1029 80 10000 5.66 250 20:24 20.12.2022
582 Clouds -2 1029 80 10000 6.69 240 19:41 20.12.2022
583 Clouds -2 1030 81 10000 5.14 220 18:37 20.12.2022
584 Clouds -2 1030 82 10000 5.14 220 18:19 20.12.2022
585 Clouds -2 1030 83 10000 5.14 240 17:46 20.12.2022
586 Clouds -3 1030 86 10000 4.63 230 16:37 20.12.2022
587 Clouds -3 1030 86 10000 5.66 240 15:36 20.12.2022
588 Clouds -3 1029 86 10000 4.63 240 14:48 20.12.2022
589 Clouds -3 1029 86 10000 4.63 240 14:28 20.12.2022
590 Clouds -3 1028 86 10000 3.6 250 12:58 20.12.2022
591 Clouds -3 1028 86 10000 4.12 260 12:28 20.12.2022
592 Clouds -3 1028 86 10000 4.12 260 11:37 20.12.2022
593 Clouds -2 1027 85 10000 6.17 270 08:49 20.12.2022
594 Clouds -2 1024 78 10000 4.12 270 03:40 20.12.2022
595 Clouds -1 1021 77 10000 5.14 290 22:42 19.12.2022
596 Clouds 0 1020 78 10000 4.63 280 21:56 19.12.2022
597 Clear 0 1018 81 10000 4.12 280 19:58 19.12.2022
598 Clear 0 1018 81 10000 4.12 280 19:39 19.12.2022
599 Clouds -1 1018 84 10000 4.63 280 18:33 19.12.2022
600 Clouds -2 1018 86 10000 5.14 240 16:52 19.12.2022
601 Clouds -3 1016 90 10000 4.12 230 13:41 19.12.2022
602 Clouds -3 1016 89 10000 4.12 260 12:21 19.12.2022
603 Clouds -3 1015 89 10000 3.6 210 10:55 19.12.2022
604 Clouds -2 1014 86 10000 4.63 250 07:44 19.12.2022
605 Clouds -2 1013 85 10000 3.6 280 03:42 19.12.2022
606 Clear -2 1010 86 10000 6.17 240 22:40 18.12.2022
607 Clear -1 1010 84 10000 6.69 240 21:46 18.12.2022
608 Clear -1 1010 85 10000 6.17 230 21:22 18.12.2022
609 Clear -1 1010 85 10000 6.17 230 21:22 18.12.2022
610 Clouds 0 1009 84 10000 5.66 240 20:32 18.12.2022
611 Clouds 0 1008 85 10000 6.17 250 19:41 18.12.2022
612 Clouds -1 1008 86 10000 4.12 250 18:29 18.12.2022
613 Snow -1 1008 88 10000 4.12 240 17:22 18.12.2022
614 Clouds -2 1008 90 10000 6.69 250 15:40 18.12.2022
615 Clouds -2 1008 90 10000 6.69 250 15:20 18.12.2022
616 Clouds -1 1008 90 10000 5.14 240 14:20 18.12.2022
617 Clouds -1 1007 92 10000 4.63 250 12:57 18.12.2022
618 Clouds -1 1007 92 10000 4.63 250 12:30 18.12.2022
619 Clouds -1 1007 92 10000 5.66 240 11:20 18.12.2022
620 Clouds -1 1007 92 10000 5.14 250 09:20 18.12.2022
621 Clouds -1 1006 92 10000 4.12 240 08:45 18.12.2022
622 Mist 0 1005 91 9656 4.12 240 06:24 18.12.2022
623 Clouds 0 1006 94 4828 3.6 240 03:41 18.12.2022
624 Snow 0 1006 95 4828 3.09 250 01:48 18.12.2022
625 Clouds 0 1005 94 1609 2.06 280 22:24 17.12.2022
626 Snow 0 1004 94 4023 3.09 350 19:46 17.12.2022
627 Snow 0 1004 95 1207 4.12 20 17:19 17.12.2022
628 Snow -1 1004 95 4023 5.14 30 14:44 17.12.2022
629 Snow -1 1005 96 2012 6.69 40 12:29 17.12.2022
630 Snow -1 1005 96 2012 6.17 40 10:51 17.12.2022
631 Snow -1 1005 96 1609 7.2 40 09:57 17.12.2022
632 Snow 0 1006 96 4023 7.72 40 08:35 17.12.2022
633 Clouds 0 1006 95 2816 7.2 40 06:46 17.12.2022
634 Snow 0 1010 95 4023 8.23 50 00:18 17.12.2022
635 Clouds 1 1012 91 10000 8.23 50 21:39 16.12.2022
636 Rain 0 1012 93 10000 8.23 50 20:24 16.12.2022
637 Snow -1 1015 93 2414 8.75 50 17:47 16.12.2022
638 Snow 0 1017 91 1006 7.72 80 14:52 16.12.2022
639 Snow 0 1018 88 2414 9.77 80 14:27 16.12.2022
640 Clouds 1 1018 73 10000 9.26 80 12:22 16.12.2022
641 Clouds 2 1018 75 10000 8.75 80 11:35 16.12.2022
642 Clouds 2 1019 79 10000 7.2 50 09:39 16.12.2022
643 Clouds 2 1020 82 10000 6.69 50 08:27 16.12.2022
644 Clouds 1 1020 84 10000 6.69 50 07:54 16.12.2022
645 Clouds 1 1020 84 10000 6.69 50 07:54 16.12.2022
646 Clouds 2 1023 78 10000 6.69 60 00:22 16.12.2022
647 Clear 3 1023 73 10000 7.72 60 22:33 15.12.2022
648 Clear 4 1023 71 10000 7.72 50 21:24 15.12.2022
649 Clouds 5 1024 69 10000 6.69 60 19:41 15.12.2022
650 Clouds 4 1025 71 10000 6.17 80 18:51 15.12.2022
651 Clear 4 1026 75 10000 7.2 60 17:27 15.12.2022
652 Clear 2 1027 81 10000 8.23 50 15:45 15.12.2022
653 Clear 1 1027 84 10000 7.2 50 14:38 15.12.2022
654 Clouds 1 1028 81 10000 6.69 40 12:48 15.12.2022
655 Clouds 2 1028 80 10000 6.69 50 11:41 15.12.2022
656 Clouds 2 1028 78 10000 5.14 40 08:55 15.12.2022
657 Clouds 2 1028 77 10000 5.66 50 07:58 15.12.2022
658 Clouds 1 1027 73 10000 3.6 40 05:36 15.12.2022
659 Clouds -1 1025 66 10000 4.12 240 22:40 14.12.2022
660 Clouds 0 1024 62 10000 3.09 270 21:24 14.12.2022
661 Clouds 0 1024 60 10000 3.6 260 20:36 14.12.2022
662 Clouds 0 1024 62 10000 3.6 250 19:51 14.12.2022
663 Clouds -4 1025 69 10000 5.14 250 16:58 14.12.2022
664 Clouds -4 1025 70 10000 5.14 250 16:38 14.12.2022
665 Clouds -7 1024 76 10000 4.12 270 14:50 14.12.2022
666 Clear -8 1023 71 10000 3.09 300 12:56 14.12.2022
667 Clear -8 1022 70 10000 4.63 310 10:45 14.12.2022
668 Clear -8 1022 70 10000 4.63 310 10:22 14.12.2022
669 Clouds -7 1023 66 10000 6.69 330 06:37 14.12.2022
670 Clouds 0 1022 65 10000 7.72 260 21:57 13.12.2022
671 Clouds 0 1022 64 10000 7.72 260 21:37 13.12.2022
672 Clear 0 1022 64 10000 7.72 250 20:47 13.12.2022
673 Clear -3 1024 67 10000 8.75 240 18:55 13.12.2022
674 Clouds -5 1026 74 10000 6.69 250 16:36 13.12.2022
675 Clear -8 1026 82 10000 5.66 240 14:59 13.12.2022
676 Clear -8 1026 80 10000 4.12 260 13:33 13.12.2022
677 Clear -8 1026 77 10000 3.6 230 10:49 13.12.2022
678 Clear -8 1026 77 10000 3.6 230 10:26 13.12.2022
679 Clear -7 1026 74 10000 3.6 250 08:18 13.12.2022
680 Clear -4 1027 53 10000 3.09 270 22:37 12.12.2022
681 Clear -4 1027 49 10000 2.06 280 21:58 12.12.2022
682 Clear -4 1027 51 10000 3.09 290 19:46 12.12.2022
683 Clear -5 1028 57 10000 3.09 360 18:25 12.12.2022
684 Clear -8 1028 70 10000 5.14 30 15:41 12.12.2022
685 Clear -9 1026 77 10000 4.63 20 13:51 12.12.2022
686 Clouds -8 1025 80 10000 6.17 30 09:46 12.12.2022
687 Clouds -8 1025 79 10000 6.17 30 09:18 12.12.2022
688 Clouds -6 1023 74 10000 6.69 20 04:51 12.12.2022
689 Clouds -5 1023 66 10000 8.75 30 01:51 12.12.2022
690 Clouds -5 1024 68 10000 6.69 50 22:18 11.12.2022
691 Clouds -5 1024 68 10000 7.2 40 20:37 11.12.2022
692 Clouds -6 1025 67 10000 8.23 40 19:39 11.12.2022
693 Clouds -6 1026 68 10000 7.72 40 18:40 11.12.2022
694 Clouds -6 1027 69 10000 6.69 40 17:53 11.12.2022
695 Clouds -7 1028 69 10000 8.75 30 16:53 11.12.2022
696 Clouds -7 1028 71 10000 8.75 30 16:29 11.12.2022
697 Clouds -7 1028 73 10000 7.2 20 15:45 11.12.2022
698 Clouds -8 1028 75 10000 6.17 30 13:35 11.12.2022
699 Clouds -8 1029 74 10000 6.17 50 12:42 11.12.2022
700 Clouds -8 1030 76 10000 8.23 40 10:44 11.12.2022
701 Clear -8 1033 79 10000 6.17 40 03:38 11.12.2022
702 Clear -6 1035 71 10000 7.72 50 00:28 11.12.2022
703 Clear -5 1034 66 10000 6.17 40 22:38 10.12.2022
704 Clear -5 1034 65 10000 6.17 40 22:19 10.12.2022
705 Clear -5 1034 64 10000 7.72 40 21:18 10.12.2022
706 Clear -5 1034 64 10000 7.72 40 20:19 10.12.2022
707 Clear -6 1036 66 10000 9.26 50 17:54 10.12.2022
708 Clear -7 1037 68 10000 10.8 50 16:47 10.12.2022
709 Clear -8 1037 71 10000 8.23 30 15:52 10.12.2022
710 Clear -8 1037 71 10000 8.23 30 15:33 10.12.2022
711 Clear -10 1037 74 10000 8.75 40 13:44 10.12.2022
712 Clear -10 1037 74 10000 7.72 30 12:27 10.12.2022
713 Clear -10 1036 76 10000 6.17 40 10:57 10.12.2022
714 Clear -9 1036 74 10000 6.69 40 09:52 10.12.2022
715 Clear -9 1036 75 10000 6.17 40 07:23 10.12.2022
716 Clear -9 1036 68 10000 9.26 30 06:54 10.12.2022
717 Clear -4 1033 65 10000 5.14 20 23:51 09.12.2022
718 Clear -2 1032 61 10000 5.66 20 22:43 09.12.2022
719 Clear -2 1032 54 10000 3.6 360 21:41 09.12.2022
720 Clear -1 1032 52 10000 3.6 350 20:59 09.12.2022
721 Clear -1 1032 51 10000 5.14 10 19:47 09.12.2022
722 Clear -3 1032 59 10000 4.63 20 17:56 09.12.2022
723 Clear -3 1032 59 10000 4.63 20 17:56 09.12.2022
724 Clear -3 1032 61 10000 4.63 20 17:32 09.12.2022
725 Clear -3 1033 67 10000 5.14 350 16:27 09.12.2022
726 Clear -4 1032 68 10000 5.14 20 15:31 09.12.2022
727 Clear -5 1031 79 10000 4.12 10 12:52 09.12.2022
728 Clear -4 1030 80 10000 3.09 360 10:51 09.12.2022
729 Clear -4 1030 81 10000 3.09 360 10:23 09.12.2022
730 Clear -2 1029 80 10000 3.09 10 07:29 09.12.2022
731 Clouds -1 1028 79 10000 3.6 20 03:18 09.12.2022
732 Clear 2 1027 73 10000 2.06 10 23:36 08.12.2022
733 Clear 5 1025 62 10000 4.63 10 20:56 08.12.2022
734 Clear 5 1025 66 10000 4.12 350 18:59 08.12.2022
735 Clouds 4 1026 73 10000 6.17 360 16:50 08.12.2022
736 Clouds 3 1025 81 10000 4.63 360 14:35 08.12.2022
737 Clouds 3 1024 86 10000 3.09 290 13:40 08.12.2022
738 Clouds 4 1023 90 10000 2.57 290 10:37 08.12.2022
739 Clouds 4 1023 92 10000 2.57 290 09:32 08.12.2022
740 Clouds 5 1021 90 10000 3.6 260 07:58 08.12.2022
741 Mist 7 1018 96 2816 3.09 270 22:44 07.12.2022
742 Rain 7 1018 96 2414 3.09 240 22:18 07.12.2022
743 Mist 8 1018 96 8047 3.09 250 21:47 07.12.2022
744 Mist 8 1018 96 4828 2.57 200 20:35 07.12.2022
745 Mist 9 1018 95 9656 3.09 190 18:33 07.12.2022
746 Mist 9 1019 95 4828 4.63 160 15:44 07.12.2022
747 Mist 9 1019 95 9656 3.6 140 13:36 07.12.2022
748 Rain 8 1020 92 10000 5.14 150 10:56 07.12.2022
749 Clouds 8 1020 92 10000 4.12 120 10:26 07.12.2022
750 Clouds 8 1020 92 10000 4.12 130 09:31 07.12.2022
751 Clouds 8 1021 93 10000 4.12 100 07:41 07.12.2022
752 Mist 7 1022 95 2816 3.6 100 05:25 07.12.2022
753 Mist 4 1023 95 2012 2.57 20 02:57 07.12.2022
754 Rain 4 1025 92 8047 4.12 340 21:59 06.12.2022
755 Rain 5 1025 83 10000 3.6 210 19:35 06.12.2022
756 Clouds 8 1026 72 10000 1.34 208 17:19 06.12.2022
757 Clouds 7 1025 71 10000 7.2 170 16:30 06.12.2022
758 Clouds 7 1025 71 10000 6.69 180 15:37 06.12.2022
759 Clouds 6 1024 72 10000 7.72 170 14:40 06.12.2022
760 Clouds 5 1024 71 10000 7.72 170 14:19 06.12.2022
761 Clouds 5 1023 67 10000 8.75 170 12:41 06.12.2022
762 Clouds 5 1022 62 10000 7.72 170 11:58 06.12.2022
763 Clouds 5 1022 59 10000 7.72 170 07:51 06.12.2022
764 Clouds 4 1021 58 10000 7.2 170 03:26 06.12.2022
765 Clouds 4 1019 62 10000 8.23 170 23:45 05.12.2022
766 Clear 5 1018 61 10000 6.69 170 21:56 05.12.2022
767 Clear 5 1017 59 10000 7.2 170 20:55 05.12.2022
768 Clear 5 1017 59 10000 7.2 170 20:23 05.12.2022
769 Clear 5 1016 55 10000 7.72 180 19:37 05.12.2022
770 Clear 4 1017 55 10000 9.77 190 16:55 05.12.2022
771 Clear 3 1017 59 10000 10.29 180 15:39 05.12.2022
772 Clouds 2 1017 63 10000 8.23 180 14:56 05.12.2022
773 Clouds 1 1016 66 10000 8.23 180 12:58 05.12.2022
774 Clouds 1 1016 66 10000 8.23 180 12:38 05.12.2022
775 Clouds 1 1016 68 10000 6.69 180 11:45 05.12.2022
776 Clouds 1 1016 70 10000 5.14 180 09:32 05.12.2022
777 Clouds -1 1017 66 10000 5.66 140 00:19 05.12.2022
778 Clouds -1 1018 61 10000 5.14 130 22:44 04.12.2022
779 Clouds -1 1018 60 10000 5.14 130 22:20 04.12.2022
780 Clouds -1 1019 58 10000 4.12 170 21:39 04.12.2022
781 Clouds -1 1019 59 10000 3.6 210 20:26 04.12.2022
782 Clouds -1 1020 57 10000 3.09 180 19:25 04.12.2022
783 Clouds -1 1020 56 10000 3.6 200 18:37 04.12.2022
784 Clear -2 1021 56 10000 2.57 290 17:23 04.12.2022
785 Clear -2 1022 59 10000 4.63 310 16:37 04.12.2022
786 Clear -2 1022 59 10000 4.63 310 16:19 04.12.2022
787 Clear -3 1023 62 10000 4.12 300 15:44 04.12.2022
788 Clear -4 1022 65 10000 3.09 290 14:43 04.12.2022
789 Clouds -4 1022 65 10000 4.63 280 13:18 04.12.2022
790 Clouds -4 1022 65 10000 4.12 280 12:42 04.12.2022
791 Clouds -3 1021 65 10000 4.63 300 11:46 04.12.2022
792 Clouds -2 1019 61 10000 9.26 290 09:20 04.12.2022
793 Clouds 0 1017 67 10000 10.8 280 06:34 04.12.2022
794 Clouds 6 1005 80 10000 20.06 250 23:44 03.12.2022
795 Clouds 8 1003 82 10000 14.4 230 22:51 03.12.2022
796 Clouds 8 1001 89 10000 10.8 220 21:55 03.12.2022
797 Clouds 7 1001 91 10000 7.72 170 21:19 03.12.2022
798 Clouds 6 1004 91 10000 7.72 180 19:28 03.12.2022
799 Clouds 6 1005 91 10000 7.72 180 18:39 03.12.2022
800 Rain 4 1010 87 9656 9.77 170 15:53 03.12.2022
801 Rain 4 1011 80 10000 10.8 170 14:23 03.12.2022
802 Clouds 5 1012 66 10000 9.77 170 12:54 03.12.2022
803 Clouds 5 1012 67 10000 9.77 170 12:22 03.12.2022
804 Clouds 4 1014 66 10000 8.75 170 10:21 03.12.2022
805 Clouds 4 1018 68 10000 8.75 170 06:56 03.12.2022
806 Clouds 3 1025 72 10000 7.2 140 00:31 03.12.2022
807 Clouds 3 1026 72 10000 6.69 140 22:41 02.12.2022
808 Clouds 4 1027 69 10000 4.63 140 20:53 02.12.2022
809 Clouds 3 1028 70 10000 4.12 170 19:23 02.12.2022
810 Clouds 0 1030 79 10000 2.57 160 15:59 02.12.2022
811 Clear -2 1030 81 10000 2.57 160 14:43 02.12.2022
812 Clear -3 1030 82 10000 2.57 160 14:23 02.12.2022
813 Clear -3 1030 76 10000 3.09 210 12:55 02.12.2022
814 Clouds -4 1029 76 10000 2.06 210 11:40 02.12.2022
815 Clear -3 1029 72 10000 2.06 260 08:35 02.12.2022
816 Clear -2 1028 69 10000 1.54 250 07:24 02.12.2022
817 Clouds 1 1022 59 10000 8.23 260 23:49 01.12.2022
818 Clouds 1 1019 59 10000 10.29 270 21:49 01.12.2022
819 Clouds 1 1019 58 10000 10.29 270 21:31 01.12.2022
820 Clouds 1 1016 64 10000 9.26 280 19:48 01.12.2022
821 Clouds 1 1014 62 10000 11.83 280 18:23 01.12.2022
822 Clouds 0 1011 78 10000 8.75 260 15:59 01.12.2022
823 Clouds 0 1007 69 10000 10.29 230 11:55 01.12.2022
824 Clouds 0 1007 68 10000 10.8 240 10:28 01.12.2022
825 Clouds 1 1006 67 10000 11.83 250 09:54 01.12.2022
826 Clouds 1 1006 67 10000 11.83 250 09:36 01.12.2022
827 Clouds 5 1001 80 10000 11.32 250 02:00 01.12.2022
828 Rain 8 996 94 10000 8.75 200 22:39 30.11.2022
829 Rain 6 997 94 8047 6.69 160 21:19 30.11.2022
830 Rain 6 998 92 8047 7.2 160 20:47 30.11.2022
831 Rain 6 998 92 8047 7.2 160 20:23 30.11.2022
832 Rain 5 1002 90 9656 10.8 140 18:34 30.11.2022
833 Mist 4 1005 86 8047 11.32 140 17:36 30.11.2022
834 Clouds 4 1009 81 10000 9.77 140 16:19 30.11.2022
835 Clouds 4 1012 74 10000 9.77 140 14:39 30.11.2022
836 Clouds 3 1012 74 10000 9.77 140 14:20 30.11.2022
837 Clouds 1 1015 74 10000 6.17 120 11:35 30.11.2022
838 Clouds 1 1020 75 10000 4.12 100 08:40 30.11.2022
839 Clouds 1 1021 75 10000 5.14 110 07:58 30.11.2022
840 Clouds 1 1024 74 10000 5.66 120 04:24 30.11.2022
841 Clouds 0 1025 73 10000 4.12 80 23:22 29.11.2022
842 Clouds 0 1025 72 10000 3.09 100 21:47 29.11.2022
843 Clouds 0 1025 71 10000 4.12 130 20:38 29.11.2022
844 Clouds 0 1025 71 10000 3.6 80 19:20 29.11.2022
845 Clouds 0 1026 71 10000 2.57 100 17:36 29.11.2022
846 Clouds -1 1026 73 10000 3.09 100 16:27 29.11.2022
847 Clouds -2 1025 73 10000 2.06 50 14:51 29.11.2022
848 Clouds -2 1025 72 10000 2.57 40 13:36 29.11.2022
849 Clouds -2 1024 73 10000 3.09 30 12:35 29.11.2022
850 Clouds -2 1023 73 10000 3.6 50 11:30 29.11.2022
851 Clouds -2 1023 72 10000 4.12 30 10:23 29.11.2022
852 Clouds -2 1022 73 10000 4.63 40 08:42 29.11.2022
853 Clouds -1 1019 71 10000 3.6 20 05:52 29.11.2022
854 Clouds 1 1014 67 10000 6.17 350 23:38 28.11.2022
855 Clouds 1 1014 67 10000 6.17 350 23:19 28.11.2022
856 Clouds 2 1011 68 10000 5.14 350 21:55 28.11.2022
857 Clouds 2 1011 67 10000 5.14 350 21:36 28.11.2022
858 Clouds 3 1009 67 10000 5.66 330 20:19 28.11.2022
859 Clear 4 1007 68 10000 6.69 340 18:39 28.11.2022
860 Clouds 5 1006 69 10000 7.72 320 17:51 28.11.2022
861 Clouds 4 1005 75 10000 6.17 320 16:59 28.11.2022
862 Clouds 4 1002 84 10000 4.12 310 14:30 28.11.2022
863 Clouds 4 1002 88 10000 3.6 320 13:52 28.11.2022
864 Clouds 4 1000 91 10000 3.6 320 12:43 28.11.2022
865 Mist 3 998 93 4828 3.6 290 10:55 28.11.2022
866 Clouds 3 994 93 10000 5.66 360 07:53 28.11.2022
867 Clouds 4 994 88 10000 3.6 30 04:45 28.11.2022
868 Mist 4 994 87 10000 5.14 50 03:59 28.11.2022
869 Clouds 4 995 88 10000 6.17 50 03:20 28.11.2022
870 Clouds 7 998 72 10000 4.12 40 23:43 27.11.2022
871 Clouds 9 1000 63 10000 3.6 150 21:49 27.11.2022
872 Clouds 10 1001 56 10000 4.12 180 20:36 27.11.2022
873 Clouds 9 1003 62 10000 4.63 220 18:18 27.11.2022
874 Clear 6 1006 71 10000 2.57 200 15:36 27.11.2022
875 Clear 4 1007 74 10000 2.57 180 13:34 27.11.2022
876 Clear 4 1007 72 10000 3.6 220 10:57 27.11.2022
877 Clear 5 1007 69 10000 4.12 210 08:57 27.11.2022
878 Clear 6 1007 64 10000 8.75 230 04:47 27.11.2022
879 Clear 7 1007 66 10000 7.2 230 22:39 26.11.2022
880 Clear 7 1008 64 10000 7.2 220 20:56 26.11.2022
881 Clear 7 1008 69 10000 9.77 210 19:37 26.11.2022
882 Clouds 5 1011 70 10000 7.72 240 18:26 26.11.2022
883 Clouds 3 1013 77 10000 6.69 240 16:25 26.11.2022
884 Clouds 1 1014 73 10000 2.06 220 13:51 26.11.2022
885 Clouds 1 1014 70 10000 4.63 300 12:23 26.11.2022
886 Clouds 1 1013 71 10000 3.09 280 10:52 26.11.2022
887 Clouds 2 1013 67 10000 6.17 280 09:32 26.11.2022
888 Clouds 2 1012 72 10000 5.66 280 07:21 26.11.2022
889 Clouds 4 1004 85 10000 7.72 270 21:47 25.11.2022
890 Clouds 4 1003 86 10000 7.72 270 21:27 25.11.2022
891 Mist 4 1001 91 9656 8.23 270 19:57 25.11.2022
892 Mist 3 1003 92 8047 5.14 180 16:50 25.11.2022
893 Clouds 2 1005 90 10000 4.63 160 14:45 25.11.2022
894 Clouds -2 1012 86 10000 2.57 360 09:36 25.11.2022
895 Clouds -2 1014 86 10000 3.6 20 08:41 25.11.2022
896 Clouds -3 1016 84 10000 3.09 30 06:55 25.11.2022
897 Clouds -3 1016 85 10000 3.09 30 06:26 25.11.2022
898 Clear 0 1021 81 10000 2.06 90 00:29 25.11.2022
899 Clear 1 1023 78 10000 3.6 100 22:57 24.11.2022
900 Clear 1 1023 75 10000 4.63 130 21:59 24.11.2022
901 Clear 3 1024 72 10000 4.63 130 20:45 24.11.2022
902 Clouds 2 1025 72 10000 3.6 120 19:20 24.11.2022
903 Clouds 1 1027 71 10000 1.54 100 17:43 24.11.2022
904 Clouds 1 1027 72 10000 1.54 100 17:20 24.11.2022
905 Clouds -1 1028 72 10000 1.54 50 15:29 24.11.2022
906 Clouds -3 1029 74 10000 2.06 140 13:55 24.11.2022
907 Clouds -3 1029 77 10000 1.54 30 11:59 24.11.2022
908 Clouds -3 1029 74 10000 3.09 60 10:37 24.11.2022
909 Clouds -3 1029 70 10000 2.57 70 07:54 24.11.2022
910 Clouds -2 1028 78 10000 4.12 60 03:23 24.11.2022
911 Clouds 1 1026 78 10000 3.09 240 23:46 23.11.2022
912 Clouds 1 1025 75 10000 3.6 220 22:24 23.11.2022
913 Clouds 2 1024 71 10000 3.09 200 21:30 23.11.2022
914 Clouds 2 1024 71 10000 3.09 210 20:45 23.11.2022
915 Clouds 2 1024 72 10000 3.09 210 19:27 23.11.2022
916 Clouds 2 1024 72 10000 3.09 210 19:27 23.11.2022
917 Clouds 2 1024 72 10000 3.09 210 19:27 23.11.2022
918 Clouds 2 1023 76 10000 2.06 240 18:41 23.11.2022
919 Clouds 0 1023 83 10000 2.57 240 16:42 23.11.2022
920 Clouds -1 1021 85 10000 3.09 270 13:40 23.11.2022
921 Clouds -1 1021 88 10000 3.09 270 13:21 23.11.2022
922 Clouds -1 1020 87 10000 2.57 270 12:21 23.11.2022
923 Clouds -1 1019 87 10000 1.03 240 11:41 23.11.2022
924 Clouds -1 1019 87 10000 1.54 300 10:43 23.11.2022
925 Clouds -1 1019 85 10000 2.06 220 09:44 23.11.2022
926 Clouds -1 1019 85 10000 2.57 200 09:25 23.11.2022
927 Clouds -1 1018 84 9656 1.54 230 08:37 23.11.2022
928 Clouds -1 1019 77 10000 2.57 200 06:23 23.11.2022
929 Clouds 0 1019 70 10000 1.34 203 05:18 23.11.2022
930 Clouds -1 1022 63 10000 3.09 160 23:24 22.11.2022
931 Clouds -1 1022 64 10000 3.6 240 22:33 22.11.2022
932 Clear -1 1023 61 10000 5.14 250 21:34 22.11.2022
933 Clear 0 1023 59 10000 4.63 210 20:50 22.11.2022
934 Clear 0 1024 58 10000 5.14 230 19:57 22.11.2022
935 Clear -1 1026 58 10000 5.14 220 17:56 22.11.2022
936 Clear -2 1026 58 10000 5.14 220 17:26 22.11.2022
937 Clear -2 1026 58 10000 5.14 220 17:26 22.11.2022
938 Clouds -2 1027 62 10000 1.79 334 15:56 22.11.2022
939 Clear -5 1027 69 10000 3.09 260 13:47 22.11.2022
940 Clear -4 1026 63 10000 5.14 290 11:52 22.11.2022
941 Clear -2 1023 65 10000 7.72 300 09:25 22.11.2022
942 Clouds 0 1019 65 10000 9.77 300 07:55 22.11.2022
943 Clouds 4 1012 65 10000 10.8 240 03:47 22.11.2022
944 Clouds 0 1013 68 10000 6.69 180 23:41 21.11.2022
945 Clouds 0 1013 71 10000 7.72 180 22:49 21.11.2022
946 Clouds 0 1014 69 10000 8.23 170 21:59 21.11.2022
947 Clouds 0 1015 68 10000 10.29 170 20:56 21.11.2022
948 Clouds 0 1017 66 10000 8.75 170 19:42 21.11.2022
949 Clouds -1 1019 67 10000 7.72 170 18:54 21.11.2022
950 Clouds -2 1019 67 10000 7.72 170 18:34 21.11.2022
951 Clouds -4 1022 67 10000 4.63 180 16:56 21.11.2022
952 Clouds -4 1023 67 10000 4.63 170 16:37 21.11.2022
953 Clouds -5 1024 64 10000 5.66 150 15:53 21.11.2022
954 Clouds -6 1025 62 10000 4.63 160 14:58 21.11.2022
955 Clouds -8 1025 70 10000 4.63 170 13:52 21.11.2022
956 Clear -10 1025 70 10000 3.6 220 11:39 21.11.2022
957 Clear -9 1025 70 10000 5.66 240 09:19 21.11.2022
958 Clear -9 1024 67 10000 4.63 230 07:42 21.11.2022
959 Clouds -5 1015 53 10000 10.29 270 22:48 20.11.2022
960 Snow -4 1013 51 4828 13.38 260 21:36 20.11.2022
961 Clouds -3 1011 45 8047 12.86 270 20:33 20.11.2022
962 Clouds -1 1011 62 10000 10.8 240 18:46 20.11.2022
963 Clouds -2 1010 74 10000 9.26 250 16:46 20.11.2022
964 Clouds -3 1009 77 10000 10.8 240 15:32 20.11.2022
965 Clouds -2 1008 74 10000 10.8 240 14:54 20.11.2022
966 Clouds -2 1008 75 10000 9.77 250 13:34 20.11.2022
967 Clouds -2 1008 80 10000 5.14 240 12:44 20.11.2022
968 Clouds -2 1008 85 9656 7.72 210 11:38 20.11.2022
969 Clouds -2 1008 85 3219 7.2 210 10:51 20.11.2022
970 Clouds -2 1009 77 10000 5.66 170 09:42 20.11.2022
971 Clouds -2 1010 77 10000 5.14 180 08:47 20.11.2022
972 Clouds -2 1011 77 10000 7.72 220 07:30 20.11.2022
973 Clouds -1 1012 68 10000 7.72 220 05:23 20.11.2022
974 Clouds 0 1014 75 10000 9.26 220 01:23 20.11.2022
975 Clouds 0 1015 78 10000 7.2 220 00:42 20.11.2022
976 Clouds 0 1015 81 10000 4.12 160 00:24 20.11.2022
977 Clouds 0 1015 81 10000 6.69 230 23:54 19.11.2022
978 Clouds 0 1015 81 10000 6.69 230 23:25 19.11.2022
979 Clouds 0 1015 80 10000 4.12 130 22:41 19.11.2022
980 Clouds 1 1015 74 10000 5.14 240 21:36 19.11.2022
981 Clouds 1 1015 74 10000 5.14 240 21:18 19.11.2022
982 Clouds 1 1016 72 10000 5.66 220 20:38 19.11.2022
983 Clouds 1 1016 75 10000 8.75 220 19:34 19.11.2022
984 Clouds 1 1017 76 10000 8.75 230 17:42 19.11.2022
985 Clouds 1 1017 76 10000 8.75 230 17:23 19.11.2022
986 Clouds 0 1018 77 10000 7.2 230 16:35 19.11.2022
987 Clouds -2 1018 86 10000 4.12 240 14:40 19.11.2022
988 Mist -3 1017 91 4828 6.17 200 12:54 19.11.2022
989 Clouds -3 1017 93 6437 2.57 150 11:20 19.11.2022
990 Mist -3 1017 93 6437 2.06 120 09:44 19.11.2022
991 Snow -3 1016 93 2816 1.54 20 07:52 19.11.2022
992 Clouds -3 1016 88 8047 1.54 140 04:43 19.11.2022
993 Clouds -3 1014 85 10000 3.09 240 00:30 19.11.2022
994 Clouds -3 1013 84 10000 4.12 280 23:26 18.11.2022
995 Clouds -2 1013 86 10000 2.57 250 22:18 18.11.2022
996 Clouds -2 1013 86 10000 2.57 250 22:18 18.11.2022
997 Clouds -2 1012 86 9656 1.03 0 21:35 18.11.2022
998 Clouds -2 1012 85 4023 1.03 0 20:56 18.11.2022
999 Clouds -2 1012 85 10000 3.09 340 20:20 18.11.2022
1000 Clouds -2 1012 83 10000 1.03 0 19:34 18.11.2022
1001 Clouds -3 1012 84 4828 1.03 160 17:45 18.11.2022
1002 Snow -5 1013 87 10000 2.57 140 14:47 18.11.2022
1003 Clouds -7 1013 84 10000 2.57 170 11:49 18.11.2022
1004 Clear -7 1013 86 10000 2.57 180 10:22 18.11.2022
1005 Clear -5 1013 78 10000 3.6 270 07:52 18.11.2022
1006 Clouds -4 1013 76 10000 5.66 250 05:27 18.11.2022
1007 Clouds -3 1012 69 10000 7.2 270 01:57 18.11.2022
1008 Clouds -2 1009 70 10000 9.77 270 22:56 17.11.2022
1009 Clouds -1 1008 70 10000 7.2 260 20:48 17.11.2022
1010 Clouds -1 1007 69 10000 8.75 260 19:51 17.11.2022
1011 Clouds -1 1007 70 10000 8.75 260 19:20 17.11.2022
1012 Clouds 0 1007 69 10000 9.77 260 18:27 17.11.2022
1013 Clouds -1 1007 71 10000 9.26 260 17:30 17.11.2022
1014 Clouds -1 1007 71 10000 9.26 260 17:30 17.11.2022
1015 Clouds -1 1007 79 10000 7.2 270 15:42 17.11.2022
1016 Clouds -1 1007 82 10000 5.66 250 12:19 17.11.2022
1017 Clouds -1 1008 84 10000 5.14 250 10:30 17.11.2022
1018 Clouds -1 1008 86 10000 6.17 250 07:20 17.11.2022
1019 Clouds 0 1009 92 10000 4.12 310 00:54 17.11.2022
1020 Clouds 0 1009 95 10000 3.09 300 23:21 16.11.2022
1021 Clouds 1 1009 93 10000 2.06 360 21:54 16.11.2022
1022 Snow 1 1009 94 3621 2.57 40 20:31 16.11.2022
1023 Snow 1 1011 94 2816 3.6 50 18:49 16.11.2022
1024 Snow 0 1011 94 1609 3.6 50 18:27 16.11.2022
1025 Snow 0 1015 92 2012 5.14 50 15:41 16.11.2022
1026 Snow -1 1019 88 9656 4.63 40 11:23 16.11.2022
1027 Clouds 0 1026 73 10000 6.69 50 06:54 16.11.2022
1028 Clouds -1 1029 70 10000 3.09 70 01:38 16.11.2022
1029 Clouds 0 1030 67 10000 4.12 70 23:31 15.11.2022
1030 Clouds 1 1031 63 10000 3.09 10 21:42 15.11.2022
1031 Clouds 1 1032 60 10000 2.06 30 19:48 15.11.2022
1032 Clouds 1 1032 60 10000 2.06 350 18:51 15.11.2022
1033 Clouds 1 1033 61 10000 1.54 0 17:36 15.11.2022
1034 Clear 0 1033 63 10000 2.57 80 16:20 15.11.2022
1035 Clear 0 1033 63 10000 2.57 80 16:20 15.11.2022
1036 Clear 0 1034 66 10000 2.57 360 15:37 15.11.2022
1037 Clear -3 1033 75 10000 2.57 320 13:57 15.11.2022
1038 Clear -2 1033 70 10000 3.09 320 12:54 15.11.2022
1039 Clear -2 1032 68 10000 2.57 300 11:22 15.11.2022
1040 Clouds -1 1031 66 10000 2.57 300 09:39 15.11.2022
1041 Clouds 1 1028 60 10000 5.66 290 00:44 15.11.2022
1042 Clouds 1 1028 60 10000 5.66 290 00:23 15.11.2022
1043 Clouds 2 1026 57 10000 7.2 260 21:56 14.11.2022
1044 Clouds 2 1025 56 10000 7.72 260 20:44 14.11.2022
1045 Clouds 2 1025 55 10000 8.23 280 19:46 14.11.2022
1046 Clouds 2 1025 57 10000 8.23 270 18:27 14.11.2022
1047 Clear -2 1022 69 10000 5.66 270 12:55 14.11.2022
1048 Clear -2 1022 69 10000 5.66 270 12:55 14.11.2022
1049 Clear -2 1021 70 10000 5.14 270 11:49 14.11.2022
1050 Clear -2 1020 70 10000 5.66 280 10:59 14.11.2022
1051 Clouds -2 1019 67 10000 5.14 280 08:34 14.11.2022
1052 Clear -1 1018 64 10000 6.17 280 07:52 14.11.2022
1053 Clouds 0 1017 66 10000 7.2 280 04:24 14.11.2022
1054 Clouds 2 1014 67 10000 6.69 280 23:23 13.11.2022
1055 Clouds 3 1012 69 10000 7.72 270 21:42 13.11.2022
1056 Clouds 4 1012 74 10000 7.2 270 20:48 13.11.2022
1057 Clouds 4 1011 85 10000 7.2 270 18:55 13.11.2022
1058 Rain 4 1012 86 10000 5.14 270 17:50 13.11.2022
1059 Clouds 4 1012 84 10000 3.09 310 15:55 13.11.2022
1060 Drizzle 4 1012 85 10000 3.6 300 14:39 13.11.2022
1061 Clouds 5 1011 84 10000 3.09 340 12:56 13.11.2022
1062 Clouds 5 1010 82 10000 2.06 320 11:55 13.11.2022
1063 Clouds 6 1010 78 10000 2.57 330 10:42 13.11.2022
1064 Clouds 7 1008 71 10000 2.06 270 05:53 13.11.2022
1065 Clouds 9 1005 74 10000 6.69 280 23:55 12.11.2022
1066 Clouds 12 1002 79 10000 8.75 280 21:42 12.11.2022
1067 Clouds 12 1002 78 10000 8.75 280 21:19 12.11.2022
1068 Clouds 13 1000 90 10000 9.26 260 19:46 12.11.2022
1069 Mist 10 999 95 4023 3.09 170 16:58 12.11.2022
1070 Mist 10 998 95 3621 2.06 150 15:59 12.11.2022
1071 Clouds 9 997 94 10000 1.54 280 14:46 12.11.2022
1072 Rain 8 994 96 10000 6.17 350 10:39 12.11.2022
1073 Mist 11 996 96 9656 4.63 20 07:48 12.11.2022
1074 Rain 15 1007 89 10000 6.17 150 00:40 12.11.2022
1075 Clouds 17 1010 72 10000 5.14 170 21:31 11.11.2022
1076 Clouds 17 1011 70 10000 3.6 160 20:44 11.11.2022
1077 Clear 17 1012 69 10000 3.6 160 19:28 11.11.2022
1078 Clear 16 1013 69 10000 3.09 180 18:40 11.11.2022
1079 Clear 15 1014 70 10000 3.6 190 17:40 11.11.2022
1080 Clear 13 1015 77 10000 5.14 180 15:21 11.11.2022
1081 Clear 12 1015 81 10000 5.14 170 14:18 11.11.2022
1082 Clear 10 1015 79 10000 4.63 170 12:46 11.11.2022
1083 Clear 10 1016 73 10000 4.63 180 09:32 11.11.2022
1084 Clear 10 1016 72 10000 4.12 180 08:27 11.11.2022
1085 Clouds 13 1016 60 10000 4.63 170 03:48 11.11.2022
1086 Clear 14 1016 55 10000 4.63 170 22:54 10.11.2022
1087 Clouds 15 1017 48 10000 5.14 180 21:51 10.11.2022
1088 Clouds 16 1017 47 10000 5.14 180 21:30 10.11.2022
1089 Clouds 16 1017 47 10000 6.69 230 20:48 10.11.2022
1090 Clouds 16 1017 46 10000 6.69 230 20:20 10.11.2022
1091 Clouds 15 1018 47 10000 5.66 220 18:59 10.11.2022
1092 Clouds 13 1019 50 10000 4.63 180 17:59 10.11.2022
1093 Clouds 11 1020 54 10000 2.06 200 16:25 10.11.2022
1094 Clouds 9 1021 57 10000 4.63 170 13:41 10.11.2022
1095 Clouds 8 1021 57 10000 4.63 180 11:29 10.11.2022
1096 Clouds 8 1022 55 10000 5.66 190 08:33 10.11.2022
1097 Clouds 8 1026 55 10000 4.63 190 01:29 10.11.2022
1098 Clouds 8 1028 52 10000 3.09 160 23:30 09.11.2022
1099 Clouds 8 1029 52 10000 4.63 150 22:28 09.11.2022
1100 Clear 8 1032 52 10000 3.6 170 20:48 09.11.2022
1101 Clear 9 1032 51 10000 3.6 170 20:29 09.11.2022
1102 Clear 7 1033 52 10000 3.09 150 19:41 09.11.2022
1103 Clear 7 1035 52 10000 3.09 160 18:49 09.11.2022
1104 Clear 3 1038 61 10000 3.09 110 15:56 09.11.2022
1105 Clear 1 1039 68 10000 1.54 80 14:47 09.11.2022
1106 Clear 1 1039 70 10000 1.54 80 14:24 09.11.2022
1107 Clear -3 1039 78 10000 2.06 20 13:18 09.11.2022
1108 Clear -2 1039 74 10000 1.54 360 11:36 09.11.2022
1109 Clear -1 1040 73 10000 1.54 330 08:35 09.11.2022
1110 Clear -1 1040 72 10000 2.06 320 07:42 09.11.2022
1111 Clear 4 1039 51 10000 4.63 340 00:54 09.11.2022
1112 Clear 7 1038 44 10000 5.14 310 21:45 08.11.2022
1113 Clear 7 1038 44 10000 5.14 310 21:26 08.11.2022
1114 Clear 8 1038 44 10000 6.69 270 20:41 08.11.2022
1115 Clear 7 1038 45 10000 4.12 320 19:37 08.11.2022
1116 Clear 6 1038 47 10000 6.17 320 18:31 08.11.2022
1117 Clear 5 1038 49 10000 5.14 310 16:47 08.11.2022
1118 Clear 3 1037 54 10000 6.69 300 14:56 08.11.2022
1119 Clear 2 1036 57 10000 4.63 300 13:41 08.11.2022
1120 Clear 2 1036 57 10000 4.63 300 13:22 08.11.2022
1121 Clouds 6 1030 55 10000 7.72 330 09:20 08.11.2022
1122 Clear 7 1028 57 10000 6.69 270 07:25 08.11.2022
1123 Clear 11 1023 44 10000 6.69 280 00:33 08.11.2022
1124 Clouds 12 1021 44 10000 12.35 280 22:25 07.11.2022
1125 Clouds 13 1019 43 10000 12.35 270 21:22 07.11.2022
1126 Clouds 14 1018 45 10000 10.8 270 20:40 07.11.2022
1127 Clear 15 1017 44 10000 14.4 280 18:53 07.11.2022
1128 Clouds 15 1016 46 10000 9.26 280 17:28 07.11.2022
1129 Clear 15 1016 57 10000 11.32 240 15:35 07.11.2022
1130 Clear 14 1015 66 10000 10.29 230 14:49 07.11.2022
1131 Clear 13 1014 72 10000 7.2 210 12:55 07.11.2022
1132 Clear 13 1014 74 10000 6.69 230 11:44 07.11.2022
1133 Clear 14 1014 76 10000 6.69 230 09:49 07.11.2022
1134 Clouds 15 1014 71 10000 5.66 240 07:54 07.11.2022
1135 Clouds 16 1014 76 10000 5.66 230 06:25 07.11.2022
1136 Clouds 18 1014 74 10000 4.63 210 01:42 07.11.2022
1137 Clouds 18 1015 75 10000 4.63 220 22:31 06.11.2022
1138 Clouds 19 1014 72 10000 7.72 230 21:21 06.11.2022
1139 Clouds 19 1014 72 10000 6.69 220 20:32 06.11.2022
1140 Clouds 19 1014 74 10000 7.2 230 19:55 06.11.2022
1141 Clouds 18 1015 74 10000 7.72 200 18:41 06.11.2022
1142 Clouds 18 1015 76 10000 8.23 200 18:20 06.11.2022
1143 Clouds 17 1015 84 10000 8.75 210 17:22 06.11.2022
1144 Clouds 17 1015 88 10000 8.75 200 16:46 06.11.2022
1145 Rain 17 1015 91 10000 7.72 200 15:54 06.11.2022
1146 Rain 17 1015 92 4828 6.17 220 14:36 06.11.2022
1147 Drizzle 19 1013 75 10000 8.75 180 12:42 06.11.2022
1148 Clouds 20 1012 72 10000 7.72 180 10:49 06.11.2022
1149 Clouds 19 1012 72 10000 9.26 180 09:51 06.11.2022
1150 Clear 20 1012 73 10000 9.77 190 06:40 06.11.2022
1151 Clear 21 1014 74 10000 7.2 180 23:22 05.11.2022
1152 Clear 23 1015 60 10000 7.72 190 19:59 05.11.2022
1153 Clouds 23 1016 60 10000 6.69 200 18:22 05.11.2022
1154 Clear 21 1017 65 10000 5.66 190 16:23 05.11.2022
1155 Clear 16 1017 77 10000 6.17 180 14:34 05.11.2022
1156 Clear 14 1017 80 10000 5.14 180 13:21 05.11.2022
1157 Clear 14 1017 79 10000 6.17 180 10:43 05.11.2022
1158 Clear 14 1018 76 10000 5.66 170 08:49 05.11.2022
1159 Clear 14 1018 73 10000 4.63 170 07:22 05.11.2022
1160 Clouds 14 1018 71 10000 5.14 190 06:54 05.11.2022
1161 Clouds 17 1019 63 10000 4.63 180 23:36 04.11.2022
1162 Clouds 17 1019 61 10000 4.63 180 23:18 04.11.2022
1163 -273 0 0 0 0 0 20:32 04.11.2022
1164 Clear 20 1020 52 10000 6.17 170 20:32 04.11.2022
1165 Clear 20 1020 52 10000 6.17 170 20:32 04.11.2022
1166 Clear 20 1020 51 10000 6.17 160 19:24 04.11.2022
1167 Clear 17 1022 54 10000 4.12 170 17:23 04.11.2022
1168 Clear 9 1022 81 10000 1.54 180 13:52 04.11.2022
1169 Clear 8 1022 83 10000 2.57 140 12:27 04.11.2022
1170 Clear 9 1022 83 10000 1.54 150 10:51 04.11.2022
1171 Clear 8 1022 85 10000 3.09 170 08:53 04.11.2022
1172 Clear 10 1022 82 10000 2.06 170 07:46 04.11.2022
1173 Clear 11 1022 80 10000 2.57 240 05:24 04.11.2022
1174 Clear 15 1022 64 10000 3.6 170 23:28 03.11.2022
1175 Clear 18 1023 56 10000 4.63 220 20:51 03.11.2022
1176 Clear 18 1023 56 10000 4.63 220 20:29 03.11.2022
1177 Clear 17 1024 56 10000 3.6 240 19:40 03.11.2022
1178 Clear 15 1026 60 10000 2.57 230 17:51 03.11.2022
1179 Clear 12 1026 65 10000 2.06 200 16:53 03.11.2022
1180 Haze 6 1027 83 6437 1.54 200 14:20 03.11.2022
1181 Clear 4 1027 87 10000 2.06 140 13:19 03.11.2022
1182 Haze 4 1027 86 9656 2.57 140 12:30 03.11.2022
1183 Clear 4 1028 85 10000 2.06 80 09:43 03.11.2022
1184 Clear 4 1028 81 10000 1.54 40 07:43 03.11.2022
1185 Haze 14 1028 43 8047 1.54 220 21:37 02.11.2022
1186 Clear 15 1028 44 10000 1.03 10 20:44 02.11.2022
1187 Clear 15 1028 44 10000 2.57 200 19:59 02.11.2022
1188 Clear 13 1029 51 10000 1.54 350 17:30 02.11.2022
1189 Clear 12 1029 56 10000 3.09 50 16:22 02.11.2022
1190 Clear 9 1028 82 10000 2.57 360 14:58 02.11.2022
1191 Mist 6 1026 93 9656 2.06 320 12:48 02.11.2022
1192 Fog 6 1025 94 805 1.03 360 11:55 02.11.2022
1193 Fog 9 1023 95 604 1.54 260 09:27 02.11.2022
1194 Fog 10 1020 93 10000 3.6 230 06:48 02.11.2022
1195 Clear 12 1016 85 10000 4.63 260 00:55 02.11.2022
1196 Clouds 14 1015 82 10000 5.14 270 22:20 01.11.2022
1197 Clouds 14 1014 84 10000 4.63 280 21:42 01.11.2022
1198 Clouds 14 1014 88 10000 5.66 250 20:27 01.11.2022
1199 Mist 14 1014 89 9656 4.12 220 19:57 01.11.2022
1200 Mist 14 1014 89 9656 4.12 220 19:39 01.11.2022
1201 Mist 12 1014 94 4828 1.54 210 17:36 01.11.2022
1202 Mist 11 1015 93 2816 2.06 340 16:23 01.11.2022
1203 Mist 11 1014 94 4023 1.03 190 14:33 01.11.2022
1204 Mist 10 1014 90 8047 1.03 180 12:31 01.11.2022
1205 Clouds 10 1013 87 10000 2.06 190 11:38 01.11.2022
1206 Clouds 10 1013 87 10000 2.06 190 11:20 01.11.2022
1207 Clouds 10 1013 84 10000 2.57 130 08:51 01.11.2022
1208 Clouds 10 1013 82 10000 1.54 200 07:48 01.11.2022
1209 Clouds 10 1013 81 10000 1.54 180 07:26 01.11.2022
1210 Clouds 10 1013 79 10000 2.57 290 06:45 01.11.2022
1211 Clouds 10 1013 70 10000 1.54 100 03:57 01.11.2022
1212 Clouds 14 1013 52 10000 2.06 150 22:22 31.10.2022
1213 Clouds 15 1013 49 10000 1.03 310 21:26 31.10.2022
1214 Clouds 15 1013 48 10000 1.54 210 19:56 31.10.2022
1215 Clear 15 1014 48 10000 3.09 260 18:35 31.10.2022
1216 Clear 14 1015 49 10000 4.12 190 16:44 31.10.2022
1217 Clouds 10 1016 64 10000 2.57 140 14:30 31.10.2022
1218 Clouds 7 1015 74 10000 2.06 130 12:18 31.10.2022
1219 Clear 7 1015 75 10000 1.54 190 09:34 31.10.2022
1220 Clouds 7 1016 70 10000 0.51 260 05:40 31.10.2022
1221 Clouds 8 1017 63 10000 1.03 120 02:38 31.10.2022
1222 Clear 8 1017 64 10000 1.54 120 01:46 31.10.2022
1223 Clear 16 1019 37 10000 3.6 180 21:51 30.10.2022
1224 Clear 17 1020 38 10000 4.12 190 20:37 30.10.2022
1225 Clear 16 1021 38 10000 2.57 170 19:33 30.10.2022
1226 Clear 12 1023 50 10000 4.63 220 16:28 30.10.2022
1227 Clear 7 1024 72 10000 3.09 200 14:23 30.10.2022
1228 Clear 5 1024 73 10000 2.06 160 13:33 30.10.2022
1229 Clear 4 1025 77 10000 2.06 220 11:58 30.10.2022
1230 Clear 6 1024 74 10000 4.63 220 09:56 30.10.2022
1231 Clear 6 1025 71 10000 5.14 180 08:54 30.10.2022
1232 Clear 5 1025 71 10000 2.57 230 07:27 30.10.2022
1233 Clear 12 1027 57 10000 3.09 200 00:29 30.10.2022
1234 Clear 13 1028 50 10000 4.12 250 23:45 29.10.2022
1235 Clear 15 1029 49 10000 4.12 240 21:45 29.10.2022
1236 Clear 11 1031 58 10000 4.63 210 18:38 29.10.2022
1237 Clear 10 1031 63 10000 3.6 200 17:22 29.10.2022
1238 Clear 5 1032 77 10000 2.06 180 15:38 29.10.2022
1239 Clear 2 1032 86 10000 1.54 160 14:52 29.10.2022
1240 Clear 0 1031 93 10000 1.54 120 12:36 29.10.2022
1241 Clear 0 1031 91 10000 1.03 100 11:58 29.10.2022
1242 Clear 1 1032 81 10000 1.54 160 08:56 29.10.2022
1243 Clouds 2 1033 79 10000 1.03 100 06:48 29.10.2022
1244 Clear 3 1033 75 10000 1.03 60 05:53 29.10.2022
1245 Clear 8 1034 54 10000 2.06 120 23:43 28.10.2022
1246 Clear 10 1035 49 10000 2.06 180 21:31 28.10.2022
1247 Clear 9 1036 51 10000 1.54 140 19:57 28.10.2022
1248 Clear 8 1038 53 10000 1.54 260 18:33 28.10.2022
1249 Clear 7 1038 55 10000 1.54 0 17:39 28.10.2022
1250 Clear 1 1037 81 10000 1.34 343 14:51 28.10.2022
1251 Clear 0 1036 83 10000 1.03 270 13:43 28.10.2022
1252 Clear 0 1035 80 10000 1.03 360 11:55 28.10.2022
1253 Clear 0 1035 79 10000 1.03 360 11:32 28.10.2022
1254 Clear 0 1035 80 10000 1.03 240 10:45 28.10.2022
1255 Clear 1 1035 76 10000 1.03 220 09:36 28.10.2022
1256 Clear 3 1033 69 10000 4.63 340 06:57 28.10.2022
1257 Clear 7 1029 61 10000 5.14 310 01:44 28.10.2022
1258 Clouds 9 1027 54 10000 7.2 290 23:46 27.10.2022
1259 Clear 10 1026 52 10000 6.69 290 22:37 27.10.2022
1260 Clear 10 1024 53 10000 7.72 270 20:58 27.10.2022
1261 Clouds 9 1023 59 10000 6.69 290 18:33 27.10.2022
1262 Clouds 9 1022 62 10000 7.2 270 17:22 27.10.2022
1263 Clouds 9 1013 77 10000 9.26 280 12:54 27.10.2022
1264 Clouds 15 1004 87 10000 8.75 230 07:50 27.10.2022
1265 Rain 17 1003 91 9656 4.12 190 02:56 27.10.2022
1266 Clear 22 1002 65 10000 7.2 150 23:53 26.10.2022
1267 Clear 23 1003 63 10000 7.2 170 22:44 26.10.2022
1268 Clouds 24 1004 64 10000 7.2 170 21:38 26.10.2022
1269 Clear 22 1008 72 10000 6.69 150 18:38 26.10.2022
1270 Clear 20 1009 82 10000 6.17 160 16:22 26.10.2022
1271 Clear 16 1010 90 10000 3.6 130 13:34 26.10.2022
1272 Clear 16 1011 89 10000 3.6 120 12:34 26.10.2022
1273 Clear 16 1012 89 10000 3.6 120 09:31 26.10.2022
1274 Clear 17 1013 88 10000 2.06 130 08:53 26.10.2022
1275 Clear 17 1013 86 10000 3.6 140 07:57 26.10.2022
1276 Clear 21 1014 78 10000 7.2 170 00:42 26.10.2022
1277 Clear 22 1014 77 10000 7.2 170 00:20 26.10.2022
1278 Clouds 24 1015 71 10000 1.79 170 21:47 25.10.2022
1279 Clear 24 1016 69 10000 5.66 180 20:50 25.10.2022
1280 Clouds 23 1017 73 10000 2.57 170 19:19 25.10.2022
1281 Clouds 19 1018 84 10000 4.63 180 17:51 25.10.2022
1282 Fog 12 1019 94 805 3.09 20 13:57 25.10.2022
1283 Mist 12 1019 94 9656 2.57 350 11:38 25.10.2022
1284 Clear 13 1019 94 10000 2.06 110 10:37 25.10.2022
1285 Mist 13 1019 92 9656 3.09 110 09:33 25.10.2022
1286 Mist 13 1020 92 8047 1.54 60 08:18 25.10.2022
1287 Mist 13 1020 92 8047 1.54 60 07:54 25.10.2022
1288 Clouds 13 1020 91 10000 2.57 80 06:56 25.10.2022
1289 Mist 14 1021 85 9656 1.54 10 03:46 25.10.2022
1290 Clouds 18 1021 67 10000 3.09 80 00:37 25.10.2022
1291 Clouds 19 1022 60 10000 3.6 110 23:47 24.10.2022
1292 Clouds 20 1022 57 10000 3.6 90 22:24 24.10.2022
1293 Clear 19 1022 47 10000 5.14 100 21:33 24.10.2022
1294 Haze 19 1023 46 9656 4.12 50 20:42 24.10.2022
1295 Clouds 16 1025 62 10000 3.6 20 18:52 24.10.2022
1296 Clouds 16 1025 67 10000 2.57 30 17:50 24.10.2022
1297 Clouds 14 1025 73 10000 2.06 70 16:34 24.10.2022
1298 Clouds 10 1025 84 10000 2.57 10 14:22 24.10.2022
1299 Clouds 10 1025 85 10000 3.6 50 13:34 24.10.2022
1300 Clouds 10 1025 85 10000 2.06 30 11:54 24.10.2022
1301 Clear 10 1025 81 10000 2.57 40 08:45 24.10.2022
1302 Clear 16 1025 59 10000 1.03 330 00:50 24.10.2022
1303 Clear 21 1025 42 10000 2.06 80 21:23 23.10.2022
1304 Clear 20 1026 44 10000 1.03 0 19:51 23.10.2022
1305 Clear 17 1027 55 10000 2.06 150 17:59 23.10.2022
1306 Clear 17 1027 57 10000 2.06 150 17:27 23.10.2022
1307 Clear 12 1027 75 10000 1.54 180 15:19 23.10.2022
1308 Clear 12 1027 75 10000 1.54 180 15:19 23.10.2022
1309 Clear 8 1025 81 10000 1.03 110 12:59 23.10.2022
1310 Clear 9 1025 77 10000 1.03 180 10:59 23.10.2022
1311 Clear 10 1024 73 10000 1.54 180 08:18 23.10.2022
1312 Clear 18 1019 47 10000 6.17 180 23:40 22.10.2022
1313 Clear 20 1019 44 10000 7.72 170 22:31 22.10.2022
1314 Clear 20 1018 46 10000 6.69 180 21:42 22.10.2022
1315 Clouds 20 1018 45 10000 5.14 160 20:49 22.10.2022
1316 Clear 19 1019 46 10000 6.17 170 19:45 22.10.2022
1317 Clear 19 1019 46 10000 6.17 170 19:24 22.10.2022
1318 Clear 16 1019 52 10000 7.2 170 17:36 22.10.2022
1319 Clear 12 1019 63 10000 4.12 180 15:37 22.10.2022
1320 Clear 9 1018 66 10000 4.12 180 14:39 22.10.2022
1321 Clear 9 1018 69 10000 6.69 180 13:45 22.10.2022
1322 Clear 9 1017 66 10000 6.17 170 09:59 22.10.2022
1323 Clear 9 1017 65 10000 6.17 170 09:36 22.10.2022
1324 Clouds 9 1016 62 10000 4.63 180 07:45 22.10.2022
1325 Clouds 12 1015 54 10000 8.23 180 02:55 22.10.2022
1326 Clouds 13 1015 52 10000 6.17 170 23:49 21.10.2022
1327 Clear 14 1015 47 10000 6.17 180 21:35 21.10.2022
1328 Clear 14 1016 48 10000 5.14 230 20:57 21.10.2022
1329 Clear 13 1017 53 10000 6.69 210 19:26 21.10.2022
1330 Clear 10 1018 62 10000 6.17 220 16:51 21.10.2022
1331 Clouds 5 1015 77 10000 3.09 170 13:57 21.10.2022
1332 Clouds 5 1015 78 10000 3.09 180 12:57 21.10.2022
1333 Clouds 6 1014 78 10000 5.14 220 10:59 21.10.2022
1334 Clouds 6 1014 78 10000 7.2 230 09:50 21.10.2022
1335 Clouds 7 1014 75 10000 6.69 240 08:39 21.10.2022
1336 Clouds 7 1013 71 10000 9.77 240 07:28 21.10.2022
1337 Clouds 7 1010 83 10000 8.23 230 00:59 21.10.2022
1338 Clouds 7 1009 82 10000 6.17 210 22:26 20.10.2022
1339 Clouds 6 1008 82 10000 6.17 250 20:38 20.10.2022
1340 Clouds 7 1008 77 10000 6.17 240 19:38 20.10.2022
1341 Clouds 6 1008 77 10000 6.17 230 17:53 20.10.2022
1342 Clouds 6 1008 77 10000 6.17 230 17:33 20.10.2022
1343 Clouds 6 1006 78 10000 5.14 190 12:37 20.10.2022
1344 Clouds 6 1006 79 10000 5.14 190 12:18 20.10.2022
1345 Clouds 6 1005 80 10000 7.72 220 11:20 20.10.2022
1346 Clouds 6 1005 81 10000 9.26 210 10:45 20.10.2022
1347 Clouds 7 1005 75 10000 5.66 170 08:18 20.10.2022
1348 Clouds 6 1005 72 10000 4.63 200 05:38 20.10.2022
1349 Clouds 6 1006 87 10000 2.57 230 01:49 20.10.2022
1350 Clouds 9 1005 75 10000 7.72 240 22:45 19.10.2022
1351 Clouds 10 1004 70 10000 6.69 220 21:57 19.10.2022
1352 Clouds 11 1005 65 10000 4.63 200 20:53 19.10.2022
1353 Clouds 11 1005 68 10000 2.06 140 18:50 19.10.2022
1354 Clouds 9 1006 73 10000 2.57 250 17:38 19.10.2022
1355 Clear 7 1006 83 10000 0.51 50 15:47 19.10.2022
1356 Clouds 4 1005 91 10000 1.54 290 13:51 19.10.2022
1357 Clouds 5 1005 86 10000 1.54 300 09:42 19.10.2022
1358 Clouds 5 1005 85 10000 2.57 290 08:35 19.10.2022
1359 Clouds 6 1005 87 10000 3.6 300 06:25 19.10.2022
1360 Clouds 10 1004 77 10000 3.09 290 01:26 19.10.2022
1361 Clear 12 1002 65 10000 2.57 220 23:19 18.10.2022
1362 Clouds 12 1002 65 10000 2.06 140 21:45 18.10.2022
1363 Clouds 11 1001 70 10000 2.06 240 20:59 18.10.2022
1364 Clouds 11 1001 71 10000 2.06 240 20:18 18.10.2022
1365 Clouds 10 1001 80 10000 4.12 270 17:48 18.10.2022
1366 Clouds 9 1001 86 10000 4.63 250 16:52 18.10.2022
1367 Mist 9 1000 91 10000 2.57 280 14:51 18.10.2022
1368 Clouds 9 1000 93 10000 2.57 290 12:34 18.10.2022
1369 Mist 9 1001 93 9656 2.06 300 11:22 18.10.2022
1370 Clouds 9 1001 93 10000 1.54 320 09:59 18.10.2022
1371 Clouds 9 1002 92 10000 1.54 180 07:57 18.10.2022
1372 Clouds 11 1002 89 10000 2.06 220 04:35 18.10.2022
1373 Rain 13 1003 74 10000 4.63 140 22:54 17.10.2022
1374 Clouds 16 1003 54 10000 4.12 130 20:55 17.10.2022
1375 Clouds 16 1003 54 10000 4.12 130 20:33 17.10.2022
1376 Clear 16 1004 54 10000 8.23 100 19:52 17.10.2022
1377 Clear 16 1004 55 10000 8.23 100 19:30 17.10.2022
1378 Clouds 12 1005 65 10000 4.12 110 17:28 17.10.2022
1379 Clouds 10 1006 69 10000 5.14 110 15:46 17.10.2022
1380 Clouds 8 1006 76 10000 4.12 100 14:35 17.10.2022
1381 Clear 7 1007 81 10000 4.12 110 11:56 17.10.2022
1382 Clouds 10 1010 67 10000 2.57 130 06:42 17.10.2022
1383 Clouds 12 1012 64 10000 2.06 110 00:24 17.10.2022
1384 Clouds 14 1013 52 10000 2.57 240 22:21 16.10.2022
1385 Clouds 15 1013 50 10000 3.6 240 20:59 16.10.2022
1386 Clouds 14 1014 48 10000 3.6 220 19:47 16.10.2022
1387 Clear 13 1014 51 10000 4.12 190 17:58 16.10.2022
1388 Clear 13 1014 52 10000 4.12 190 17:39 16.10.2022
1389 Clear 10 1015 61 10000 4.63 210 15:58 16.10.2022
1390 Clear 7 1015 69 10000 5.14 200 14:45 16.10.2022
1391 Clear 6 1015 74 10000 4.63 190 12:23 16.10.2022
1392 Clear 7 1015 72 10000 3.6 210 10:28 16.10.2022
1393 Clear 7 1015 67 10000 3.6 220 09:39 16.10.2022
1394 Clouds 13 1012 61 10000 7.72 230 03:22 16.10.2022
1395 Clouds 17 1008 53 10000 9.77 170 23:41 15.10.2022
1396 Clouds 18 1009 49 10000 10.8 150 21:29 15.10.2022
1397 Clear 18 1010 51 10000 10.8 140 20:57 15.10.2022
1398 Clouds 17 1012 61 10000 7.2 130 19:30 15.10.2022
1399 Clouds 9 1015 90 10000 2.06 70 16:18 15.10.2022
1400 Fog 8 1016 94 10000 3.6 80 15:43 15.10.2022
1401 Fog 5 1016 95 201 1.54 10 13:18 15.10.2022
1402 Fog 5 1016 94 402 1.03 10 11:37 15.10.2022
1403 Fog 6 1017 92 604 1.03 130 09:26 15.10.2022
1404 Clear 7 1017 92 10000 1.03 70 06:35 15.10.2022
1405 Clear 13 1014 74 10000 2.57 110 00:40 15.10.2022
1406 Clouds 15 1013 63 10000 2.06 190 22:36 14.10.2022
1407 Clouds 15 1013 64 10000 2.06 190 22:18 14.10.2022
1408 Clouds 15 1012 72 10000 2.57 200 20:28 14.10.2022
1409 Clouds 13 1012 84 10000 3.09 110 18:39 14.10.2022
1410 Clouds 11 1012 93 10000 3.09 120 15:32 14.10.2022
1411 Clouds 10 1011 97 10000 3.09 150 12:46 14.10.2022
1412 Rain 11 1010 94 8047 4.63 210 10:54 14.10.2022
1413 Rain 11 1010 96 9656 5.14 190 08:25 14.10.2022
1414 Rain 12 1010 95 8047 4.63 160 06:45 14.10.2022
1415 Rain 12 1009 94 6437 3.09 140 06:18 14.10.2022
1416 Rain 12 1010 94 8047 3.6 140 05:41 14.10.2022
1417 Rain 13 1009 93 4023 1.03 0 02:18 14.10.2022
1418 Rain 17 1005 84 10000 14.92 260 23:22 13.10.2022
1419 Clouds 18 1005 81 10000 11.83 150 21:32 13.10.2022
1420 Rain 17 1006 85 10000 10.29 160 20:22 13.10.2022
1421 Rain 17 1006 84 10000 8.75 140 19:42 13.10.2022
1422 Rain 17 1007 77 10000 10.8 140 18:51 13.10.2022
1423 Clouds 17 1007 73 10000 10.8 140 18:20 13.10.2022
1424 Clouds 17 1008 73 10000 7.2 140 15:49 13.10.2022
1425 Clear 15 1008 76 10000 6.17 170 14:59 13.10.2022
1426 Clouds 14 1008 78 10000 6.17 160 13:50 13.10.2022
1427 Clear 14 1009 77 10000 6.17 140 12:38 13.10.2022
1428 Clouds 14 1010 72 10000 5.14 150 10:31 13.10.2022
1429 Clouds 14 1011 69 10000 5.14 160 08:34 13.10.2022
1430 Clouds 14 1011 69 10000 5.14 160 08:34 13.10.2022
1431 Clouds 14 1012 67 10000 4.63 170 07:36 13.10.2022
1432 Clear 16 1014 64 10000 6.69 150 03:46 13.10.2022
1433 Clouds 17 1014 60 10000 5.66 170 01:40 13.10.2022
1434 Clouds 18 1014 57 10000 6.69 150 00:24 13.10.2022
1435 Clear 20 1015 56 10000 5.66 170 22:44 12.10.2022
1436 Clouds 20 1016 56 10000 6.17 170 21:40 12.10.2022
1437 Clouds 20 1016 57 10000 6.17 170 21:18 12.10.2022
1438 Clouds 20 1016 57 10000 7.72 170 20:28 12.10.2022
1439 Clouds 19 1018 63 10000 5.14 170 19:22 12.10.2022
1440 Clouds 17 1019 69 10000 3.6 170 17:55 12.10.2022
1441 Clear 15 1020 76 10000 3.6 180 16:54 12.10.2022
1442 Clouds 10 1020 90 10000 2.06 130 14:26 12.10.2022
1443 Clouds 9 1020 92 10000 2.57 130 13:50 12.10.2022
1444 Mist 8 1020 88 9656 1.54 130 11:47 12.10.2022
1445 Clear 8 1020 85 10000 1.54 120 09:27 12.10.2022
1446 Clear 7 1020 83 10000 1.54 150 07:42 12.10.2022
1447 Clear 8 1020 79 10000 2.57 200 06:44 12.10.2022
1448 Clear 9 1021 76 10000 1.34 175 05:18 12.10.2022
1449 Clear 15 1020 48 10000 6.17 240 23:56 11.10.2022
1450 Clear 16 1021 57 10000 5.14 260 21:25 11.10.2022
1451 Clear 15 1022 60 10000 5.66 250 20:26 11.10.2022
1452 Clear 13 1024 59 10000 4.12 230 18:25 11.10.2022
1453 Clear 8 1025 70 10000 3.6 190 15:56 11.10.2022
1454 Clear 3 1024 83 10000 1.54 170 13:44 11.10.2022
1455 Clear 1 1024 85 10000 1.54 150 10:48 11.10.2022
1456 Clear 1 1024 84 10000 1.54 150 10:26 11.10.2022
1457 Clear 3 1024 82 10000 1.54 160 08:46 11.10.2022
1458 Clear 4 1024 73 10000 1.03 270 05:25 11.10.2022
1459 Clear 7 1023 63 10000 3.09 260 01:52 11.10.2022
1460 Clouds 10 1022 52 10000 4.63 250 00:23 11.10.2022
1461 Haze 11 1022 48 9656 6.17 240 21:18 10.10.2022
1462 Clear 11 1022 50 10000 3.09 260 19:45 10.10.2022
1463 Clear 10 1022 54 10000 3.09 0 18:18 10.10.2022
1464 Clouds 7 1023 69 10000 2.06 20 16:39 10.10.2022
1465 Clouds 3 1022 84 10000 2.06 30 14:31 10.10.2022
1466 Clouds 3 1020 85 10000 1.54 20 12:24 10.10.2022
1467 Clouds 2 1020 86 10000 1.03 280 10:57 10.10.2022
1468 Clouds 2 1020 83 10000 1.03 200 07:47 10.10.2022
1469 Clear 3 1020 78 10000 1.54 170 05:39 10.10.2022
1470 Clear 6 1018 63 10000 2.06 340 02:50 10.10.2022
1471 Clouds 9 1017 52 10000 5.14 310 00:25 10.10.2022
1472 Clouds 12 1015 51 10000 7.72 300 22:27 09.10.2022
1473 Clouds 12 1015 51 10000 7.72 300 22:27 09.10.2022
1474 Clouds 12 1015 51 10000 5.66 300 21:54 09.10.2022
1475 Clouds 12 1015 55 10000 6.17 280 20:57 09.10.2022
1476 Clouds 11 1014 64 10000 5.14 290 19:53 09.10.2022
1477 Clouds 11 1014 67 10000 5.14 290 19:32 09.10.2022
1478 Clouds 10 1014 79 10000 6.17 260 18:32 09.10.2022
1479 Clouds 8 1013 88 10000 6.69 250 16:56 09.10.2022
1480 Mist 8 1013 88 9656 7.2 240 16:32 09.10.2022
1481 Rain 9 1013 84 10000 5.14 220 15:37 09.10.2022
1482 Clouds 9 1012 80 10000 6.69 240 14:29 09.10.2022
1483 Clouds 8 1012 78 10000 7.2 230 12:58 09.10.2022
1484 Clouds 8 1013 80 10000 6.69 230 11:50 09.10.2022
1485 Clouds 8 1013 77 10000 6.69 220 10:37 09.10.2022
1486 Clouds 8 1015 79 10000 7.72 250 08:29 09.10.2022
1487 Clouds 7 1017 69 10000 2.57 180 03:37 09.10.2022
1488 Clouds 7 1017 68 10000 3.09 240 02:39 09.10.2022
1489 Clouds 7 1017 59 10000 6.17 250 00:26 09.10.2022
1490 Clouds 8 1017 57 10000 9.26 250 22:53 08.10.2022
1491 Clouds 9 1018 58 10000 9.77 240 21:48 08.10.2022
1492 Clouds 8 1019 60 10000 9.77 250 20:26 08.10.2022
1493 Clouds 7 1020 65 10000 8.23 250 18:37 08.10.2022
1494 Clouds 5 1021 66 10000 6.17 260 16:18 08.10.2022
1495 Clouds 3 1020 75 10000 4.12 270 14:52 08.10.2022
1496 Clear 2 1020 81 10000 3.6 240 13:25 08.10.2022
1497 Clear 3 1020 79 10000 4.12 280 10:39 08.10.2022
1498 Clear 3 1020 79 10000 4.12 280 10:21 08.10.2022
1499 Clear 4 1019 80 10000 3.6 270 08:48 08.10.2022
1500 Clear 7 1017 76 10000 7.2 290 03:53 08.10.2022
1501 Clouds 10 1014 76 10000 7.72 270 00:37 08.10.2022
1502 Clouds 12 1013 73 10000 7.72 270 23:21 07.10.2022
1503 Clouds 13 1012 70 10000 8.75 270 22:50 07.10.2022
1504 Clouds 14 1011 68 10000 8.75 260 21:38 07.10.2022
1505 Clouds 14 1011 79 10000 8.75 250 19:42 07.10.2022
1506 Clouds 16 1010 79 10000 7.2 230 17:48 07.10.2022
1507 Clouds 17 1010 76 10000 6.17 190 16:41 07.10.2022
1508 Clouds 15 1010 83 10000 6.17 170 15:00 07.10.2022
1509 Clouds 15 1010 83 10000 5.66 180 13:23 07.10.2022
1510 Clouds 15 1010 81 10000 5.66 180 11:19 07.10.2022
1511 Clouds 16 1011 79 10000 4.63 180 09:25 07.10.2022
1512 Clouds 16 1011 78 10000 4.12 160 08:19 07.10.2022
1513 Clouds 18 1012 65 10000 4.12 240 02:29 07.10.2022
1514 Clouds 22 1012 49 10000 3.6 240 22:53 06.10.2022
1515 Clear 23 1012 47 10000 6.17 220 21:52 06.10.2022
1516 Clear 23 1012 47 10000 6.17 220 21:30 06.10.2022
1517 Clear 22 1012 51 10000 5.66 230 20:38 06.10.2022
1518 Clear 20 1013 62 10000 6.17 230 18:56 06.10.2022
1519 Clear 20 1013 63 10000 6.17 230 18:31 06.10.2022
1520 Clear 14 1013 80 10000 4.12 230 15:38 06.10.2022
1521 Clear 11 1013 82 10000 3.09 230 12:49 06.10.2022
1522 Clear 11 1013 72 10000 2.57 220 08:51 06.10.2022
1523 Clear 13 1014 63 10000 2.06 230 04:42 06.10.2022
1524 Clear 17 1014 51 10000 2.06 170 00:51 06.10.2022
1525 Clear 21 1015 35 10000 2.06 260 21:54 05.10.2022
1526 Clear 19 1016 45 10000 1.03 0 19:44 05.10.2022
1527 Clear 16 1017 58 10000 1.54 250 17:37 05.10.2022
1528 Clear 14 1018 68 10000 1.03 60 16:45 05.10.2022
1529 Clear 8 1018 87 10000 1.03 0 14:59 05.10.2022
1530 Clear 7 1018 87 10000 1.03 0 14:37 05.10.2022
1531 Clear 5 1018 90 10000 0.51 220 12:45 05.10.2022
1532 Clear 4 1018 84 10000 0.51 280 11:38 05.10.2022
1533 Clear 6 1018 80 10000 1.03 20 08:25 05.10.2022
1534 Clear 7 1019 80 10000 1.54 80 07:19 05.10.2022
1535 Mist 8 1019 72 9656 1.54 140 05:31 05.10.2022
1536 Clear 10 1020 68 10000 1.03 240 02:31 05.10.2022
1537 Clear 15 1019 50 10000 2.06 260 00:28 05.10.2022
1538 Clear 17 1020 42 10000 2.06 220 23:22 04.10.2022
1539 Clouds 18 1021 37 10000 2.57 240 21:22 04.10.2022
1540 Clear 17 1022 44 10000 1.54 0 19:56 04.10.2022
1541 Clear 15 1023 50 10000 1.03 360 18:55 04.10.2022
1542 Clear 14 1023 56 10000 1.54 340 17:57 04.10.2022
1543 Clear 12 1024 67 10000 1.54 10 16:56 04.10.2022
1544 Clear 6 1024 88 10000 1.03 40 14:31 04.10.2022
1545 Clear 4 1024 84 10000 0.51 250 10:23 04.10.2022
1546 Clear 4 1025 82 10000 1.03 250 08:28 04.10.2022
1547 Clear 6 1025 78 10000 0 0 04:48 04.10.2022
1548 Clear 14 1026 48 10000 2.06 330 23:59 03.10.2022
1549 Clear 15 1026 43 10000 1.54 20 22:45 03.10.2022
1550 Clear 15 1027 43 10000 2.57 340 21:41 03.10.2022
1551 Clear 14 1028 47 10000 3.09 360 20:36 03.10.2022
1552 Clear 13 1029 54 10000 2.06 0 18:52 03.10.2022
1553 Clear 11 1030 62 10000 2.57 30 17:35 03.10.2022
1554 Clear 9 1030 72 10000 3.6 20 16:22 03.10.2022
1555 Clear 4 1029 81 10000 2.57 340 14:30 03.10.2022
1556 Clear 2 1029 86 10000 2.06 340 12:46 03.10.2022
1557 Clear 2 1029 86 10000 2.06 10 11:37 03.10.2022
1558 Clear 2 1028 88 10000 1.03 20 09:59 03.10.2022
1559 Clear 3 1029 86 10000 2.06 340 08:47 03.10.2022
1560 Clear 5 1029 79 10000 2.57 350 04:45 03.10.2022
1561 Clear 12 1028 47 10000 5.14 30 23:51 02.10.2022
1562 Clear 13 1028 43 10000 4.63 10 22:19 02.10.2022
1563 Clear 12 1029 45 10000 8.23 20 20:18 02.10.2022
1564 Clear 10 1030 54 10000 7.2 40 17:58 02.10.2022
1565 Clear 10 1030 58 10000 7.2 40 17:20 02.10.2022
1566 Clear 9 1030 61 10000 6.69 40 16:33 02.10.2022
1567 Clear 7 1030 65 10000 7.2 20 15:39 02.10.2022
1568 Clear 5 1029 75 10000 7.72 20 13:46 02.10.2022
1569 Clear 5 1028 75 10000 7.2 30 12:42 02.10.2022
1570 Clear 5 1028 74 10000 7.2 30 12:23 02.10.2022
1571 Clear 5 1028 72 10000 7.72 20 11:34 02.10.2022
1572 Clear 6 1027 70 10000 8.23 20 10:29 02.10.2022
1573 Clear 7 1027 70 10000 8.23 30 08:31 02.10.2022
1574 Clouds 10 1026 66 10000 7.72 30 05:23 02.10.2022
1575 Clear 12 1024 76 10000 3.6 40 02:49 02.10.2022
1576 Clouds 15 1023 72 10000 4.63 50 00:39 02.10.2022
1577 Clouds 15 1023 72 10000 4.63 50 00:39 02.10.2022
1578 Clouds 16 1022 69 10000 5.14 20 23:36 01.10.2022
1579 Clear 17 1021 64 10000 4.63 30 22:24 01.10.2022
1580 Clear 16 1022 63 10000 2.57 10 19:31 01.10.2022
1581 Clear 15 1022 71 10000 1.54 130 17:46 01.10.2022
1582 Clear 12 1022 80 10000 1.03 20 16:24 01.10.2022
1583 Clear 9 1022 91 10000 1.54 240 14:19 01.10.2022
1584 Clear 8 1022 90 10000 2.57 240 12:35 01.10.2022
1585 Clear 8 1021 88 10000 1.54 220 11:57 01.10.2022
1586 Clear 8 1021 88 10000 1.54 220 11:18 01.10.2022
1587 Clear 9 1021 87 10000 2.06 250 10:30 01.10.2022
1588 Clear 9 1021 85 10000 3.09 250 09:26 01.10.2022
1589 Clear 9 1022 84 10000 3.09 240 08:40 01.10.2022
1590 Clear 12 1023 69 10000 3.09 200 03:52 01.10.2022
1591 Clear 12 1023 67 10000 3.09 200 03:28 01.10.2022
1592 Clear 17 1024 47 10000 4.63 200 23:30 30.09.2022
1593 Clear 18 1024 46 10000 5.14 180 22:19 30.09.2022
1594 Clear 18 1024 46 10000 5.14 180 22:19 30.09.2022
1595 Clear 18 1025 49 10000 5.14 190 21:22 30.09.2022
1596 Clear 17 1026 52 10000 5.14 220 20:42 30.09.2022
1597 Clear 16 1027 55 10000 4.63 210 19:30 30.09.2022
1598 Clear 14 1028 65 10000 3.6 270 17:27 30.09.2022
1599 Clear 8 1029 87 10000 1.54 150 14:55 30.09.2022
1600 Clear 4 1029 91 10000 1.03 90 13:24 30.09.2022
1601 Clear 5 1029 89 10000 1.54 240 11:56 30.09.2022
1602 Clear 6 1029 88 10000 1.54 130 10:18 30.09.2022
1603 Clear 6 1029 86 10000 1.03 110 08:21 30.09.2022
1604 Clear 8 1030 77 10000 2.57 250 04:55 30.09.2022
1605 Clear 10 1029 72 10000 2.57 240 02:27 30.09.2022
1606 Clear 14 1029 54 10000 4.12 190 22:24 29.09.2022
1607 Clear 14 1030 55 10000 3.09 280 21:26 29.09.2022
1608 Clouds 13 1030 58 10000 3.6 250 20:31 29.09.2022
1609 Clouds 11 1031 64 10000 4.12 290 18:32 29.09.2022
1610 Clouds 10 1031 66 10000 3.6 320 17:22 29.09.2022
1611 Clouds 10 1031 69 10000 4.12 350 16:28 29.09.2022
1612 Clouds 9 1031 74 10000 4.12 310 15:35 29.09.2022
1613 Clouds 8 1030 81 10000 3.6 310 14:24 29.09.2022
1614 Clouds 10 1027 73 10000 4.63 340 09:21 29.09.2022
1615 Clouds 11 1026 77 10000 3.6 290 06:45 29.09.2022
1616 Clouds 13 1023 72 10000 6.17 310 02:45 29.09.2022
1617 Clouds 16 1021 66 10000 6.17 290 23:54 28.09.2022
1618 Clouds 16 1020 62 10000 5.66 300 22:32 28.09.2022
1619 Clouds 17 1020 62 10000 5.14 310 21:29 28.09.2022
1620 Clouds 17 1019 64 10000 4.63 310 20:22 28.09.2022
1621 Clouds 16 1018 71 10000 4.63 330 18:20 28.09.2022
1622 Clouds 13 1015 92 10000 2.57 300 14:51 28.09.2022
1623 Clouds 12 1013 93 10000 2.57 300 12:49 28.09.2022
1624 Clouds 12 1012 94 10000 2.57 280 10:51 28.09.2022
1625 Clouds 12 1011 93 10000 2.57 250 08:33 28.09.2022
1626 Clear 12 1010 93 10000 4.12 230 06:50 28.09.2022
1627 Clouds 13 1008 87 10000 1.54 170 01:56 28.09.2022
1628 Clouds 14 1008 86 10000 1.54 170 01:33 28.09.2022
1629 Clouds 16 1007 80 10000 5.14 250 23:20 27.09.2022
1630 Clouds 15 1006 89 10000 6.17 250 21:42 27.09.2022
1631 Mist 14 1005 89 4828 7.2 220 20:38 27.09.2022
1632 Clouds 14 1005 89 10000 6.17 230 19:47 27.09.2022
1633 Clouds 14 1004 90 10000 6.69 190 18:40 27.09.2022
1634 Clouds 13 1004 94 10000 5.14 160 17:44 27.09.2022
1635 Rain 12 1004 92 8047 4.63 170 15:31 27.09.2022
1636 Clouds 12 1004 92 10000 3.6 140 14:55 27.09.2022
1637 Clouds 12 1003 91 10000 3.09 150 12:50 27.09.2022
1638 Clouds 12 1003 93 10000 3.09 170 11:32 27.09.2022
1639 Clouds 13 1004 90 10000 4.63 170 08:50 27.09.2022
1640 Mist 13 1003 91 9656 5.14 160 06:46 27.09.2022
1641 Clouds 14 1002 92 10000 3.09 240 01:57 27.09.2022
1642 Clouds 14 1002 92 10000 2.57 230 01:29 27.09.2022
1643 Rain 16 1000 84 10000 2.57 340 23:26 26.09.2022
1644 Mist 17 1000 79 10000 2.06 50 22:38 26.09.2022
1645 Clouds 18 1000 77 10000 2.06 80 20:46 26.09.2022
1646 Clouds 17 1001 79 10000 3.6 0 19:32 26.09.2022
1647 Clouds 16 1001 86 10000 3.09 130 18:32 26.09.2022
1648 Drizzle 14 1001 88 10000 1.54 110 16:36 26.09.2022
1649 Clouds 13 1000 91 10000 1.54 330 14:37 26.09.2022
1650 Mist 12 999 94 3219 2.57 10 11:35 26.09.2022
1651 Mist 12 999 92 4023 3.6 360 10:41 26.09.2022
1652 Mist 13 999 93 4023 3.6 360 10:21 26.09.2022
1653 Mist 13 999 92 4023 2.06 360 09:55 26.09.2022
1654 Mist 13 999 92 4828 2.06 350 09:24 26.09.2022
1655 Mist 13 999 92 4023 2.57 20 08:57 26.09.2022
1656 Clouds 13 1001 86 10000 3.09 120 02:57 26.09.2022
1657 Clouds 14 1001 77 10000 4.63 130 00:35 26.09.2022
1658 Clouds 16 1002 72 10000 4.12 160 22:59 25.09.2022
1659 Clouds 17 1002 65 10000 4.63 120 21:41 25.09.2022
1660 Clouds 18 1003 64 10000 4.63 150 20:49 25.09.2022
1661 Clouds 18 1004 65 10000 4.63 140 19:55 25.09.2022
1662 Clouds 17 1004 70 10000 3.09 200 18:43 25.09.2022
1663 Clouds 17 1004 69 10000 3.09 200 18:20 25.09.2022
1664 Clouds 14 1006 79 10000 3.09 190 16:49 25.09.2022
1665 Clouds 13 1006 84 10000 1.54 170 15:45 25.09.2022
1666 Clouds 11 1006 88 10000 2.06 170 14:30 25.09.2022
1667 Clouds 11 1006 88 10000 3.6 170 13:19 25.09.2022
1668 Clouds 11 1007 88 10000 3.6 210 10:36 25.09.2022
1669 Clouds 11 1008 84 10000 4.12 240 08:25 25.09.2022
1670 Clear 12 1009 77 10000 5.66 250 06:24 25.09.2022
1671 Clear 14 1009 63 10000 5.14 260 03:20 25.09.2022
1672 Clear 19 1010 48 10000 7.72 260 23:23 24.09.2022
1673 Clouds 19 1011 51 10000 7.72 260 21:19 24.09.2022
1674 Clear 18 1012 54 10000 8.23 270 19:23 24.09.2022
1675 Clear 17 1013 58 10000 5.14 240 18:25 24.09.2022
1676 Clear 13 1014 65 10000 5.66 280 16:36 24.09.2022
1677 Clear 10 1014 73 10000 6.17 270 15:23 24.09.2022
1678 Clear 8 1014 79 10000 6.69 280 14:18 24.09.2022
1679 Clear 7 1014 84 10000 5.66 270 12:59 24.09.2022
1680 Clear 6 1014 84 10000 5.66 270 12:20 24.09.2022
1681 Clear 7 1015 78 10000 4.12 280 09:57 24.09.2022
1682 Clear 7 1015 76 10000 3.6 280 08:50 24.09.2022
1683 Clear 7 1015 75 10000 3.09 280 07:39 24.09.2022
1684 Clear 9 1016 69 10000 4.12 290 04:50 24.09.2022
1685 Clear 9 1015 67 10000 4.12 290 03:44 24.09.2022
1686 Clear 14 1014 45 10000 7.2 300 22:48 23.09.2022
1687 Clouds 14 1014 48 10000 7.2 300 21:32 23.09.2022
1688 Clouds 13 1014 50 10000 5.66 280 20:57 23.09.2022
1689 Clouds 13 1014 51 10000 5.66 280 20:26 23.09.2022
1690 Clouds 12 1014 54 10000 7.72 290 19:19 23.09.2022
1691 Clouds 8 1015 67 10000 6.17 300 15:29 23.09.2022
1692 Clouds 7 1012 72 10000 5.14 310 11:47 23.09.2022
1693 Clouds 9 1010 67 10000 7.2 340 09:36 23.09.2022
1694 Clouds 9 1009 72 10000 6.17 310 06:39 23.09.2022
1695 Clouds 14 1003 58 10000 7.2 350 00:42 23.09.2022
1696 Clouds 15 1002 63 10000 6.69 310 23:23 22.09.2022
1697 Clouds 15 1001 66 10000 7.72 320 22:27 22.09.2022
1698 Clouds 16 1000 66 10000 7.2 310 21:19 22.09.2022
1699 Clouds 15 1000 80 10000 5.66 330 19:58 22.09.2022
1700 Clouds 18 1000 70 10000 6.17 290 17:41 22.09.2022
1701 Clouds 16 999 92 10000 5.14 250 13:38 22.09.2022
1702 Clouds 18 998 93 10000 4.63 210 10:37 22.09.2022
1703 Clouds 18 998 93 10000 4.63 210 10:18 22.09.2022
1704 Thunderstorm 18 999 88 8047 3.09 200 07:36 22.09.2022
1705 Clear 18 1002 85 10000 5.14 170 04:37 22.09.2022
1706 Clear 18 1007 78 10000 4.63 120 23:33 21.09.2022
1707 Clouds 18 1008 75 10000 3.09 190 22:26 21.09.2022
1708 Clouds 17 1010 78 10000 4.63 170 20:54 21.09.2022
1709 Clouds 15 1014 82 10000 2.57 180 17:55 21.09.2022
1710 Clouds 15 1014 82 10000 2.57 180 17:22 21.09.2022
1711 Clouds 13 1014 90 10000 1.03 150 15:18 21.09.2022
1712 Clouds 12 1015 94 10000 1.54 40 13:38 21.09.2022
1713 Clouds 11 1014 93 10000 2.06 10 11:34 21.09.2022
1714 Clouds 11 1014 94 10000 2.06 20 10:50 21.09.2022
1715 Clouds 11 1014 94 10000 2.06 20 10:50 21.09.2022
1716 Clouds 11 1014 93 10000 2.57 350 09:38 21.09.2022
1717 Clouds 12 1015 94 10000 2.57 20 08:23 21.09.2022
1718 Mist 13 1015 95 9656 4.63 20 02:51 21.09.2022
1719 Mist 13 1015 95 9656 4.63 20 02:51 21.09.2022
1720 Mist 13 1015 95 4828 4.63 20 02:33 21.09.2022
1721 Mist 13 1015 94 4023 4.63 360 01:49 21.09.2022
1722 Clouds 14 1013 89 10000 4.12 350 23:50 20.09.2022
1723 Clouds 14 1013 91 10000 5.14 340 21:33 20.09.2022
1724 Mist 13 1013 92 4828 4.12 330 20:23 20.09.2022
1725 Clouds 13 1012 94 10000 4.63 360 17:41 20.09.2022
1726 Mist 12 1011 97 9656 4.12 10 14:59 20.09.2022
1727 Mist 12 1010 97 9656 3.09 360 13:59 20.09.2022
1728 Mist 11 1010 98 2414 2.06 350 11:24 20.09.2022
1729 Mist 11 1009 98 4828 4.63 360 08:29 20.09.2022
1730 Mist 11 1009 98 2414 5.14 340 07:31 20.09.2022
1731 Mist 13 1008 98 2816 4.12 360 04:30 20.09.2022
1732 Clouds 13 1008 96 10000 4.12 350 01:28 20.09.2022
1733 Mist 13 1008 96 10000 6.17 40 22:33 19.09.2022
1734 Rain 12 1009 95 10000 6.17 40 21:28 19.09.2022
1735 Mist 12 1009 95 10000 6.17 20 20:39 19.09.2022
1736 Clouds 12 1011 95 10000 4.12 10 18:42 19.09.2022
1737 Clouds 11 1012 95 10000 6.69 20 16:37 19.09.2022
1738 Clouds 10 1013 91 10000 4.63 50 13:45 19.09.2022
1739 Mist 11 1013 89 10000 6.17 60 11:43 19.09.2022
1740 Clouds 11 1014 87 10000 3.6 10 09:35 19.09.2022
1741 Clouds 12 1014 88 10000 4.63 30 08:20 19.09.2022
1742 Clouds 13 1014 94 10000 5.14 30 03:28 19.09.2022
1743 Rain 13 1013 94 4828 6.69 30 23:39 18.09.2022
1744 Clouds 13 1014 94 10000 5.66 40 22:32 18.09.2022
1745 Clouds 13 1014 93 10000 3.09 40 20:47 18.09.2022
1746 Mist 13 1015 91 10000 5.14 30 19:33 18.09.2022
1747 Clouds 13 1015 91 10000 5.66 40 17:51 18.09.2022
1748 Mist 13 1015 93 8047 6.69 20 16:46 18.09.2022
1749 Clouds 14 1014 89 10000 4.63 30 14:44 18.09.2022
1750 Clouds 14 1013 87 10000 4.12 20 13:34 18.09.2022
1751 Clouds 15 1013 86 10000 1.54 180 11:55 18.09.2022
1752 Clouds 15 1014 81 10000 1.54 180 09:25 18.09.2022
1753 Clouds 17 1019 59 10000 3.09 130 01:43 18.09.2022
1754 Clouds 17 1019 57 10000 3.09 130 01:19 18.09.2022
1755 Clouds 20 1021 48 10000 2.57 210 22:56 17.09.2022
1756 Clear 19 1023 46 10000 2.06 0 20:53 17.09.2022
1757 Clear 19 1024 49 10000 2.57 240 19:37 17.09.2022
1758 Clear 17 1025 56 10000 2.57 150 17:44 17.09.2022
1759 Clear 9 1026 82 10000 2.57 30 14:22 17.09.2022
1760 Clear 7 1026 87 10000 1.54 70 13:26 17.09.2022
1761 Clear 8 1025 87 10000 1.03 280 10:49 17.09.2022
1762 Clear 10 1024 78 10000 1.54 40 06:53 17.09.2022
1763 Clear 11 1024 78 10000 1.54 40 06:19 17.09.2022
1764 Clouds 17 1022 53 10000 4.12 220 23:41 16.09.2022
1765 Clouds 18 1022 49 10000 3.6 250 22:19 16.09.2022
1766 Clouds 18 1022 51 10000 4.12 360 20:53 16.09.2022
1767 Clouds 16 1023 54 10000 4.63 280 19:29 16.09.2022
1768 Clear 15 1023 59 10000 5.14 10 16:24 16.09.2022
1769 Clear 13 1023 67 10000 2.57 310 14:52 16.09.2022
1770 Clouds 12 1022 73 10000 3.09 300 13:21 16.09.2022
1771 Clouds 12 1022 70 10000 3.09 290 10:24 16.09.2022
1772 Clouds 13 1022 66 10000 3.09 280 07:26 16.09.2022
1773 Clouds 13 1022 66 10000 3.6 280 06:48 16.09.2022
1774 Clouds 13 1021 64 10000 2.06 310 05:57 16.09.2022
1775 Clear 14 1021 57 10000 3.6 300 02:30 16.09.2022
1776 Clear 17 1021 45 10000 5.66 270 21:47 15.09.2022
1777 Clear 17 1022 46 10000 6.69 290 20:38 15.09.2022
1778 Clear 16 1023 50 10000 5.66 330 19:31 15.09.2022
1779 Clear 13 1023 55 10000 5.66 10 17:58 15.09.2022
1780 Clear 13 1023 56 10000 5.66 10 17:28 15.09.2022
1781 Clouds 12 1023 65 10000 6.17 340 15:47 15.09.2022
1782 Clear 9 1021 82 10000 4.63 300 12:51 15.09.2022
1783 Clear 9 1020 81 10000 4.12 310 11:48 15.09.2022
1784 Clouds 10 1019 79 10000 4.63 310 09:46 15.09.2022
1785 Clouds 11 1018 73 10000 4.63 290 07:44 15.09.2022
1786 Clouds 14 1016 62 10000 7.2 350 03:48 15.09.2022
1787 Clouds 19 1012 68 10000 8.75 310 23:22 14.09.2022
1788 Clouds 23 1011 60 10000 8.23 280 20:47 14.09.2022
1789 Clouds 23 1010 58 10000 7.72 290 19:33 14.09.2022
1790 Clouds 22 1009 66 10000 7.72 300 17:48 14.09.2022
1791 Clouds 21 1008 76 10000 8.75 290 16:37 14.09.2022
1792 Clouds 20 1007 86 10000 6.69 270 15:27 14.09.2022
1793 Mist 17 1004 94 9656 6.17 250 12:50 14.09.2022
1794 Clouds 17 1004 92 10000 6.69 240 09:53 14.09.2022
1795 Clouds 17 1004 93 10000 7.2 250 08:38 14.09.2022
1796 Clouds 17 1005 91 10000 6.69 260 06:50 14.09.2022
1797 Clouds 17 1005 92 10000 6.69 260 06:30 14.09.2022
1798 Clouds 17 1005 92 10000 6.69 260 06:30 14.09.2022
1799 Mist 18 1005 95 6437 7.2 250 02:58 14.09.2022
1800 Mist 18 1004 94 9656 6.17 290 01:36 14.09.2022
1801 Rain 19 1004 94 10000 5.14 300 00:53 14.09.2022
1802 Rain 20 1004 94 10000 7.2 290 23:55 13.09.2022
1803 Rain 20 1004 94 3219 6.69 190 23:37 13.09.2022
1804 Mist 21 1004 95 2816 3.6 310 23:19 13.09.2022
1805 Clouds 21 1004 94 10000 1.54 320 22:29 13.09.2022
1806 Clouds 21 1005 94 10000 1.54 350 21:39 13.09.2022
1807 Rain 20 1007 96 9656 2.06 160 19:26 13.09.2022
1808 Clouds 22 1007 83 10000 2.57 170 16:45 13.09.2022
1809 Clouds 21 1007 84 10000 2.06 120 15:38 13.09.2022
1810 Clouds 20 1007 84 10000 2.06 100 13:41 13.09.2022
1811 Clouds 20 1007 81 10000 1.54 90 11:23 13.09.2022
1812 Clouds 21 1008 77 10000 2.06 90 08:20 13.09.2022
1813 Clear 22 1008 72 10000 1.54 50 02:58 13.09.2022
1814 Clear 28 1008 54 10000 3.6 120 23:23 12.09.2022
1815 Clear 27 1009 56 10000 1.54 120 22:45 12.09.2022
1816 Clear 27 1009 57 10000 3.6 170 21:35 12.09.2022
1817 Clouds 27 1010 58 10000 3.09 120 20:23 12.09.2022
1818 Clear 26 1011 62 10000 1.54 200 18:40 12.09.2022
1819 Clear 22 1012 79 10000 2.06 260 15:53 12.09.2022
1820 Clouds 18 1013 91 10000 1.03 140 12:57 12.09.2022
1821 Clouds 19 1013 89 10000 2.57 240 10:34 12.09.2022
1822 Clouds 19 1013 89 10000 2.06 220 09:33 12.09.2022
1823 Clouds 22 1015 72 10000 5.66 270 04:42 12.09.2022
1824 Clouds 24 1015 63 10000 4.63 250 02:57 12.09.2022
1825 Clouds 28 1016 50 10000 4.63 180 22:51 11.09.2022
1826 Clouds 29 1016 50 10000 2.06 200 21:40 11.09.2022
1827 Clouds 29 1017 49 10000 3.09 170 20:44 11.09.2022
1828 Clear 28 1018 51 10000 3.09 200 19:46 11.09.2022
1829 Clear 28 1018 52 10000 3.09 200 19:22 11.09.2022
1830 Clear 27 1019 56 10000 2.57 170 17:57 11.09.2022
1831 Clear 24 1019 66 10000 1.54 150 16:23 11.09.2022
1832 Clear 19 1020 89 10000 1.03 130 14:18 11.09.2022
1833 Clear 17 1020 91 10000 1.54 190 12:32 11.09.2022
1834 Clouds 19 1021 84 10000 1.54 240 08:27 11.09.2022
1835 Clear 20 1021 78 10000 1.54 180 06:33 11.09.2022
1836 Clear 27 1020 56 10000 4.12 210 00:49 11.09.2022
1837 Clear 29 1020 53 10000 4.63 240 22:26 10.09.2022
1838 Clear 29 1021 55 10000 4.12 230 20:55 10.09.2022
1839 Clear 28 1022 57 10000 4.12 190 19:46 10.09.2022
1840 Clear 27 1022 58 10000 4.12 190 19:27 10.09.2022
1841 Clear 26 1022 63 10000 4.63 220 17:59 10.09.2022
1842 Clear 22 1022 81 10000 2.06 150 15:49 10.09.2022
1843 Clear 19 1022 89 10000 2.06 120 14:40 10.09.2022
1844 Clear 16 1021 94 10000 1.54 130 12:52 10.09.2022
1845 Clear 17 1020 91 10000 1.54 150 10:35 10.09.2022
1846 Clear 18 1020 90 10000 2.06 140 09:24 10.09.2022
1847 Clear 19 1020 87 10000 2.06 200 08:27 10.09.2022
1848 Clear 20 1019 82 10000 1.54 200 05:50 10.09.2022
1849 Clear 26 1017 54 10000 4.12 220 00:19 10.09.2022
1850 Clear 27 1017 53 10000 4.12 210 23:31 09.09.2022
1851 Clear 28 1017 53 10000 5.14 190 21:38 09.09.2022
1852 Clear 27 1017 56 10000 4.12 220 20:31 09.09.2022
1853 Clear 26 1017 62 10000 4.12 220 19:24 09.09.2022
1854 Clear 26 1018 66 10000 4.12 240 18:38 09.09.2022
1855 Clear 22 1018 75 10000 2.57 190 16:23 09.09.2022
1856 Clear 16 1016 91 10000 2.06 130 13:48 09.09.2022
1857 Clear 15 1016 89 10000 2.06 250 11:58 09.09.2022
1858 Clear 16 1015 86 10000 2.57 230 09:53 09.09.2022
1859 Clear 20 1013 71 10000 3.6 240 04:57 09.09.2022
1860 Clear 22 1013 65 10000 3.09 220 02:54 09.09.2022
1861 Clear 28 1012 50 10000 5.14 190 21:52 08.09.2022
1862 Clear 27 1013 51 10000 3.6 180 20:51 08.09.2022
1863 Clear 27 1013 53 10000 3.6 180 20:31 08.09.2022
1864 Clear 26 1013 57 10000 3.6 210 19:49 08.09.2022
1865 Clear 24 1014 70 10000 2.57 180 17:48 08.09.2022
1866 Clear 22 1014 76 10000 2.57 200 16:19 08.09.2022
1867 Clear 17 1014 88 10000 2.57 250 14:40 08.09.2022
1868 Clear 15 1014 92 10000 2.06 170 13:26 08.09.2022
1869 Clear 15 1014 91 10000 2.06 210 11:39 08.09.2022
1870 Clear 15 1014 90 10000 1.54 200 10:52 08.09.2022
1871 Clear 16 1014 89 10000 2.06 140 08:21 08.09.2022
1872 Clear 17 1015 85 10000 1.03 250 06:41 08.09.2022
1873 Clear 20 1015 72 10000 1.54 170 02:37 08.09.2022
1874 Clear 20 1015 70 10000 1.54 170 02:18 08.09.2022
1875 Clear 24 1015 56 10000 2.57 220 00:56 08.09.2022
1876 Clear 26 1016 52 10000 2.57 160 22:44 07.09.2022
1877 Clear 25 1016 54 10000 3.09 220 21:42 07.09.2022
1878 Clear 25 1017 57 10000 2.57 0 20:49 07.09.2022
1879 Clear 24 1018 60 10000 2.06 10 19:40 07.09.2022
1880 Clear 22 1019 69 10000 2.06 40 17:49 07.09.2022
1881 Fog 14 1019 94 604 2.06 340 12:52 07.09.2022
1882 Clouds 15 1019 93 10000 2.06 360 10:48 07.09.2022
1883 Clouds 16 1019 91 10000 2.06 10 09:19 07.09.2022
1884 Clouds 17 1020 89 10000 3.09 10 07:23 07.09.2022
1885 Clouds 20 1020 78 10000 4.12 40 03:19 07.09.2022
1886 Clouds 21 1020 75 10000 5.66 40 22:59 06.09.2022
1887 Clouds 21 1020 72 10000 5.14 60 21:41 06.09.2022
1888 Clouds 20 1021 73 10000 5.66 40 20:24 06.09.2022
1889 Clouds 18 1021 78 10000 5.66 50 18:45 06.09.2022
1890 Clouds 18 1021 80 10000 5.66 50 18:22 06.09.2022
1891 Clouds 16 1022 82 10000 6.69 20 17:22 06.09.2022
1892 Clouds 15 1022 85 10000 6.69 30 16:37 06.09.2022
1893 Clouds 14 1022 84 10000 7.72 30 15:22 06.09.2022
1894 Clouds 13 1021 86 10000 7.2 30 13:45 06.09.2022
1895 Clouds 12 1021 86 10000 7.2 30 13:23 06.09.2022
1896 Clouds 13 1020 89 10000 5.66 20 11:57 06.09.2022
1897 Clouds 13 1020 89 10000 5.66 20 10:41 06.09.2022
1898 Clouds 13 1021 86 10000 5.14 40 08:50 06.09.2022
1899 Clouds 14 1021 84 10000 6.17 50 07:37 06.09.2022
1900 Clear 17 1021 81 10000 3.09 60 02:44 06.09.2022
1901 Clouds 19 1021 70 10000 4.12 40 23:23 05.09.2022
1902 Clouds 19 1022 70 10000 4.12 60 21:53 05.09.2022
1903 Clouds 19 1022 69 10000 4.63 70 20:33 05.09.2022
1904 Clouds 19 1022 68 10000 5.14 50 19:20 05.09.2022
1905 Clouds 18 1022 69 10000 5.14 50 18:45 05.09.2022
1906 Clouds 18 1022 70 10000 5.14 50 18:21 05.09.2022
1907 Clouds 15 1023 76 10000 5.66 30 16:37 05.09.2022
1908 Clouds 14 1023 79 10000 5.14 30 15:47 05.09.2022
1909 Clouds 12 1022 88 10000 5.66 10 13:26 05.09.2022
1910 Clouds 12 1022 89 10000 4.63 20 12:27 05.09.2022
1911 Clouds 12 1022 83 10000 4.12 20 09:44 05.09.2022
1912 Clear 13 1023 80 10000 5.14 30 06:41 05.09.2022
1913 Clear 16 1022 70 10000 3.09 70 02:19 05.09.2022
1914 Clear 19 1022 60 10000 4.63 60 23:18 04.09.2022
1915 Clouds 19 1022 64 10000 2.57 70 22:27 04.09.2022
1916 Clouds 16 1023 66 10000 3.09 30 20:50 04.09.2022
1917 Clouds 15 1023 73 10000 4.12 30 19:32 04.09.2022
1918 Clouds 14 1024 75 10000 4.12 30 18:19 04.09.2022
1919 Clouds 14 1024 80 10000 5.14 360 16:44 04.09.2022
1920 Clouds 13 1023 87 10000 4.12 20 14:30 04.09.2022
1921 Mist 13 1022 88 10000 4.63 40 13:49 04.09.2022
1922 Clouds 15 1021 83 10000 8.75 20 11:54 04.09.2022
1923 Clouds 16 1020 86 10000 8.23 20 10:47 04.09.2022
1924 Clouds 20 1019 91 10000 2.57 250 08:20 04.09.2022
1925 Clouds 21 1019 86 10000 2.06 320 05:35 04.09.2022
1926 Clear 26 1018 61 10000 5.66 170 00:50 04.09.2022
1927 Clear 28 1019 57 10000 5.66 170 22:24 03.09.2022
1928 Clear 28 1020 57 10000 4.63 170 21:23 03.09.2022
1929 Clear 28 1020 57 10000 4.63 170 21:23 03.09.2022
1930 Clear 27 1021 59 10000 4.12 170 19:42 03.09.2022
1931 Clear 24 1022 64 10000 5.14 180 17:28 03.09.2022
1932 Clear 23 1022 66 10000 5.66 170 16:33 03.09.2022
1933 Clear 19 1022 77 10000 3.6 170 14:46 03.09.2022
1934 Clear 19 1022 78 10000 3.6 170 14:26 03.09.2022
1935 Clear 16 1023 85 10000 2.06 140 12:32 03.09.2022
1936 Clear 17 1023 83 10000 2.06 140 10:49 03.09.2022
1937 Clear 17 1022 79 10000 3.09 170 08:30 03.09.2022
1938 Clear 17 1022 79 10000 3.09 170 08:30 03.09.2022
1939 Clear 18 1022 74 10000 2.57 150 06:58 03.09.2022
1940 Clear 19 1023 69 10000 2.57 180 04:38 03.09.2022
1941 Clear 24 1022 52 10000 5.66 170 00:32 03.09.2022
1942 Clear 24 1022 56 10000 4.63 160 23:20 02.09.2022
1943 Clear 24 1022 57 10000 6.69 150 21:19 02.09.2022
1944 Clear 24 1023 56 10000 4.63 200 20:39 02.09.2022
1945 Clear 23 1023 56 10000 4.63 210 19:30 02.09.2022
1946 Clouds 22 1023 59 10000 4.63 200 18:43 02.09.2022
1947 Clouds 22 1023 59 10000 4.63 200 18:24 02.09.2022
1948 Clouds 19 1024 68 10000 4.63 210 16:49 02.09.2022
1949 Clear 17 1023 73 10000 3.09 190 15:35 02.09.2022
1950 Clear 10 1022 89 10000 1.03 190 12:43 02.09.2022
1951 Clear 10 1020 86 10000 2.06 130 10:25 02.09.2022
1952 Clear 11 1020 86 10000 3.09 190 09:41 02.09.2022
1953 Clear 12 1019 83 10000 3.09 200 07:54 02.09.2022
1954 Clear 12 1019 80 10000 2.57 240 06:41 02.09.2022
1955 Clear 13 1018 71 10000 2.57 280 03:53 02.09.2022
1956 Clouds 16 1015 57 10000 7.2 270 22:54 01.09.2022
1957 Clouds 17 1015 55 10000 6.69 270 21:45 01.09.2022
1958 Clouds 17 1015 55 10000 6.69 270 21:25 01.09.2022
1959 Clouds 17 1014 56 10000 7.2 280 20:46 01.09.2022
1960 Clouds 16 1013 55 10000 7.72 270 19:20 01.09.2022
1961 Clouds 15 1012 62 10000 8.23 290 17:48 01.09.2022
1962 Clouds 15 1012 69 10000 5.14 270 16:29 01.09.2022
1963 Clear 14 1010 77 10000 7.2 280 14:33 01.09.2022
1964 Clouds 14 1008 85 10000 5.14 270 12:59 01.09.2022
1965 Clouds 14 1008 85 10000 4.63 290 11:55 01.09.2022
1966 Clouds 14 1008 85 10000 4.63 290 11:36 01.09.2022
1967 Clouds 14 1007 83 10000 4.12 280 10:45 01.09.2022
1968 Clouds 15 1005 89 10000 4.63 240 08:31 01.09.2022
1969 Clouds 16 1005 83 10000 3.09 200 06:23 01.09.2022
1970 Clear 21 1004 55 10000 9.77 220 01:34 01.09.2022
1971 Clouds 22 1004 58 10000 9.26 230 00:18 01.09.2022
1972 Clouds 22 1004 58 10000 7.2 240 21:44 31.08.2022
1973 Clouds 22 1005 54 10000 9.26 260 19:59 31.08.2022
1974 Clouds 21 1005 68 10000 10.29 240 18:19 31.08.2022
1975 Clouds 20 1005 77 10000 11.32 240 16:31 31.08.2022
1976 Clouds 19 1004 86 10000 6.69 250 14:36 31.08.2022
1977 Clouds 19 1003 92 10000 4.63 200 12:24 31.08.2022
1978 Clouds 19 1003 91 10000 7.72 240 11:29 31.08.2022
1979 Clouds 19 1003 92 10000 5.14 180 09:20 31.08.2022
1980 Clouds 19 1004 93 10000 4.63 190 06:18 31.08.2022
1981 Clouds 27 1004 69 10000 7.72 240 23:21 30.08.2022
1982 Clouds 29 1005 61 10000 6.69 230 21:43 30.08.2022
1983 Clouds 29 1006 62 10000 7.2 230 20:57 30.08.2022
1984 Clouds 29 1007 68 10000 7.2 230 18:32 30.08.2022
1985 Clouds 25 1008 82 10000 7.72 220 15:29 30.08.2022
1986 Clouds 23 1008 90 10000 4.12 200 13:24 30.08.2022
1987 Clear 22 1008 91 10000 3.09 180 11:22 30.08.2022
1988 Clouds 22 1008 90 10000 4.12 190 10:57 30.08.2022
1989 Clouds 23 1009 91 10000 3.6 190 07:46 30.08.2022
1990 Clouds 27 1009 73 10000 6.17 170 02:34 30.08.2022
1991 Clear 31 1010 64 10000 6.69 170 23:22 29.08.2022
1992 Clear 31 1011 62 10000 7.2 180 22:32 29.08.2022
1993 Clear 31 1012 62 10000 7.2 160 21:27 29.08.2022
1994 Clouds 30 1013 64 10000 5.66 200 20:19 29.08.2022
1995 Clouds 28 1015 69 10000 5.14 220 17:58 29.08.2022
1996 Clouds 27 1015 69 10000 5.14 220 17:25 29.08.2022
1997 Clear 26 1015 72 10000 5.14 180 16:40 29.08.2022
1998 Clear 24 1016 80 10000 4.63 180 15:18 29.08.2022
1999 Clouds 20 1016 88 10000 4.63 180 13:23 29.08.2022
2000 Clouds 20 1016 86 10000 2.57 180 11:20 29.08.2022
2001 Clouds 19 1016 85 10000 2.06 100 10:19 29.08.2022
2002 Clear 19 1016 82 10000 2.06 170 08:38 29.08.2022
2003 Clear 20 1017 76 10000 2.06 150 05:52 29.08.2022
2004 Clear 25 1018 61 10000 3.09 170 01:24 29.08.2022
2005 Clear 26 1019 50 10000 4.12 230 22:50 28.08.2022
2006 Clear 27 1019 50 10000 2.57 170 21:44 28.08.2022
2007 Clear 26 1020 50 10000 1.54 260 20:56 28.08.2022
2008 Clear 25 1021 55 10000 2.06 0 19:29 28.08.2022
2009 Clear 24 1021 59 10000 3.09 110 18:21 28.08.2022
2010 Clear 23 1022 63 10000 4.63 140 17:25 28.08.2022
2011 Clear 21 1022 73 10000 3.09 140 16:28 28.08.2022
2012 Clouds 17 1022 86 10000 1.54 140 14:44 28.08.2022
2013 Mist 13 1021 94 9656 1.54 110 12:48 28.08.2022
2014 Mist 14 1021 92 8047 1.03 210 10:51 28.08.2022
2015 Mist 14 1021 89 8047 1.54 140 09:56 28.08.2022
2016 Clear 15 1021 88 10000 2.06 160 08:38 28.08.2022
2017 Clear 15 1021 87 10000 1.03 210 07:45 28.08.2022
2018 Clear 18 1019 74 10000 2.06 130 02:59 28.08.2022
2019 Clear 22 1019 59 10000 2.06 350 00:29 28.08.2022
2020 Clear 22 1019 62 10000 1.54 340 22:38 27.08.2022
2021 Clouds 21 1019 65 10000 1.54 100 21:40 27.08.2022
2022 Clouds 20 1020 73 10000 5.14 20 19:57 27.08.2022
2023 Clouds 19 1020 76 10000 2.06 10 18:27 27.08.2022
2024 Clouds 17 1019 85 10000 3.6 60 15:53 27.08.2022
2025 Drizzle 17 1019 86 10000 4.63 40 15:25 27.08.2022
2026 Clouds 16 1017 91 10000 1.54 30 12:31 27.08.2022
2027 Clouds 16 1016 91 10000 1.54 20 11:47 27.08.2022
2028 Clouds 16 1016 87 10000 3.09 350 09:50 27.08.2022
2029 Clouds 16 1016 87 10000 2.06 10 08:45 27.08.2022
2030 Clouds 17 1014 83 10000 5.14 30 03:58 27.08.2022
2031 Clouds 18 1012 83 10000 5.14 360 00:20 27.08.2022
2032 Clouds 19 1011 81 10000 5.14 360 23:23 26.08.2022
2033 Clouds 20 1011 79 10000 4.63 20 21:39 26.08.2022
2034 Clouds 18 1012 84 10000 6.69 20 19:24 26.08.2022
2035 Clouds 20 1012 73 10000 3.09 130 17:25 26.08.2022
2036 Clouds 19 1013 73 10000 5.14 80 15:35 26.08.2022
2037 Clouds 18 1014 78 10000 4.63 50 14:42 26.08.2022
2038 Clouds 17 1015 76 10000 4.63 50 12:54 26.08.2022
2039 Clouds 18 1015 75 10000 3.6 40 11:37 26.08.2022
2040 Clouds 18 1015 75 10000 4.63 40 10:47 26.08.2022
2041 Clouds 19 1017 69 10000 1.03 190 07:32 26.08.2022
2042 Clouds 21 1018 60 10000 3.6 150 02:31 26.08.2022
2043 Clear 23 1018 52 10000 2.06 180 23:44 25.08.2022
2044 Clear 24 1018 49 10000 2.06 0 21:46 25.08.2022
2045 Clouds 24 1019 50 10000 3.6 50 20:51 25.08.2022
2046 Clouds 23 1019 50 10000 3.6 20 19:25 25.08.2022
2047 Clear 23 1019 56 10000 3.6 10 18:28 25.08.2022
2048 Clear 22 1020 61 10000 3.6 30 17:31 25.08.2022
2049 Clouds 20 1019 65 10000 4.12 20 16:25 25.08.2022
2050 Clouds 19 1019 69 10000 5.14 30 15:27 25.08.2022
2051 Clouds 18 1018 70 10000 3.09 20 12:56 25.08.2022
2052 Clouds 19 1017 69 10000 4.63 10 10:49 25.08.2022
2053 Clouds 19 1016 70 10000 4.12 360 09:44 25.08.2022
2054 Rain 21 1016 74 10000 3.6 10 06:45 25.08.2022
2055 Clear 26 1013 55 10000 6.17 290 01:57 25.08.2022
2056 Clouds 28 1012 58 10000 5.14 270 23:28 24.08.2022
2057 Clouds 28 1012 57 10000 6.17 230 22:43 24.08.2022
2058 Clear 28 1012 62 10000 6.69 220 21:37 24.08.2022
2059 Clear 27 1013 63 10000 5.66 240 20:56 24.08.2022
2060 Clouds 27 1013 67 10000 5.66 190 19:34 24.08.2022
2061 Clouds 24 1013 76 10000 3.6 260 16:49 24.08.2022
2062 Clear 22 1013 83 10000 2.57 290 15:52 24.08.2022
2063 Mist 19 1012 95 9656 2.06 260 13:48 24.08.2022
2064 Mist 18 1011 95 8047 1.54 340 11:59 24.08.2022
2065 Mist 19 1011 94 9656 2.06 320 11:18 24.08.2022
2066 Clouds 19 1010 94 10000 2.06 330 08:28 24.08.2022
2067 Rain 21 1010 90 10000 3.6 10 03:44 24.08.2022
2068 Clouds 24 1008 83 10000 2.57 100 23:47 23.08.2022
2069 Clouds 23 1009 83 10000 2.57 80 22:33 23.08.2022
2070 Clouds 23 1008 86 10000 3.6 50 21:46 23.08.2022
2071 Clouds 22 1009 87 10000 3.6 70 20:33 23.08.2022
2072 Rain 21 1010 95 10000 21.09 50 18:53 23.08.2022
2073 Rain 20 1010 95 4828 22.64 40 17:51 23.08.2022
2074 Rain 20 1010 94 2414 22.64 40 17:18 23.08.2022
2075 Rain 20 1010 94 2414 22.64 40 17:18 23.08.2022
2076 Rain 20 1010 95 2816 22.64 50 15:49 23.08.2022
2077 Rain 20 1010 94 9656 2.57 70 13:36 23.08.2022
2078 Rain 20 1010 93 10000 2.57 260 12:45 23.08.2022
2079 Rain 21 1010 94 10000 1.54 60 10:53 23.08.2022
2080 Mist 21 1010 93 10000 1.54 60 10:32 23.08.2022
2081 Rain 21 1010 93 10000 1.54 60 10:32 23.08.2022
2082 Clouds 21 1010 93 10000 3.6 30 08:55 23.08.2022
2083 Clouds 21 1010 92 10000 3.6 30 08:22 23.08.2022
2084 Clouds 21 1011 91 10000 3.6 20 07:48 23.08.2022
2085 Clouds 21 1011 90 10000 4.63 20 06:58 23.08.2022
2086 Clouds 21 1011 89 10000 4.63 20 06:19 23.08.2022
2087 Clouds 25 1011 59 10000 2.06 160 01:42 23.08.2022
2088 Clouds 26 1011 57 10000 2.57 150 00:26 23.08.2022
2089 Clouds 26 1011 58 10000 2.57 120 23:30 22.08.2022
2090 Clouds 27 1012 63 10000 4.12 110 22:19 22.08.2022
2091 Clouds 26 1013 70 10000 3.09 140 19:56 22.08.2022
2092 Clouds 27 1013 70 10000 3.09 140 19:36 22.08.2022
2093 Clouds 26 1014 73 10000 3.09 110 18:36 22.08.2022
2094 Clouds 24 1014 81 10000 4.12 170 15:45 22.08.2022
2095 Clouds 22 1015 88 10000 1.54 70 14:48 22.08.2022
2096 Clouds 20 1014 93 10000 2.06 150 11:20 22.08.2022
2097 Clouds 20 1015 93 10000 3.09 180 09:24 22.08.2022
2098 Rain 21 1015 91 10000 5.14 210 05:44 22.08.2022
2099 Clouds 22 1015 88 10000 2.06 50 00:56 22.08.2022
2100 Clouds 22 1015 88 10000 1.54 300 00:36 22.08.2022
2101 Thunderstorm 22 1016 88 9656 3.6 340 22:57 21.08.2022
2102 Rain 24 1016 79 10000 9.77 240 21:55 21.08.2022
2103 Thunderstorm 28 1016 66 10000 6.17 230 21:18 21.08.2022
2104 Clear 30 1016 57 10000 4.12 160 19:42 21.08.2022
2105 Clouds 29 1017 54 10000 3.6 230 18:35 21.08.2022
2106 Clear 27 1018 60 10000 3.6 170 16:48 21.08.2022
2107 Clouds 26 1018 69 10000 2.06 170 15:52 21.08.2022
2108 Clouds 23 1018 75 10000 3.09 190 14:41 21.08.2022
2109 Clouds 21 1018 78 10000 2.06 150 13:48 21.08.2022
2110 Clear 20 1018 82 10000 1.54 150 12:55 21.08.2022
2111 Clouds 21 1017 78 10000 2.06 120 10:36 21.08.2022
2112 Clouds 22 1017 72 10000 1.54 110 08:57 21.08.2022
2113 Clouds 22 1017 71 10000 1.54 110 08:39 21.08.2022
2114 Clouds 22 1017 72 10000 1.54 110 07:53 21.08.2022
2115 Haze 23 1018 64 9656 2.06 100 06:33 21.08.2022
2116 Clear 28 1018 49 10000 4.12 150 01:47 21.08.2022
2117 Clear 31 1018 44 10000 3.6 140 23:32 20.08.2022
2118 Clear 31 1019 42 10000 3.6 260 21:51 20.08.2022
2119 Clear 30 1020 46 10000 3.6 200 20:51 20.08.2022
2120 Clear 30 1020 49 10000 3.6 210 19:42 20.08.2022
2121 Clear 29 1020 53 10000 3.09 220 18:48 20.08.2022
2122 Clear 28 1020 54 10000 3.09 220 18:26 20.08.2022
2123 Clear 27 1021 58 10000 3.09 250 17:21 20.08.2022
2124 Clear 24 1020 64 10000 4.12 230 15:57 20.08.2022
2125 Clear 21 1020 73 10000 2.06 220 14:20 20.08.2022
2126 Clear 18 1019 80 10000 4.12 170 11:58 20.08.2022
2127 Clear 18 1019 80 10000 4.12 170 11:37 20.08.2022
2128 Clear 20 1018 78 10000 3.09 230 09:20 20.08.2022
2129 Clear 21 1018 74 10000 4.12 220 07:30 20.08.2022
2130 Clear 23 1017 69 10000 3.09 220 04:50 20.08.2022
2131 Clear 28 1015 50 10000 5.66 260 00:58 20.08.2022
2132 Clouds 29 1015 48 10000 6.69 270 23:45 19.08.2022
2133 Clouds 30 1014 46 10000 6.17 250 22:45 19.08.2022
2134 Clouds 30 1014 47 10000 7.2 250 21:20 19.08.2022
2135 Clear 27 1015 58 10000 5.66 240 18:59 19.08.2022
2136 Clear 27 1015 58 10000 5.66 240 18:59 19.08.2022
2137 Clear 27 1015 58 10000 5.66 240 18:59 19.08.2022
2138 Clear 27 1015 58 10000 5.66 240 18:59 19.08.2022
2139 Clear 23 1015 67 10000 4.12 250 16:23 19.08.2022
2140 Clouds 18 1013 88 10000 2.57 240 13:44 19.08.2022
2141 Clouds 17 1012 89 10000 0.51 250 11:51 19.08.2022
2142 Clouds 17 1012 90 10000 1.54 150 10:33 19.08.2022
2143 Clouds 18 1012 87 10000 1.54 80 08:43 19.08.2022
2144 Clouds 18 1011 85 10000 2.57 250 04:39 19.08.2022
2145 Clouds 20 1010 80 10000 5.66 30 00:40 19.08.2022
2146 Clouds 20 1010 79 10000 5.66 30 00:19 19.08.2022
2147 Rain 21 1009 71 10000 4.12 20 22:57 18.08.2022
2148 Rain 21 1009 70 10000 3.09 20 22:23 18.08.2022
2149 Rain 21 1009 68 10000 5.66 360 21:49 18.08.2022
2150 Clouds 22 1009 60 10000 5.66 330 20:47 18.08.2022
2151 Clouds 22 1009 56 10000 5.66 360 19:35 18.08.2022
2152 Clouds 22 1009 51 10000 4.12 320 18:43 18.08.2022
2153 Clouds 22 1009 54 10000 3.09 10 17:32 18.08.2022
2154 Clouds 20 1010 67 10000 3.09 330 15:53 18.08.2022
2155 Clouds 19 1010 81 10000 0.45 348 14:21 18.08.2022
2156 Clouds 19 1010 84 10000 3.09 300 13:44 18.08.2022
2157 Clouds 18 1010 87 10000 1.54 310 12:28 18.08.2022
2158 Clouds 18 1011 86 10000 2.06 360 11:20 18.08.2022
2159 Rain 19 1012 80 10000 2.57 310 09:43 18.08.2022
2160 Clouds 19 1013 78 10000 2.57 320 07:27 18.08.2022
2161 Clouds 20 1014 77 10000 2.06 360 06:30 18.08.2022
2162 Clear 24 1015 54 10000 6.17 50 01:44 18.08.2022
2163 Clear 26 1016 52 10000 6.17 70 22:45 17.08.2022
2164 Clear 26 1017 60 10000 5.66 30 20:21 17.08.2022
2165 Clear 26 1018 62 10000 5.66 10 19:58 17.08.2022
2166 Clear 24 1018 67 10000 4.12 20 18:33 17.08.2022
2167 Clouds 21 1019 73 10000 4.63 20 16:52 17.08.2022
2168 Clouds 20 1020 75 10000 5.14 20 15:46 17.08.2022
2169 Clear 18 1020 77 10000 5.14 20 14:40 17.08.2022
2170 Clear 17 1019 76 10000 5.14 20 12:29 17.08.2022
2171 Clear 17 1019 72 10000 5.14 30 11:23 17.08.2022
2172 Clear 19 1019 72 10000 4.12 30 09:19 17.08.2022
2173 Clouds 21 1019 72 10000 4.63 50 06:29 17.08.2022
2174 Clouds 23 1019 65 10000 3.09 90 01:22 17.08.2022
2175 Clouds 25 1019 54 10000 7.2 80 23:27 16.08.2022
2176 Clouds 27 1019 50 10000 4.12 70 21:32 16.08.2022
2177 Clear 28 1019 54 10000 3.09 60 20:20 16.08.2022
2178 Clear 27 1019 57 10000 4.63 60 19:26 16.08.2022
2179 Clear 25 1020 63 10000 4.12 60 17:55 16.08.2022
2180 Clear 23 1019 69 10000 4.63 40 16:48 16.08.2022
2181 Clear 21 1019 73 10000 4.63 20 15:45 16.08.2022
2182 Clear 20 1019 76 10000 5.14 20 14:54 16.08.2022
2183 Clear 19 1019 78 10000 5.14 20 14:36 16.08.2022
2184 Clear 17 1018 81 10000 2.57 350 12:33 16.08.2022
2185 Clouds 17 1018 77 10000 2.57 20 10:23 16.08.2022
2186 Clouds 18 1018 75 10000 4.12 20 08:54 16.08.2022
2187 Clouds 18 1018 75 10000 4.12 20 08:26 16.08.2022
2188 Clear 18 1018 72 10000 3.6 20 06:48 16.08.2022
2189 Clouds 27 1016 41 10000 2.06 50 00:32 16.08.2022
2190 Clear 27 1016 43 10000 3.09 200 22:24 15.08.2022
2191 Clear 27 1016 42 10000 2.57 190 21:51 15.08.2022
2192 Clear 27 1016 42 10000 3.6 210 20:35 15.08.2022
2193 Clear 27 1017 42 10000 3.09 200 19:59 15.08.2022
2194 Haze 25 1017 52 9656 1.54 0 18:00 15.08.2022
2195 Clear 23 1017 60 10000 1.54 0 16:25 15.08.2022
2196 Clear 22 1017 66 10000 1.54 20 15:54 15.08.2022
2197 Clear 17 1017 80 10000 1.54 140 13:54 15.08.2022
2198 Clear 16 1016 85 10000 1.54 190 11:25 15.08.2022
2199 Clear 16 1017 81 10000 1.54 140 09:42 15.08.2022
2200 Clear 17 1017 74 10000 1.54 10 07:44 15.08.2022
2201 Clear 20 1017 63 10000 2.06 240 04:35 15.08.2022
2202 Clear 26 1016 40 10000 4.63 200 00:54 15.08.2022
2203 Clear 27 1016 38 10000 5.14 220 22:38 14.08.2022
2204 Clear 27 1016 38 10000 5.14 220 21:37 14.08.2022
2205 Haze 26 1017 47 9656 2.57 210 19:48 14.08.2022
2206 Clear 26 1017 53 10000 2.57 230 18:58 14.08.2022
2207 Clear 25 1017 55 10000 2.57 230 18:18 14.08.2022
2208 Clear 22 1018 62 10000 2.06 180 16:52 14.08.2022
2209 Clear 20 1018 68 10000 1.03 270 15:48 14.08.2022
2210 Clear 17 1018 79 10000 2.57 260 14:27 14.08.2022
2211 Clear 16 1018 84 10000 2.06 130 13:50 14.08.2022
2212 Clear 15 1018 86 10000 2.06 130 13:19 14.08.2022
2213 Clear 13 1018 88 10000 1.54 130 12:23 14.08.2022
2214 Clear 14 1018 85 10000 2.06 240 10:49 14.08.2022
2215 Clear 15 1018 77 10000 2.57 230 08:51 14.08.2022
2216 Clear 17 1018 73 10000 1.54 260 06:22 14.08.2022
2217 Clear 20 1018 57 10000 3.09 210 02:49 14.08.2022
2218 Clear 24 1018 44 10000 4.63 230 23:53 13.08.2022
2219 Clouds 25 1019 44 10000 3.6 190 22:52 13.08.2022
2220 Haze 24 1020 44 8047 2.57 0 20:58 13.08.2022
2221 Clouds 24 1020 44 10000 2.57 0 20:33 13.08.2022
2222 Clear 23 1020 46 10000 2.06 310 19:37 13.08.2022
2223 Clear 22 1021 55 10000 2.57 320 17:42 13.08.2022
2224 Clear 19 1021 68 10000 1.54 340 15:31 13.08.2022
2225 Clear 16 1021 76 10000 2.06 10 14:28 13.08.2022
2226 Clear 15 1021 81 10000 2.06 320 13:40 13.08.2022
2227 Clouds 13 1020 88 10000 1.03 340 11:52 13.08.2022
2228 Clouds 14 1019 86 10000 1.54 350 10:31 13.08.2022
2229 Clear 16 1019 80 10000 3.6 300 08:45 13.08.2022
2230 Clouds 18 1020 72 10000 2.06 280 05:34 13.08.2022
2231 Clouds 20 1018 60 10000 4.12 300 23:58 12.08.2022
2232 Clouds 20 1018 61 10000 3.09 300 21:46 12.08.2022
2233 Clouds 20 1018 61 10000 3.09 290 20:54 12.08.2022
2234 Clouds 19 1018 62 10000 3.09 350 19:42 12.08.2022
2235 Clouds 19 1018 63 10000 3.09 320 18:48 12.08.2022
2236 Clouds 18 1018 62 10000 4.12 310 17:25 12.08.2022
2237 Clouds 18 1018 69 10000 3.6 310 15:52 12.08.2022
2238 Clouds 16 1018 74 10000 3.6 300 14:44 12.08.2022
2239 Clouds 15 1017 74 10000 2.06 320 12:55 12.08.2022
2240 Clouds 15 1016 77 10000 2.57 310 11:19 12.08.2022
2241 Clear 15 1016 76 10000 1.54 330 08:31 12.08.2022
2242 Clear 17 1016 69 10000 3.6 350 06:56 12.08.2022
2243 Clear 20 1014 58 10000 5.66 320 03:20 12.08.2022
2244 Clear 24 1011 59 10000 6.17 290 00:27 12.08.2022
2245 Clouds 25 1011 64 10000 3.09 0 23:35 11.08.2022
2246 Clear 24 1011 70 10000 4.12 230 22:28 11.08.2022
2247 Clouds 24 1011 64 10000 3.6 270 21:43 11.08.2022
2248 Thunderstorm 23 1011 70 10000 4.63 250 21:19 11.08.2022
2249 Clouds 25 1011 70 10000 5.14 180 20:27 11.08.2022
2250 Clouds 25 1011 70 10000 5.14 230 19:33 11.08.2022
2251 Clouds 23 1012 73 10000 3.6 210 18:36 11.08.2022
2252 Clouds 21 1012 78 10000 3.09 230 16:38 11.08.2022
2253 Clouds 20 1012 81 10000 4.63 220 15:37 11.08.2022
2254 Clouds 19 1012 85 10000 2.06 210 13:51 11.08.2022
2255 Clear 18 1012 83 10000 6.69 220 11:26 11.08.2022
2256 Clear 19 1014 83 10000 4.63 200 07:56 11.08.2022
2257 Clouds 20 1014 74 10000 2.45 183 04:44 11.08.2022
2258 Clouds 23 1014 66 10000 1.73 211 01:54 11.08.2022
2259 Clouds 25 1016 58 10000 0.89 237 22:54 10.08.2022
2260 Clouds 24 1017 62 10000 0.89 229 21:44 10.08.2022
2261 Clouds 23 1017 66 10000 1.34 239 20:56 10.08.2022
2262 Clouds 23 1017 69 10000 1.34 209 19:58 10.08.2022
2263 Clouds 23 1018 68 10000 0.45 271 18:45 10.08.2022
2264 Clouds 22 1019 72 10000 0.89 268 17:20 10.08.2022
2265 Clouds 17 1019 89 10000 1.03 0 13:49 10.08.2022
2266 Clouds 17 1018 90 10000 0.51 320 12:50 10.08.2022
2267 Clouds 17 1018 89 10000 1.54 320 10:21 10.08.2022
2268 Clouds 17 1018 88 10000 1.03 300 08:37 10.08.2022
2269 Clouds 17 1018 87 10000 1.54 300 07:21 10.08.2022
2270 Clouds 18 1018 84 10000 2.06 360 04:49 10.08.2022
2271 Clouds 19 1016 79 10000 3.6 20 00:50 10.08.2022
2272 Clouds 19 1016 79 10000 5.14 10 23:27 09.08.2022
2273 Clouds 18 1016 83 10000 5.66 10 21:38 09.08.2022
2274 Drizzle 18 1016 86 10000 5.14 340 20:56 09.08.2022
2275 Clouds 17 1015 89 10000 4.63 360 18:56 09.08.2022
2276 Drizzle 16 1014 91 10000 5.14 10 17:31 09.08.2022
2277 Drizzle 16 1014 91 10000 5.14 10 17:31 09.08.2022
2278 Drizzle 16 1014 92 10000 4.12 10 16:43 09.08.2022
2279 Drizzle 15 1013 94 10000 5.14 20 15:59 09.08.2022
2280 Mist 15 1012 95 10000 4.12 40 14:43 09.08.2022
2281 Clouds 14 1009 97 10000 5.14 20 10:53 09.08.2022
2282 Rain 14 1007 97 2816 6.17 30 08:52 09.08.2022
2283 Mist 15 1008 96 9656 6.17 20 07:57 09.08.2022
2284 Clouds 15 1009 95 10000 8.23 20 04:49 09.08.2022
2285 Clouds 17 1009 89 10000 4.63 50 00:36 09.08.2022
2286 Clouds 17 1010 90 10000 5.66 40 23:24 08.08.2022
2287 Clouds 17 1011 90 10000 7.2 40 22:40 08.08.2022
2288 Clouds 17 1012 91 10000 5.66 50 21:44 08.08.2022
2289 Mist 16 1013 93 9656 6.17 40 20:34 08.08.2022
2290 Mist 16 1014 93 8047 6.69 50 19:35 08.08.2022
2291 Clouds 16 1014 92 10000 5.66 50 18:18 08.08.2022
2292 Drizzle 16 1015 92 10000 5.66 30 15:48 08.08.2022
2293 Clouds 16 1015 92 10000 6.17 20 15:28 08.08.2022
2294 Clouds 16 1015 93 10000 6.17 20 12:30 08.08.2022
2295 Rain 16 1015 91 8047 7.72 20 10:28 08.08.2022
2296 Clouds 19 1015 85 10000 5.66 60 07:51 08.08.2022
2297 Clouds 23 1015 85 10000 5.14 30 03:45 08.08.2022
2298 Clouds 28 1013 67 10000 7.2 10 23:28 07.08.2022
2299 Clouds 32 1013 62 10000 9.26 230 21:41 07.08.2022
2300 Clouds 32 1013 60 10000 8.75 220 20:55 07.08.2022
2301 Clouds 32 1013 62 10000 8.75 220 20:18 07.08.2022
2302 Clouds 32 1014 64 10000 9.26 220 19:51 07.08.2022
2303 Clear 31 1015 66 10000 7.2 220 18:49 07.08.2022
2304 Clouds 30 1016 68 10000 6.17 250 17:31 07.08.2022
2305 Clouds 29 1016 72 10000 6.17 230 16:52 07.08.2022
2306 Clouds 27 1016 75 10000 6.17 240 15:29 07.08.2022
2307 Clear 25 1017 80 10000 6.17 240 13:58 07.08.2022
2308 Clear 24 1016 83 10000 4.63 230 12:40 07.08.2022
2309 Clear 25 1016 80 10000 5.66 240 10:48 07.08.2022
2310 Clear 25 1016 79 10000 5.66 240 10:20 07.08.2022
2311 Clear 27 1017 74 10000 4.12 220 04:37 07.08.2022
2312 Clouds 29 1016 68 10000 5.66 180 02:18 07.08.2022
2313 Clear 32 1017 56 10000 4.12 220 22:34 06.08.2022
2314 Clear 32 1018 54 10000 5.14 250 21:52 06.08.2022
2315 Clear 31 1020 48 10000 2.06 240 19:46 06.08.2022
2316 Clouds 30 1021 54 10000 2.57 210 18:49 06.08.2022
2317 Clear 28 1021 59 10000 1.54 120 17:45 06.08.2022
2318 Clear 25 1022 63 10000 2.57 20 16:24 06.08.2022
2319 Clear 19 1022 78 10000 2.57 10 13:51 06.08.2022
2320 Clear 17 1022 82 10000 1.54 80 12:27 06.08.2022
2321 Clear 17 1022 83 10000 2.06 360 11:21 06.08.2022
2322 Clear 18 1022 77 10000 2.57 30 09:41 06.08.2022
2323 Clear 22 1022 67 10000 3.09 90 04:43 06.08.2022
2324 Clear 26 1021 54 10000 2.57 70 01:47 06.08.2022
2325 Haze 28 1021 52 9656 3.09 80 22:36 05.08.2022
2326 Clear 28 1021 52 10000 3.6 80 21:18 05.08.2022
2327 Clouds 26 1022 56 10000 3.09 40 19:18 05.08.2022
2328 Clear 25 1022 55 10000 4.63 30 18:41 05.08.2022
2329 Clouds 23 1021 61 10000 6.69 20 16:53 05.08.2022
2330 Clouds 22 1020 69 10000 6.17 10 15:55 05.08.2022
2331 Clouds 22 1020 76 10000 5.66 30 14:54 05.08.2022
2332 Clouds 21 1019 81 10000 5.66 30 13:39 05.08.2022
2333 Clouds 21 1019 82 10000 5.66 30 13:19 05.08.2022
2334 Clouds 22 1017 89 10000 4.63 20 11:58 05.08.2022
2335 Clouds 23 1017 87 10000 4.63 20 10:24 05.08.2022
2336 Clear 23 1016 89 10000 2.57 220 07:58 05.08.2022
2337 Clear 24 1015 88 10000 3.09 220 05:25 05.08.2022
2338 Clouds 26 1015 77 10000 4.12 230 23:50 04.08.2022
2339 Clouds 26 1015 77 10000 4.12 230 23:50 04.08.2022
2340 Clouds 26 1015 76 10000 5.14 240 21:58 04.08.2022
2341 Clouds 26 1015 76 10000 5.14 240 21:25 04.08.2022
2342 Clouds 26 1015 77 10000 4.63 250 20:41 04.08.2022
2343 Rain 26 1014 76 10000 8.23 240 19:21 04.08.2022
2344 Clouds 26 1014 73 10000 5.66 220 18:34 04.08.2022
2345 Clouds 25 1014 78 10000 4.63 200 17:28 04.08.2022
2346 Clouds 22 1013 86 10000 3.6 220 13:35 04.08.2022
2347 Clouds 23 1012 71 10000 3.6 190 11:47 04.08.2022
2348 Clouds 23 1012 70 10000 4.12 200 10:48 04.08.2022
2349 Clear 23 1012 69 10000 4.63 150 07:51 04.08.2022
2350 Clouds 24 1012 71 10000 3.6 160 04:28 04.08.2022
2351 Clouds 25 1012 60 10000 3.09 180 02:20 04.08.2022
2352 Clear 26 1012 58 10000 4.63 120 23:43 03.08.2022
2353 Clear 26 1013 52 10000 5.14 220 21:50 03.08.2022
2354 Clear 25 1014 52 10000 4.63 230 20:37 03.08.2022
2355 Clear 24 1015 53 10000 4.12 220 19:29 03.08.2022
2356 Clear 23 1016 58 10000 2.57 170 17:58 03.08.2022
2357 Clear 21 1016 62 10000 3.6 190 16:24 03.08.2022
2358 Clear 21 1016 62 10000 3.6 190 16:24 03.08.2022
2359 Clear 19 1016 69 10000 1.54 130 14:45 03.08.2022
2360 Clear 14 1015 86 10000 1.03 280 12:30 03.08.2022
2361 Clear 15 1015 78 10000 2.57 300 08:26 03.08.2022
2362 Clouds 19 1013 64 10000 3.6 340 04:47 03.08.2022
2363 Clouds 20 1012 62 10000 4.63 330 03:30 03.08.2022
2364 Clouds 24 1010 57 10000 6.69 320 01:35 03.08.2022
2365 Clear 27 1008 53 10000 7.72 290 23:23 02.08.2022
2366 Clouds 26 1007 59 10000 8.23 290 21:55 02.08.2022
2367 Clouds 26 1007 61 10000 8.23 290 21:30 02.08.2022
2368 Clouds 26 1006 73 10000 4.63 210 18:59 02.08.2022
2369 Clouds 23 1006 88 10000 4.63 210 16:38 02.08.2022
2370 Clouds 22 1005 79 10000 5.14 230 12:55 02.08.2022
2371 Clouds 22 1004 77 10000 4.12 170 09:42 02.08.2022
2372 Clouds 23 1005 69 10000 4.63 210 08:26 02.08.2022
2373 Clouds 23 1005 69 10000 4.63 200 07:50 02.08.2022
2374 Clear 25 1006 63 10000 3.09 220 04:55 02.08.2022
2375 Clouds 28 1007 55 10000 6.17 230 01:26 02.08.2022
2376 Clouds 30 1009 50 10000 5.66 220 22:57 01.08.2022
2377 Clear 29 1010 53 10000 5.14 250 20:57 01.08.2022
2378 Clouds 29 1011 56 10000 5.66 230 19:44 01.08.2022
2379 Clear 28 1012 58 10000 5.14 240 18:53 01.08.2022
2380 Clear 26 1012 66 10000 5.14 220 16:54 01.08.2022
2381 Clear 25 1012 66 10000 5.14 220 16:29 01.08.2022
2382 Clouds 24 1013 68 10000 4.12 240 15:33 01.08.2022
2383 Clouds 23 1013 73 10000 3.6 200 14:43 01.08.2022
2384 Clouds 21 1014 81 10000 3.09 180 12:57 01.08.2022
2385 Clouds 21 1014 80 10000 2.06 190 10:47 01.08.2022
2386 Clear 21 1015 78 10000 3.6 220 08:45 01.08.2022
2387 Clear 22 1015 77 10000 5.14 200 06:50 01.08.2022
2388 Clear 23 1016 71 10000 3.09 220 04:31 01.08.2022
2389 Clear 26 1017 59 10000 6.69 220 00:58 01.08.2022
2390 Clear 26 1017 57 10000 7.72 200 22:44 31.07.2022
2391 Clear 26 1017 57 10000 7.72 200 22:18 31.07.2022
2392 Clear 26 1018 60 10000 8.23 230 20:21 31.07.2022
2393 Clear 25 1019 62 10000 7.2 210 18:39 31.07.2022
2394 Haze 23 1019 71 9656 5.66 210 16:26 31.07.2022
2395 Clouds 21 1020 83 10000 5.66 220 14:33 31.07.2022
2396 Clear 18 1020 90 10000 3.09 250 12:58 31.07.2022
2397 Clear 17 1019 89 10000 3.6 250 11:37 31.07.2022
2398 Clear 18 1019 87 10000 4.12 230 08:46 31.07.2022
2399 Clear 19 1019 80 10000 3.6 220 05:20 31.07.2022
2400 Clouds 23 1018 66 10000 6.17 260 01:21 31.07.2022
2401 Clouds 23 1017 64 10000 6.17 300 22:46 30.07.2022
2402 Clouds 23 1016 64 10000 6.69 270 21:52 30.07.2022
2403 Clouds 23 1016 64 10000 6.69 270 21:33 30.07.2022
2404 Clouds 23 1016 63 10000 8.23 300 20:33 30.07.2022
2405 Clouds 23 1016 66 10000 6.17 270 19:50 30.07.2022
2406 Clouds 22 1015 68 10000 7.72 260 18:19 30.07.2022
2407 Clouds 21 1014 68 10000 6.69 290 16:38 30.07.2022
2408 Clear 21 1014 68 10000 5.14 270 15:33 30.07.2022
2409 Clear 18 1012 76 10000 5.14 260 13:23 30.07.2022
2410 Clear 17 1012 80 10000 5.14 250 12:32 30.07.2022
2411 Clear 18 1011 79 10000 5.14 250 11:53 30.07.2022
2412 Clear 18 1011 78 10000 4.12 250 10:20 30.07.2022
2413 Clouds 19 1011 76 10000 3.6 220 08:55 30.07.2022
2414 Clouds 20 1011 69 10000 5.14 230 07:33 30.07.2022
2415 Clear 24 1009 60 10000 6.69 230 02:33 30.07.2022
2416 Clouds 25 1009 52 10000 7.2 240 00:32 30.07.2022
2417 Clouds 25 1010 51 10000 6.69 260 21:38 29.07.2022
2418 Clouds 25 1010 53 10000 6.17 260 20:51 29.07.2022
2419 Clouds 24 1009 53 10000 7.72 250 19:48 29.07.2022
2420 Clouds 23 1009 57 10000 7.72 270 17:39 29.07.2022
2421 Clear 20 1008 72 10000 7.72 260 14:51 29.07.2022
2422 Clear 19 1007 83 10000 6.17 230 12:55 29.07.2022
2423 Clear 20 1006 88 10000 4.63 240 09:35 29.07.2022
2424 Clouds 21 1006 90 10000 5.66 230 08:46 29.07.2022
2425 Clouds 21 1006 87 10000 5.66 240 07:30 29.07.2022
2426 Clouds 22 1005 85 10000 4.12 210 01:46 29.07.2022
2427 Thunderstorm 26 1005 71 8047 8.75 210 21:55 28.07.2022
2428 Clouds 29 1006 59 10000 5.14 190 20:55 28.07.2022
2429 Clouds 29 1006 57 10000 5.14 190 20:22 28.07.2022
2430 Clouds 29 1006 54 10000 4.12 170 19:41 28.07.2022
2431 Clouds 28 1007 56 10000 4.63 150 18:26 28.07.2022
2432 Clouds 27 1007 59 10000 4.12 130 17:42 28.07.2022
2433 Clear 26 1008 60 10000 4.12 120 16:41 28.07.2022
2434 Clear 22 1009 71 10000 2.06 160 14:58 28.07.2022
2435 Clear 19 1009 85 10000 2.06 120 12:49 28.07.2022
2436 Clouds 19 1009 79 10000 2.06 130 09:45 28.07.2022
2437 Clouds 21 1010 68 10000 2.57 160 06:24 28.07.2022
2438 Clouds 22 1010 67 10000 3.6 160 05:26 28.07.2022
2439 Clear 26 1010 50 10000 7.2 230 00:45 28.07.2022
2440 Clear 27 1011 45 10000 6.69 220 22:31 27.07.2022
2441 Clear 27 1012 50 10000 7.2 220 20:56 27.07.2022
2442 Clear 26 1012 51 10000 5.66 230 19:34 27.07.2022
2443 Clear 25 1012 62 10000 4.63 220 17:38 27.07.2022
2444 Clear 22 1013 69 10000 4.12 210 15:52 27.07.2022
2445 Clear 20 1013 75 10000 3.09 210 14:55 27.07.2022
2446 Clear 20 1013 75 10000 3.09 210 14:33 27.07.2022
2447 Clear 18 1013 84 10000 4.12 240 12:49 27.07.2022
2448 Clear 19 1013 77 10000 5.14 250 07:53 27.07.2022
2449 Clear 19 1013 77 10000 5.14 250 07:53 27.07.2022
2450 Clear 20 1013 74 10000 4.63 230 06:19 27.07.2022
2451 Clouds 24 1012 57 10000 9.26 240 01:34 27.07.2022
2452 Clouds 24 1013 57 10000 7.72 240 22:26 26.07.2022
2453 Clouds 24 1013 58 10000 7.2 250 21:20 26.07.2022
2454 Clouds 25 1013 57 10000 9.26 210 20:28 26.07.2022
2455 Clouds 24 1013 63 10000 8.75 220 18:43 26.07.2022
2456 Clear 23 1014 67 10000 7.2 200 17:58 26.07.2022
2457 Clear 21 1014 70 10000 6.17 230 15:59 26.07.2022
2458 Clear 21 1014 70 10000 6.17 230 15:30 26.07.2022
2459 Clear 18 1013 77 10000 4.63 250 13:38 26.07.2022
2460 Clouds 17 1012 79 10000 5.14 230 11:20 26.07.2022
2461 Clear 18 1012 73 10000 3.09 240 08:57 26.07.2022
2462 Clear 19 1012 66 10000 3.09 270 05:53 26.07.2022
2463 Clouds 24 1009 54 10000 9.26 270 00:37 26.07.2022
2464 Clouds 25 1008 51 10000 8.75 270 23:32 25.07.2022
2465 Clouds 26 1007 49 10000 11.83 270 22:26 25.07.2022
2466 Clouds 26 1006 48 10000 11.32 280 21:43 25.07.2022
2467 Clouds 26 1006 49 10000 11.83 270 20:42 25.07.2022
2468 Clouds 26 1005 54 10000 11.32 280 19:46 25.07.2022
2469 Clouds 26 1005 58 10000 12.86 250 18:19 25.07.2022
2470 Clouds 26 1005 64 10000 9.26 260 17:27 25.07.2022
2471 Clouds 23 1004 88 10000 7.2 250 15:20 25.07.2022
2472 Clouds 21 1004 92 10000 8.23 190 12:22 25.07.2022
2473 Clouds 21 1004 94 10000 6.69 230 09:58 25.07.2022
2474 Rain 23 1005 90 10000 4.63 200 06:32 25.07.2022
2475 Clouds 27 1006 67 10000 6.17 240 23:55 24.07.2022
2476 Clouds 27 1006 67 10000 6.17 240 23:18 24.07.2022
2477 Rain 28 1006 68 10000 4.63 210 22:34 24.07.2022
2478 Clouds 29 1007 66 10000 4.63 160 21:25 24.07.2022
2479 Clouds 29 1008 65 10000 5.66 130 20:51 24.07.2022
2480 Clouds 30 1008 64 10000 5.66 130 20:26 24.07.2022
2481 Clear 29 1010 63 10000 6.17 230 18:56 24.07.2022
2482 Clear 27 1012 68 10000 7.2 220 16:48 24.07.2022
2483 Clouds 26 1012 73 10000 5.14 220 15:51 24.07.2022
2484 Clouds 25 1012 74 10000 4.63 220 14:38 24.07.2022
2485 Clear 23 1011 79 10000 3.6 200 12:55 24.07.2022
2486 Clear 23 1011 79 10000 3.6 200 12:18 24.07.2022
2487 Clear 23 1011 78 10000 4.63 210 11:26 24.07.2022
2488 Clear 24 1012 73 10000 6.17 240 08:56 24.07.2022
2489 Clear 24 1012 69 10000 5.14 240 07:52 24.07.2022
2490 Clear 26 1012 65 10000 5.14 210 06:27 24.07.2022
2491 Clouds 29 1011 51 10000 8.23 230 01:50 24.07.2022
2492 Clear 31 1011 53 10000 7.72 230 22:25 23.07.2022
2493 Clear 31 1012 52 10000 8.75 220 20:35 23.07.2022
2494 Clear 29 1012 58 10000 6.69 220 18:51 23.07.2022
2495 Clear 28 1012 61 10000 8.23 210 17:42 23.07.2022
2496 Clear 28 1012 64 10000 8.23 210 17:23 23.07.2022
2497 Clear 26 1012 65 10000 5.14 220 15:42 23.07.2022
2498 Clear 26 1012 66 10000 5.14 220 15:20 23.07.2022
2499 Clouds 24 1012 70 10000 4.63 230 14:36 23.07.2022
2500 Clouds 22 1012 74 10000 3.6 240 13:53 23.07.2022
2501 Clear 20 1011 78 10000 3.6 150 11:46 23.07.2022
2502 Clear 21 1011 75 10000 3.09 240 10:28 23.07.2022
2503 Clear 21 1011 72 10000 3.6 160 09:26 23.07.2022
2504 Clear 24 1010 68 10000 4.63 220 05:58 23.07.2022
2505 Clear 27 1009 52 10000 5.14 230 02:54 23.07.2022
2506 Clouds 30 1008 44 10000 9.77 240 23:57 22.07.2022
2507 Clouds 29 1008 56 10000 8.23 230 21:18 22.07.2022
2508 Clear 28 1008 58 10000 7.72 230 19:55 22.07.2022
2509 Clear 27 1008 63 10000 1.34 241 18:36 22.07.2022
2510 Clouds 26 1008 65 10000 8.23 240 17:37 22.07.2022
2511 Clear 24 1007 71 10000 6.17 250 15:30 22.07.2022
2512 Clear 21 1006 83 10000 4.12 210 12:33 22.07.2022
2513 Clear 22 1004 74 10000 5.14 270 09:45 22.07.2022
2514 Clear 23 1004 75 10000 5.14 270 09:19 22.07.2022
2515 Clouds 24 1003 66 10000 5.66 250 07:23 22.07.2022
2516 Clouds 24 1002 76 10000 10.8 250 04:19 22.07.2022
2517 Clouds 30 998 56 10000 11.32 240 23:27 21.07.2022
2518 Clouds 31 998 55 10000 9.77 230 21:37 21.07.2022
2519 Clear 30 998 58 10000 9.26 250 19:35 21.07.2022
2520 Clouds 29 999 65 10000 8.75 220 18:29 21.07.2022
2521 Clouds 28 999 70 10000 7.72 240 17:20 21.07.2022
2522 Clouds 27 999 70 10000 6.17 190 15:49 21.07.2022
2523 Clouds 27 999 72 10000 6.17 180 14:46 21.07.2022
2524 Clouds 26 999 72 10000 6.17 160 13:22 21.07.2022
2525 Clouds 26 999 72 10000 5.66 180 11:48 21.07.2022
2526 Clouds 26 999 71 10000 7.2 160 09:51 21.07.2022
2527 Clouds 26 1000 73 10000 6.69 160 08:53 21.07.2022
2528 Clouds 26 1000 80 10000 5.14 160 07:50 21.07.2022
2529 Clouds 26 1001 82 10000 3.09 130 06:26 21.07.2022
2530 Clouds 29 1003 73 10000 2.57 150 02:23 21.07.2022
2531 Clear 30 1004 62 10000 3.6 260 22:46 20.07.2022
2532 Clear 30 1004 63 10000 3.6 260 22:18 20.07.2022
2533 Clouds 29 1005 66 10000 3.6 200 20:46 20.07.2022
2534 Clouds 28 1005 67 10000 3.6 210 19:46 20.07.2022
2535 Clouds 27 1005 65 10000 3.09 150 18:53 20.07.2022
2536 Clouds 27 1006 66 10000 3.09 150 18:30 20.07.2022
2537 Clouds 26 1006 63 10000 3.09 150 17:24 20.07.2022
2538 Clear 25 1006 59 10000 3.09 90 15:32 20.07.2022
2539 Clouds 23 1006 66 10000 4.12 40 14:36 20.07.2022
2540 Clouds 21 1006 86 10000 1.03 20 12:51 20.07.2022
2541 Clear 20 1005 88 10000 2.57 360 10:29 20.07.2022
2542 Clouds 23 1005 82 10000 2.57 220 06:21 20.07.2022
2543 Clouds 29 1003 44 10000 6.69 290 01:40 20.07.2022
2544 Clouds 29 1003 47 10000 7.2 270 00:41 20.07.2022
2545 Clouds 29 1003 54 10000 8.23 280 22:36 19.07.2022
2546 Clouds 29 1003 55 10000 8.75 270 21:54 19.07.2022
2547 Clouds 29 1003 58 10000 8.75 250 20:49 19.07.2022
2548 Clouds 28 1003 63 10000 9.26 270 19:32 19.07.2022
2549 Clear 27 1003 68 10000 7.2 260 18:42 19.07.2022
2550 Clear 26 1002 74 10000 7.2 250 17:54 19.07.2022
2551 Clouds 22 1003 89 10000 6.69 260 15:49 19.07.2022
2552 Clouds 20 1003 95 10000 5.66 240 13:46 19.07.2022
2553 Clouds 20 1002 95 10000 4.12 240 11:34 19.07.2022
2554 Clear 20 1002 96 10000 4.12 280 09:53 19.07.2022
2555 Clouds 20 1001 95 10000 3.6 320 08:48 19.07.2022
2556 Clouds 20 1001 95 10000 3.6 320 08:21 19.07.2022
2557 Clouds 20 1001 95 10000 4.63 330 07:18 19.07.2022
2558 Mist 20 1001 95 2816 3.6 10 05:20 19.07.2022
2559 Mist 21 1001 94 6437 4.63 20 04:40 19.07.2022
2560 Rain 21 1004 95 2816 5.14 90 00:21 19.07.2022
2561 Rain 22 1005 93 2816 3.6 100 23:21 18.07.2022
2562 Mist 22 1006 92 8047 5.66 140 22:51 18.07.2022
2563 Rain 23 1008 90 10000 4.12 160 21:27 18.07.2022
2564 Rain 24 1009 86 10000 4.63 180 20:49 18.07.2022
2565 Rain 26 1010 72 10000 5.14 170 19:21 18.07.2022
2566 Clear 26 1011 65 10000 2.06 200 16:45 18.07.2022
2567 Clouds 25 1012 67 10000 3.09 180 15:41 18.07.2022
2568 Clouds 22 1012 76 10000 2.57 140 13:41 18.07.2022
2569 Clouds 21 1013 79 10000 1.54 180 12:29 18.07.2022
2570 Clear 20 1013 80 10000 1.03 110 10:34 18.07.2022
2571 Clear 22 1013 74 10000 0.51 220 08:21 18.07.2022
2572 Clear 23 1014 68 10000 0.51 230 06:48 18.07.2022
2573 Clear 31 1014 40 10000 5.14 230 23:31 17.07.2022
2574 Clear 31 1014 43 10000 5.66 190 22:32 17.07.2022
2575 Clear 31 1014 42 10000 5.14 190 21:44 17.07.2022
2576 Clear 30 1014 45 10000 5.66 200 20:54 17.07.2022
2577 Clear 30 1014 44 10000 5.66 200 20:35 17.07.2022
2578 Clear 30 1015 48 10000 5.14 190 19:26 17.07.2022
2579 Clear 28 1015 52 10000 4.12 200 18:26 17.07.2022
2580 Clear 28 1016 56 10000 4.12 210 17:38 17.07.2022
2581 Clear 26 1016 59 10000 2.57 190 16:50 17.07.2022
2582 Clear 25 1016 61 10000 2.57 190 16:25 17.07.2022
2583 Clear 22 1016 66 10000 2.57 240 14:37 17.07.2022
2584 Clear 20 1015 72 10000 2.06 240 13:30 17.07.2022
2585 Clear 18 1015 76 10000 2.57 250 11:32 17.07.2022
2586 Clouds 20 1014 69 10000 3.6 220 08:50 17.07.2022
2587 Clear 24 1014 56 10000 3.09 230 03:43 17.07.2022
2588 Clouds 26 1014 41 10000 5.14 260 02:32 17.07.2022
2589 Clear 29 1014 41 10000 7.72 230 23:20 16.07.2022
2590 Clear 28 1015 43 10000 7.2 220 21:25 16.07.2022
2591 Clear 27 1016 44 10000 7.2 270 19:30 16.07.2022
2592 Clear 26 1017 48 10000 6.17 220 18:27 16.07.2022
2593 Clear 24 1018 56 10000 6.69 220 16:31 16.07.2022
2594 Clouds 20 1018 65 10000 4.12 230 13:49 16.07.2022
2595 Haze 19 1018 70 6437 4.12 230 10:53 16.07.2022
2596 Clouds 20 1019 67 10000 2.57 190 09:33 16.07.2022
2597 Clear 19 1019 67 10000 2.57 220 08:43 16.07.2022
2598 Clear 20 1019 67 10000 2.57 220 08:19 16.07.2022
2599 Clear 21 1018 63 10000 3.09 230 04:21 16.07.2022
2600 Clear 24 1018 45 10000 4.12 260 02:49 16.07.2022
2601 Clouds 27 1019 38 10000 6.17 280 23:30 15.07.2022
2602 Clouds 27 1019 40 10000 3.6 250 22:41 15.07.2022
2603 Clouds 27 1019 41 10000 5.66 240 21:29 15.07.2022
2604 Clouds 26 1019 42 10000 7.2 200 20:26 15.07.2022
2605 Clear 26 1020 52 10000 4.63 190 18:42 15.07.2022
2606 Clear 25 1020 55 10000 4.63 200 17:38 15.07.2022
2607 Clear 20 1020 68 10000 1.54 210 14:54 15.07.2022
2608 Clear 16 1020 85 10000 2.06 260 12:58 15.07.2022
2609 Clear 15 1019 87 10000 2.57 250 11:44 15.07.2022
2610 Clear 15 1019 84 10000 3.09 250 10:23 15.07.2022
2611 Clear 17 1019 78 10000 2.06 280 06:30 15.07.2022
2612 Clouds 23 1017 52 10000 4.63 320 00:58 15.07.2022
2613 Clouds 23 1017 53 10000 4.63 320 00:22 15.07.2022
2614 Clouds 22 1017 59 10000 5.66 330 22:52 14.07.2022
2615 Clouds 23 1017 57 10000 3.6 300 21:51 14.07.2022
2616 Clouds 23 1017 57 10000 3.6 300 21:29 14.07.2022
2617 Clouds 22 1017 63 10000 4.12 300 20:45 14.07.2022
2618 Clouds 22 1017 65 10000 4.12 300 20:21 14.07.2022
2619 Rain 22 1017 66 10000 4.12 290 19:19 14.07.2022
2620 Clouds 20 1016 76 10000 5.14 220 16:23 14.07.2022
2621 Clouds 20 1016 75 10000 5.14 210 15:34 14.07.2022
2622 Clouds 20 1016 75 10000 5.66 190 14:31 14.07.2022
2623 Clouds 19 1015 76 10000 2.06 250 13:21 14.07.2022
2624 Clouds 18 1015 81 10000 2.57 250 11:56 14.07.2022
2625 Clouds 18 1015 81 10000 4.63 220 11:24 14.07.2022
2626 Rain 18 1014 82 10000 4.63 220 10:37 14.07.2022
2627 Rain 20 1014 63 10000 3.09 240 07:55 14.07.2022
2628 Clouds 24 1012 45 10000 3.6 280 01:28 14.07.2022
2629 Clear 25 1012 40 10000 4.12 290 00:54 14.07.2022
2630 Clear 26 1012 42 10000 6.17 270 23:35 13.07.2022
2631 Clouds 26 1012 41 10000 5.66 290 22:23 13.07.2022
2632 Clouds 26 1012 42 10000 6.17 300 21:21 13.07.2022
2633 Clear 26 1012 45 10000 7.2 270 20:23 13.07.2022
2634 Clouds 24 1012 57 10000 5.14 220 17:56 13.07.2022
2635 Clear 23 1011 63 10000 4.63 200 16:59 13.07.2022
2636 Clear 22 1011 66 10000 3.09 240 15:51 13.07.2022
2637 Clouds 19 1010 79 10000 3.09 240 13:44 13.07.2022
2638 Clouds 18 1008 84 10000 3.09 260 10:47 13.07.2022
2639 Clouds 18 1008 85 10000 3.09 260 10:28 13.07.2022
2640 Clouds 19 1008 84 10000 2.57 250 09:28 13.07.2022
2641 Clouds 19 1007 84 10000 2.57 280 08:21 13.07.2022
2642 Clouds 20 1005 86 10000 3.6 330 04:36 13.07.2022
2643 Clouds 25 1001 71 10000 6.69 250 00:25 13.07.2022
2644 Clouds 22 999 86 10000 5.66 240 22:28 12.07.2022
2645 Thunderstorm 22 999 79 4828 10.8 260 21:46 12.07.2022
2646 Clouds 26 998 65 10000 11.32 230 20:53 12.07.2022
2647 Clear 27 998 61 10000 9.77 230 19:48 12.07.2022
2648 Clear 26 998 69 10000 9.77 230 18:35 12.07.2022
2649 Clouds 22 998 88 10000 8.23 230 16:24 12.07.2022
2650 Rain 20 999 91 10000 7.2 190 14:32 12.07.2022
2651 Clouds 19 999 94 10000 5.66 170 13:35 12.07.2022
2652 Rain 19 1001 88 10000 6.69 200 11:54 12.07.2022
2653 Rain 21 1001 74 10000 7.2 220 10:26 12.07.2022
2654 Clouds 25 1001 41 10000 5.66 200 08:57 12.07.2022
2655 Clouds 24 1002 38 10000 5.14 180 07:48 12.07.2022
2656 Clouds 25 1003 46 10000 4.12 210 05:45 12.07.2022
2657 Clouds 25 1003 47 10000 5.66 190 04:57 12.07.2022
2658 Clear 28 1004 31 10000 7.72 230 01:31 12.07.2022
2659 Clouds 29 1005 42 10000 6.69 170 22:43 11.07.2022
2660 Clouds 28 1006 47 10000 5.66 230 21:34 11.07.2022
2661 Clear 27 1007 46 10000 6.69 240 20:32 11.07.2022
2662 Clouds 27 1008 45 10000 8.23 250 19:18 11.07.2022
2663 Clear 27 1009 44 10000 7.72 250 18:29 11.07.2022
2664 Clouds 24 1010 54 10000 6.17 220 16:31 11.07.2022
2665 Clouds 22 1010 59 10000 5.14 210 15:28 11.07.2022
2666 Clouds 19 1011 62 10000 4.63 240 13:19 11.07.2022
2667 Clouds 19 1011 65 10000 3.09 190 11:24 11.07.2022
2668 Clouds 19 1011 65 10000 3.09 190 11:24 11.07.2022
2669 Clouds 19 1011 65 10000 3.09 190 11:24 11.07.2022
2670 Clouds 19 1011 65 10000 3.6 250 10:18 11.07.2022
2671 Clouds 20 1012 63 10000 4.12 210 09:40 11.07.2022
2672 Clouds 20 1012 60 10000 4.63 230 08:32 11.07.2022
2673 Clear 26 1013 45 10000 6.17 220 01:54 11.07.2022
2674 Clear 27 1014 44 10000 7.72 240 23:55 10.07.2022
2675 Clear 27 1015 43 10000 8.23 220 22:52 10.07.2022
2676 Clear 26 1016 46 10000 6.17 200 21:20 10.07.2022
2677 Clear 26 1016 46 10000 7.2 220 20:37 10.07.2022
2678 Clear 25 1017 47 10000 7.72 210 19:40 10.07.2022
2679 Clear 25 1018 48 10000 8.23 250 18:43 10.07.2022
2680 Clear 23 1018 49 10000 5.66 250 17:35 10.07.2022
2681 Clear 22 1019 54 10000 4.63 200 16:24 10.07.2022
2682 Clear 20 1019 59 10000 4.12 220 15:20 10.07.2022
2683 Clear 17 1019 70 10000 3.09 250 13:48 10.07.2022
2684 Clear 14 1019 77 10000 2.57 240 12:26 10.07.2022
2685 Clear 14 1019 72 10000 1.03 120 09:57 10.07.2022
2686 Clear 15 1019 69 10000 2.06 300 08:44 10.07.2022
2687 Clear 15 1019 66 10000 2.57 290 07:29 10.07.2022
2688 Clear 23 1019 38 10000 5.14 300 01:31 10.07.2022
2689 Clouds 23 1019 40 10000 5.14 260 22:43 09.07.2022
2690 Clouds 23 1019 40 10000 5.14 260 22:19 09.07.2022
2691 Clear 22 1020 42 10000 5.66 350 20:45 09.07.2022
2692 Clear 21 1021 45 10000 2.06 330 18:37 09.07.2022
2693 Clear 20 1021 45 10000 3.6 0 17:45 09.07.2022
2694 Clear 19 1021 49 10000 2.57 20 16:44 09.07.2022
2695 Clear 18 1022 52 10000 4.12 30 15:41 09.07.2022
2696 Clear 16 1022 57 10000 3.6 360 14:36 09.07.2022
2697 Clear 15 1021 62 10000 3.6 340 13:50 09.07.2022
2698 Clear 13 1021 68 10000 3.09 350 12:45 09.07.2022
2699 Clear 12 1020 69 10000 2.06 330 11:22 09.07.2022
2700 Clear 13 1020 64 10000 2.57 360 10:22 09.07.2022
2701 Clear 16 1019 54 10000 4.12 360 07:53 09.07.2022
2702 Clear 19 1018 47 10000 6.17 360 05:24 09.07.2022
2703 Clouds 23 1015 40 10000 6.69 300 02:34 09.07.2022
2704 Clouds 26 1014 45 10000 7.2 280 22:59 08.07.2022
2705 Clouds 26 1013 46 10000 8.23 310 21:59 08.07.2022
2706 Clouds 26 1013 47 10000 7.2 300 20:42 08.07.2022
2707 Clouds 26 1013 48 10000 7.2 300 20:23 08.07.2022
2708 Clouds 25 1014 57 10000 6.17 260 18:26 08.07.2022
2709 Clear 24 1013 60 10000 4.12 230 16:49 08.07.2022
2710 Clear 21 1013 66 10000 5.66 240 14:54 08.07.2022
2711 Clouds 20 1013 67 10000 5.66 240 13:45 08.07.2022
2712 Clouds 18 1012 64 10000 4.63 240 11:59 08.07.2022
2713 Clouds 19 1012 65 10000 4.63 220 10:37 08.07.2022
2714 Clouds 20 1013 64 10000 4.12 210 08:37 08.07.2022
2715 Clear 20 1013 63 10000 2.57 210 06:50 08.07.2022
2716 Clear 25 1014 38 10000 5.66 270 01:49 08.07.2022
2717 Clear 25 1014 43 10000 4.63 260 23:30 07.07.2022
2718 Clear 25 1014 42 10000 4.63 190 22:35 07.07.2022
2719 Clear 25 1015 45 10000 5.66 230 20:40 07.07.2022
2720 Clouds 23 1016 56 10000 3.09 210 18:22 07.07.2022
2721 Clear 22 1017 55 10000 1.54 130 16:57 07.07.2022
2722 Clear 18 1018 66 10000 3.6 50 14:56 07.07.2022
2723 Clouds 16 1018 71 10000 4.12 30 13:25 07.07.2022
2724 Clear 14 1017 75 10000 3.6 20 12:24 07.07.2022
2725 Clouds 14 1017 75 10000 3.09 350 11:46 07.07.2022
2726 Clouds 14 1017 75 10000 3.09 350 11:27 07.07.2022
2727 Clear 14 1016 74 10000 3.6 20 10:42 07.07.2022
2728 Clear 14 1016 73 10000 3.6 20 10:24 07.07.2022
2729 Clear 16 1016 72 10000 2.06 360 07:22 07.07.2022
2730 Clear 21 1014 50 10000 3.09 350 02:55 07.07.2022
2731 Clear 25 1013 48 10000 2.14 249 23:36 06.07.2022
2732 Clear 24 1012 49 10000 0.9 272 23:18 06.07.2022
2733 Clouds 24 1013 50 10000 5.66 290 22:53 06.07.2022
2734 Clouds 24 1013 50 10000 5.66 290 22:34 06.07.2022
2735 Clouds 23 1013 55 10000 5.66 340 20:54 06.07.2022
2736 Clouds 23 1013 55 10000 4.12 20 19:35 06.07.2022
2737 Clear 21 1013 59 10000 6.17 10 17:32 06.07.2022
2738 Clouds 20 1012 70 10000 4.12 340 15:59 06.07.2022
2739 Clouds 18 1012 82 10000 4.12 350 14:33 06.07.2022
2740 Clouds 16 1010 91 10000 4.63 340 12:31 06.07.2022
2741 Clouds 16 1009 93 10000 4.12 350 11:45 06.07.2022
2742 Clouds 16 1008 94 10000 4.12 360 10:18 06.07.2022
2743 Mist 16 1007 94 9656 6.17 10 07:44 06.07.2022
2744 Mist 16 1007 94 4828 6.17 10 07:20 06.07.2022
2745 Rain 19 1009 84 9656 3.6 100 01:42 06.07.2022
2746 Clouds 21 1011 71 10000 4.12 80 22:45 05.07.2022
2747 Clouds 20 1012 70 10000 2.57 70 21:32 05.07.2022
2748 Clouds 20 1013 71 10000 3.09 80 20:38 05.07.2022
2749 Clouds 19 1014 79 10000 3.6 30 19:41 05.07.2022
2750 Rain 19 1014 80 10000 2.06 10 19:21 05.07.2022
2751 Rain 20 1016 70 10000 3.09 250 17:46 05.07.2022
2752 Rain 20 1016 67 10000 4.12 220 16:39 05.07.2022
2753 Clouds 20 1016 65 10000 3.09 210 15:24 05.07.2022
2754 Clouds 19 1016 69 10000 3.09 180 13:53 05.07.2022
2755 Clouds 18 1016 69 10000 2.57 170 12:42 05.07.2022
2756 Clouds 18 1017 71 10000 2.06 250 11:24 05.07.2022
2757 Clear 18 1017 70 10000 3.6 240 10:31 05.07.2022
2758 Clear 18 1017 71 10000 3.6 230 08:25 05.07.2022
2759 Clouds 19 1018 64 10000 3.6 210 07:31 05.07.2022
2760 Clear 20 1018 61 10000 3.6 240 04:47 05.07.2022
2761 Clear 21 1018 60 10000 3.6 240 04:20 05.07.2022
2762 Clouds 25 1017 42 10000 6.17 220 23:42 04.07.2022
2763 Clouds 26 1018 41 10000 5.66 250 22:59 04.07.2022
2764 Clouds 26 1018 41 10000 5.66 250 22:21 04.07.2022
2765 Clouds 25 1018 42 10000 7.2 210 21:20 04.07.2022
2766 Clouds 25 1018 42 10000 7.2 210 20:51 04.07.2022
2767 Clouds 25 1018 43 10000 7.2 210 20:33 04.07.2022
2768 Clouds 24 1019 42 10000 5.14 200 19:51 04.07.2022
2769 Clouds 24 1019 42 10000 5.14 200 19:33 04.07.2022
2770 Clear 23 1020 43 10000 4.12 190 17:42 04.07.2022
2771 Clear 21 1020 46 10000 3.6 340 15:44 04.07.2022
2772 Clear 20 1020 55 10000 2.57 340 14:54 04.07.2022
2773 Clear 17 1020 66 10000 2.06 340 13:29 04.07.2022
2774 Clear 15 1019 74 10000 2.57 320 12:20 04.07.2022
2775 Clear 15 1018 75 10000 3.09 300 10:33 04.07.2022
2776 Clear 16 1018 72 10000 3.6 300 09:40 04.07.2022
2777 Clear 17 1018 65 10000 3.09 300 07:21 04.07.2022
2778 Clouds 20 1016 54 10000 4.63 270 03:35 04.07.2022
2779 Clouds 24 1015 35 10000 6.69 290 00:30 04.07.2022
2780 Clouds 25 1015 40 10000 7.72 250 22:58 03.07.2022
2781 Clouds 24 1015 42 10000 7.2 270 20:51 03.07.2022
2782 Clouds 24 1015 42 10000 7.2 270 20:25 03.07.2022
2783 Clear 24 1015 42 10000 8.23 280 19:26 03.07.2022
2784 Clouds 23 1015 46 10000 8.75 240 18:32 03.07.2022
2785 Clear 22 1015 51 10000 6.17 240 17:43 03.07.2022
2786 Clouds 21 1015 57 10000 3.09 290 15:49 03.07.2022
2787 Clouds 19 1015 62 10000 3.09 300 14:58 03.07.2022
2788 Clouds 18 1014 68 10000 3.09 240 13:59 03.07.2022
2789 Clouds 17 1014 70 10000 3.09 240 13:33 03.07.2022
2790 Clouds 16 1013 74 10000 2.57 260 12:33 03.07.2022
2791 Clouds 16 1013 74 10000 3.09 260 11:20 03.07.2022
2792 Clouds 16 1012 74 10000 2.57 220 10:38 03.07.2022
2793 Clear 17 1012 70 10000 2.06 220 09:31 03.07.2022
2794 Clear 19 1011 63 10000 4.12 260 07:34 03.07.2022
2795 Clouds 26 1009 44 10000 8.75 240 01:42 03.07.2022
2796 Clouds 26 1009 45 10000 8.23 230 23:50 02.07.2022
2797 Clouds 26 1009 43 10000 8.23 220 22:33 02.07.2022
2798 Clouds 26 1009 40 10000 6.69 240 20:50 02.07.2022
2799 Clouds 25 1010 40 10000 8.23 250 19:52 02.07.2022
2800 Clouds 25 1010 41 10000 8.23 250 19:20 02.07.2022
2801 Clear 24 1010 48 10000 6.69 280 17:41 02.07.2022
2802 Clear 23 1010 56 10000 7.72 250 16:49 02.07.2022
2803 Clear 22 1009 65 10000 6.17 280 14:31 02.07.2022
2804 Clear 20 1008 78 10000 4.63 250 12:21 02.07.2022
2805 Clear 21 1007 77 10000 5.66 240 11:26 02.07.2022
2806 Clouds 22 1006 72 10000 5.14 250 10:37 02.07.2022
2807 Clear 23 1006 65 10000 7.2 240 08:55 02.07.2022
2808 Clear 23 1006 65 10000 7.2 240 08:20 02.07.2022
2809 Clouds 24 1006 68 10000 4.63 210 06:59 02.07.2022
2810 Clouds 26 1008 62 10000 4.63 230 01:53 02.07.2022
2811 Clear 27 1008 59 10000 4.63 220 23:56 01.07.2022
2812 Clouds 27 1009 60 10000 3.6 230 22:41 01.07.2022
2813 Clouds 26 1010 63 10000 4.63 250 21:47 01.07.2022
2814 Clouds 26 1010 61 10000 4.63 250 21:27 01.07.2022
2815 Clouds 26 1010 63 10000 5.66 170 20:40 01.07.2022
2816 Clear 26 1010 64 10000 5.14 190 19:46 01.07.2022
2817 Clouds 25 1012 63 10000 7.72 270 17:53 01.07.2022
2818 Clouds 25 1011 65 10000 5.66 190 15:54 01.07.2022
2819 Clouds 21 1011 73 10000 4.12 190 13:54 01.07.2022
2820 Clouds 20 1012 74 10000 3.6 180 12:41 01.07.2022
2821 Clouds 19 1013 73 10000 4.12 190 10:20 01.07.2022
2822 Clouds 19 1013 73 10000 4.12 190 10:20 01.07.2022
2823 Clouds 20 1013 70 10000 5.14 180 09:43 01.07.2022
2824 Clouds 20 1016 66 10000 5.14 150 04:49 01.07.2022
2825 Clouds 23 1019 54 10000 3.6 170 00:26 01.07.2022
2826 Clouds 22 1019 54 10000 3.09 260 23:22 30.06.2022
2827 Clouds 22 1019 54 10000 4.12 240 22:44 30.06.2022
2828 Clouds 22 1019 53 10000 4.12 240 22:25 30.06.2022
2829 Clouds 23 1019 52 10000 5.14 210 21:45 30.06.2022
2830 Clouds 23 1020 56 10000 5.14 220 20:30 30.06.2022
2831 Clouds 22 1021 61 10000 3.6 180 19:54 30.06.2022
2832 Clouds 22 1021 61 10000 3.6 180 19:25 30.06.2022
2833 Clouds 21 1022 62 10000 3.09 110 18:42 30.06.2022
2834 Clouds 21 1023 62 10000 3.6 220 17:44 30.06.2022
2835 Clear 21 1023 62 10000 2.57 200 16:55 30.06.2022
2836 Clear 20 1024 65 10000 2.06 0 15:42 30.06.2022
2837 Clear 16 1023 81 10000 0 0 13:36 30.06.2022
2838 Clouds 14 1023 90 10000 2.06 270 12:35 30.06.2022
2839 Clouds 14 1023 91 10000 3.09 230 11:55 30.06.2022
2840 Clouds 13 1022 90 10000 3.09 300 09:55 30.06.2022
2841 Clouds 13 1022 89 10000 3.09 300 09:35 30.06.2022
2842 Clear 14 1021 85 10000 3.09 290 08:19 30.06.2022
2843 Clear 15 1021 83 10000 3.09 320 07:24 30.06.2022
2844 Clouds 19 1020 77 10000 5.14 260 02:38 30.06.2022
2845 Clouds 19 1020 77 10000 7.72 260 23:36 29.06.2022
2846 Clouds 19 1019 80 10000 9.26 280 22:41 29.06.2022
2847 Clouds 22 1019 70 10000 6.69 290 21:43 29.06.2022
2848 Clouds 26 1019 49 10000 6.17 170 20:34 29.06.2022
2849 Clear 25 1020 50 10000 5.66 170 19:55 29.06.2022
2850 Clear 23 1021 51 10000 5.66 180 17:55 29.06.2022
2851 Clear 22 1021 52 10000 4.63 240 16:51 29.06.2022
2852 Clear 22 1021 52 10000 4.63 240 16:51 29.06.2022
2853 Clear 21 1021 54 10000 3.6 180 15:32 29.06.2022
2854 Clear 18 1021 63 10000 4.63 190 13:36 29.06.2022
2855 Clear 15 1021 71 10000 4.12 230 12:24 29.06.2022
2856 Clear 16 1020 67 10000 5.66 230 09:43 29.06.2022
2857 Clear 17 1020 68 10000 5.66 230 09:21 29.06.2022
2858 Clear 19 1020 73 10000 5.66 220 06:27 29.06.2022
2859 Clear 22 1019 51 10000 6.17 230 02:59 29.06.2022
2860 Clouds 23 1019 44 10000 7.72 250 00:52 29.06.2022
2861 Clouds 24 1019 45 10000 7.72 250 00:33 29.06.2022
2862 Clear 24 1019 50 10000 1.34 294 22:49 28.06.2022
2863 Clouds 23 1020 47 10000 7.72 210 21:57 28.06.2022
2864 Clear 23 1019 47 10000 0.89 234 21:38 28.06.2022
2865 Clouds 23 1020 48 10000 5.66 240 20:57 28.06.2022
2866 Clouds 22 1020 47 10000 7.2 200 19:54 28.06.2022
2867 Clouds 22 1020 46 10000 7.2 200 19:28 28.06.2022
2868 Clouds 22 1020 46 10000 4.12 240 18:38 28.06.2022
2869 Clear 21 1020 46 10000 2.57 230 16:47 28.06.2022
2870 Clouds 20 1020 52 10000 2.06 300 15:54 28.06.2022
2871 Clouds 18 1019 63 10000 3.09 340 14:49 28.06.2022
2872 Clouds 18 1019 67 10000 3.09 340 14:18 28.06.2022
2873 Clouds 17 1019 72 10000 2.06 300 13:45 28.06.2022
2874 Clouds 17 1018 79 10000 2.57 310 12:28 28.06.2022
2875 Clouds 17 1016 78 10000 3.09 300 09:53 28.06.2022
2876 Clear 17 1016 78 10000 3.6 310 08:55 28.06.2022
2877 Clear 17 1016 77 10000 3.6 310 08:33 28.06.2022
2878 Clouds 18 1015 73 10000 4.63 310 07:20 28.06.2022
2879 Clear 20 1014 57 10000 5.14 280 03:38 28.06.2022
2880 Clouds 23 1011 45 10000 9.77 250 23:51 27.06.2022
2881 Clouds 23 1011 47 10000 9.77 250 23:25 27.06.2022
2882 Clear 24 1010 46 10000 11.32 270 21:53 27.06.2022
2883 Clear 24 1010 46 10000 11.32 270 21:22 27.06.2022
2884 Clouds 24 1010 45 10000 10.29 280 20:21 27.06.2022
2885 Clear 23 1009 52 10000 10.8 270 18:50 27.06.2022
2886 Clear 24 1009 63 10000 8.23 260 17:38 27.06.2022
2887 Clouds 23 1008 85 10000 6.17 270 15:50 27.06.2022
2888 Clouds 22 1007 93 10000 6.17 250 14:18 27.06.2022
2889 Mist 22 1007 93 9656 3.6 230 12:58 27.06.2022
2890 Mist 22 1007 94 9656 1.54 280 11:40 27.06.2022
2891 Rain 21 1008 94 10000 2.06 170 09:49 27.06.2022
2892 Rain 21 1009 92 10000 2.57 190 08:43 27.06.2022
2893 Clouds 22 1009 90 10000 3.09 210 07:49 27.06.2022
2894 Rain 22 1010 88 10000 4.63 230 05:50 27.06.2022
2895 Clouds 30 1010 49 10000 5.66 210 01:24 27.06.2022
2896 Clouds 31 1011 51 10000 6.17 180 23:22 26.06.2022
2897 Clear 32 1012 50 10000 6.69 160 21:39 26.06.2022
2898 Clear 32 1013 51 10000 6.69 180 20:33 26.06.2022
2899 Clear 31 1015 55 10000 5.66 190 18:38 26.06.2022
2900 Clear 30 1015 58 10000 5.66 190 18:20 26.06.2022
2901 Clear 26 1017 66 10000 6.17 170 15:37 26.06.2022
2902 Clear 24 1017 74 10000 3.6 180 14:23 26.06.2022
2903 Clear 22 1017 82 10000 2.57 130 13:26 26.06.2022
2904 Clear 20 1017 87 10000 1.03 120 11:49 26.06.2022
2905 Mist 20 1017 85 8047 2.06 140 10:42 26.06.2022
2906 Clear 21 1017 84 10000 2.06 130 10:22 26.06.2022
2907 Clear 22 1018 78 10000 2.06 120 08:36 26.06.2022
2908 Clear 23 1018 74 10000 2.06 150 06:50 26.06.2022
2909 Clear 29 1018 51 10000 3.6 180 00:38 26.06.2022
2910 Clear 29 1018 51 10000 3.6 180 00:19 26.06.2022
2911 Clear 29 1018 52 10000 4.63 200 23:31 25.06.2022
2912 Clear 29 1018 51 10000 4.12 200 22:48 25.06.2022
2913 Clear 29 1018 51 10000 4.12 200 22:25 25.06.2022
2914 Clouds 29 1018 51 10000 4.12 210 21:22 25.06.2022
2915 Clear 29 1018 53 10000 3.09 240 20:48 25.06.2022
2916 Clear 29 1018 53 10000 3.09 240 20:25 25.06.2022
2917 Clear 27 1019 60 10000 3.09 190 18:26 25.06.2022
2918 Clear 26 1019 64 10000 2.57 190 17:27 25.06.2022
2919 Clouds 25 1019 66 10000 2.06 220 16:29 25.06.2022
2920 Clouds 21 1019 76 10000 3.09 240 14:43 25.06.2022
2921 Clear 19 1017 82 10000 3.09 230 12:51 25.06.2022
2922 Clear 19 1017 83 10000 3.09 230 12:32 25.06.2022
2923 Clear 19 1017 83 10000 3.09 230 12:32 25.06.2022
2924 Clear 19 1016 81 10000 3.6 230 09:40 25.06.2022
2925 Clear 20 1016 78 10000 3.09 220 08:56 25.06.2022
2926 Clear 20 1016 76 10000 3.09 220 08:25 25.06.2022
2927 Clear 21 1016 71 10000 2.57 220 06:46 25.06.2022
2928 Clear 26 1015 55 10000 5.66 230 01:53 25.06.2022
2929 Clear 27 1015 53 10000 5.66 210 00:20 25.06.2022
2930 Clear 27 1015 60 10000 5.14 220 22:29 24.06.2022
2931 Clear 26 1015 62 10000 4.63 210 21:29 24.06.2022
2932 Clear 25 1015 66 10000 4.63 200 20:25 24.06.2022
2933 Clouds 24 1016 69 10000 3.6 200 19:43 24.06.2022
2934 Clouds 24 1016 70 10000 3.6 200 19:18 24.06.2022
2935 Clouds 24 1016 70 10000 3.6 190 18:46 24.06.2022
2936 Clouds 23 1016 74 10000 3.6 190 18:28 24.06.2022
2937 Clouds 21 1016 78 10000 2.06 290 16:48 24.06.2022
2938 Clear 20 1016 84 10000 2.06 310 15:27 24.06.2022
2939 Clouds 19 1016 89 10000 2.57 350 14:25 24.06.2022
2940 Clouds 18 1015 94 10000 2.06 110 13:46 24.06.2022
2941 Clouds 16 1015 96 10000 1.54 170 11:42 24.06.2022
2942 Clouds 16 1015 96 10000 1.03 90 10:42 24.06.2022
2943 Clouds 17 1014 95 10000 1.03 100 09:42 24.06.2022
2944 Clouds 17 1015 95 10000 1.54 130 08:54 24.06.2022
2945 Clouds 17 1015 94 10000 1.54 130 08:32 24.06.2022
2946 Clouds 17 1015 94 10000 2.06 140 06:45 24.06.2022
2947 Clouds 17 1015 94 10000 2.06 140 06:26 24.06.2022
2948 Clouds 17 1015 95 10000 2.57 160 05:21 24.06.2022
2949 Rain 18 1014 94 10000 2.57 160 00:47 24.06.2022
2950 Rain 17 1014 95 10000 4.12 190 22:43 23.06.2022
2951 Rain 17 1014 93 10000 5.14 140 21:43 23.06.2022
2952 Clouds 17 1014 95 10000 3.6 190 20:43 23.06.2022
2953 Rain 16 1014 94 6437 3.09 160 19:57 23.06.2022
2954 Clouds 16 1014 93 10000 7.2 150 18:43 23.06.2022
2955 Rain 15 1013 94 10000 7.2 150 17:37 23.06.2022
2956 Mist 15 1013 94 9656 5.66 170 16:32 23.06.2022
2957 Clouds 15 1013 94 10000 5.66 170 15:26 23.06.2022
2958 Rain 15 1013 95 9656 6.69 170 14:45 23.06.2022
2959 Rain 15 1012 93 8047 6.17 180 11:49 23.06.2022
2960 Clouds 16 1011 91 10000 3.6 180 10:42 23.06.2022
2961 Clouds 16 1012 88 10000 6.69 200 09:19 23.06.2022
2962 Clouds 19 1011 75 10000 8.75 170 05:48 23.06.2022
2963 Clouds 21 1012 70 10000 9.77 160 01:21 23.06.2022
2964 Clouds 22 1012 66 10000 9.26 160 00:18 23.06.2022
2965 Clouds 23 1012 67 10000 9.26 140 23:22 22.06.2022
2966 Clouds 24 1012 65 10000 10.29 160 21:44 22.06.2022
2967 Clouds 24 1013 67 10000 9.77 180 20:52 22.06.2022
2968 Clouds 24 1013 67 10000 9.77 180 20:20 22.06.2022
2969 Clouds 24 1013 68 10000 8.75 170 19:43 22.06.2022
2970 Clouds 21 1013 74 10000 6.69 160 17:40 22.06.2022
2971 Clouds 20 1014 79 10000 6.69 170 16:43 22.06.2022
2972 Clouds 18 1014 85 10000 7.2 170 15:29 22.06.2022
2973 Clouds 17 1014 87 10000 5.66 170 14:57 22.06.2022
2974 Clouds 16 1014 91 10000 7.2 170 13:49 22.06.2022
2975 Clouds 16 1014 92 10000 7.2 170 13:24 22.06.2022
2976 Clouds 15 1013 93 10000 6.69 170 12:37 22.06.2022
2977 Clouds 15 1014 94 10000 6.17 170 11:46 22.06.2022
2978 Rain 15 1014 91 10000 5.66 180 10:50 22.06.2022
2979 Rain 15 1014 89 10000 6.17 180 09:42 22.06.2022
2980 Rain 15 1015 90 10000 5.14 170 07:22 22.06.2022
2981 Clouds 16 1016 90 10000 3.6 180 02:56 22.06.2022
2982 Rain 18 1016 70 10000 4.12 180 01:19 22.06.2022
2983 Clouds 19 1018 66 10000 3.6 160 22:57 21.06.2022
2984 Clouds 20 1018 65 10000 3.6 90 21:25 21.06.2022
2985 Clouds 19 1019 69 10000 2.57 310 19:43 21.06.2022
2986 Clouds 20 1019 63 10000 3.09 200 17:56 21.06.2022
2987 Clouds 19 1019 63 10000 3.6 200 16:52 21.06.2022
2988 Clouds 16 1019 63 10000 3.6 200 12:36 21.06.2022
2989 Clouds 15 1018 71 10000 2.06 180 10:55 21.06.2022
2990 Clear 16 1018 69 10000 3.6 230 09:39 21.06.2022
2991 Clear 17 1018 61 10000 4.63 240 07:56 21.06.2022
2992 Clear 19 1018 55 10000 3.6 210 05:33 21.06.2022
2993 Clear 25 1017 31 10000 5.66 220 00:37 21.06.2022
2994 Clear 25 1018 30 10000 6.69 250 22:23 20.06.2022
2995 Clear 24 1018 34 10000 7.2 230 21:49 20.06.2022
2996 Clear 23 1019 37 10000 6.17 210 20:32 20.06.2022
2997 Clear 23 1019 40 10000 5.14 230 19:38 20.06.2022
2998 Clear 22 1019 42 10000 4.63 200 18:44 20.06.2022
2999 Clear 21 1019 46 10000 3.6 210 17:52 20.06.2022
3000 Clear 20 1019 45 10000 3.6 210 17:29 20.06.2022
3001 Clear 19 1019 46 10000 2.57 40 15:53 20.06.2022
3002 Clear 13 1018 64 10000 2.06 340 12:41 20.06.2022
3003 Clear 12 1017 63 10000 2.57 330 10:41 20.06.2022
3004 Clear 13 1016 58 10000 3.09 320 09:30 20.06.2022
3005 Clear 13 1016 58 10000 5.14 320 08:44 20.06.2022
3006 Clear 17 1016 47 10000 4.63 320 05:35 20.06.2022
3007 Clear 20 1014 34 10000 5.66 330 02:27 20.06.2022
3008 Clear 22 1014 31 10000 7.72 320 00:26 20.06.2022
3009 Clear 22 1014 32 10000 9.77 350 22:53 19.06.2022
3010 Clear 22 1014 33 10000 8.23 340 21:58 19.06.2022
3011 Clear 22 1014 33 10000 8.23 340 21:40 19.06.2022
3012 Clear 21 1014 35 10000 9.26 330 20:39 19.06.2022
3013 Clear 20 1014 38 10000 6.69 310 19:47 19.06.2022
3014 Clear 18 1015 41 10000 7.2 340 18:46 19.06.2022
3015 Clear 18 1015 42 10000 7.2 340 18:26 19.06.2022
3016 Clear 17 1015 43 10000 9.26 340 17:22 19.06.2022
3017 Clear 15 1015 45 10000 8.23 10 16:35 19.06.2022
3018 Clear 14 1016 48 10000 8.75 350 15:41 19.06.2022
3019 Clear 13 1016 54 10000 6.69 350 14:57 19.06.2022
3020 Clear 13 1016 58 10000 6.69 350 14:20 19.06.2022
3021 Clear 12 1015 65 10000 7.72 330 13:36 19.06.2022
3022 Clear 10 1014 72 10000 6.69 330 11:38 19.06.2022
3023 Clear 10 1014 70 10000 7.2 330 10:31 19.06.2022
3024 Clear 11 1013 69 10000 7.72 330 08:49 19.06.2022
3025 Clear 11 1013 69 10000 7.72 330 08:19 19.06.2022
3026 Clouds 13 1012 63 10000 8.23 320 05:42 19.06.2022
3027 Clouds 15 1010 58 10000 6.69 310 02:32 19.06.2022
3028 Clouds 16 1009 60 10000 6.69 310 00:25 19.06.2022
3029 Clouds 15 1008 64 10000 8.23 330 23:36 18.06.2022
3030 Rain 14 1008 77 10000 5.66 300 22:45 18.06.2022
3031 Rain 12 1008 90 10000 7.2 300 21:43 18.06.2022
3032 Rain 11 1007 88 10000 8.75 290 20:49 18.06.2022
3033 Rain 11 1007 86 10000 7.2 290 19:40 18.06.2022
3034 Rain 11 1006 87 10000 7.2 280 18:54 18.06.2022
3035 Rain 10 1006 87 10000 7.2 280 17:43 18.06.2022
3036 Rain 10 1006 87 10000 7.2 280 17:22 18.06.2022
3037 Drizzle 10 1005 79 10000 6.69 280 15:37 18.06.2022
3038 Clouds 10 1005 78 10000 6.69 290 14:48 18.06.2022
3039 Rain 10 1004 75 10000 6.69 300 13:42 18.06.2022
3040 Clouds 11 1003 76 10000 6.17 280 11:58 18.06.2022
3041 Clouds 11 1003 78 10000 7.72 260 10:57 18.06.2022
3042 Clouds 11 1002 78 10000 6.17 260 09:28 18.06.2022
3043 Clouds 11 1002 78 10000 3.6 270 08:33 18.06.2022
3044 Clouds 11 1002 74 10000 4.63 320 07:32 18.06.2022
3045 Clouds 15 1000 87 10000 4.63 300 04:20 18.06.2022
3046 Mist 18 998 88 9656 5.14 270 01:27 18.06.2022
3047 Mist 18 998 88 9656 5.14 270 01:27 18.06.2022
3048 Rain 19 998 85 6437 7.2 300 00:50 18.06.2022
3049 Thunderstorm 22 997 62 10000 9.26 230 00:22 18.06.2022
3050 Clouds 26 997 46 10000 9.26 260 23:29 17.06.2022
3051 Clouds 26 998 47 10000 9.77 250 21:44 17.06.2022
3052 Clouds 25 999 48 10000 12.35 240 20:29 17.06.2022
3053 Clouds 25 999 51 10000 10.29 260 19:19 17.06.2022
3054 Clouds 24 1000 52 10000 12.35 240 17:47 17.06.2022
3055 Clear 24 1000 56 10000 11.32 230 16:44 17.06.2022
3056 Clear 23 1000 56 10000 11.32 230 16:21 17.06.2022
3057 Clear 23 1000 59 10000 10.8 250 15:37 17.06.2022
3058 Clouds 22 1000 73 10000 7.72 230 14:23 17.06.2022
3059 Clouds 21 1001 79 10000 7.72 230 13:58 17.06.2022
3060 Clouds 20 1001 80 10000 7.72 230 13:38 17.06.2022
3061 Clouds 20 1000 90 10000 4.63 250 12:24 17.06.2022
3062 Clouds 20 1000 92 10000 5.14 190 11:50 17.06.2022
3063 Clouds 20 1000 93 10000 5.14 190 11:32 17.06.2022
3064 Clear 19 1002 95 10000 5.14 170 08:56 17.06.2022
3065 Clear 19 1002 94 10000 5.14 170 08:25 17.06.2022
3066 Clouds 20 1004 93 10000 5.66 170 06:42 17.06.2022
3067 Clouds 20 1006 91 10000 8.23 170 03:42 17.06.2022
3068 Clouds 20 1006 93 10000 6.69 140 01:55 17.06.2022
3069 Thunderstorm 21 1006 90 10000 6.17 170 23:35 16.06.2022
3070 Thunderstorm 22 1008 87 2816 7.72 50 22:41 16.06.2022
3071 Clouds 26 1008 68 10000 11.83 170 21:21 16.06.2022
3072 Clouds 26 1009 68 10000 11.32 170 20:51 16.06.2022
3073 Clouds 26 1009 68 10000 11.32 170 20:27 16.06.2022
3074 Clouds 25 1010 69 10000 10.29 170 19:32 16.06.2022
3075 Clouds 21 1012 81 10000 7.72 170 17:57 16.06.2022
3076 Clouds 21 1012 82 10000 6.17 130 17:33 16.06.2022
3077 Clouds 22 1012 75 10000 7.72 170 16:24 16.06.2022
3078 Clouds 22 1014 74 10000 8.23 180 15:21 16.06.2022
3079 Clouds 22 1014 76 10000 8.23 170 14:28 16.06.2022
3080 Clouds 20 1014 82 10000 4.12 170 12:59 16.06.2022
3081 Clouds 20 1014 83 10000 4.12 170 12:35 16.06.2022
3082 Clouds 19 1015 85 10000 5.14 160 11:49 16.06.2022
3083 Clouds 19 1015 86 10000 5.66 150 10:42 16.06.2022
3084 Rain 20 1016 81 10000 3.6 160 09:43 16.06.2022
3085 Thunderstorm 20 1016 76 10000 3.6 160 09:20 16.06.2022
3086 Clouds 20 1017 69 10000 5.66 140 07:57 16.06.2022
3087 Clear 20 1017 70 10000 2.57 120 06:51 16.06.2022
3088 Clouds 22 1018 62 10000 1.54 110 04:28 16.06.2022
3089 Clear 24 1018 55 10000 3.09 150 01:53 16.06.2022
3090 Clear 24 1018 56 10000 3.09 150 01:34 16.06.2022
3091 Clear 25 1018 54 10000 4.12 160 00:36 16.06.2022
3092 Clear 25 1018 56 10000 2.57 150 23:23 15.06.2022
3093 Clear 24 1019 58 10000 3.6 100 21:59 15.06.2022
3094 Clear 24 1019 59 10000 3.6 100 21:20 15.06.2022
3095 Clear 24 1019 59 10000 3.09 130 20:38 15.06.2022
3096 Clear 24 1019 61 10000 3.09 130 20:19 15.06.2022
3097 Clear 23 1020 63 10000 1.54 30 18:51 15.06.2022
3098 Clear 22 1020 63 10000 3.09 90 17:55 15.06.2022
3099 Clear 21 1020 67 10000 4.12 20 16:38 15.06.2022
3100 Clear 20 1020 71 10000 4.63 20 15:35 15.06.2022
3101 Clear 17 1019 79 10000 6.17 40 13:43 15.06.2022
3102 Clear 16 1018 84 10000 3.6 40 12:53 15.06.2022
3103 Clear 15 1018 85 10000 4.12 30 11:48 15.06.2022
3104 Clear 16 1018 84 10000 3.6 30 10:24 15.06.2022
3105 Clear 16 1017 81 10000 3.09 10 09:38 15.06.2022
3106 Clear 17 1017 74 10000 4.12 30 08:30 15.06.2022
3107 Clear 19 1016 65 10000 3.6 40 06:33 15.06.2022
3108 Clouds 21 1014 67 10000 4.12 50 03:45 15.06.2022
3109 Clouds 25 1013 48 10000 4.12 50 01:54 15.06.2022
3110 Clear 25 1013 49 10000 5.66 30 00:50 15.06.2022
3111 Clouds 25 1013 49 10000 6.69 350 23:39 14.06.2022
3112 Clouds 25 1013 53 10000 6.69 350 23:18 14.06.2022
3113 Clouds 26 1013 49 10000 3.09 300 22:18 14.06.2022
3114 Clouds 25 1013 45 10000 2.06 350 21:33 14.06.2022
3115 Clouds 25 1013 51 10000 4.63 240 20:48 14.06.2022
3116 Clouds 25 1013 52 10000 4.63 240 20:28 14.06.2022
3117 Clouds 24 1013 51 10000 4.63 240 18:56 14.06.2022
3118 Clear 24 1013 54 10000 3.6 340 17:40 14.06.2022
3119 Clear 23 1013 57 10000 3.6 330 16:43 14.06.2022
3120 Clear 21 1013 62 10000 4.12 350 15:50 14.06.2022
3121 Clear 21 1013 63 10000 4.12 350 15:22 14.06.2022
3122 Clear 19 1014 68 10000 3.09 290 14:32 14.06.2022
3123 Clear 17 1013 77 10000 2.57 300 13:41 14.06.2022
3124 Clear 15 1013 83 10000 3.09 240 12:42 14.06.2022
3125 Clear 14 1013 84 10000 2.06 250 11:32 14.06.2022
3126 Clear 14 1013 82 10000 4.12 230 10:47 14.06.2022
3127 Clear 15 1013 79 10000 3.09 240 09:48 14.06.2022
3128 Clear 15 1013 78 10000 3.09 280 08:47 14.06.2022
3129 Clear 15 1013 74 10000 2.57 290 07:33 14.06.2022
3130 Clear 17 1013 66 10000 3.6 280 05:22 14.06.2022
3131 Clouds 20 1013 56 10000 6.17 280 02:58 14.06.2022
3132 Clouds 22 1012 50 10000 6.17 300 00:53 14.06.2022
3133 Clouds 22 1012 48 10000 5.66 290 23:39 13.06.2022
3134 Clouds 23 1012 48 10000 7.2 270 22:26 13.06.2022
3135 Clouds 22 1012 50 10000 7.72 250 21:50 13.06.2022
3136 Clouds 22 1012 51 10000 8.75 260 20:42 13.06.2022
3137 Clouds 22 1012 49 10000 8.23 280 19:35 13.06.2022
3138 Clouds 22 1012 49 10000 6.17 280 18:28 13.06.2022
3139 Clouds 22 1012 54 10000 7.72 250 17:47 13.06.2022
3140 Clouds 21 1011 61 10000 7.2 270 16:52 13.06.2022
3141 Clouds 20 1011 70 10000 4.12 260 15:40 13.06.2022
3142 Clouds 19 1011 78 10000 4.63 250 14:47 13.06.2022
3143 Clouds 18 1011 86 10000 4.12 230 13:55 13.06.2022
3144 Clouds 17 1010 91 10000 4.12 240 12:49 13.06.2022
3145 Clear 16 1010 91 10000 3.09 210 11:37 13.06.2022
3146 Clear 17 1009 90 10000 3.6 240 10:27 13.06.2022
3147 Clouds 18 1009 84 10000 4.12 230 09:42 13.06.2022
3148 Clouds 18 1009 86 10000 4.12 220 08:24 13.06.2022
3149 Clouds 19 1009 76 10000 3.09 190 06:33 13.06.2022
3150 Clouds 20 1009 82 10000 2.06 210 03:28 13.06.2022
3151 Clouds 20 1009 80 10000 1.54 90 01:38 13.06.2022
3152 Clouds 20 1009 78 10000 1.03 0 00:48 13.06.2022
3153 Rain 21 1010 73 10000 6.17 270 23:31 12.06.2022
3154 Clouds 22 1009 66 10000 2.57 140 22:23 12.06.2022
3155 Clouds 24 1010 58 10000 4.12 180 21:39 12.06.2022
3156 Clouds 25 1011 55 10000 7.2 170 20:40 12.06.2022
3157 Clouds 24 1011 56 10000 4.63 170 19:41 12.06.2022
3158 Rain 25 1012 53 10000 4.12 140 18:44 12.06.2022
3159 Clouds 22 1012 62 10000 4.12 170 16:44 12.06.2022
3160 Clouds 20 1013 65 10000 5.14 190 15:32 12.06.2022
3161 Clear 19 1012 65 10000 4.63 160 14:33 12.06.2022
3162 Clear 18 1012 70 10000 2.57 130 13:57 12.06.2022
3163 Clear 18 1012 71 10000 2.57 130 13:38 12.06.2022
3164 Clear 15 1012 80 10000 2.57 130 11:58 12.06.2022
3165 Clear 15 1012 79 10000 1.54 160 10:46 12.06.2022
3166 Clear 15 1012 76 10000 3.09 130 09:36 12.06.2022
3167 Clear 16 1011 73 10000 3.09 210 08:49 12.06.2022
3168 Clear 17 1011 71 10000 2.06 180 07:47 12.06.2022
3169 Clear 18 1011 67 10000 2.57 180 05:51 12.06.2022
3170 Clear 20 1010 49 10000 3.6 180 03:38 12.06.2022
3171 Clear 20 1010 49 10000 3.6 180 03:38 12.06.2022
3172 Clear 24 1009 36 10000 4.63 240 01:44 12.06.2022
3173 Clear 24 1009 38 10000 4.63 240 01:22 12.06.2022
3174 Clouds 24 1009 37 10000 6.69 230 00:36 12.06.2022
3175 Clouds 24 1009 42 10000 6.69 230 00:18 12.06.2022
3176 Clouds 24 1010 46 10000 8.23 220 22:53 11.06.2022
3177 Clouds 24 1010 46 10000 8.23 220 22:29 11.06.2022
3178 Clear 24 1010 46 10000 7.2 220 21:18 11.06.2022
3179 Clear 24 1011 43 10000 7.72 200 20:26 11.06.2022
3180 Clear 24 1011 44 10000 7.2 230 19:33 11.06.2022
3181 Clear 23 1012 51 10000 5.66 220 18:42 11.06.2022
3182 Clear 23 1012 52 10000 5.66 220 18:24 11.06.2022
3183 Clear 22 1012 57 10000 5.14 230 17:38 11.06.2022
3184 Clear 22 1012 59 10000 5.14 230 17:19 11.06.2022
3185 Clear 21 1012 68 10000 5.14 190 16:42 11.06.2022
3186 Clear 19 1012 68 10000 4.12 210 15:47 11.06.2022
3187 Clouds 17 1012 76 10000 4.63 240 14:23 11.06.2022
3188 Clouds 16 1011 82 10000 4.63 230 13:47 11.06.2022
3189 Clouds 14 1010 88 10000 4.12 240 11:46 11.06.2022
3190 Clouds 13 1010 88 10000 4.63 230 10:30 11.06.2022
3191 Clear 14 1010 88 10000 5.66 240 09:40 11.06.2022
3192 Clear 15 1009 86 10000 4.12 250 08:21 11.06.2022
3193 Clear 16 1009 82 10000 6.17 250 06:32 11.06.2022
3194 Clear 16 1009 85 10000 6.17 240 05:26 11.06.2022
3195 Clouds 19 1008 72 10000 6.17 240 02:42 11.06.2022
3196 Clouds 19 1007 72 10000 7.72 240 01:41 11.06.2022
3197 Clouds 20 1006 70 10000 9.77 250 00:54 11.06.2022
3198 Clouds 20 1005 65 10000 9.26 240 22:55 10.06.2022
3199 Clouds 21 1005 64 10000 9.26 240 22:20 10.06.2022
3200 Clouds 20 1005 67 10000 9.26 250 21:22 10.06.2022
3201 Clouds 20 1005 66 10000 9.26 220 20:37 10.06.2022
3202 Clouds 20 1005 67 10000 8.23 230 20:19 10.06.2022
3203 Clouds 19 1005 70 10000 9.26 240 19:19 10.06.2022
3204 Clouds 18 1005 69 10000 8.23 260 18:29 10.06.2022
3205 Clouds 18 1005 73 10000 7.2 260 17:42 10.06.2022
3206 Clouds 17 1005 73 10000 7.72 240 16:59 10.06.2022
3207 Clouds 17 1005 75 10000 7.72 240 16:23 10.06.2022
3208 Clouds 16 1004 82 10000 7.72 250 15:37 10.06.2022
3209 Clouds 14 1004 91 10000 6.69 250 13:57 10.06.2022
3210 Clouds 14 1003 92 10000 5.66 240 12:50 10.06.2022
3211 Rain 14 1003 89 10000 3.6 240 11:43 10.06.2022
3212 Clouds 14 1004 91 10000 5.14 250 10:45 10.06.2022
3213 Clouds 14 1004 90 10000 3.6 250 09:54 10.06.2022
3214 Clouds 14 1004 89 10000 5.14 240 08:42 10.06.2022
3215 Clear 14 1004 86 10000 4.12 260 07:26 10.06.2022
3216 Clouds 14 1004 86 10000 4.12 260 06:44 10.06.2022
3217 Clouds 14 1004 85 10000 4.12 260 06:25 10.06.2022
3218 Clouds 15 1004 82 10000 3.09 240 03:55 10.06.2022
3219 Clouds 16 1004 73 10000 2.57 310 01:41 10.06.2022
3220 Clouds 16 1004 75 10000 2.57 340 00:32 10.06.2022
3221 Clouds 16 1004 81 10000 3.6 360 23:47 09.06.2022
3222 Rain 15 1004 89 10000 4.63 10 22:18 09.06.2022
3223 Rain 15 1004 90 10000 4.12 20 21:33 09.06.2022
3224 Rain 15 1004 89 10000 5.66 30 20:54 09.06.2022
3225 Rain 15 1004 89 10000 5.66 30 20:21 09.06.2022
3226 Rain 15 1004 92 10000 5.14 30 19:29 09.06.2022
3227 Rain 15 1005 92 10000 4.63 50 18:34 09.06.2022
3228 Rain 14 1006 92 10000 4.12 50 16:56 09.06.2022
3229 Rain 14 1006 92 10000 5.14 20 15:49 09.06.2022
3230 Rain 14 1006 90 8047 3.6 40 14:38 09.06.2022
3231 Rain 14 1007 87 10000 5.14 50 13:55 09.06.2022
3232 Rain 15 1007 86 10000 5.14 50 13:28 09.06.2022
3233 Rain 15 1008 79 10000 4.63 40 12:21 09.06.2022
3234 Clouds 15 1008 80 10000 3.09 40 11:19 09.06.2022
3235 Clouds 15 1008 80 10000 2.57 50 09:50 09.06.2022
3236 Clouds 15 1008 80 10000 2.57 50 09:31 09.06.2022
3237 Clouds 16 1011 77 10000 3.6 130 07:56 09.06.2022
3238 Clear 17 1010 74 10000 2.06 100 06:55 09.06.2022
3239 Clear 19 1010 66 10000 2.06 50 03:22 09.06.2022
3240 Clouds 23 1009 48 10000 4.12 290 23:49 08.06.2022
3241 Clouds 23 1009 49 10000 6.17 290 22:58 08.06.2022
3242 Clouds 23 1009 50 10000 6.17 290 22:27 08.06.2022
3243 Clouds 23 1009 53 10000 6.69 270 21:57 08.06.2022
3244 Clouds 22 1009 53 10000 6.69 270 21:23 08.06.2022
3245 Clouds 21 1010 58 10000 8.23 260 20:22 08.06.2022
3246 Clouds 20 1010 64 10000 7.72 290 19:39 08.06.2022
3247 Clouds 20 1010 64 10000 7.72 290 19:39 08.06.2022
3248 Clouds 19 1010 67 10000 6.17 260 18:48 08.06.2022
3249 Clouds 18 1009 74 10000 7.72 260 17:30 08.06.2022
3250 Clouds 17 1008 83 10000 7.2 250 15:52 08.06.2022
3251 Clouds 17 1008 83 10000 7.2 240 14:18 08.06.2022
3252 Clouds 17 1007 91 10000 7.2 230 12:29 08.06.2022
3253 Clouds 17 1006 91 10000 8.23 240 11:34 08.06.2022
3254 Clouds 17 1005 93 10000 4.63 200 10:37 08.06.2022
3255 Mist 17 1005 95 8047 7.72 180 09:28 08.06.2022
3256 Mist 17 1005 94 4828 5.66 170 08:49 08.06.2022
3257 Clouds 17 1006 94 10000 8.23 170 06:36 08.06.2022
3258 Rain 18 1007 92 4023 6.17 190 04:35 08.06.2022
3259 Rain 21 1008 72 10000 5.66 200 00:57 08.06.2022
3260 Clear 25 1007 43 10000 10.8 180 23:31 07.06.2022
3261 Clear 25 1008 41 10000 9.77 180 22:50 07.06.2022
3262 Clear 25 1008 41 10000 9.77 180 22:31 07.06.2022
3263 Clouds 26 1008 43 10000 7.2 170 21:37 07.06.2022
3264 Clouds 26 1008 47 10000 7.2 170 21:18 07.06.2022
3265 Clouds 25 1009 49 10000 5.14 170 20:37 07.06.2022
3266 Clouds 23 1010 52 10000 4.63 170 19:49 07.06.2022
3267 Clouds 24 1011 49 10000 7.2 160 18:25 07.06.2022
3268 Clouds 21 1011 60 10000 5.66 180 17:31 07.06.2022
3269 Clouds 20 1012 65 10000 5.66 160 16:44 07.06.2022
3270 Rain 19 1012 68 10000 4.63 130 15:58 07.06.2022
3271 Clouds 18 1013 72 10000 4.63 170 15:30 07.06.2022
3272 Rain 18 1013 70 10000 4.12 160 14:56 07.06.2022
3273 Rain 18 1013 73 10000 4.12 160 14:38 07.06.2022
3274 Rain 18 1013 72 10000 3.6 160 13:33 07.06.2022
3275 Rain 18 1013 70 10000 3.6 190 12:54 07.06.2022
3276 Clouds 17 1013 64 10000 3.09 170 11:49 07.06.2022
3277 Clouds 18 1013 61 10000 2.06 120 10:48 07.06.2022
3278 Clouds 18 1014 58 10000 3.6 140 08:53 07.06.2022
3279 Clouds 18 1015 61 10000 1.54 130 07:47 07.06.2022
3280 Clouds 19 1015 52 10000 4.63 90 06:39 07.06.2022
3281 Clouds 20 1015 46 10000 4.12 100 04:39 07.06.2022
3282 Clouds 22 1015 46 10000 4.63 110 01:27 07.06.2022
3283 Clouds 24 1016 40 10000 5.14 80 23:53 06.06.2022
3284 Clouds 24 1016 38 10000 4.12 120 22:54 06.06.2022
3285 Clouds 24 1016 38 10000 4.12 120 22:29 06.06.2022
3286 Clear 23 1016 40 10000 2.06 40 20:47 06.06.2022
3287 Clear 23 1017 39 10000 3.6 110 19:28 06.06.2022
3288 Clear 22 1017 43 10000 3.6 130 18:49 06.06.2022
3289 Clear 22 1017 42 10000 3.6 130 18:21 06.06.2022
3290 Clear 21 1017 45 10000 4.63 120 17:26 06.06.2022
3291 Clear 20 1017 50 10000 4.12 120 16:18 06.06.2022
3292 Clear 19 1018 55 10000 3.09 100 15:23 06.06.2022
3293 Clear 17 1018 64 10000 2.06 90 14:30 06.06.2022
3294 Clear 15 1017 71 10000 2.57 40 13:22 06.06.2022
3295 Clear 13 1017 79 10000 2.06 40 12:36 06.06.2022
3296 Clear 11 1016 81 10000 1.03 40 11:53 06.06.2022
3297 Clear 12 1016 76 10000 1.03 0 10:40 06.06.2022
3298 Clouds 13 1016 73 10000 1.54 60 09:33 06.06.2022
3299 Clouds 13 1016 73 10000 2.57 90 08:32 06.06.2022
3300 Clouds 14 1015 67 10000 1.54 120 07:28 06.06.2022
3301 Clear 14 1015 64 10000 1.54 0 05:27 06.06.2022
3302 Clear 19 1014 48 10000 3.09 340 02:55 06.06.2022
3303 Clouds 21 1014 43 10000 4.63 310 01:18 06.06.2022
3304 Clouds 21 1014 43 10000 4.12 330 00:38 06.06.2022
3305 Clouds 21 1013 43 10000 5.66 330 23:34 05.06.2022
3306 Clouds 21 1014 44 10000 6.17 280 22:45 05.06.2022
3307 Clouds 20 1013 45 10000 7.72 290 20:47 05.06.2022
3308 Clouds 19 1013 49 10000 8.23 250 19:41 05.06.2022
3309 Clouds 18 1013 50 10000 7.2 270 18:30 05.06.2022
3310 Clouds 18 1013 50 10000 6.17 280 17:54 05.06.2022
3311 Clouds 17 1013 51 10000 6.17 280 17:25 05.06.2022
3312 Clouds 17 1013 55 10000 6.69 240 16:51 05.06.2022
3313 Clouds 16 1013 55 10000 6.69 240 16:32 05.06.2022
3314 Clouds 14 1013 68 10000 5.66 240 14:27 05.06.2022
3315 Clear 12 1012 74 10000 4.12 230 12:55 05.06.2022
3316 Clear 12 1012 74 10000 4.12 230 12:55 05.06.2022
3317 Clouds 11 1012 74 10000 3.6 240 11:47 05.06.2022
3318 Clouds 11 1011 70 10000 4.12 270 10:38 05.06.2022
3319 Clouds 11 1011 69 10000 4.12 270 10:20 05.06.2022
3320 Clear 12 1011 68 10000 5.14 260 08:34 05.06.2022
3321 Clear 13 1011 66 10000 4.12 250 07:48 05.06.2022
3322 Clear 14 1010 56 10000 3.6 270 05:22 05.06.2022
3323 Clear 15 1010 55 10000 7.2 280 04:19 05.06.2022
3324 Clouds 18 1009 46 10000 8.75 280 01:32 05.06.2022
3325 Clouds 18 1009 46 10000 8.75 280 01:32 05.06.2022
3326 Clouds 19 1008 41 10000 10.8 290 00:39 05.06.2022
3327 Clouds 21 1008 42 10000 11.83 250 22:36 04.06.2022
3328 Clear 22 1008 44 10000 13.89 240 20:33 04.06.2022
3329 Clear 22 1008 45 10000 9.26 250 18:45 04.06.2022
3330 Clear 21 1008 53 10000 4.12 220 16:47 04.06.2022
3331 Clear 21 1008 52 10000 4.12 220 16:18 04.06.2022
3332 Clouds 18 1009 61 10000 3.09 210 14:54 04.06.2022
3333 Clouds 17 1009 66 10000 4.12 200 13:36 04.06.2022
3334 Clouds 14 1008 81 10000 3.09 170 11:22 04.06.2022
3335 Clouds 15 1008 78 10000 2.57 180 10:49 04.06.2022
3336 Clouds 16 1009 74 10000 3.6 200 09:45 04.06.2022
3337 Clouds 16 1008 70 10000 3.09 230 08:43 04.06.2022
3338 Clouds 17 1009 69 10000 4.12 230 07:42 04.06.2022
3339 Clouds 19 1009 53 10000 3.6 240 05:30 04.06.2022
3340 Clear 23 1007 35 10000 4.63 280 02:20 04.06.2022
3341 Clear 24 1007 34 10000 6.17 250 00:19 04.06.2022
3342 Clouds 24 1006 41 10000 7.72 240 22:40 03.06.2022
3343 Clear 24 1006 42 10000 8.23 230 21:39 03.06.2022
3344 Clear 24 1006 46 10000 7.2 240 20:38 03.06.2022
3345 Clouds 22 1007 51 10000 5.14 260 18:41 03.06.2022
3346 Clouds 20 1007 59 10000 5.66 260 16:52 03.06.2022
3347 Clear 19 1006 62 10000 4.12 260 15:37 03.06.2022
3348 Clouds 16 1006 88 10000 1.54 20 13:48 03.06.2022
3349 Rain 16 1005 91 10000 3.6 240 11:50 03.06.2022
3350 Clouds 17 1005 86 10000 1.03 220 09:50 03.06.2022
3351 Clouds 17 1005 81 10000 1.54 300 09:28 03.06.2022
3352 Clouds 18 1006 79 10000 3.09 240 07:27 03.06.2022
3353 Clouds 18 1006 79 10000 2.06 210 06:44 03.06.2022
3354 Clouds 18 1006 81 10000 2.06 210 06:26 03.06.2022
3355 Clouds 21 1007 64 10000 1.54 110 01:23 03.06.2022
3356 Clouds 21 1007 62 10000 2.06 120 23:34 02.06.2022
3357 Clouds 21 1007 63 10000 2.57 80 21:57 02.06.2022
3358 Clouds 21 1007 63 10000 2.57 80 21:57 02.06.2022
3359 Clouds 20 1008 63 10000 2.06 80 20:25 02.06.2022
3360 Clouds 20 1008 64 10000 3.6 30 19:53 02.06.2022
3361 Clouds 20 1008 64 10000 3.6 30 19:35 02.06.2022
3362 Clouds 18 1009 65 10000 4.63 70 17:59 02.06.2022
3363 Clouds 16 1009 67 10000 6.69 50 16:28 02.06.2022
3364 Clouds 14 1009 78 10000 5.66 40 14:58 02.06.2022
3365 Clouds 12 1009 86 10000 5.14 20 13:30 02.06.2022
3366 Clouds 12 1008 90 10000 4.63 360 12:46 02.06.2022
3367 Clouds 12 1007 91 10000 5.14 40 10:32 02.06.2022
3368 Clouds 13 1008 90 10000 5.14 20 09:28 02.06.2022
3369 Clouds 13 1008 92 10000 6.17 50 08:30 02.06.2022
3370 Mist 13 1008 95 9656 7.2 40 07:58 02.06.2022
3371 Mist 14 1008 94 4023 7.2 30 06:20 02.06.2022
3372 Mist 15 1008 87 9656 3.09 80 03:49 02.06.2022
3373 Clouds 17 1010 77 10000 4.12 90 00:39 02.06.2022
3374 Clouds 17 1011 75 10000 5.14 80 22:57 01.06.2022
3375 Clouds 18 1012 74 10000 5.14 80 21:52 01.06.2022
3376 Clouds 18 1012 74 10000 5.14 80 21:22 01.06.2022
3377 Clouds 18 1012 72 10000 5.14 80 20:38 01.06.2022
3378 Clouds 17 1013 69 10000 5.66 80 19:50 01.06.2022
3379 Clouds 16 1014 59 10000 4.63 70 18:24 01.06.2022
3380 Clouds 15 1014 61 10000 5.66 30 16:56 01.06.2022
3381 Clouds 14 1015 63 10000 6.69 30 15:42 01.06.2022
3382 Clouds 14 1015 63 10000 6.69 30 15:42 01.06.2022
3383 Clouds 14 1015 62 10000 5.66 40 14:46 01.06.2022
3384 Clouds 14 1015 61 10000 8.23 40 13:18 01.06.2022
3385 Clouds 14 1015 56 10000 6.69 50 10:42 01.06.2022
3386 Clouds 15 1016 54 10000 5.66 50 09:28 01.06.2022
3387 Clouds 16 1017 55 10000 6.17 70 07:59 01.06.2022
3388 Clouds 16 1017 55 10000 6.17 70 07:20 01.06.2022
3389 Clouds 17 1017 55 10000 5.66 50 03:22 01.06.2022
3390 Clouds 19 1016 50 10000 6.17 40 23:47 31.05.2022
3391 Clouds 19 1016 53 10000 6.69 20 22:38 31.05.2022
3392 Clouds 19 1016 54 10000 6.69 20 22:19 31.05.2022
3393 Clouds 19 1017 57 10000 6.17 50 21:23 31.05.2022
3394 Clouds 18 1017 59 10000 6.69 60 20:43 31.05.2022
3395 Clouds 17 1017 64 10000 5.66 70 19:31 31.05.2022
3396 Clouds 15 1018 70 10000 6.17 30 18:26 31.05.2022
3397 Clouds 15 1018 69 10000 7.2 50 17:37 31.05.2022
3398 Clouds 13 1018 75 10000 7.72 40 15:45 31.05.2022
3399 Clouds 13 1018 77 10000 7.72 40 15:22 31.05.2022
3400 Clouds 14 1016 80 10000 7.72 20 12:41 31.05.2022
3401 Clouds 14 1016 80 10000 7.72 20 12:18 31.05.2022
3402 Clouds 15 1015 78 10000 6.17 30 10:25 31.05.2022
3403 Clouds 21 1012 72 10000 7.72 10 07:46 31.05.2022
3404 Clouds 23 1011 68 10000 6.17 250 06:19 31.05.2022
3405 Clouds 24 1011 64 10000 5.14 230 04:31 31.05.2022
3406 Clear 27 1012 51 10000 6.17 240 23:45 30.05.2022
3407 Clear 27 1012 51 10000 6.17 240 23:24 30.05.2022
3408 Clear 27 1013 51 10000 6.69 210 22:37 30.05.2022
3409 Clouds 26 1014 52 10000 5.66 250 21:40 30.05.2022
3410 Clouds 26 1015 55 10000 6.17 240 20:51 30.05.2022
3411 Clouds 25 1015 56 10000 2.06 190 19:44 30.05.2022
3412 Clouds 24 1016 58 10000 3.6 220 18:18 30.05.2022
3413 Clouds 21 1016 64 10000 4.12 230 17:23 30.05.2022
3414 Clouds 18 1016 73 10000 4.63 220 16:22 30.05.2022
3415 Clouds 17 1017 74 10000 4.63 230 13:32 30.05.2022
3416 Clouds 16 1016 74 10000 4.63 230 11:40 30.05.2022
3417 Clear 17 1016 72 10000 5.66 250 09:58 30.05.2022
3418 Clear 17 1016 67 10000 5.66 250 08:52 30.05.2022
3419 Clear 18 1016 56 10000 5.14 240 06:26 30.05.2022
3420 Clear 20 1016 50 10000 5.14 230 04:52 30.05.2022
3421 Clear 24 1014 42 10000 6.69 250 01:23 30.05.2022
3422 Clouds 25 1015 40 10000 7.2 220 22:49 29.05.2022
3423 Clouds 26 1015 43 10000 7.2 220 22:28 29.05.2022
3424 Clear 25 1016 41 10000 8.23 240 20:38 29.05.2022
3425 Clear 24 1016 48 10000 7.2 220 19:30 29.05.2022
3426 Clear 23 1016 51 10000 5.66 250 18:34 29.05.2022
3427 Clear 21 1016 62 10000 5.14 240 16:40 29.05.2022
3428 Clear 19 1016 66 10000 4.63 230 15:47 29.05.2022
3429 Clear 18 1015 70 10000 5.14 230 14:55 29.05.2022
3430 Clear 16 1015 77 10000 5.14 240 13:46 29.05.2022
3431 Clear 14 1014 84 10000 4.63 230 11:31 29.05.2022
3432 Clear 14 1013 81 10000 6.17 230 10:37 29.05.2022
3433 Clouds 15 1012 75 10000 3.6 230 08:36 29.05.2022
3434 Clouds 16 1011 67 10000 3.09 220 05:22 29.05.2022
3435 Clear 17 1011 65 10000 2.57 240 04:41 29.05.2022
3436 Clear 19 1009 59 10000 3.09 270 02:24 29.05.2022
3437 Clouds 21 1008 51 10000 6.17 330 23:48 28.05.2022
3438 Clouds 21 1007 51 10000 6.17 330 23:26 28.05.2022
3439 Clouds 20 1007 53 10000 6.17 320 22:25 28.05.2022
3440 Clouds 20 1007 57 10000 7.72 330 21:31 28.05.2022
3441 Clouds 19 1006 64 10000 6.17 290 19:24 28.05.2022
3442 Clouds 19 1006 68 10000 5.66 290 18:46 28.05.2022
3443 Clouds 18 1006 73 10000 6.17 290 17:35 28.05.2022
3444 Clouds 17 1005 81 10000 5.14 280 16:35 28.05.2022
3445 Rain 17 1004 86 10000 4.12 360 15:38 28.05.2022
3446 Clouds 18 1004 87 10000 5.14 310 14:18 28.05.2022
3447 Clouds 18 1002 94 10000 3.6 280 12:44 28.05.2022
3448 Clouds 18 1002 94 10000 5.14 250 11:57 28.05.2022
3449 Clouds 18 1002 95 10000 4.12 220 10:49 28.05.2022
3450 Clouds 18 1002 95 10000 4.12 230 09:57 28.05.2022
3451 Clouds 18 1002 96 10000 6.17 240 08:45 28.05.2022
3452 Rain 19 1002 96 10000 4.12 250 07:23 28.05.2022
3453 Rain 19 1002 95 9656 4.63 220 05:24 28.05.2022
3454 Rain 20 1003 86 10000 4.12 230 02:43 28.05.2022
3455 Clouds 21 1004 82 10000 4.63 210 00:32 28.05.2022
3456 Clouds 20 1005 90 10000 6.69 240 22:51 27.05.2022
3457 Clouds 20 1006 92 10000 6.17 210 21:43 27.05.2022
3458 Mist 20 1006 93 9656 6.69 220 20:49 27.05.2022
3459 Rain 20 1006 92 6437 6.69 220 20:24 27.05.2022
3460 Rain 20 1006 93 10000 5.66 240 19:42 27.05.2022
3461 Mist 20 1006 93 4828 5.66 220 19:21 27.05.2022
3462 Rain 19 1007 95 10000 4.12 170 17:52 27.05.2022
3463 Rain 18 1008 94 6437 6.69 180 16:38 27.05.2022
3464 Rain 18 1008 93 10000 4.12 180 15:22 27.05.2022
3465 Mist 17 1008 93 8047 5.14 150 13:53 27.05.2022
3466 Rain 17 1009 93 8047 5.66 180 12:39 27.05.2022
3467 Rain 17 1009 88 10000 5.66 180 11:33 27.05.2022
3468 Rain 18 1009 81 10000 5.14 180 10:55 27.05.2022
3469 Rain 19 1009 77 10000 5.14 180 10:29 27.05.2022
3470 Clouds 19 1009 75 10000 6.17 180 09:34 27.05.2022
3471 Clouds 20 1009 68 10000 6.17 180 07:50 27.05.2022
3472 Clouds 21 1010 62 10000 7.2 180 05:32 27.05.2022
3473 Clouds 22 1010 51 10000 6.17 180 02:26 27.05.2022
3474 Clouds 22 1012 46 10000 5.14 180 00:26 27.05.2022
3475 Clouds 21 1013 60 10000 6.17 190 22:35 26.05.2022
3476 Clouds 23 1014 41 10000 8.23 180 21:37 26.05.2022
3477 Clouds 23 1015 50 10000 8.23 180 19:58 26.05.2022
3478 Clouds 22 1016 47 10000 8.23 180 19:19 26.05.2022
3479 Clouds 18 1018 65 10000 6.69 170 17:51 26.05.2022
3480 Clouds 16 1019 75 10000 5.66 150 16:36 26.05.2022
3481 Clouds 16 1020 79 10000 5.66 140 15:45 26.05.2022
3482 Rain 16 1021 82 10000 4.12 180 14:28 26.05.2022
3483 Clouds 16 1022 73 10000 4.12 180 12:37 26.05.2022
3484 Clouds 16 1021 68 10000 3.6 110 11:23 26.05.2022
3485 Clouds 16 1021 68 10000 3.6 110 11:23 26.05.2022
3486 Clouds 16 1021 58 10000 2.57 130 09:44 26.05.2022
3487 Clouds 17 1022 56 10000 2.57 150 09:26 26.05.2022
3488 Clouds 17 1022 51 10000 3.09 120 08:30 26.05.2022
3489 Clouds 17 1024 53 10000 2.57 150 04:41 26.05.2022
3490 Clouds 22 1025 26 10000 1.03 180 00:48 26.05.2022
3491 Clear 23 1025 25 10000 3.6 250 23:40 25.05.2022
3492 Clear 23 1026 29 10000 2.06 190 21:59 25.05.2022
3493 Clear 23 1026 29 10000 2.06 190 21:32 25.05.2022
3494 Clear 22 1027 33 10000 2.06 250 20:35 25.05.2022
3495 Clear 21 1027 32 10000 3.09 0 19:24 25.05.2022
3496 Clear 21 1028 36 10000 1.54 60 17:43 25.05.2022
3497 Clear 20 1029 42 10000 2.06 0 16:38 25.05.2022
3498 Clouds 18 1029 49 10000 0.51 230 15:54 25.05.2022
3499 Clear 15 1028 56 10000 1.54 350 14:54 25.05.2022
3500 Clear 15 1028 57 10000 1.54 350 14:33 25.05.2022
3501 Clear 13 1028 65 10000 1.03 0 13:54 25.05.2022
3502 Clear 9 1028 76 10000 1.54 10 12:39 25.05.2022
3503 Clear 8 1027 80 10000 1.03 0 10:49 25.05.2022
3504 Clear 8 1027 79 10000 1.03 0 10:18 25.05.2022
3505 Clouds 9 1026 75 10000 0.92 10 08:41 25.05.2022
3506 Clouds 10 1026 70 10000 0.89 359 07:23 25.05.2022
3507 Clouds 13 1026 55 10000 1.03 250 04:22 25.05.2022
3508 Clouds 18 1025 35 10000 3.6 50 00:23 25.05.2022
3509 Clear 18 1026 35 10000 3.09 350 23:47 24.05.2022
3510 Clear 18 1026 36 10000 4.12 340 22:33 24.05.2022
3511 Clear 18 1026 36 10000 2.57 0 21:41 24.05.2022
3512 Clear 18 1026 36 10000 2.57 0 21:21 24.05.2022
3513 Clear 17 1027 39 10000 3.6 40 20:23 24.05.2022
3514 Clear 17 1028 39 10000 3.09 60 18:56 24.05.2022
3515 Clear 17 1028 39 10000 3.09 60 18:56 24.05.2022
3516 Clear 16 1029 44 10000 3.6 140 16:53 24.05.2022
3517 Clear 16 1029 42 10000 3.6 140 16:23 24.05.2022
3518 Clear 13 1029 61 10000 2.57 10 14:59 24.05.2022
3519 Clear 12 1029 65 10000 2.57 10 14:21 24.05.2022
3520 Clear 10 1029 75 10000 2.57 30 13:18 24.05.2022
3521 Clear 6 1028 83 10000 1.54 40 11:40 24.05.2022
3522 Clear 8 1027 77 10000 1.03 40 09:46 24.05.2022
3523 Clear 8 1027 75 10000 1.54 70 08:50 24.05.2022
3524 Clear 10 1027 73 10000 1.03 0 06:58 24.05.2022
3525 Clear 12 1027 63 10000 1.54 290 04:30 24.05.2022
3526 Clouds 14 1026 50 10000 2.57 320 02:42 24.05.2022
3527 Clouds 15 1026 48 10000 2.57 330 01:43 24.05.2022
3528 Clouds 16 1026 44 10000 3.6 250 23:43 23.05.2022
3529 Clouds 16 1026 44 10000 3.09 340 21:59 23.05.2022
3530 Clouds 16 1026 45 10000 3.09 340 21:41 23.05.2022
3531 Clouds 16 1026 46 10000 2.06 0 20:42 23.05.2022
3532 Clouds 16 1027 45 10000 4.12 90 19:41 23.05.2022
3533 Clear 15 1027 47 10000 3.6 60 19:00 23.05.2022
3534 Clear 14 1027 48 10000 3.6 60 18:37 23.05.2022
3535 Clear 14 1027 48 10000 6.17 20 17:55 23.05.2022
3536 Clear 11 1027 57 10000 4.63 10 15:47 23.05.2022
3537 Clear 9 1026 64 10000 4.63 10 13:44 23.05.2022
3538 Clear 9 1026 64 10000 4.63 10 13:44 23.05.2022
3539 Clear 7 1024 69 10000 4.12 30 11:40 23.05.2022
3540 Clear 8 1024 65 10000 5.66 30 10:44 23.05.2022
3541 Clouds 10 1023 64 10000 8.75 360 09:45 23.05.2022
3542 Clouds 11 1023 67 10000 5.14 340 08:44 23.05.2022
3543 Clouds 12 1022 70 10000 6.69 350 06:48 23.05.2022
3544 Clouds 12 1022 71 10000 6.69 350 06:24 23.05.2022
3545 Clouds 15 1018 80 10000 6.69 300 02:55 23.05.2022
3546 Clouds 15 1016 85 10000 7.72 260 01:50 23.05.2022
3547 Clouds 15 1016 86 10000 7.72 260 01:23 23.05.2022
3548 Clouds 18 1013 72 10000 7.2 300 22:48 22.05.2022
3549 Clouds 18 1013 71 10000 9.26 310 22:22 22.05.2022
3550 Clouds 21 1011 67 10000 10.8 310 21:51 22.05.2022
3551 Clouds 25 1011 66 10000 6.69 240 20:43 22.05.2022
3552 Clouds 26 1011 65 10000 6.69 240 20:20 22.05.2022
3553 Clouds 26 1011 63 10000 6.69 220 19:19 22.05.2022
3554 Clear 25 1012 63 10000 6.69 250 18:46 22.05.2022
3555 Clear 25 1012 63 10000 6.69 250 18:21 22.05.2022
3556 Clouds 23 1013 72 10000 7.72 240 16:51 22.05.2022
3557 Clouds 21 1014 79 10000 6.69 230 15:25 22.05.2022
3558 Clouds 20 1013 85 10000 4.12 230 14:47 22.05.2022
3559 Clouds 19 1013 90 10000 3.09 200 12:55 22.05.2022
3560 Clouds 19 1013 90 10000 3.09 200 12:33 22.05.2022
3561 Clouds 19 1013 88 10000 5.14 180 10:53 22.05.2022
3562 Clouds 19 1013 86 10000 2.57 260 09:31 22.05.2022
3563 Clouds 20 1014 82 10000 2.57 270 07:49 22.05.2022
3564 Clouds 20 1014 81 10000 2.57 270 07:20 22.05.2022
3565 Clear 21 1013 72 10000 2.57 250 04:30 22.05.2022
3566 Clear 24 1011 59 10000 9.77 260 01:19 22.05.2022
3567 Clouds 27 1011 61 10000 13.89 240 23:57 21.05.2022
3568 Clouds 28 1011 55 10000 13.89 240 23:32 21.05.2022
3569 Clouds 31 1009 48 10000 11.32 250 22:22 21.05.2022
3570 Clouds 31 1009 54 10000 7.2 230 21:39 21.05.2022
3571 Clouds 31 1009 53 10000 7.2 220 20:48 21.05.2022
3572 Clouds 31 1009 54 10000 7.2 220 20:19 21.05.2022
3573 Clear 31 1009 53 10000 6.69 220 19:24 21.05.2022
3574 Clear 28 1009 63 10000 8.75 220 17:35 21.05.2022
3575 Clear 24 1010 71 10000 7.72 180 15:37 21.05.2022
3576 Clouds 22 1010 76 10000 6.69 180 14:36 21.05.2022
3577 Clouds 20 1009 80 10000 7.72 170 13:39 21.05.2022
3578 Clouds 20 1009 82 10000 8.23 180 12:40 21.05.2022
3579 Clouds 19 1008 81 10000 8.75 180 11:54 21.05.2022
3580 Clouds 20 1007 78 10000 7.72 180 10:22 21.05.2022
3581 Clouds 20 1007 76 10000 8.75 180 09:20 21.05.2022
3582 Clear 20 1007 74 10000 7.72 180 08:47 21.05.2022
3583 Clouds 21 1008 65 10000 5.32 188 06:22 21.05.2022
3584 Clouds 25 1006 53 10000 8.23 180 02:26 21.05.2022
3585 Clear 26 1006 53 10000 8.23 180 23:47 20.05.2022
3586 Clear 26 1007 52 10000 7.72 160 22:42 20.05.2022
3587 Clear 26 1007 51 10000 7.72 160 22:23 20.05.2022
3588 Clear 25 1008 52 10000 9.26 160 21:32 20.05.2022
3589 Clear 24 1008 54 10000 9.26 160 20:53 20.05.2022
3590 Clear 22 1010 59 10000 8.75 120 19:56 20.05.2022
3591 Clouds 20 1011 62 10000 7.72 160 18:59 20.05.2022
3592 Clouds 19 1011 63 10000 7.72 160 18:28 20.05.2022
3593 Clouds 16 1012 76 10000 5.14 170 16:51 20.05.2022
3594 Clouds 14 1012 83 10000 5.14 150 15:57 20.05.2022
3595 Clouds 14 1012 84 10000 5.14 150 15:39 20.05.2022
3596 Clouds 13 1012 84 10000 3.6 120 14:29 20.05.2022
3597 Clear 12 1012 89 10000 3.09 180 13:44 20.05.2022
3598 Mist 10 1010 92 9656 2.06 270 10:56 20.05.2022
3599 Mist 10 1010 95 4828 3.09 230 09:50 20.05.2022
3600 Mist 11 1009 93 4023 0.51 280 08:41 20.05.2022
3601 Mist 11 1009 92 9656 2.06 220 06:46 20.05.2022
3602 Mist 11 1009 92 9656 2.06 220 06:21 20.05.2022
3603 Clouds 11 1008 91 10000 1.03 240 03:53 20.05.2022
3604 Clouds 12 1005 89 10000 2.57 80 23:54 19.05.2022
3605 Clouds 11 1005 89 10000 4.12 100 22:44 19.05.2022
3606 Mist 11 1005 88 9656 4.12 100 21:53 19.05.2022
3607 Rain 11 1005 88 10000 3.6 120 21:25 19.05.2022
3608 Rain 11 1005 88 10000 4.12 120 20:59 19.05.2022
3609 Clouds 11 1005 89 10000 4.12 140 20:21 19.05.2022
3610 Rain 11 1005 85 10000 6.17 130 19:34 19.05.2022
3611 Rain 13 1006 63 10000 5.14 140 17:59 19.05.2022
3612 Clouds 13 1006 63 10000 4.63 170 16:29 19.05.2022
3613 Clouds 11 1007 66 10000 3.6 120 14:52 19.05.2022
3614 Clouds 11 1007 67 10000 3.6 120 14:21 19.05.2022
3615 Clouds 8 1008 76 10000 2.57 100 12:35 19.05.2022
3616 Clouds 7 1008 78 10000 2.57 110 11:25 19.05.2022
3617 Clouds 9 1010 70 10000 3.09 180 08:59 19.05.2022
3618 Clouds 10 1011 65 10000 2.57 170 07:48 19.05.2022
3619 Clear 12 1010 60 10000 4.12 220 04:50 19.05.2022
3620 Clear 16 1011 42 10000 7.2 240 01:58 19.05.2022
3621 Clear 17 1012 40 10000 7.2 230 23:53 18.05.2022
3622 Clear 17 1012 40 10000 9.77 200 22:46 18.05.2022
3623 Clear 17 1012 40 10000 9.77 200 22:46 18.05.2022
3624 Clear 17 1013 36 10000 6.17 210 21:47 18.05.2022
3625 Clear 16 1013 37 10000 6.17 210 21:25 18.05.2022
3626 Clear 16 1014 40 10000 7.72 230 20:24 18.05.2022
3627 Clear 15 1014 40 10000 8.23 230 19:39 18.05.2022
3628 Clear 14 1015 38 10000 6.17 240 18:21 18.05.2022
3629 Clear 13 1015 39 10000 5.14 300 17:41 18.05.2022
3630 Clear 13 1015 39 10000 5.14 300 17:23 18.05.2022
3631 Clear 11 1015 40 10000 6.17 310 16:23 18.05.2022
3632 Clear 11 1015 40 10000 6.69 300 15:40 18.05.2022
3633 Clear 9 1014 42 10000 6.69 340 14:35 18.05.2022
3634 Clear 8 1014 49 10000 5.66 310 13:22 18.05.2022
3635 Clear 7 1013 56 10000 4.63 310 12:40 18.05.2022
3636 Clear 7 1012 58 10000 4.12 290 11:34 18.05.2022
3637 Clear 8 1011 57 10000 7.72 320 10:56 18.05.2022
3638 Clouds 10 1010 52 10000 5.66 300 08:53 18.05.2022
3639 Clouds 11 1010 53 10000 6.69 310 07:32 18.05.2022
3640 Clouds 11 1009 55 10000 9.26 310 05:34 18.05.2022
3641 Clouds 14 1004 59 10000 10.29 300 00:52 18.05.2022
3642 Clouds 14 1004 57 10000 10.29 300 00:21 18.05.2022
3643 Clouds 16 1002 66 10000 9.77 240 21:39 17.05.2022
3644 Clouds 15 1002 68 10000 9.77 240 21:19 17.05.2022
3645 Clouds 14 1001 78 10000 10.29 240 19:52 17.05.2022
3646 Clouds 14 1001 78 10000 10.29 240 19:27 17.05.2022
3647 Clouds 12 1000 88 10000 10.8 240 17:50 17.05.2022
3648 Rain 13 999 86 10000 12.86 240 16:58 17.05.2022
3649 Clouds 13 999 84 10000 11.83 240 16:29 17.05.2022
3650 Clouds 13 998 85 10000 9.26 240 15:24 17.05.2022
3651 Clouds 13 998 84 10000 11.83 240 14:30 17.05.2022
3652 Clouds 13 998 84 10000 11.83 240 14:30 17.05.2022
3653 Drizzle 12 998 87 10000 9.26 240 13:32 17.05.2022
3654 Clouds 11 997 87 10000 11.83 260 11:37 17.05.2022
3655 Clouds 12 996 85 10000 11.32 250 09:23 17.05.2022
3656 Clouds 13 995 86 10000 10.8 260 08:23 17.05.2022
3657 Clouds 14 995 88 10000 10.29 230 06:46 17.05.2022
3658 Clouds 18 995 92 10000 7.72 200 03:20 17.05.2022
3659 Rain 19 996 89 10000 2.57 250 00:36 17.05.2022
3660 Thunderstorm 23 997 78 10000 4.63 20 22:42 16.05.2022
3661 Clear 24 999 72 10000 5.14 20 21:37 16.05.2022
3662 Clouds 24 1000 71 10000 5.14 30 20:47 16.05.2022
3663 Clouds 24 1002 74 10000 4.12 20 19:43 16.05.2022
3664 Clouds 22 1003 80 10000 3.6 10 18:20 16.05.2022
3665 Clouds 19 1004 88 10000 2.57 180 15:50 16.05.2022
3666 Mist 17 1005 95 9656 2.57 180 13:56 16.05.2022
3667 Fog 16 1005 96 805 2.57 120 13:23 16.05.2022
3668 Fog 16 1005 95 402 3.09 110 11:25 16.05.2022
3669 Fog 17 1005 95 402 1.54 40 09:37 16.05.2022
3670 Mist 18 1007 94 4828 1.54 350 06:56 16.05.2022
3671 Clouds 19 1007 91 10000 4.12 50 03:58 16.05.2022
3672 Clouds 22 1007 76 10000 2.57 20 23:38 15.05.2022
3673 Clouds 23 1007 68 10000 2.57 330 22:30 15.05.2022
3674 Clouds 22 1007 77 10000 2.57 20 21:46 15.05.2022
3675 Clouds 21 1008 79 10000 3.6 0 20:54 15.05.2022
3676 Clouds 21 1009 79 10000 3.6 350 19:52 15.05.2022
3677 Clouds 19 1010 80 10000 1.54 50 17:52 15.05.2022
3678 Clouds 18 1010 81 10000 3.09 20 16:29 15.05.2022
3679 Clear 18 1010 76 10000 2.06 340 13:58 15.05.2022
3680 Clouds 18 1010 78 10000 1.54 350 12:57 15.05.2022
3681 Clouds 18 1010 78 10000 4.12 50 11:40 15.05.2022
3682 Clouds 19 1010 77 10000 2.57 30 10:29 15.05.2022
3683 Clouds 20 1011 79 10000 3.09 270 08:46 15.05.2022
3684 Clouds 21 1012 73 10000 1.54 190 06:58 15.05.2022
3685 Clouds 22 1012 71 10000 6.17 170 05:52 15.05.2022
3686 Clear 31 1011 30 10000 3.6 260 00:49 15.05.2022
3687 Clear 32 1011 30 10000 4.12 180 23:47 14.05.2022
3688 Clear 32 1011 33 10000 4.12 180 23:29 14.05.2022
3689 Clear 31 1013 39 10000 4.63 230 21:29 14.05.2022
3690 Clear 30 1014 43 10000 5.66 200 20:53 14.05.2022
3691 Haze 30 1014 48 8047 5.14 250 19:40 14.05.2022
3692 Clear 30 1014 51 10000 4.63 240 19:20 14.05.2022
3693 Clear 29 1015 54 10000 6.17 190 18:46 14.05.2022
3694 Clear 26 1016 60 10000 6.17 240 16:56 14.05.2022
3695 Clear 24 1017 63 10000 6.17 240 15:33 14.05.2022
3696 Clear 23 1017 65 10000 6.17 230 14:34 14.05.2022
3697 Clear 23 1017 65 10000 6.17 230 14:34 14.05.2022
3698 Clear 19 1017 74 10000 2.57 200 12:49 14.05.2022
3699 Clear 18 1017 75 10000 2.57 200 11:37 14.05.2022
3700 Clear 19 1017 70 10000 3.09 190 10:22 14.05.2022
3701 Clear 20 1017 70 10000 4.12 220 09:54 14.05.2022
3702 Clear 19 1017 69 10000 4.12 230 08:49 14.05.2022
3703 Clear 22 1018 62 10000 4.63 220 06:52 14.05.2022
3704 Clear 24 1017 50 10000 3.6 240 03:27 14.05.2022
3705 Clear 30 1017 34 10000 6.69 250 23:45 13.05.2022
3706 Haze 30 1017 35 8047 6.69 250 23:22 13.05.2022
3707 Clouds 30 1018 34 10000 8.75 240 22:51 13.05.2022
3708 Clear 31 1018 37 10000 8.75 240 22:19 13.05.2022
3709 Clear 30 1020 42 10000 7.72 220 20:56 13.05.2022
3710 Clear 30 1020 42 10000 7.72 220 20:28 13.05.2022
3711 Clear 29 1021 45 10000 7.72 240 19:40 13.05.2022
3712 Clear 29 1021 46 10000 7.2 240 18:41 13.05.2022
3713 Clear 28 1022 46 10000 8.23 250 17:29 13.05.2022
3714 Clear 26 1023 49 10000 6.69 210 16:23 13.05.2022
3715 Clear 25 1023 48 10000 5.14 180 15:43 13.05.2022
3716 Clear 20 1023 45 10000 3.6 200 13:57 13.05.2022
3717 Clear 17 1022 55 10000 3.6 160 12:33 13.05.2022
3718 Clear 16 1022 58 10000 2.06 180 11:29 13.05.2022
3719 Clear 18 1021 51 10000 2.06 210 09:43 13.05.2022
3720 Clear 18 1021 51 10000 2.06 210 09:43 13.05.2022
3721 Clear 18 1021 50 10000 3.09 190 08:51 13.05.2022
3722 Clear 20 1022 44 10000 3.6 190 07:49 13.05.2022
3723 Clear 19 1021 45 10000 3.6 130 06:44 13.05.2022
3724 Clear 21 1021 44 10000 1.03 0 04:48 13.05.2022
3725 Clear 30 1022 18 10000 3.09 180 00:42 13.05.2022
3726 Clear 31 1024 23 10000 4.12 200 22:47 12.05.2022
3727 Clear 31 1024 22 10000 3.09 180 21:59 12.05.2022
3728 Clear 30 1024 25 10000 2.57 160 20:38 12.05.2022
3729 Clear 28 1025 29 10000 2.06 120 19:24 12.05.2022
3730 Clear 26 1026 35 10000 3.09 0 17:59 12.05.2022
3731 Clear 23 1026 39 10000 1.54 130 16:34 12.05.2022
3732 Clear 19 1026 47 10000 3.6 50 14:51 12.05.2022
3733 Clear 17 1026 52 10000 3.09 50 13:47 12.05.2022
3734 Clear 14 1025 59 10000 2.06 360 11:25 12.05.2022
3735 Clear 16 1024 53 10000 0 0 09:37 12.05.2022
3736 Clear 16 1023 53 10000 2.06 150 08:52 12.05.2022
3737 Clear 17 1024 48 10000 1.54 150 07:57 12.05.2022
3738 Clouds 19 1024 43 10000 1.03 230 06:55 12.05.2022
3739 Clear 22 1024 29 10000 1.54 220 03:46 12.05.2022
3740 Clear 28 1023 16 10000 2.57 170 00:50 12.05.2022
3741 Clear 28 1024 20 10000 3.6 190 22:53 11.05.2022
3742 Clear 28 1025 23 10000 4.12 220 21:59 11.05.2022
3743 Clear 28 1025 23 10000 4.12 220 21:24 11.05.2022
3744 Clear 26 1026 28 10000 3.09 250 19:57 11.05.2022
3745 Clear 23 1028 30 10000 2.57 240 17:27 11.05.2022
3746 Clear 21 1027 37 10000 0.89 236 16:19 11.05.2022
3747 Clear 17 1028 44 10000 4.12 190 14:47 11.05.2022
3748 Clear 16 1028 46 10000 4.12 190 14:24 11.05.2022
3749 Clear 12 1027 56 10000 2.06 190 12:39 11.05.2022
3750 Clear 12 1027 58 10000 2.57 130 11:47 11.05.2022
3751 Clear 12 1026 56 10000 2.57 140 09:29 11.05.2022
3752 Clear 15 1026 46 10000 1.54 30 06:27 11.05.2022
3753 Clear 24 1026 20 10000 1.03 0 01:53 11.05.2022
3754 Clear 25 1027 22 10000 1.54 100 22:58 10.05.2022
3755 Clear 25 1027 23 10000 1.54 100 22:24 10.05.2022
3756 Clear 25 1028 22 10000 3.09 110 21:26 10.05.2022
3757 Clear 24 1029 24 10000 3.09 100 20:26 10.05.2022
3758 Clear 22 1030 24 10000 4.63 110 18:38 10.05.2022
3759 Clear 21 1031 25 10000 6.17 100 17:38 10.05.2022
3760 Clear 19 1032 21 10000 3.09 0 16:24 10.05.2022
3761 Clear 12 1031 47 10000 0 0 13:19 10.05.2022
3762 Clear 10 1030 50 10000 2.57 130 11:53 10.05.2022
3763 Clear 11 1030 50 10000 2.57 130 11:30 10.05.2022
3764 Clear 11 1029 47 10000 3.09 130 10:56 10.05.2022
3765 Clear 12 1028 44 10000 5.14 130 09:36 10.05.2022
3766 Clear 12 1027 46 10000 3.09 30 07:58 10.05.2022
3767 Clear 14 1027 39 10000 4.12 40 05:54 10.05.2022
3768 Clear 22 1027 20 10000 3.6 60 01:53 10.05.2022
3769 Clear 23 1026 19 10000 3.6 110 23:45 09.05.2022
3770 Clouds 23 1027 20 10000 1.54 40 22:35 09.05.2022
3771 Clear 23 1027 22 10000 5.14 60 21:38 09.05.2022
3772 Clear 21 1028 25 10000 4.63 20 19:56 09.05.2022
3773 Clear 20 1028 28 10000 4.12 60 18:25 09.05.2022
3774 Clear 18 1028 33 10000 4.63 30 17:25 09.05.2022
3775 Clear 15 1028 39 10000 3.09 360 16:19 09.05.2022
3776 Clear 14 1029 43 10000 4.63 20 15:47 09.05.2022
3777 Clear 11 1028 46 10000 4.63 20 14:36 09.05.2022
3778 Clear 9 1028 49 10000 4.63 20 13:57 09.05.2022
3779 Clear 8 1027 48 10000 4.63 20 13:21 09.05.2022
3780 Clear 6 1026 53 10000 5.14 20 11:53 09.05.2022
3781 Clear 7 1026 48 10000 5.66 20 10:48 09.05.2022
3782 Clear 7 1025 47 10000 5.66 20 10:23 09.05.2022
3783 Clear 9 1024 37 10000 4.12 350 07:57 09.05.2022
3784 Clear 11 1023 37 10000 3.6 30 04:52 09.05.2022
3785 Clear 19 1022 21 10000 5.66 10 00:30 09.05.2022
3786 Clear 18 1023 23 10000 5.66 30 23:28 08.05.2022
3787 Clear 18 1023 25 10000 4.63 50 22:29 08.05.2022
3788 Clear 18 1024 26 10000 3.6 50 20:54 08.05.2022
3789 Clear 17 1024 26 10000 3.6 50 20:23 08.05.2022
3790 Clear 16 1024 28 10000 2.57 20 19:33 08.05.2022
3791 Clear 16 1025 30 10000 4.63 80 18:35 08.05.2022
3792 Clear 14 1026 36 10000 5.14 30 17:36 08.05.2022
3793 Clear 11 1026 44 10000 5.14 20 15:46 08.05.2022
3794 Clear 10 1026 44 10000 5.14 20 15:22 08.05.2022
3795 Clear 4 1024 58 10000 4.63 360 12:46 08.05.2022
3796 Clear 5 1022 55 10000 5.66 20 10:59 08.05.2022
3797 Clear 5 1022 53 10000 5.66 20 10:22 08.05.2022
3798 Clear 5 1022 52 10000 5.14 30 09:51 08.05.2022
3799 Clear 7 1021 38 10000 5.66 40 07:44 08.05.2022
3800 Clear 9 1020 28 10000 4.12 40 05:57 08.05.2022
3801 Clouds 11 1020 29 10000 5.14 30 03:22 08.05.2022
3802 Clear 14 1019 28 10000 7.2 30 00:48 08.05.2022
3803 Clear 15 1019 29 10000 8.23 30 23:56 07.05.2022
3804 Clear 15 1019 30 10000 8.23 30 23:28 07.05.2022
3805 Clear 15 1018 31 10000 9.26 20 22:35 07.05.2022
3806 Clear 14 1019 32 10000 7.2 50 21:55 07.05.2022
3807 Clear 14 1019 32 10000 7.2 50 21:20 07.05.2022
3808 Clear 13 1019 33 10000 7.72 30 20:23 07.05.2022
3809 Clear 12 1020 35 10000 7.2 90 18:41 07.05.2022
3810 Clear 9 1020 41 10000 7.2 50 16:24 07.05.2022
3811 Clear 7 1020 49 10000 6.69 60 14:51 07.05.2022
3812 Clouds 4 1018 58 10000 6.17 30 11:23 07.05.2022
3813 Clear 5 1018 52 10000 5.66 30 09:42 07.05.2022
3814 Clear 6 1018 48 10000 8.75 20 08:30 07.05.2022
3815 Clouds 7 1018 46 10000 9.26 30 06:44 07.05.2022
3816 Clouds 8 1018 45 10000 9.26 30 06:24 07.05.2022
3817 Clear 10 1016 40 10000 6.17 50 03:54 07.05.2022
3818 Clear 15 1015 30 10000 4.12 160 23:44 06.05.2022
3819 Clear 15 1015 30 10000 4.63 10 22:35 06.05.2022
3820 Clear 14 1016 30 10000 3.6 30 21:52 06.05.2022
3821 Clear 14 1016 30 10000 3.6 30 21:24 06.05.2022
3822 Clear 13 1017 31 10000 5.66 350 19:43 06.05.2022
3823 Clear 12 1017 31 10000 5.66 350 19:21 06.05.2022
3824 Clear 11 1018 35 10000 4.63 340 18:29 06.05.2022
3825 Clear 11 1018 38 10000 4.63 10 17:34 06.05.2022
3826 Clouds 9 1019 42 10000 5.14 20 15:51 06.05.2022
3827 Clouds 9 1019 44 10000 5.14 20 15:18 06.05.2022
3828 Clouds 8 1018 43 10000 5.14 20 13:45 06.05.2022
3829 Clouds 8 1018 43 10000 4.63 20 12:47 06.05.2022
3830 Clouds 8 1017 45 10000 2.06 20 11:58 06.05.2022
3831 Clouds 9 1017 44 10000 2.57 10 10:41 06.05.2022
3832 Clouds 9 1017 45 10000 3.09 30 09:47 06.05.2022
3833 Clouds 8 1017 45 10000 3.6 40 08:59 06.05.2022
3834 Clear 9 1017 47 10000 2.06 10 07:40 06.05.2022
3835 Clear 10 1017 44 10000 2.06 340 06:25 06.05.2022
3836 Clear 15 1017 27 10000 4.12 320 02:54 06.05.2022
3837 Clear 16 1017 24 10000 5.66 310 01:57 06.05.2022
3838 Smoke 17 1017 32 10000 6.17 230 22:48 05.05.2022
3839 Smoke 16 1018 35 10000 7.2 250 21:46 05.05.2022
3840 Clear 15 1020 41 10000 8.75 250 20:34 05.05.2022
3841 Clear 12 1022 45 10000 6.17 190 18:43 05.05.2022
3842 Clear 9 1022 47 10000 2.06 0 16:40 05.05.2022
3843 Clear 7 1023 53 10000 3.6 360 14:59 05.05.2022
3844 Clear 5 1022 57 10000 5.14 360 13:29 05.05.2022
3845 Clear 5 1022 62 10000 4.12 20 12:55 05.05.2022
3846 Clear 6 1021 65 10000 5.14 360 10:59 05.05.2022
3847 Clear 7 1020 63 10000 4.12 360 09:40 05.05.2022
3848 Clear 8 1020 62 10000 3.6 360 08:30 05.05.2022
3849 Clouds 11 1019 58 10000 5.66 360 06:23 05.05.2022
3850 Clouds 14 1016 78 10000 2.57 220 02:20 05.05.2022
3851 Clear 16 1015 67 10000 1.54 210 01:37 05.05.2022
3852 Clouds 16 1015 69 10000 2.57 40 23:57 04.05.2022
3853 Clouds 15 1015 74 10000 2.57 100 22:54 04.05.2022
3854 Clouds 14 1015 79 10000 4.63 30 21:59 04.05.2022
3855 Clouds 14 1015 78 10000 4.63 30 21:30 04.05.2022
3856 Clouds 14 1015 79 10000 5.14 20 20:42 04.05.2022
3857 Clouds 14 1015 85 10000 5.66 30 19:59 04.05.2022
3858 Clouds 13 1015 89 10000 6.69 40 19:35 04.05.2022
3859 Clouds 12 1015 92 10000 6.69 30 18:23 04.05.2022
3860 Clouds 12 1015 93 10000 6.17 30 17:59 04.05.2022
3861 Mist 11 1014 92 4828 4.63 20 16:36 04.05.2022
3862 Mist 11 1014 92 6437 2.06 70 15:32 04.05.2022
3863 Mist 11 1014 93 4828 4.12 140 14:38 04.05.2022
3864 Mist 11 1014 93 8047 2.57 130 14:19 04.05.2022
3865 Mist 11 1014 92 6437 2.57 100 12:36 04.05.2022
3866 Rain 11 1014 92 10000 3.09 160 11:28 04.05.2022
3867 Rain 11 1014 91 10000 6.17 170 09:57 04.05.2022
3868 Clouds 11 1014 91 10000 6.17 170 09:20 04.05.2022
3869 Clouds 12 1016 92 10000 6.17 180 07:33 04.05.2022
3870 Clouds 16 1015 65 10000 4.12 140 04:45 04.05.2022
3871 Clouds 17 1016 59 10000 3.09 180 02:33 04.05.2022
3872 Clouds 18 1017 55 10000 5.66 150 22:59 03.05.2022
3873 Clouds 18 1018 55 10000 5.66 180 21:53 03.05.2022
3874 Clouds 18 1018 55 10000 5.66 180 21:31 03.05.2022
3875 Clouds 17 1019 58 10000 4.63 170 20:46 03.05.2022
3876 Clouds 17 1019 59 10000 3.09 150 19:33 03.05.2022
3877 Clouds 17 1020 57 10000 3.6 230 18:47 03.05.2022
3878 Clouds 15 1021 65 10000 5.14 210 17:22 03.05.2022
3879 Clouds 14 1020 74 10000 3.6 230 15:57 03.05.2022
3880 Clouds 11 1020 83 10000 3.6 190 14:24 03.05.2022
3881 Clouds 10 1019 87 10000 4.12 170 12:35 03.05.2022
3882 Clouds 11 1019 86 10000 3.6 170 11:39 03.05.2022
3883 Clouds 11 1019 86 10000 3.6 170 10:44 03.05.2022
3884 Mist 11 1019 85 3219 4.63 170 08:19 03.05.2022
3885 Clouds 11 1018 79 10000 4.63 180 06:45 03.05.2022
3886 Clouds 12 1018 68 10000 5.14 140 02:39 03.05.2022
3887 Clouds 14 1017 66 10000 7.72 150 23:32 02.05.2022
3888 Clouds 15 1016 56 10000 8.23 160 22:29 02.05.2022
3889 Clouds 15 1016 55 10000 6.17 150 21:47 02.05.2022
3890 Clouds 17 1016 45 10000 8.23 160 19:30 02.05.2022
3891 Clouds 18 1016 45 10000 9.26 140 18:26 02.05.2022
3892 Clouds 17 1017 46 10000 4.63 110 17:41 02.05.2022
3893 Clouds 17 1017 46 10000 4.63 110 17:41 02.05.2022
3894 Clear 15 1017 52 10000 5.14 40 16:43 02.05.2022
3895 Clear 13 1017 59 10000 5.14 40 15:44 02.05.2022
3896 Clear 11 1017 63 10000 5.66 40 14:51 02.05.2022
3897 Clear 9 1017 69 10000 5.14 20 13:42 02.05.2022
3898 Clear 7 1017 75 10000 6.17 20 11:41 02.05.2022
3899 Clear 8 1017 70 10000 6.69 30 09:59 02.05.2022
3900 Clear 9 1017 65 10000 7.2 30 08:31 02.05.2022
3901 Clear 10 1018 59 10000 7.2 50 06:56 02.05.2022
3902 Clear 19 1017 28 10000 1.03 360 00:47 02.05.2022
3903 Clear 19 1017 28 10000 1.03 360 00:22 02.05.2022
3904 Clouds 19 1018 25 10000 2.57 0 23:40 01.05.2022
3905 Clear 19 1018 34 10000 3.6 0 21:45 01.05.2022
3906 Clear 18 1019 35 10000 5.66 0 20:50 01.05.2022
3907 Clear 17 1019 33 10000 4.12 0 19:27 01.05.2022
3908 Clear 16 1020 34 10000 2.57 90 18:53 01.05.2022
3909 Clear 15 1021 37 10000 2.06 0 17:51 01.05.2022
3910 Clear 13 1021 41 10000 1.03 40 16:42 01.05.2022
3911 Clear 13 1021 39 10000 1.03 40 16:18 01.05.2022
3912 Clear 11 1022 46 10000 3.09 40 14:54 01.05.2022
3913 Clear 6 1021 60 10000 2.06 350 12:52 01.05.2022
3914 Clear 5 1020 62 10000 1.54 20 10:45 01.05.2022
3915 Clear 6 1020 56 10000 2.06 360 08:50 01.05.2022
3916 Clear 8 1020 53 10000 2.06 20 06:51 01.05.2022
3917 Clear 13 1019 37 10000 2.06 30 02:46 01.05.2022
3918 Clear 15 1020 34 10000 5.66 320 22:51 30.04.2022
3919 Clear 14 1020 34 10000 4.63 0 21:34 30.04.2022
3920 Clear 14 1021 36 10000 3.6 350 20:24 30.04.2022
3921 Clear 12 1021 38 10000 4.63 10 19:31 30.04.2022
3922 Clear 11 1022 36 10000 6.17 20 17:37 30.04.2022
3923 Clear 9 1022 39 10000 4.63 360 16:30 30.04.2022
3924 Clear 8 1022 42 10000 4.63 360 15:19 30.04.2022
3925 Clear 7 1022 43 10000 6.17 30 14:31 30.04.2022
3926 Clear 4 1021 51 10000 3.6 10 12:28 30.04.2022
3927 Clear 4 1021 48 10000 4.63 350 11:32 30.04.2022
3928 Clouds 5 1021 47 10000 6.17 340 10:30 30.04.2022
3929 Clouds 5 1020 45 10000 4.63 330 08:34 30.04.2022
3930 Clouds 8 1021 40 10000 3.09 360 05:19 30.04.2022
3931 Clouds 12 1019 23 10000 7.2 20 00:35 30.04.2022
3932 Clouds 13 1019 22 10000 9.26 10 23:29 29.04.2022
3933 Clouds 13 1018 18 10000 8.23 10 22:29 29.04.2022
3934 Clear 13 1018 18 10000 8.23 350 21:26 29.04.2022
3935 Clouds 13 1019 18 10000 9.26 320 20:38 29.04.2022
3936 Clear 12 1019 20 10000 7.72 350 19:36 29.04.2022
3937 Clear 9 1020 26 10000 7.72 330 17:48 29.04.2022
3938 Clear 8 1020 29 10000 8.23 350 16:56 29.04.2022
3939 Clear 4 1021 37 10000 8.75 330 14:50 29.04.2022
3940 Clear 3 1021 37 10000 8.75 330 14:19 29.04.2022
3941 Clear 1 1020 44 10000 5.14 310 12:43 29.04.2022
3942 Clear 1 1019 42 10000 6.17 330 10:58 29.04.2022
3943 Clear 3 1019 39 10000 6.17 340 08:18 29.04.2022
3944 Clear 3 1019 36 10000 7.72 340 07:27 29.04.2022
3945 Clear 4 1019 34 10000 6.69 340 06:37 29.04.2022
3946 Clear 6 1019 31 10000 6.69 340 03:34 29.04.2022
3947 Clear 10 1017 25 10000 9.26 340 00:18 29.04.2022
3948 Clear 10 1016 25 10000 7.72 340 23:26 28.04.2022
3949 Clear 10 1016 26 10000 10.8 330 22:41 28.04.2022
3950 Clear 10 1016 26 10000 8.75 330 21:46 28.04.2022
3951 Clear 10 1016 28 10000 7.72 330 20:55 28.04.2022
3952 Clear 9 1016 28 10000 7.72 330 20:22 28.04.2022
3953 Clear 9 1017 30 10000 8.75 310 19:41 28.04.2022
3954 Clear 9 1017 30 10000 7.2 360 19:21 28.04.2022
3955 Clear 7 1018 32 10000 7.72 330 18:35 28.04.2022
3956 Clear 5 1018 38 10000 6.69 320 16:59 28.04.2022
3957 Clear 4 1018 39 10000 6.69 320 16:22 28.04.2022
3958 Clouds 4 1018 41 10000 8.23 330 15:57 28.04.2022
3959 Clouds 3 1018 40 10000 8.23 330 15:27 28.04.2022
3960 Clouds 2 1017 49 10000 9.26 330 13:44 28.04.2022
3961 Clouds 2 1016 50 10000 8.75 330 12:42 28.04.2022
3962 Clouds 2 1015 56 10000 6.69 330 11:53 28.04.2022
3963 Clouds 2 1015 63 10000 6.17 320 10:44 28.04.2022
3964 Clouds 2 1015 66 10000 6.17 330 09:52 28.04.2022
3965 Clouds 2 1015 70 10000 5.14 300 08:30 28.04.2022
3966 Clouds 3 1015 67 10000 6.69 320 06:58 28.04.2022
3967 Clouds 3 1015 64 10000 5.66 330 05:55 28.04.2022
3968 Clouds 3 1015 64 10000 5.66 330 05:37 28.04.2022
3969 Clouds 3 1015 63 10000 7.2 340 04:38 28.04.2022
3970 Clouds 4 1012 85 10000 8.23 270 00:22 28.04.2022
3971 Rain 3 1012 91 10000 8.23 280 22:38 27.04.2022
3972 Rain 4 1011 91 10000 8.23 280 21:54 27.04.2022
3973 Rain 4 1011 89 10000 8.23 280 20:59 27.04.2022
3974 Rain 4 1010 89 10000 8.23 280 20:37 27.04.2022
3975 Rain 5 1010 90 10000 6.17 290 19:37 27.04.2022
3976 Rain 5 1009 91 10000 7.72 340 18:56 27.04.2022
3977 Rain 5 1009 91 10000 7.72 340 18:22 27.04.2022
3978 Rain 6 1010 92 10000 8.23 230 16:29 27.04.2022
3979 Rain 7 1010 90 10000 8.23 240 14:33 27.04.2022
3980 Clouds 8 1010 81 10000 5.66 240 12:23 27.04.2022
3981 Clouds 8 1010 81 10000 5.66 240 11:20 27.04.2022
3982 Clouds 9 1011 73 10000 5.66 250 09:20 27.04.2022
3983 Clouds 10 1012 73 10000 3.09 260 07:18 27.04.2022
3984 Clouds 11 1013 70 10000 5.14 250 04:30 27.04.2022
3985 Clouds 13 1013 65 10000 5.14 230 01:32 27.04.2022
3986 Clouds 14 1014 64 10000 6.17 230 00:37 27.04.2022
3987 Clouds 14 1014 64 10000 6.69 230 23:39 26.04.2022
3988 Clouds 14 1014 65 10000 6.69 230 23:18 26.04.2022
3989 Clouds 14 1014 68 10000 6.69 230 22:39 26.04.2022
3990 Clouds 15 1015 68 10000 6.69 220 21:35 26.04.2022
3991 Clouds 15 1015 66 10000 7.2 220 20:52 26.04.2022
3992 Clouds 15 1015 65 10000 7.2 220 20:30 26.04.2022
3993 Clouds 15 1015 65 10000 6.69 240 19:32 26.04.2022
3994 Clouds 15 1016 67 10000 6.17 220 18:45 26.04.2022
3995 Clouds 14 1016 70 10000 6.69 240 17:59 26.04.2022
3996 Clouds 13 1016 74 10000 7.72 240 16:58 26.04.2022
3997 Clouds 12 1016 84 10000 8.23 240 14:27 26.04.2022
3998 Clouds 11 1015 88 10000 6.69 240 13:33 26.04.2022
3999 Clouds 11 1014 89 10000 9.77 260 11:55 26.04.2022
4000 Clouds 11 1013 86 10000 6.17 180 10:37 26.04.2022
4001 Rain 12 1013 77 10000 5.14 190 09:25 26.04.2022
4002 Clouds 15 1012 50 10000 9.26 190 07:38 26.04.2022
4003 Clouds 17 1012 44 10000 10.8 150 04:33 26.04.2022
4004 Clouds 18 1014 49 10000 8.23 170 01:25 26.04.2022
4005 Rain 18 1014 47 10000 7.2 170 00:26 26.04.2022
4006 Clouds 19 1015 40 10000 13.89 170 22:36 25.04.2022
4007 Clouds 19 1016 40 10000 8.75 170 21:40 25.04.2022
4008 Clouds 18 1017 40 10000 8.23 170 20:40 25.04.2022
4009 Clouds 16 1018 41 10000 8.75 170 18:58 25.04.2022
4010 Clouds 16 1018 37 10000 10.29 170 17:54 25.04.2022
4011 Clouds 16 1018 38 10000 10.8 170 16:59 25.04.2022
4012 Clouds 14 1019 44 10000 10.29 150 15:29 25.04.2022
4013 Clouds 12 1019 52 10000 8.23 150 14:42 25.04.2022
4014 Clear 10 1018 59 10000 4.12 120 13:33 25.04.2022
4015 Clear 6 1018 64 10000 5.14 30 11:43 25.04.2022
4016 Clear 6 1018 65 10000 6.17 30 10:26 25.04.2022
4017 Clear 6 1020 65 10000 5.66 40 08:46 25.04.2022
4018 Clear 7 1020 61 10000 6.69 40 06:45 25.04.2022
4019 Clear 8 1021 56 10000 7.2 50 04:27 25.04.2022
4020 Clouds 12 1022 38 10000 5.14 60 00:57 25.04.2022
4021 Clouds 13 1022 32 10000 6.69 60 23:51 24.04.2022
4022 Clouds 13 1023 32 10000 6.17 60 22:45 24.04.2022
4023 Clouds 12 1023 32 10000 6.17 60 22:26 24.04.2022
4024 Clouds 12 1024 34 10000 5.66 70 21:26 24.04.2022
4025 Clouds 11 1025 33 10000 5.66 60 20:54 24.04.2022
4026 Clouds 11 1025 33 10000 5.66 60 20:35 24.04.2022
4027 Clouds 11 1025 34 10000 5.66 60 19:46 24.04.2022
4028 Clear 10 1026 35 10000 7.72 70 18:20 24.04.2022
4029 Clouds 8 1026 42 10000 6.17 50 17:28 24.04.2022
4030 Clouds 7 1027 46 10000 6.69 50 16:59 24.04.2022
4031 Clouds 6 1027 47 10000 6.69 50 16:32 24.04.2022
4032 Clouds 5 1027 48 10000 6.69 50 15:54 24.04.2022
4033 Clouds 4 1027 50 10000 6.69 50 15:29 24.04.2022
4034 Clouds 4 1027 50 10000 5.66 40 13:57 24.04.2022
4035 Clouds 3 1027 50 10000 5.66 40 13:25 24.04.2022
4036 Clouds 3 1027 52 10000 6.17 40 12:30 24.04.2022
4037 Clouds 3 1027 49 10000 7.2 60 11:28 24.04.2022
4038 Clouds 4 1027 45 10000 6.69 50 10:25 24.04.2022
4039 Clouds 5 1027 40 10000 6.17 40 09:23 24.04.2022
4040 Clouds 5 1027 53 10000 1.54 100 06:34 24.04.2022
4041 Clear 7 1027 44 10000 2.06 100 03:43 24.04.2022
4042 Clouds 9 1027 35 10000 2.57 0 01:38 24.04.2022
4043 Clear 10 1027 32 10000 2.06 190 00:24 24.04.2022
4044 Clouds 10 1027 31 10000 3.09 270 23:44 23.04.2022
4045 Clouds 10 1027 32 10000 3.09 270 23:21 23.04.2022
4046 Clear 10 1028 31 10000 2.06 240 21:51 23.04.2022
4047 Clear 10 1028 31 10000 2.06 240 21:32 23.04.2022
4048 Clear 9 1029 33 10000 2.57 0 20:36 23.04.2022
4049 Clear 8 1030 35 10000 3.6 0 19:46 23.04.2022
4050 Clear 7 1030 37 10000 3.6 0 19:19 23.04.2022
4051 Clear 7 1030 34 10000 2.57 350 18:49 23.04.2022
4052 Clear 6 1031 36 10000 3.6 30 17:50 23.04.2022
4053 Clear 6 1032 39 10000 3.6 40 16:56 23.04.2022
4054 Clear 5 1032 40 10000 3.6 40 16:23 23.04.2022
4055 Clear 4 1032 44 10000 3.09 30 14:57 23.04.2022
4056 Clear 1 1032 61 10000 1.54 360 12:35 23.04.2022
4057 Clear 2 1031 56 10000 3.6 30 10:41 23.04.2022
4058 Clear 2 1031 59 10000 4.12 20 09:30 23.04.2022
4059 Clear 5 1031 56 10000 3.09 340 06:29 23.04.2022
4060 Clear 7 1030 48 10000 3.6 320 03:54 23.04.2022
4061 Clear 11 1029 37 10000 7.2 310 00:53 23.04.2022
4062 Clouds 12 1029 38 10000 8.23 320 23:29 22.04.2022
4063 Clouds 12 1028 40 10000 6.17 330 22:20 22.04.2022
4064 Clouds 12 1028 42 10000 7.72 330 21:42 22.04.2022
4065 Clouds 12 1028 44 10000 9.77 320 20:46 22.04.2022
4066 Clouds 11 1028 45 10000 9.77 320 20:26 22.04.2022
4067 Clouds 11 1028 50 10000 9.77 290 19:18 22.04.2022
4068 Clouds 10 1029 54 10000 10.29 300 18:36 22.04.2022
4069 Clear 10 1028 56 10000 8.23 290 17:39 22.04.2022
4070 Clouds 10 1028 60 10000 7.72 290 16:46 22.04.2022
4071 Clouds 8 1027 68 10000 6.69 290 15:32 22.04.2022
4072 Clouds 7 1026 75 10000 6.69 280 14:44 22.04.2022
4073 Clouds 7 1025 79 10000 6.69 280 13:49 22.04.2022
4074 Clouds 7 1023 80 10000 5.14 290 12:57 22.04.2022
4075 Clouds 7 1022 81 10000 6.17 270 11:48 22.04.2022
4076 Clouds 7 1022 80 10000 6.17 270 11:21 22.04.2022
4077 Clouds 8 1021 79 10000 6.69 270 10:48 22.04.2022
4078 Clouds 8 1021 78 10000 6.69 270 10:29 22.04.2022
4079 Clouds 8 1020 79 10000 6.17 250 09:50 22.04.2022
4080 Clouds 8 1020 81 10000 6.69 240 08:50 22.04.2022
4081 Clouds 9 1019 81 10000 6.69 260 06:56 22.04.2022
4082 Clouds 10 1017 89 10000 6.17 210 02:45 22.04.2022
4083 Clouds 9 1017 83 10000 8.75 210 00:51 22.04.2022
4084 Rain 10 1018 77 10000 8.23 190 22:59 21.04.2022
4085 Rain 10 1018 73 10000 8.23 190 22:27 21.04.2022
4086 Clouds 11 1019 50 10000 12.35 170 20:36 21.04.2022
4087 Clouds 11 1019 50 10000 12.35 170 20:36 21.04.2022
4088 Clouds 11 1019 50 10000 12.35 170 20:18 21.04.2022
4089 Clear 10 1022 49 10000 11.32 150 18:35 21.04.2022
4090 Clouds 11 1023 49 10000 9.77 170 17:54 21.04.2022
4091 Clouds 9 1024 52 10000 9.77 160 16:35 21.04.2022
4092 Clouds 7 1027 61 10000 7.72 140 15:21 21.04.2022
4093 Clouds 5 1028 65 10000 6.17 130 14:47 21.04.2022
4094 Clouds 3 1029 71 10000 6.69 130 13:23 21.04.2022
4095 Clear 2 1029 75 10000 5.14 100 12:53 21.04.2022
4096 Clear 1 1030 74 10000 4.12 110 10:47 21.04.2022
4097 Clear 2 1031 69 10000 4.12 110 08:55 21.04.2022
4098 Clear 3 1031 67 10000 4.63 100 07:24 21.04.2022
4099 Clear 2 1031 69 10000 2.57 100 05:42 21.04.2022
4100 Clear 4 1030 58 10000 2.06 360 03:30 21.04.2022
4101 Clear 6 1030 52 10000 2.57 330 02:47 21.04.2022
4102 Clouds 8 1028 43 10000 6.69 280 00:45 21.04.2022
4103 Clouds 8 1027 44 10000 7.2 250 23:50 20.04.2022
4104 Clouds 8 1027 44 10000 7.2 250 23:22 20.04.2022
4105 Clouds 8 1026 45 10000 5.66 290 22:49 20.04.2022
4106 Clouds 8 1026 45 10000 5.66 290 22:30 20.04.2022
4107 Clouds 7 1026 48 10000 8.23 270 21:27 20.04.2022
4108 Clouds 7 1025 50 10000 9.26 260 20:24 20.04.2022
4109 Clouds 6 1024 53 10000 10.29 260 19:52 20.04.2022
4110 Clouds 6 1024 55 10000 10.29 260 19:20 20.04.2022
4111 Clouds 5 1023 58 10000 8.23 280 18:22 20.04.2022
4112 Clouds 3 1021 63 10000 11.32 270 16:54 20.04.2022
4113 Clouds 3 1021 64 10000 11.32 270 16:36 20.04.2022
4114 Clouds 2 1016 72 10000 11.83 270 13:59 20.04.2022
4115 Clouds 2 1012 79 10000 11.83 270 11:52 20.04.2022
4116 Clouds 2 1011 80 10000 11.83 270 11:24 20.04.2022
4117 Clouds 3 1009 80 10000 11.83 270 10:22 20.04.2022
4118 Clouds 3 1007 83 10000 9.77 260 09:25 20.04.2022
4119 Clouds 4 1006 84 10000 9.77 260 08:22 20.04.2022
4120 Clouds 4 1004 88 10000 9.26 250 07:37 20.04.2022
4121 Clouds 3 1002 93 10000 6.69 210 03:49 20.04.2022
4122 Clouds 4 999 85 10000 9.26 230 00:23 20.04.2022
4123 Clouds 4 999 86 10000 9.77 240 23:56 19.04.2022
4124 Clouds 3 998 90 10000 8.75 240 22:28 19.04.2022
4125 Rain 3 998 94 10000 7.72 250 21:57 19.04.2022
4126 Clouds 2 998 93 10000 7.2 250 21:33 19.04.2022
4127 Rain 2 997 93 10000 4.63 230 20:48 19.04.2022
4128 Rain 2 997 92 10000 2.57 360 20:26 19.04.2022
4129 Mist 2 997 93 9656 6.69 20 19:24 19.04.2022
4130 Rain 1 999 94 4828 9.26 20 17:51 19.04.2022
4131 Snow 1 1002 94 2012 10.8 30 16:43 19.04.2022
4132 Snow 1 1002 94 2012 10.29 30 16:24 19.04.2022
4133 Snow 1 1007 95 2012 10.29 40 14:51 19.04.2022
4134 Snow 1 1007 94 2414 9.26 50 14:30 19.04.2022
4135 Snow 0 1010 95 604 9.26 60 12:51 19.04.2022
4136 Snow 0 1012 94 1207 6.17 70 12:26 19.04.2022
4137 Rain 2 1014 91 10000 6.17 100 10:50 19.04.2022
4138 Rain 4 1016 88 9656 7.2 120 09:25 19.04.2022
4139 Clouds 6 1019 81 9656 7.2 150 06:30 19.04.2022
4140 Clouds 8 1018 60 10000 5.14 40 04:19 19.04.2022
4141 Clear 10 1021 50 10000 6.17 50 00:56 19.04.2022
4142 Clear 10 1022 47 10000 7.72 40 23:38 18.04.2022
4143 Clear 10 1025 43 10000 3.6 90 21:39 18.04.2022
4144 Clear 10 1025 42 10000 3.6 90 21:20 18.04.2022
4145 Clear 10 1026 45 10000 3.6 110 20:36 18.04.2022
4146 Clear 8 1026 48 10000 1.54 0 19:57 18.04.2022
4147 Clear 8 1026 49 10000 1.54 0 19:27 18.04.2022
4148 Clear 8 1026 49 10000 2.57 100 18:33 18.04.2022
4149 Clear 6 1027 52 10000 3.6 70 17:38 18.04.2022
4150 Clear 6 1027 53 10000 3.6 70 17:18 18.04.2022
4151 Clear 5 1029 55 10000 4.12 60 16:35 18.04.2022
4152 Clear 5 1029 55 10000 4.12 60 16:35 18.04.2022
4153 Clear 4 1030 57 10000 3.6 60 15:27 18.04.2022
4154 Clear 1 1029 66 10000 3.09 40 13:42 18.04.2022
4155 Clear 1 1029 66 10000 3.09 40 13:42 18.04.2022
4156 Clear -1 1028 73 10000 1.54 350 12:40 18.04.2022
4157 Clear -1 1028 72 10000 2.06 330 11:43 18.04.2022
4158 Clear -1 1027 70 10000 1.54 40 10:43 18.04.2022
4159 Clear 1 1027 65 10000 4.63 10 09:31 18.04.2022
4160 Clear 1 1026 63 10000 3.09 340 08:29 18.04.2022
4161 Clear 3 1025 59 10000 3.6 330 05:58 18.04.2022
4162 Clouds 7 1021 54 10000 6.69 320 01:38 18.04.2022
4163 Clouds 7 1019 52 10000 8.23 320 22:53 17.04.2022
4164 Clouds 7 1019 52 10000 8.75 310 22:31 17.04.2022
4165 Clouds 6 1018 53 10000 8.75 300 21:32 17.04.2022
4166 Clouds 6 1018 53 10000 8.23 310 20:50 17.04.2022
4167 Clouds 6 1017 53 10000 8.75 310 19:53 17.04.2022
4168 Clouds 6 1017 56 10000 9.26 270 18:34 17.04.2022
4169 Clouds 5 1017 59 10000 6.17 290 16:44 17.04.2022
4170 Clouds 4 1016 59 10000 5.66 280 15:33 17.04.2022
4171 Clouds 3 1016 60 10000 4.12 300 14:38 17.04.2022
4172 Clouds 1 1015 65 10000 4.12 280 13:23 17.04.2022
4173 Clouds 0 1014 64 10000 3.09 300 12:30 17.04.2022
4174 Clear 0 1013 61 10000 3.09 300 10:48 17.04.2022
4175 Clear 1 1013 59 10000 3.09 300 10:29 17.04.2022
4176 Clear 1 1013 56 10000 3.6 310 09:50 17.04.2022
4177 Clear 1 1013 57 10000 3.6 310 09:18 17.04.2022
4178 Clouds 2 1013 55 10000 2.57 310 08:29 17.04.2022
4179 Clouds 4 1013 50 10000 4.12 340 05:33 17.04.2022
4180 Clouds 6 1011 44 10000 5.14 300 01:47 17.04.2022
4181 Clouds 8 1011 43 10000 5.66 260 23:59 16.04.2022
4182 Clouds 8 1011 44 10000 5.66 260 23:19 16.04.2022
4183 Clouds 8 1011 47 10000 6.69 250 21:45 16.04.2022
4184 Clouds 8 1011 48 10000 9.26 260 20:54 16.04.2022
4185 Clouds 8 1012 49 10000 10.8 230 19:21 16.04.2022
4186 Clouds 7 1012 52 10000 9.77 220 18:43 16.04.2022
4187 Clouds 5 1013 66 10000 7.72 230 16:51 16.04.2022
4188 Clouds 4 1013 74 10000 8.23 230 15:49 16.04.2022
4189 Clouds 4 1013 82 10000 7.2 230 14:58 16.04.2022
4190 Clouds 3 1013 85 10000 7.2 230 14:37 16.04.2022
4191 Clouds 3 1012 88 10000 6.17 240 13:49 16.04.2022
4192 Clouds 2 1011 91 10000 6.69 240 12:43 16.04.2022
4193 Clouds 2 1011 92 10000 6.69 230 11:33 16.04.2022
4194 Mist 2 1011 91 9656 6.69 250 10:29 16.04.2022
4195 Rain 3 1010 89 8047 7.2 260 09:37 16.04.2022
4196 Rain 5 1009 88 8047 7.72 250 08:51 16.04.2022
4197 Rain 7 1009 85 4828 7.72 250 07:21 16.04.2022
4198 Mist 8 1008 85 9656 9.77 220 04:58 16.04.2022
4199 Clouds 11 1007 60 10000 16.98 220 01:23 16.04.2022
4200 Clouds 15 1007 41 10000 16.98 230 23:52 15.04.2022
4201 Clouds 14 1009 41 10000 8.75 230 22:48 15.04.2022
4202 Clouds 15 1009 41 10000 8.75 230 22:28 15.04.2022
4203 Clouds 14 1010 40 10000 13.89 220 21:21 15.04.2022
4204 Clouds 15 1011 32 10000 12.35 220 20:38 15.04.2022
4205 Clouds 15 1012 34 10000 9.77 220 19:44 15.04.2022
4206 Clouds 14 1013 36 10000 9.26 210 18:59 15.04.2022
4207 Clouds 14 1013 36 10000 9.26 210 18:41 15.04.2022
4208 Clouds 14 1013 37 10000 9.26 210 18:21 15.04.2022
4209 Clear 12 1013 42 10000 7.2 200 17:26 15.04.2022
4210 Clear 11 1014 55 10000 5.66 220 16:25 15.04.2022
4211 Clouds 10 1015 59 10000 5.66 210 15:45 15.04.2022
4212 Clouds 6 1015 73 10000 3.09 210 13:55 15.04.2022
4213 Clear 4 1014 78 10000 2.06 200 12:52 15.04.2022
4214 Clear 4 1014 78 10000 2.06 200 12:26 15.04.2022
4215 Clear 4 1014 82 10000 1.03 150 11:51 15.04.2022
4216 Clear 5 1013 77 10000 2.57 190 10:46 15.04.2022
4217 Clear 5 1013 76 10000 2.57 190 10:20 15.04.2022
4218 Clouds 6 1013 77 10000 4.63 220 09:22 15.04.2022
4219 Clouds 7 1013 76 10000 3.6 230 08:40 15.04.2022
4220 Clear 8 1013 77 10000 4.12 230 06:50 15.04.2022
4221 Clouds 9 1012 85 10000 6.17 230 04:49 15.04.2022
4222 Rain 10 1007 93 4828 1.03 230 00:51 15.04.2022
4223 Mist 10 1006 92 2816 3.09 350 23:28 14.04.2022
4224 Clouds 11 1005 89 10000 4.63 360 22:46 14.04.2022
4225 Clouds 11 1004 90 10000 4.12 10 22:27 14.04.2022
4226 Clouds 11 1004 90 10000 5.14 20 21:50 14.04.2022
4227 Clouds 10 1004 94 10000 5.14 30 19:51 14.04.2022
4228 Clouds 10 1004 94 10000 5.14 30 19:22 14.04.2022
4229 Mist 9 1005 96 10000 5.66 30 17:46 14.04.2022
4230 Clouds 9 1005 95 10000 5.66 30 17:18 14.04.2022
4231 Rain 8 1005 94 10000 6.17 50 16:21 14.04.2022
4232 Clouds 6 1006 95 10000 5.66 30 13:54 14.04.2022
4233 Clouds 6 1006 95 10000 7.2 50 13:25 14.04.2022
4234 Clouds 6 1007 97 10000 7.2 40 12:33 14.04.2022
4235 Mist 6 1007 96 8047 5.66 40 11:47 14.04.2022
4236 Rain 6 1008 96 9656 5.66 40 11:20 14.04.2022
4237 Rain 6 1008 95 10000 5.66 40 10:33 14.04.2022
4238 Clouds 7 1008 95 10000 4.12 50 09:50 14.04.2022
4239 Clouds 7 1009 94 10000 6.17 30 08:39 14.04.2022
4240 Clouds 7 1011 94 10000 5.14 50 06:24 14.04.2022
4241 Mist 7 1012 92 9656 7.72 40 01:49 14.04.2022
4242 Clouds 8 1013 85 10000 4.63 80 22:41 13.04.2022
4243 Mist 9 1013 80 9656 5.14 50 21:44 13.04.2022
4244 Clouds 10 1014 71 10000 4.63 70 20:47 13.04.2022
4245 Clouds 11 1014 67 10000 5.14 80 20:18 13.04.2022
4246 Rain 11 1015 57 10000 3.6 70 18:50 13.04.2022
4247 Clouds 11 1016 58 10000 4.12 50 17:54 13.04.2022
4248 Clouds 11 1016 60 10000 4.12 50 17:23 13.04.2022
4249 Rain 11 1017 53 10000 3.6 190 16:24 13.04.2022
4250 Clouds 10 1016 57 10000 3.09 140 15:31 13.04.2022
4251 Clouds 9 1017 62 10000 2.57 120 14:46 13.04.2022
4252 Clouds 7 1017 67 10000 1.03 60 13:58 13.04.2022
4253 Clouds 8 1017 64 10000 3.09 240 13:00 13.04.2022
4254 Clouds 8 1017 63 10000 3.09 240 12:19 13.04.2022
4255 Clouds 7 1017 66 10000 3.09 210 10:46 13.04.2022
4256 Clear 8 1017 62 10000 3.6 230 08:57 13.04.2022
4257 Clear 8 1017 62 10000 3.6 230 08:31 13.04.2022
4258 Clear 10 1016 54 10000 4.63 250 06:51 13.04.2022
4259 Clear 10 1016 53 10000 4.63 250 06:25 13.04.2022
4260 Clouds 12 1015 40 10000 2.06 240 03:31 13.04.2022
4261 Clear 16 1014 27 10000 7.72 290 00:20 13.04.2022
4262 Clear 16 1014 27 10000 7.72 290 00:20 13.04.2022
4263 Clear 17 1014 27 10000 11.83 310 22:46 12.04.2022
4264 Clear 17 1013 26 10000 8.75 270 21:57 12.04.2022
4265 Clear 17 1013 28 10000 9.77 260 20:51 12.04.2022
4266 Clear 17 1013 29 10000 9.77 260 20:33 12.04.2022
4267 Clear 16 1013 36 10000 6.69 260 19:47 12.04.2022
4268 Clear 15 1013 38 10000 6.69 260 19:28 12.04.2022
4269 Clear 14 1013 57 10000 5.66 290 17:59 12.04.2022
4270 Clear 12 1012 66 10000 4.63 250 16:53 12.04.2022
4271 Clouds 11 1012 80 10000 4.63 240 15:52 12.04.2022
4272 Clouds 10 1012 82 10000 4.63 240 15:25 12.04.2022
4273 Mist 9 1012 89 9656 3.6 220 14:21 12.04.2022
4274 Mist 8 1012 92 8047 3.6 220 13:28 12.04.2022
4275 Clouds 8 1012 91 10000 3.6 220 12:44 12.04.2022
4276 Clouds 7 1011 91 10000 2.57 240 11:42 12.04.2022
4277 Rain 8 1011 88 10000 3.09 200 10:30 12.04.2022
4278 Rain 9 1010 72 10000 4.63 200 08:54 12.04.2022
4279 Clouds 10 1009 58 10000 4.63 180 07:51 12.04.2022
4280 Clouds 10 1011 55 10000 4.12 170 05:49 12.04.2022
4281 Clouds 10 1012 56 10000 3.6 130 04:46 12.04.2022
4282 Clear 12 1013 49 10000 3.6 140 23:49 11.04.2022
4283 Clear 12 1014 50 10000 3.6 140 22:44 11.04.2022
4284 Clear 11 1015 52 10000 3.09 180 21:37 11.04.2022
4285 Clear 10 1016 53 10000 4.63 190 20:55 11.04.2022
4286 Clear 10 1016 52 10000 4.63 190 20:28 11.04.2022
4287 Clear 9 1018 52 10000 6.17 230 19:37 11.04.2022
4288 Clear 9 1018 53 10000 6.17 230 19:18 11.04.2022
4289 Clear 8 1018 54 10000 5.66 200 18:41 11.04.2022
4290 Clear 7 1018 55 10000 4.63 200 17:56 11.04.2022
4291 Clear 7 1018 57 10000 4.12 190 16:54 11.04.2022
4292 Clear 5 1019 60 10000 2.57 290 15:45 11.04.2022
4293 Clear 2 1018 74 10000 2.57 280 13:53 11.04.2022
4294 Clear 0 1018 79 10000 3.09 260 12:44 11.04.2022
4295 Clear -1 1018 82 10000 3.09 260 12:25 11.04.2022
4296 Clear 0 1017 75 10000 3.6 280 11:30 11.04.2022
4297 Clear 0 1016 76 10000 3.09 290 10:21 11.04.2022
4298 Clear 1 1015 74 10000 3.09 260 08:50 11.04.2022
4299 Clear 3 1013 67 10000 4.63 310 05:38 11.04.2022
4300 Clouds 7 1008 57 10000 8.75 310 01:23 11.04.2022
4301 Clouds 6 1006 78 10000 8.23 260 22:33 10.04.2022
4302 Rain 7 1005 76 10000 8.23 260 21:55 10.04.2022
4303 Rain 7 1005 71 10000 8.23 260 21:26 10.04.2022
4304 Clouds 8 1005 71 10000 8.75 250 20:30 10.04.2022
4305 Clouds 8 1005 75 10000 8.23 250 19:41 10.04.2022
4306 Clouds 7 1005 77 10000 8.23 250 19:18 10.04.2022
4307 Clouds 6 1005 78 10000 7.2 270 18:38 10.04.2022
4308 Clouds 5 1005 81 10000 7.2 250 17:51 10.04.2022
4309 Clouds 5 1005 82 10000 7.2 250 17:31 10.04.2022
4310 Rain 4 1005 86 10000 6.69 250 15:53 10.04.2022
4311 Clouds 3 1004 89 10000 5.14 240 14:51 10.04.2022
4312 Clouds 3 1004 91 10000 4.63 240 13:49 10.04.2022
4313 Clouds 3 1003 92 10000 4.12 250 12:33 10.04.2022
4314 Clouds 4 1002 90 10000 4.12 210 11:45 10.04.2022
4315 Clouds 4 1002 90 10000 4.12 210 11:24 10.04.2022
4316 Clouds 4 1002 91 10000 3.09 280 10:38 10.04.2022
4317 Clouds 4 1002 89 10000 4.12 260 09:49 10.04.2022
4318 Mist 4 1002 90 3219 4.12 260 08:55 10.04.2022
4319 Fog 4 1002 90 201 4.12 260 08:20 10.04.2022
4320 Mist 4 1003 93 8047 2.57 170 06:59 10.04.2022
4321 Clouds 5 1003 90 10000 2.06 210 04:36 10.04.2022
4322 Clouds 7 1002 85 10000 2.57 150 02:19 10.04.2022
4323 Clouds 8 1002 79 10000 2.06 160 23:54 09.04.2022
4324 Rain 8 1002 79 10000 2.06 160 23:25 09.04.2022
4325 Clouds 8 1001 79 10000 3.09 10 22:39 09.04.2022
4326 Rain 7 1002 83 10000 2.06 20 21:31 09.04.2022
4327 Rain 7 1002 86 10000 2.57 40 20:35 09.04.2022
4328 Rain 6 1002 89 10000 2.57 10 19:59 09.04.2022
4329 Rain 6 1002 89 10000 2.57 10 19:41 09.04.2022
4330 Mist 6 1003 91 9656 2.57 360 18:26 09.04.2022
4331 Rain 6 1003 91 9656 2.57 10 17:52 09.04.2022
4332 Rain 5 1003 90 8047 2.57 340 17:18 09.04.2022
4333 Rain 5 1004 90 8047 2.06 350 16:42 09.04.2022
4334 Mist 4 1004 92 9656 2.06 340 15:52 09.04.2022
4335 Mist 4 1004 92 9656 2.06 340 15:26 09.04.2022
4336 Mist 3 1004 93 8047 2.06 40 14:26 09.04.2022
4337 Mist 2 1004 94 9656 1.54 360 13:34 09.04.2022
4338 Clouds 2 1003 94 10000 1.03 360 12:57 09.04.2022
4339 Mist 2 1003 93 4828 1.54 30 11:52 09.04.2022
4340 Clouds 2 1003 93 10000 2.06 30 10:53 09.04.2022
4341 Clouds 3 1003 93 10000 2.06 30 10:19 09.04.2022
4342 Mist 3 1003 92 8047 2.57 140 09:24 09.04.2022
4343 Mist 3 1003 93 2816 2.57 170 08:35 09.04.2022
4344 Mist 3 1004 93 4023 2.06 140 05:21 09.04.2022
4345 Clouds 7 1003 79 10000 1.54 50 00:36 09.04.2022
4346 Clouds 7 1003 79 10000 1.54 50 00:36 09.04.2022
4347 Clouds 7 1002 77 10000 2.57 260 23:24 08.04.2022
4348 Clouds 7 1001 76 10000 6.17 280 21:54 08.04.2022
4349 Clouds 6 1001 79 10000 5.66 270 20:45 08.04.2022
4350 Clouds 6 1001 85 10000 5.14 240 19:57 08.04.2022
4351 Clouds 5 1001 92 10000 4.12 220 18:59 08.04.2022
4352 Clouds 5 1001 93 10000 2.57 190 18:25 08.04.2022
4353 Clouds 4 1001 94 10000 3.09 150 17:38 08.04.2022
4354 Clouds 4 1001 96 10000 2.57 140 17:19 08.04.2022
4355 Rain 3 1001 94 10000 2.57 90 16:32 08.04.2022
4356 Rain 3 1001 95 10000 5.14 40 15:38 08.04.2022
4357 Rain 2 1002 94 10000 5.14 70 14:52 08.04.2022
4358 Rain 2 1002 94 10000 5.14 70 14:21 08.04.2022
4359 Rain 1 1002 95 10000 5.66 60 13:41 08.04.2022
4360 Mist 1 1002 95 9656 5.66 60 13:22 08.04.2022
4361 Mist 2 1003 94 9656 9.26 70 11:43 08.04.2022
4362 Mist 2 1004 95 9656 8.75 70 10:31 08.04.2022
4363 Rain 2 1006 94 10000 9.77 70 09:25 08.04.2022
4364 Rain 2 1007 94 10000 7.72 50 08:25 08.04.2022
4365 Rain 2 1008 95 10000 7.2 30 06:47 08.04.2022
4366 Rain 3 1010 93 10000 7.72 40 04:32 08.04.2022
4367 Rain 6 1011 93 6437 4.63 100 00:33 08.04.2022
4368 Rain 6 1011 92 8047 4.12 90 23:59 07.04.2022
4369 Rain 7 1010 90 10000 5.66 120 22:58 07.04.2022
4370 Rain 7 1010 90 10000 5.66 120 22:37 07.04.2022
4371 Rain 7 1010 90 10000 5.66 120 22:19 07.04.2022
4372 Rain 7 1010 90 10000 5.66 110 21:47 07.04.2022
4373 Rain 7 1011 90 10000 6.69 100 20:58 07.04.2022
4374 Rain 7 1011 89 10000 6.69 100 20:30 07.04.2022
4375 Rain 7 1011 87 10000 4.12 110 17:57 07.04.2022
4376 Rain 7 1011 88 10000 4.63 30 17:24 07.04.2022
4377 Clouds 6 1010 87 10000 4.63 100 16:43 07.04.2022
4378 Clouds 6 1010 87 10000 4.63 100 16:18 07.04.2022
4379 Rain 4 1011 89 10000 6.17 40 14:36 07.04.2022
4380 Rain 4 1011 87 10000 6.17 50 13:42 07.04.2022
4381 Clouds 3 1011 85 10000 6.69 40 12:41 07.04.2022
4382 Rain 3 1011 78 10000 6.17 40 11:29 07.04.2022
4383 Rain 4 1011 58 10000 6.69 30 09:37 07.04.2022
4384 Clouds 4 1011 55 10000 7.72 40 08:37 07.04.2022
4385 Clouds 6 1012 53 10000 6.69 40 06:42 07.04.2022
4386 Clouds 9 1012 40 10000 7.72 40 02:47 07.04.2022
4387 Clouds 9 1012 40 10000 7.72 40 02:18 07.04.2022
4388 Clear 12 1012 36 10000 8.23 40 23:57 06.04.2022
4389 Clear 13 1012 37 10000 7.72 40 22:48 06.04.2022
4390 Clear 13 1012 38 10000 7.72 40 22:25 06.04.2022
4391 Clear 14 1013 38 10000 8.23 40 21:32 06.04.2022
4392 Clear 13 1014 38 10000 7.72 30 20:35 06.04.2022
4393 Clear 13 1014 39 10000 7.72 40 19:53 06.04.2022
4394 Clear 12 1015 40 10000 6.69 50 18:51 06.04.2022
4395 Clear 12 1015 41 10000 6.69 50 18:22 06.04.2022
4396 Clear 10 1016 44 10000 7.2 30 17:35 06.04.2022
4397 Clear 8 1016 48 10000 6.69 30 16:38 06.04.2022
4398 Clear 6 1016 55 10000 6.69 20 15:48 06.04.2022
4399 Clear 4 1016 60 10000 6.17 30 14:57 06.04.2022
4400 Clear 1 1016 66 10000 5.66 20 13:23 06.04.2022
4401 Clear 1 1016 66 10000 5.66 20 12:26 06.04.2022
4402 Clear 1 1016 66 10000 4.63 20 10:47 06.04.2022
4403 Clear 2 1016 65 10000 4.63 20 10:25 06.04.2022
4404 Clear 2 1016 64 10000 4.12 20 09:40 06.04.2022
4405 Clear 2 1016 65 10000 3.6 20 08:32 06.04.2022
4406 Clear 3 1016 59 10000 2.57 40 07:50 06.04.2022
4407 Clear 8 1016 44 10000 3.09 130 03:54 06.04.2022
4408 Clear 12 1016 30 10000 3.09 250 23:53 05.04.2022
4409 Clear 13 1015 33 10000 2.57 70 22:57 05.04.2022
4410 Clear 12 1016 33 10000 4.63 200 21:23 05.04.2022
4411 Clear 11 1016 35 10000 3.6 200 20:26 05.04.2022
4412 Clear 11 1017 35 10000 4.12 240 19:42 05.04.2022
4413 Clear 10 1017 38 10000 2.57 190 18:18 05.04.2022
4414 Clear 7 1018 41 10000 1.54 60 16:54 05.04.2022
4415 Clear 6 1017 46 10000 1.54 60 15:57 05.04.2022
4416 Clear 6 1017 47 10000 1.54 60 15:34 05.04.2022
4417 Clear 3 1017 63 10000 1.03 20 14:36 05.04.2022
4418 Clear 0 1016 74 10000 1.03 260 13:35 05.04.2022
4419 Clouds 0 1016 72 10000 1.54 160 11:51 05.04.2022
4420 Clouds 0 1016 71 10000 1.54 160 11:32 05.04.2022
4421 Clouds 1 1015 65 10000 1.54 280 09:59 05.04.2022
4422 Clear 2 1015 62 10000 2.57 230 08:54 05.04.2022
4423 Clouds 2 1014 60 10000 2.06 270 07:22 05.04.2022
4424 Clouds 8 1013 39 10000 4.63 310 01:58 05.04.2022
4425 Clouds 10 1013 35 10000 4.12 250 22:44 04.04.2022
4426 Clouds 10 1013 35 10000 4.12 250 22:26 04.04.2022
4427 Clouds 10 1013 35 10000 5.66 280 21:21 04.04.2022
4428 Clear 10 1014 36 10000 5.14 270 20:50 04.04.2022
4429 Clear 9 1014 36 10000 5.66 300 19:58 04.04.2022
4430 Clear 9 1014 37 10000 5.66 300 19:26 04.04.2022
4431 Clear 9 1014 41 10000 4.63 10 18:37 04.04.2022
4432 Clear 6 1014 45 10000 6.17 10 16:37 04.04.2022
4433 Clear 5 1014 50 10000 5.66 350 15:58 04.04.2022
4434 Clear 5 1014 53 10000 5.66 350 15:33 04.04.2022
4435 Clear 3 1014 69 10000 4.63 330 14:46 04.04.2022
4436 Clear 1 1014 82 10000 4.12 320 13:33 04.04.2022
4437 Clear 0 1013 87 10000 3.09 310 12:26 04.04.2022
4438 Clear -1 1012 91 10000 1.54 280 11:29 04.04.2022
4439 Clouds 0 1012 91 10000 2.06 260 09:51 04.04.2022
4440 Rain 2 1012 85 10000 2.57 300 05:27 04.04.2022
4441 Clouds 2 1012 78 10000 2.57 340 02:41 04.04.2022
4442 Clouds 3 1011 77 10000 7.2 360 22:47 03.04.2022
4443 Clouds 3 1011 77 10000 7.2 10 21:58 03.04.2022
4444 Clouds 3 1012 77 10000 6.17 340 21:25 03.04.2022
4445 Clouds 4 1012 57 10000 8.23 20 19:52 03.04.2022
4446 Clouds 5 1012 54 10000 6.69 10 18:34 03.04.2022
4447 Clouds 5 1012 55 10000 6.17 10 17:50 03.04.2022
4448 Clouds 5 1012 55 10000 6.17 10 17:32 03.04.2022
4449 Clouds 4 1013 57 10000 4.63 10 16:49 03.04.2022
4450 Clouds 3 1013 61 10000 3.6 40 15:42 03.04.2022
4451 Clouds 1 1013 67 10000 2.57 40 13:58 03.04.2022
4452 Clouds 1 1013 67 10000 3.6 20 12:58 03.04.2022
4453 Clouds 1 1013 67 10000 3.6 30 11:34 03.04.2022
4454 Clouds 1 1013 66 10000 1.54 10 09:52 03.04.2022
4455 Clouds 1 1014 65 10000 1.03 50 08:57 03.04.2022
4456 Clear 3 1015 56 10000 2.57 210 05:45 03.04.2022
4457 Clear 3 1015 56 10000 2.57 210 05:45 03.04.2022
4458 Clear 3 1015 52 10000 3.6 240 02:55 03.04.2022
4459 Clear 7 1015 38 10000 6.17 280 23:35 02.04.2022
4460 Clear 6 1015 39 10000 7.2 260 22:43 02.04.2022
4461 Clear 6 1016 40 10000 7.2 240 21:55 02.04.2022
4462 Clear 6 1016 40 10000 7.2 240 21:19 02.04.2022
4463 Clear 6 1016 42 10000 6.69 260 20:36 02.04.2022
4464 Clear 4 1016 43 10000 7.2 240 18:47 02.04.2022
4465 Clear 4 1016 44 10000 7.2 240 18:19 02.04.2022
4466 Clear 2 1017 46 10000 6.69 300 17:23 02.04.2022
4467 Clear 0 1017 52 10000 6.17 290 15:44 02.04.2022
4468 Clear 0 1017 54 10000 6.17 290 15:19 02.04.2022
4469 Clear -1 1017 58 10000 5.14 300 14:31 02.04.2022
4470 Clear -2 1016 62 10000 5.66 290 13:34 02.04.2022
4471 Clear -2 1015 63 10000 5.66 310 12:21 02.04.2022
4472 Clouds -1 1012 62 10000 12.35 290 10:31 02.04.2022
4473 Clouds 0 1010 66 10000 7.72 310 08:26 02.04.2022
4474 Snow 1 1006 70 10000 7.2 290 04:59 02.04.2022
4475 Clouds 1 1004 77 8047 8.75 300 02:56 02.04.2022
4476 Clouds 3 1000 85 10000 8.23 290 23:54 01.04.2022
4477 Rain 4 999 86 10000 6.17 270 22:51 01.04.2022
4478 Rain 5 998 79 10000 7.72 270 21:24 01.04.2022
4479 Rain 5 998 75 10000 8.75 250 20:48 01.04.2022
4480 Rain 6 998 72 10000 6.69 270 19:46 01.04.2022
4481 Rain 5 998 72 10000 7.72 250 19:26 01.04.2022
4482 Rain 5 998 70 10000 7.72 260 18:42 01.04.2022
4483 Clouds 6 998 70 10000 6.17 280 17:43 01.04.2022
4484 Clouds 6 998 72 10000 5.66 280 16:33 01.04.2022
4485 Clouds 7 998 75 10000 8.23 240 15:18 01.04.2022
4486 Clouds 6 997 80 10000 5.66 240 14:18 01.04.2022
4487 Clouds 6 998 83 10000 6.17 230 13:32 01.04.2022
4488 Clouds 6 997 83 10000 5.66 220 12:30 01.04.2022
4489 Clouds 6 996 81 10000 6.69 250 10:54 01.04.2022
4490 Clear 7 996 80 10000 8.23 240 09:49 01.04.2022
4491 Clear 8 995 80 10000 7.72 220 07:50 01.04.2022
4492 Clear 9 995 75 10000 10.29 230 06:30 01.04.2022
4493 Mist 7 993 94 9656 4.12 230 04:44 01.04.2022
4494 Clouds 7 993 92 10000 5.66 200 03:21 01.04.2022
4495 Clouds 8 992 92 10000 5.14 190 01:52 01.04.2022
4496 Mist 7 995 93 8047 3.6 10 22:37 31.03.2022
4497 Mist 7 995 91 8047 3.6 50 21:44 31.03.2022
4498 Mist 7 997 87 4828 3.09 70 20:51 31.03.2022
4499 Mist 7 997 86 4828 3.09 70 20:28 31.03.2022
4500 Clouds 7 997 84 10000 4.63 80 19:44 31.03.2022
4501 Clouds 7 999 82 10000 3.09 80 18:35 31.03.2022
4502 Clouds 5 1001 82 10000 4.63 140 17:25 31.03.2022
4503 Clouds 5 1002 77 10000 4.63 70 16:18 31.03.2022
4504 Clear 4 1002 81 10000 3.6 70 15:33 31.03.2022
4505 Clear 3 1003 83 10000 5.14 80 14:52 31.03.2022
4506 Clear 2 1003 85 10000 5.14 80 14:19 31.03.2022
4507 Clouds 1 1005 85 10000 4.12 70 11:32 31.03.2022
4508 Rain 1 1006 86 10000 5.14 70 10:41 31.03.2022
4509 Clouds 1 1007 87 10000 4.12 70 09:43 31.03.2022
4510 Rain 0 1010 88 10000 4.63 80 07:49 31.03.2022
4511 Rain 1 1013 69 10000 6.69 80 03:57 31.03.2022
4512 Clear 3 1016 41 10000 2.06 170 23:27 30.03.2022
4513 Clear 3 1017 35 10000 3.09 0 22:20 30.03.2022
4514 Clear 2 1019 34 10000 3.6 200 21:32 30.03.2022
4515 Clear 2 1020 37 10000 3.09 180 20:44 30.03.2022
4516 Clear 2 1021 35 10000 2.57 210 19:57 30.03.2022
4517 Clear 1 1022 39 10000 4.12 180 18:50 30.03.2022
4518 Clear 0 1023 40 10000 1.03 160 17:52 30.03.2022
4519 Clear 0 1023 40 10000 1.03 160 17:52 30.03.2022
4520 Clear 0 1023 38 10000 1.34 6 17:32 30.03.2022
4521 Clear -1 1023 39 10000 2.06 320 16:42 30.03.2022
4522 Clear -1 1023 40 10000 2.06 320 16:19 30.03.2022
4523 Clear -3 1024 50 10000 4.63 280 14:55 30.03.2022
4524 Clear -6 1023 62 10000 3.09 280 13:32 30.03.2022
4525 Clear -6 1022 61 10000 3.09 280 12:36 30.03.2022
4526 Clear -6 1021 59 10000 3.09 290 10:54 30.03.2022
4527 Clear -5 1021 59 10000 3.09 290 09:58 30.03.2022
4528 Clear -5 1021 58 10000 2.57 300 08:29 30.03.2022
4529 Clear -4 1021 54 10000 4.63 300 07:29 30.03.2022
4530 Clear -3 1020 51 10000 4.63 300 05:40 30.03.2022
4531 Clear -2 1020 49 10000 4.12 300 03:21 30.03.2022
4532 Clouds -1 1018 45 10000 8.75 260 23:32 29.03.2022
4533 Clouds -1 1018 46 10000 9.77 290 22:18 29.03.2022
4534 Clouds -2 1018 44 10000 9.26 270 21:40 29.03.2022
4535 Clouds -2 1018 46 10000 7.72 260 20:44 29.03.2022
4536 Clouds -3 1018 47 10000 7.72 270 19:45 29.03.2022
4537 Clouds -4 1019 51 10000 7.2 270 18:54 29.03.2022
4538 Clouds -4 1019 55 10000 7.2 270 18:18 29.03.2022
4539 Clouds -5 1019 57 10000 7.72 280 17:20 29.03.2022
4540 Clouds -5 1019 59 10000 6.17 290 16:55 29.03.2022
4541 Clouds -6 1019 63 10000 5.66 280 15:47 29.03.2022
4542 Clouds -7 1019 63 10000 7.72 270 14:44 29.03.2022
4543 Clouds -7 1019 61 10000 6.69 270 13:52 29.03.2022
4544 Clouds -7 1018 58 10000 6.17 290 12:46 29.03.2022
4545 Clouds -7 1018 60 10000 5.66 290 11:28 29.03.2022
4546 Clouds -7 1017 62 10000 5.14 310 10:23 29.03.2022
4547 Clouds -7 1017 64 10000 7.2 320 09:20 29.03.2022
4548 Clouds -8 1016 78 4828 4.63 280 06:54 29.03.2022
4549 Clouds -8 1015 69 10000 6.69 290 03:47 29.03.2022
4550 Clouds -8 1012 63 10000 7.72 260 23:49 28.03.2022
4551 Clouds -8 1012 63 10000 7.72 260 22:58 28.03.2022
4552 Clouds -8 1012 61 10000 7.72 260 22:39 28.03.2022
4553 Clouds -8 1012 60 10000 8.23 270 22:19 28.03.2022
4554 Clouds -9 1011 57 6437 8.23 250 20:47 28.03.2022
4555 Clouds -9 1011 57 10000 7.2 280 19:59 28.03.2022
4556 Clouds -9 1011 58 10000 7.2 300 19:40 28.03.2022
4557 Clouds -9 1011 57 10000 6.69 290 18:51 28.03.2022
4558 Clouds -9 1011 58 10000 6.69 290 18:18 28.03.2022
4559 Clouds -10 1011 62 10000 6.69 270 17:28 28.03.2022
4560 Clouds -11 1010 68 4828 6.17 320 15:48 28.03.2022
4561 Clouds -11 1010 65 10000 8.23 290 14:24 28.03.2022
4562 Clouds -11 1010 67 10000 7.2 290 13:33 28.03.2022
4563 Clouds -11 1009 70 10000 7.2 290 11:54 28.03.2022
4564 Clouds -10 1008 75 8047 7.2 280 10:39 28.03.2022
4565 Clouds -10 1008 70 10000 6.17 270 09:38 28.03.2022
4566 Clouds -9 1008 67 10000 7.2 280 08:46 28.03.2022
4567 Clouds -9 1008 67 10000 7.2 280 08:21 28.03.2022
4568 Clouds -9 1008 67 10000 6.69 290 07:27 28.03.2022
4569 Clouds -5 1005 72 6437 7.72 280 02:48 28.03.2022
4570 Clouds -2 1001 62 10000 9.26 260 22:59 27.03.2022
4571 Clouds -1 1001 61 10000 9.26 260 22:22 27.03.2022
4572 Clouds -1 1001 61 10000 10.8 260 21:40 27.03.2022
4573 Clouds 0 1000 62 10000 11.32 270 20:53 27.03.2022
4574 Clouds 0 1000 65 10000 10.29 250 19:44 27.03.2022
4575 Clouds 0 999 65 10000 8.23 270 18:47 27.03.2022
4576 Clouds 0 999 66 10000 8.23 270 18:26 27.03.2022
4577 Clouds 0 999 72 10000 9.26 270 17:38 27.03.2022
4578 Clouds 0 998 83 4828 7.72 270 15:59 27.03.2022
4579 Snow 1 996 83 10000 7.2 270 14:26 27.03.2022
4580 Clouds 2 996 85 10000 5.14 290 13:42 27.03.2022
4581 Clouds 2 994 91 10000 4.63 240 11:52 27.03.2022
4582 Clouds 3 994 91 10000 5.14 240 10:28 27.03.2022
4583 Clouds 3 994 90 10000 4.63 250 08:21 27.03.2022
4584 Clouds 4 995 83 10000 5.14 240 05:19 27.03.2022
4585 Clouds 6 994 72 10000 2.57 230 00:37 27.03.2022
4586 Clouds 6 994 72 10000 3.6 240 23:30 26.03.2022
4587 Rain 7 994 73 10000 5.14 240 22:29 26.03.2022
4588 Clear 7 994 68 10000 6.69 250 21:32 26.03.2022
4589 Clouds 7 994 69 10000 6.69 250 19:46 26.03.2022
4590 Clouds 7 994 71 10000 7.2 250 18:56 26.03.2022
4591 Clouds 5 995 79 10000 5.14 240 17:44 26.03.2022
4592 Clouds 5 995 79 10000 5.14 240 17:22 26.03.2022
4593 Clouds 5 995 80 10000 5.14 220 16:24 26.03.2022
4594 Clouds 4 995 84 10000 5.14 220 14:50 26.03.2022
4595 Clouds 3 995 89 10000 4.63 220 13:52 26.03.2022
4596 Clouds 2 995 92 10000 4.12 220 12:41 26.03.2022
4597 Clouds 3 995 90 10000 5.14 230 11:28 26.03.2022
4598 Clouds 3 995 88 10000 5.66 240 09:23 26.03.2022
4599 Clouds 3 996 88 10000 6.17 240 08:27 26.03.2022
4600 Clouds 3 996 92 10000 7.72 240 05:53 26.03.2022
4601 Clouds 4 996 92 10000 7.2 240 03:58 26.03.2022
4602 Rain 6 997 84 4828 4.12 220 23:21 25.03.2022
4603 Clouds 7 996 83 10000 4.12 30 20:59 25.03.2022
4604 Clouds 7 996 84 10000 4.12 30 20:38 25.03.2022
4605 Mist 7 997 84 6437 2.06 50 19:27 25.03.2022
4606 Mist 6 998 87 6437 2.06 30 18:46 25.03.2022
4607 Mist 6 998 87 6437 2.06 30 18:46 25.03.2022
4608 Mist 5 999 92 6437 3.09 240 17:35 25.03.2022
4609 Mist 3 1000 93 9656 1.03 210 16:41 25.03.2022
4610 Mist 2 1001 95 10000 1.54 300 15:52 25.03.2022
4611 Snow 2 1002 94 4828 2.57 290 13:51 25.03.2022
4612 Rain 2 1002 93 6437 3.6 10 12:20 25.03.2022
4613 Clouds 3 1003 92 10000 4.12 30 09:47 25.03.2022
4614 Clouds 3 1003 92 10000 4.12 30 09:23 25.03.2022
4615 Clouds 3 1005 91 10000 3.6 10 07:48 25.03.2022
4616 Clouds 3 1006 91 10000 3.6 10 07:21 25.03.2022
4617 Clouds 4 1008 85 10000 3.6 110 04:47 25.03.2022
4618 Clouds 6 1010 78 10000 5.14 160 00:29 25.03.2022
4619 Clouds 7 1011 79 10000 8.75 150 22:30 24.03.2022
4620 Clouds 6 1011 83 10000 8.23 140 21:34 24.03.2022
4621 Clouds 6 1012 85 10000 7.72 140 19:50 24.03.2022
4622 Clouds 5 1013 87 10000 7.2 130 18:54 24.03.2022
4623 Rain 4 1014 89 10000 8.23 130 17:39 24.03.2022
4624 Rain 4 1014 90 10000 10.29 140 16:54 24.03.2022
4625 Clouds 3 1014 89 10000 10.29 140 15:19 24.03.2022
4626 Rain 3 1016 90 10000 5.66 150 14:41 24.03.2022
4627 Rain 3 1015 95 10000 5.66 140 13:54 24.03.2022
4628 Rain 2 1016 93 10000 5.66 100 12:42 24.03.2022
4629 Rain 2 1016 93 9656 5.14 100 11:33 24.03.2022
4630 Snow 2 1017 91 3219 5.14 80 09:48 24.03.2022
4631 Mist 1 1018 89 8047 6.69 80 08:40 24.03.2022
4632 Mist 1 1018 89 8047 6.69 80 08:40 24.03.2022
4633 Clouds 2 1020 72 8047 7.72 40 06:44 24.03.2022
4634 Clouds 2 1023 66 10000 6.17 50 01:43 24.03.2022
4635 Clear 4 1024 60 10000 5.14 50 22:37 23.03.2022
4636 Clouds 4 1025 58 10000 5.66 40 21:25 23.03.2022
4637 Clouds 4 1025 58 10000 5.66 40 21:25 23.03.2022
4638 Clouds 4 1025 58 10000 5.66 40 21:25 23.03.2022
4639 Clear 3 1025 59 10000 4.63 40 20:47 23.03.2022
4640 Clear 3 1025 59 10000 4.12 70 19:43 23.03.2022
4641 Clear 3 1025 59 10000 4.12 70 19:43 23.03.2022
4642 Clear 3 1026 58 10000 2.57 40 18:30 23.03.2022
4643 Clear 2 1027 58 10000 2.57 80 17:36 23.03.2022
4644 Clear 2 1027 57 10000 2.06 20 16:20 23.03.2022
4645 Clear 0 1027 60 10000 3.6 10 14:50 23.03.2022
4646 Clear -1 1027 61 10000 3.6 10 14:21 23.03.2022
4647 Clear -4 1027 70 10000 1.54 330 12:24 23.03.2022
4648 Clear -3 1026 64 10000 2.06 350 09:38 23.03.2022
4649 Clear -2 1026 60 10000 3.6 20 06:41 23.03.2022
4650 Clear 0 1026 55 10000 5.66 30 04:31 23.03.2022
4651 Clear 3 1023 47 10000 5.14 300 00:29 23.03.2022
4652 Clear 5 1022 40 10000 6.17 290 22:33 22.03.2022
4653 Clear 5 1022 42 10000 8.23 300 21:29 22.03.2022
4654 Clouds 4 1022 44 10000 9.77 340 20:39 22.03.2022
4655 Clouds 4 1022 45 10000 7.72 260 19:39 22.03.2022
4656 Clouds 3 1022 46 10000 7.72 260 19:18 22.03.2022
4657 Clear 3 1022 47 10000 6.17 290 18:22 22.03.2022
4658 Clouds 1 1022 48 10000 7.72 280 17:29 22.03.2022
4659 Clouds 0 1021 50 10000 5.66 290 15:59 22.03.2022
4660 Clouds -1 1021 50 10000 5.66 290 15:22 22.03.2022
4661 Clear -1 1021 50 10000 6.17 300 14:46 22.03.2022
4662 Clear -2 1021 51 10000 6.17 300 14:26 22.03.2022
4663 Clear -3 1021 51 10000 6.17 280 13:27 22.03.2022
4664 Clear -3 1019 50 10000 6.69 300 11:52 22.03.2022
4665 Clear -2 1019 50 10000 8.23 280 10:35 22.03.2022
4666 Clear -1 1019 58 10000 6.69 270 08:24 22.03.2022
4667 Clouds 0 1018 62 10000 6.69 260 05:21 22.03.2022
4668 Clouds 1 1018 60 10000 5.14 290 03:46 22.03.2022
4669 Clouds 2 1017 58 10000 7.2 310 00:22 22.03.2022
4670 Clouds 4 1016 53 10000 8.75 300 22:29 21.03.2022
4671 Clouds 5 1014 54 10000 8.75 310 20:54 21.03.2022
4672 Clouds 5 1014 54 10000 8.75 310 20:54 21.03.2022
4673 Clouds 5 1014 53 10000 8.75 310 20:34 21.03.2022
4674 Clouds 5 1014 52 10000 9.26 310 19:58 21.03.2022
4675 Clouds 6 1014 50 10000 9.26 310 19:27 21.03.2022
4676 Clouds 6 1014 52 10000 8.75 270 18:22 21.03.2022
4677 Clouds 5 1014 54 10000 9.77 260 17:19 21.03.2022
4678 Clear 5 1014 57 10000 8.75 280 16:44 21.03.2022
4679 Clear 5 1014 61 10000 7.72 280 15:52 21.03.2022
4680 Clear 4 1014 63 10000 7.72 280 15:19 21.03.2022
4681 Clear 3 1014 72 10000 6.69 250 14:25 21.03.2022
4682 Clouds 1 1014 80 10000 4.12 240 12:40 21.03.2022
4683 Clear 1 1014 82 10000 4.63 260 11:52 21.03.2022
4684 Clear 1 1013 83 10000 4.63 270 10:40 21.03.2022
4685 Clear 1 1012 85 10000 4.12 280 08:30 21.03.2022
4686 Clouds 2 1012 87 10000 3.09 230 06:54 21.03.2022
4687 Clouds 3 1010 91 10000 3.6 280 02:53 21.03.2022
4688 Rain 4 1009 92 10000 5.14 300 00:19 21.03.2022
4689 Rain 5 1007 90 10000 6.69 270 22:44 20.03.2022
4690 Rain 5 1006 89 10000 5.66 250 21:56 20.03.2022
4691 Clouds 5 1006 88 10000 6.69 240 21:29 20.03.2022
4692 Clouds 5 1005 89 10000 7.2 250 20:43 20.03.2022
4693 Mist 5 1005 90 9656 7.2 240 19:59 20.03.2022
4694 Mist 5 1005 92 9656 7.2 240 19:34 20.03.2022
4695 Mist 5 1005 92 8047 8.75 240 18:34 20.03.2022
4696 Clouds 5 1004 92 10000 9.77 240 17:35 20.03.2022
4697 Clouds 5 1004 93 10000 8.75 240 16:57 20.03.2022
4698 Drizzle 5 1004 95 10000 10.29 240 15:43 20.03.2022
4699 Mist 5 1004 97 4828 9.26 230 14:35 20.03.2022
4700 Mist 4 1003 96 1207 7.72 230 12:42 20.03.2022
4701 Mist 2 1003 95 1609 2.57 170 11:32 20.03.2022
4702 Mist 2 1002 95 2012 1.54 50 09:39 20.03.2022
4703 Rain 1 1003 96 4023 2.57 330 07:49 20.03.2022
4704 Snow 1 1003 96 3621 4.63 20 05:48 20.03.2022
4705 Rain 2 1003 94 10000 8.75 20 02:53 20.03.2022
4706 Clouds 2 1004 95 10000 9.77 30 00:48 20.03.2022
4707 Clouds 2 1005 94 10000 8.23 20 23:20 19.03.2022
4708 Clouds 3 1006 94 10000 9.26 30 21:41 19.03.2022
4709 Clouds 3 1006 94 10000 9.26 30 21:18 19.03.2022
4710 Clouds 3 1008 96 10000 7.72 30 19:21 19.03.2022
4711 Clouds 3 1009 94 10000 9.77 30 18:25 19.03.2022
4712 Clouds 3 1009 95 10000 6.69 40 17:41 19.03.2022
4713 Rain 3 1010 94 10000 9.26 30 16:29 19.03.2022
4714 Rain 3 1011 94 4828 8.75 40 15:20 19.03.2022
4715 Rain 2 1014 93 10000 10.29 30 13:35 19.03.2022
4716 Rain 2 1014 91 10000 9.26 40 12:42 19.03.2022
4717 Clouds 2 1014 89 10000 10.29 30 11:54 19.03.2022
4718 Clouds 2 1015 88 10000 10.29 30 11:33 19.03.2022
4719 Rain 4 1017 80 10000 7.72 30 08:23 19.03.2022
4720 Clouds 5 1018 68 10000 4.63 50 04:23 19.03.2022
4721 Clouds 5 1019 72 10000 3.6 60 02:30 19.03.2022
4722 Clouds 7 1019 67 10000 4.63 60 23:46 18.03.2022
4723 Clouds 8 1018 62 10000 5.66 20 22:36 18.03.2022
4724 Clouds 8 1018 67 10000 5.66 40 21:56 18.03.2022
4725 Clouds 8 1017 67 10000 5.66 60 19:57 18.03.2022
4726 Clouds 8 1017 67 10000 5.66 60 19:22 18.03.2022
4727 Clouds 8 1016 67 10000 7.2 30 18:34 18.03.2022
4728 Clouds 8 1016 71 10000 5.14 40 16:52 18.03.2022
4729 Clear 7 1015 75 10000 7.72 40 15:52 18.03.2022
4730 Mist 6 1014 86 4828 4.12 10 14:25 18.03.2022
4731 Mist 3 1013 91 2414 2.06 10 13:18 18.03.2022
4732 Fog 3 1012 90 402 2.06 30 11:28 18.03.2022
4733 Rain 4 1011 88 604 1.03 80 09:41 18.03.2022
4734 Clear 5 1011 84 10000 0 0 08:45 18.03.2022
4735 Clouds 8 1010 81 10000 1.54 180 06:45 18.03.2022
4736 Clouds 9 1011 79 10000 1.54 180 04:38 18.03.2022
4737 Clouds 12 1010 63 10000 4.63 170 00:55 18.03.2022
4738 Clear 14 1009 52 10000 4.12 180 23:52 17.03.2022
4739 Clear 14 1009 52 10000 4.12 180 23:52 17.03.2022
4740 Clear 14 1009 52 10000 4.12 180 23:52 17.03.2022
4741 Clear 14 1009 52 10000 4.12 180 23:52 17.03.2022
4742 Clear 14 1009 52 10000 4.12 180 23:52 17.03.2022
4743 Clear 15 1010 51 10000 5.14 170 22:43 17.03.2022
4744 Clear 15 1010 51 10000 5.14 170 22:18 17.03.2022
4745 Clear 16 1010 52 10000 4.12 180 21:27 17.03.2022
4746 Clear 15 1010 48 10000 3.6 180 20:52 17.03.2022
4747 Clear 15 1010 48 10000 3.6 180 20:18 17.03.2022
4748 Clear 14 1011 52 10000 5.14 190 19:37 17.03.2022
4749 Clear 14 1012 55 10000 6.17 190 18:51 17.03.2022
4750 Clear 12 1013 57 10000 6.69 190 17:28 17.03.2022
4751 Clear 10 1013 64 10000 6.69 190 16:19 17.03.2022
4752 Clear 10 1013 64 10000 6.69 190 16:19 17.03.2022
4753 Clouds 9 1014 67 10000 3.09 180 15:42 17.03.2022
4754 Clouds 6 1014 78 10000 3.6 180 14:58 17.03.2022
4755 Clouds 4 1014 81 10000 3.6 180 13:35 17.03.2022
4756 Clouds 3 1014 84 10000 3.6 160 12:44 17.03.2022
4757 Clouds 3 1015 85 10000 1.54 130 11:32 17.03.2022
4758 Clouds 1 1015 87 10000 3.09 140 10:41 17.03.2022
4759 Clouds 2 1016 87 10000 1.54 30 08:46 17.03.2022
4760 Clouds 2 1016 86 10000 1.54 30 08:19 17.03.2022
4761 Clouds 3 1018 80 10000 2.57 140 05:49 17.03.2022
4762 Clouds 3 1018 78 10000 1.54 130 04:24 17.03.2022
4763 Clouds 5 1020 71 10000 3.09 230 00:25 17.03.2022
4764 Clear 6 1019 66 10000 3.6 230 22:52 16.03.2022
4765 Clear 7 1019 66 10000 3.6 230 22:34 16.03.2022
4766 Clear 7 1020 65 10000 4.12 210 21:55 16.03.2022
4767 Clear 7 1020 64 10000 6.69 250 20:40 16.03.2022
4768 Clear 6 1021 68 10000 6.69 250 19:23 16.03.2022
4769 Clouds 6 1021 69 10000 7.72 220 18:42 16.03.2022
4770 Clouds 5 1022 71 10000 7.72 220 17:46 16.03.2022
4771 Clouds 5 1022 71 10000 7.72 230 17:28 16.03.2022
4772 Clouds 4 1022 74 10000 7.2 220 15:56 16.03.2022
4773 Clouds 2 1022 79 10000 6.69 220 14:50 16.03.2022
4774 Clouds 0 1021 84 10000 2.57 190 13:36 16.03.2022
4775 Clouds -1 1021 85 10000 3.09 220 12:43 16.03.2022
4776 Clouds -3 1021 84 10000 2.06 160 11:23 16.03.2022
4777 Clouds -4 1020 84 10000 1.54 150 10:30 16.03.2022
4778 Clear -4 1020 85 10000 1.03 210 09:56 16.03.2022
4779 Clear -4 1021 81 10000 1.03 50 07:43 16.03.2022
4780 Clouds 0 1022 68 10000 2.06 100 02:45 16.03.2022
4781 Clear 2 1023 58 10000 2.57 40 22:55 15.03.2022
4782 Clear 2 1023 56 10000 2.57 40 22:35 15.03.2022
4783 Clear 2 1024 54 10000 3.09 40 20:55 15.03.2022
4784 Clear 1 1025 57 10000 4.12 40 19:37 15.03.2022
4785 Clear 1 1027 61 10000 4.12 40 17:46 15.03.2022
4786 Clear 1 1027 64 10000 5.66 60 16:38 15.03.2022
4787 Clear 1 1027 64 10000 5.66 20 15:38 15.03.2022
4788 Clear 1 1026 71 10000 2.57 30 14:54 15.03.2022
4789 Mist 0 1025 83 9656 1.03 340 13:56 15.03.2022
4790 Mist 0 1025 87 9656 1.03 340 13:22 15.03.2022
4791 Mist 0 1024 92 4023 3.09 260 11:33 15.03.2022
4792 Mist 0 1023 92 8047 3.6 230 10:27 15.03.2022
4793 Mist 1 1023 91 8047 3.6 220 09:20 15.03.2022
4794 Mist 1 1023 91 8047 4.12 240 08:24 15.03.2022
4795 Mist 1 1023 91 9656 4.63 250 07:36 15.03.2022
4796 Rain 2 1022 90 10000 5.66 220 05:56 15.03.2022
4797 Clouds 4 1021 60 10000 7.2 230 00:32 15.03.2022
4798 Clouds 4 1021 58 10000 8.23 240 23:29 14.03.2022
4799 Clouds 4 1021 55 10000 9.77 240 22:50 14.03.2022
4800 Clear 4 1022 53 10000 8.23 240 21:53 14.03.2022
4801 Clear 4 1022 53 10000 9.77 230 20:55 14.03.2022
4802 Clear 4 1022 53 10000 9.77 230 20:24 14.03.2022
4803 Clear 3 1023 54 10000 7.72 240 19:24 14.03.2022
4804 Clouds 2 1024 60 10000 9.26 250 17:58 14.03.2022
4805 Clouds 2 1024 61 10000 9.26 250 17:40 14.03.2022
4806 Clouds 1 1024 63 10000 9.26 260 16:33 14.03.2022
4807 Clouds -1 1023 78 10000 8.23 250 14:48 14.03.2022
4808 Clouds -2 1022 88 10000 5.14 240 13:29 14.03.2022
4809 Clouds -3 1020 88 6437 3.6 190 11:26 14.03.2022
4810 Clouds -4 1019 88 10000 2.57 190 09:57 14.03.2022
4811 Clouds -4 1019 87 10000 2.57 190 09:34 14.03.2022
4812 Snow -4 1019 88 9656 3.09 170 08:58 14.03.2022
4813 Snow -4 1019 87 4828 3.09 170 08:28 14.03.2022
4814 Clouds -4 1019 83 10000 4.63 190 06:47 14.03.2022
4815 Clouds -4 1018 78 10000 6.17 220 02:59 14.03.2022
4816 Clouds -4 1017 73 10000 9.26 240 01:39 14.03.2022
4817 Clouds -5 1016 64 10000 4.63 230 00:29 14.03.2022
4818 Clouds -4 1015 57 10000 9.77 250 21:49 13.03.2022
4819 Clouds -4 1015 57 10000 9.77 250 21:21 13.03.2022
4820 Clouds -4 1015 56 10000 10.29 240 20:46 13.03.2022
4821 Clouds -5 1015 57 10000 10.29 240 20:22 13.03.2022
4822 Clouds -5 1015 56 10000 9.26 230 19:42 13.03.2022
4823 Clouds -5 1015 57 10000 9.26 230 19:22 13.03.2022
4824 Clouds -6 1015 59 10000 10.8 250 18:45 13.03.2022
4825 Clouds -6 1015 59 10000 10.8 250 18:25 13.03.2022
4826 Clear -7 1015 58 10000 8.75 260 17:36 13.03.2022
4827 Clear -8 1014 60 10000 11.32 270 16:45 13.03.2022
4828 Clear -9 1014 60 10000 11.32 270 16:23 13.03.2022
4829 Clear -9 1014 61 10000 9.26 250 15:42 13.03.2022
4830 Clear -10 1013 65 10000 9.26 260 14:37 13.03.2022
4831 Clear -10 1011 66 10000 9.26 270 13:28 13.03.2022
4832 Clear -10 1009 67 10000 8.23 270 12:22 13.03.2022
4833 Clear -9 1007 66 10000 8.75 290 11:39 13.03.2022
4834 Clouds -8 1005 66 10000 8.23 290 10:50 13.03.2022
4835 Clouds -8 1005 67 10000 8.23 290 10:28 13.03.2022
4836 Clear -7 1003 67 10000 9.26 310 09:42 13.03.2022
4837 Clouds -7 1001 68 10000 6.69 300 08:50 13.03.2022
4838 Clouds -6 1001 69 10000 6.69 300 08:29 13.03.2022
4839 Clouds -6 999 72 10000 6.69 300 07:19 13.03.2022
4840 Clouds -6 995 70 10000 7.72 290 04:58 13.03.2022
4841 Clouds -5 994 67 10000 6.69 280 01:47 13.03.2022
4842 Clouds -4 993 74 9656 7.2 280 23:28 12.03.2022
4843 Clouds -3 994 80 4828 7.2 270 21:39 12.03.2022
4844 Snow -3 995 73 8047 7.2 300 20:19 12.03.2022
4845 Snow -2 995 71 10000 7.2 280 19:46 12.03.2022
4846 Snow -2 997 77 10000 6.17 280 18:41 12.03.2022
4847 Snow -2 998 83 4828 5.66 260 17:53 12.03.2022
4848 Snow -2 999 85 8047 5.66 260 16:28 12.03.2022
4849 Snow -2 999 85 8047 5.66 260 16:28 12.03.2022
4850 Snow -1 1000 83 10000 7.2 270 15:50 12.03.2022
4851 Snow -1 1000 85 10000 7.2 270 15:21 12.03.2022
4852 Clouds -1 1001 92 9656 3.6 250 13:53 12.03.2022
4853 Snow -1 1002 93 4023 3.6 250 12:28 12.03.2022
4854 Snow -1 1001 94 3621 4.12 260 11:53 12.03.2022
4855 Snow -1 1001 95 3621 4.12 260 11:33 12.03.2022
4856 Snow 0 1002 95 2012 4.12 240 10:26 12.03.2022
4857 Snow -1 1002 97 2012 2.57 240 09:43 12.03.2022
4858 Snow -1 1003 95 2414 2.06 330 07:58 12.03.2022
4859 Snow 0 1004 93 4828 3.09 340 06:40 12.03.2022
4860 Snow -1 1012 92 2012 3.6 40 00:31 12.03.2022
4861 Snow 0 1012 90 2816 4.63 40 23:43 11.03.2022
4862 Snow 0 1012 90 2816 4.63 40 23:43 11.03.2022
4863 Clouds 0 1013 87 9656 4.63 30 22:32 11.03.2022
4864 Clouds 1 1014 82 9656 3.09 30 21:24 11.03.2022
4865 Clouds 1 1015 76 4828 2.06 40 20:46 11.03.2022
4866 Clouds 1 1015 75 8047 2.06 40 20:26 11.03.2022
4867 Snow 1 1016 66 10000 2.57 50 19:33 11.03.2022
4868 Clouds 1 1018 70 10000 2.06 30 18:30 11.03.2022
4869 Clouds 1 1018 73 10000 3.09 60 17:24 11.03.2022
4870 Clouds 0 1019 73 10000 1.03 0 16:25 11.03.2022
4871 Clouds 0 1020 74 10000 2.57 260 15:36 11.03.2022
4872 Clouds -2 1020 83 10000 2.57 290 13:42 11.03.2022
4873 Clouds -2 1020 79 10000 2.57 290 12:39 11.03.2022
4874 Clouds -2 1020 80 10000 2.57 290 12:19 11.03.2022
4875 Clouds -2 1019 76 10000 1.54 220 10:53 11.03.2022
4876 Clouds -2 1019 73 10000 2.57 240 09:35 11.03.2022
4877 Clouds -2 1019 72 10000 2.57 250 08:28 11.03.2022
4878 Clear -2 1020 70 10000 2.57 220 07:48 11.03.2022
4879 Clouds -2 1019 70 10000 3.6 180 06:44 11.03.2022
4880 Clear -2 1019 65 10000 2.57 190 04:40 11.03.2022
4881 Clear -1 1019 58 10000 2.06 300 01:48 11.03.2022
4882 Clear 2 1019 44 10000 8.75 240 22:33 10.03.2022
4883 Clear 2 1019 44 10000 10.8 240 21:54 10.03.2022
4884 Clear 2 1019 46 10000 10.8 240 21:25 10.03.2022
4885 Clear 2 1019 45 10000 10.8 230 20:36 10.03.2022
4886 Clear 2 1019 50 10000 8.75 250 19:22 10.03.2022
4887 Clear 2 1020 53 10000 9.77 250 17:55 10.03.2022
4888 Clear 1 1020 56 10000 8.23 230 16:53 10.03.2022
4889 Clear 1 1019 59 10000 7.72 270 15:29 10.03.2022
4890 Clear 0 1017 79 10000 5.14 250 13:51 10.03.2022
4891 Clear -1 1016 83 10000 5.14 250 12:43 10.03.2022
4892 Clear -1 1016 83 10000 5.66 250 11:29 10.03.2022
4893 Clear 0 1014 81 10000 7.72 240 09:43 10.03.2022
4894 Clouds 0 1014 81 10000 6.69 240 08:39 10.03.2022
4895 Clouds 1 1014 80 10000 7.72 220 05:33 10.03.2022
4896 Clouds 2 1012 69 10000 4.12 160 02:39 10.03.2022
4897 Clouds 2 1012 54 10000 4.63 190 23:37 09.03.2022
4898 Clear 3 1012 51 10000 4.63 190 22:32 09.03.2022
4899 Clear 3 1013 51 10000 5.66 200 21:47 09.03.2022
4900 Clear 3 1014 49 10000 6.69 190 20:50 09.03.2022
4901 Clear 2 1016 56 10000 6.69 180 18:58 09.03.2022
4902 Clouds 1 1017 61 10000 7.2 160 17:28 09.03.2022
4903 Clear 1 1018 63 10000 4.12 140 16:48 09.03.2022
4904 Clouds 0 1018 70 10000 3.09 160 15:41 09.03.2022
4905 Clouds -2 1019 73 10000 3.09 150 14:24 09.03.2022
4906 Clouds -4 1019 76 10000 2.57 150 13:38 09.03.2022
4907 Clouds -4 1020 74 10000 3.6 170 12:25 09.03.2022
4908 Clouds -4 1020 74 10000 3.6 190 11:48 09.03.2022
4909 Clouds -3 1020 70 10000 4.12 200 10:55 09.03.2022
4910 Clouds -3 1020 70 10000 2.57 190 09:28 09.03.2022
4911 Clouds -4 1021 72 10000 4.12 180 08:44 09.03.2022
4912 Clouds -6 1021 74 10000 2.57 150 06:25 09.03.2022
4913 Clear -3 1020 59 10000 6.69 250 00:59 09.03.2022
4914 Clear -2 1020 55 10000 7.2 250 23:48 08.03.2022
4915 Clear -1 1019 59 10000 7.72 260 22:46 08.03.2022
4916 Clouds -1 1019 57 10000 8.75 270 21:47 08.03.2022
4917 Clouds -1 1019 57 10000 8.75 270 21:19 08.03.2022
4918 Clear -1 1018 56 10000 9.77 270 20:21 08.03.2022
4919 Clear -2 1018 58 10000 11.32 260 19:21 08.03.2022
4920 Clear -2 1017 59 10000 10.29 270 18:22 08.03.2022
4921 Snow -3 1016 66 10000 10.8 270 16:42 08.03.2022
4922 Clear -5 1014 66 10000 12.35 290 14:55 08.03.2022
4923 Snow -5 1013 75 10000 8.75 270 13:45 08.03.2022
4924 Clouds -4 1011 79 10000 8.75 290 12:20 08.03.2022
4925 Clouds -4 1010 80 10000 8.23 270 11:42 08.03.2022
4926 Clouds -3 1008 83 10000 7.72 280 10:28 08.03.2022
4927 Clouds -2 1004 84 10000 8.75 280 08:57 08.03.2022
4928 Clouds -1 1002 92 10000 9.26 260 06:30 08.03.2022
4929 Snow 0 994 96 3219 7.2 340 02:37 08.03.2022
4930 Rain 1 999 93 3219 6.17 40 22:43 07.03.2022
4931 Rain 1 1001 91 2816 4.12 50 21:44 07.03.2022
4932 Rain 1 1002 91 3621 4.12 50 21:22 07.03.2022
4933 Rain 1 1003 90 10000 3.09 10 20:33 07.03.2022
4934 Rain 1 1004 89 10000 3.09 10 19:49 07.03.2022
4935 Mist 2 1006 86 9656 1.54 50 18:57 07.03.2022
4936 Snow 2 1006 85 4828 1.54 220 18:29 07.03.2022
4937 Snow 2 1008 83 9656 4.12 190 17:31 07.03.2022
4938 Snow 2 1009 70 10000 2.57 240 16:43 07.03.2022
4939 Clouds 2 1012 75 10000 4.12 270 14:51 07.03.2022
4940 Clouds 2 1012 78 10000 5.14 250 12:34 07.03.2022
4941 Clouds 3 1012 75 10000 6.17 250 11:34 07.03.2022
4942 Clouds 3 1011 73 10000 8.23 250 10:31 07.03.2022
4943 Clouds 4 1010 73 10000 10.8 250 08:34 07.03.2022
4944 Clouds 8 1002 69 10000 13.38 260 02:50 07.03.2022
4945 Clouds 7 1000 75 10000 10.29 240 00:20 07.03.2022
4946 Clouds 9 999 78 10000 11.32 230 23:26 06.03.2022
4947 Clouds 9 998 73 10000 10.29 230 22:29 06.03.2022
4948 Clouds 7 998 82 10000 5.66 180 21:44 06.03.2022
4949 Mist 5 999 86 10000 6.69 190 20:29 06.03.2022
4950 Mist 4 1000 87 10000 4.63 180 19:43 06.03.2022
4951 Mist 3 1002 91 10000 4.12 190 18:50 06.03.2022
4952 Mist 2 1003 93 9656 4.12 200 17:49 06.03.2022
4953 Mist 1 1004 93 10000 3.6 20 17:20 06.03.2022
4954 Rain 1 1004 94 4828 5.14 190 16:40 06.03.2022
4955 Mist 1 1006 92 8047 5.66 180 15:31 06.03.2022
4956 Rain 1 1007 90 8047 6.69 180 14:48 06.03.2022
4957 Rain 0 1007 88 10000 5.14 170 14:26 06.03.2022
4958 Clouds 0 1010 85 10000 1.54 160 12:40 06.03.2022
4959 Clouds -1 1012 86 10000 6.69 40 11:46 06.03.2022
4960 Clouds -1 1013 88 10000 5.66 60 10:43 06.03.2022
4961 Snow -2 1016 87 10000 5.14 50 09:24 06.03.2022
4962 Clouds -2 1017 88 10000 6.17 40 08:28 06.03.2022
4963 Clouds -2 1019 87 10000 7.2 40 07:33 06.03.2022
4964 Clouds -2 1025 61 10000 4.12 70 03:18 06.03.2022
4965 Clouds -1 1028 59 10000 2.06 80 00:41 06.03.2022
4966 Clouds -1 1028 59 10000 2.06 80 00:22 06.03.2022
4967 Clouds -1 1028 57 10000 4.12 140 23:19 05.03.2022
4968 Clear 0 1028 54 10000 3.6 190 22:38 05.03.2022
4969 Clear 0 1029 53 10000 5.14 180 21:31 05.03.2022
4970 Clear 0 1030 54 10000 5.14 210 20:39 05.03.2022
4971 Clear -1 1030 52 10000 4.12 230 19:23 05.03.2022
4972 Clear -1 1031 51 10000 3.6 230 18:50 05.03.2022
4973 Clear -3 1032 56 10000 4.12 210 17:39 05.03.2022
4974 Clear -5 1033 71 10000 2.06 220 16:20 05.03.2022
4975 Mist -7 1032 78 9656 3.09 230 15:30 05.03.2022
4976 Mist -8 1032 80 6437 2.06 230 14:37 05.03.2022
4977 Mist -12 1032 86 8047 2.06 240 13:46 05.03.2022
4978 Mist -15 1031 86 8047 1.54 190 12:46 05.03.2022
4979 Mist -15 1030 88 9656 1.03 0 11:39 05.03.2022
4980 Mist -14 1030 88 6437 0 0 11:18 05.03.2022
4981 Mist -14 1029 90 8047 0 0 09:40 05.03.2022
4982 Mist -12 1029 86 8047 1.54 20 08:46 05.03.2022
4983 Clouds -10 1028 84 10000 1.03 170 07:23 05.03.2022
4984 Clear -7 1028 81 10000 3.09 230 05:41 05.03.2022
4985 Clouds -5 1028 64 10000 3.6 250 01:24 05.03.2022
4986 Clear -4 1027 60 10000 6.69 250 23:30 04.03.2022
4987 Clouds -4 1027 59 10000 9.26 230 22:40 04.03.2022
4988 Clouds -4 1027 56 10000 8.23 260 21:45 04.03.2022
4989 Clouds -4 1027 55 10000 10.29 250 20:49 04.03.2022
4990 Clouds -4 1027 57 10000 10.29 250 20:18 04.03.2022
4991 Clouds -5 1028 59 10000 8.75 240 19:35 04.03.2022
4992 Snow -6 1028 61 9656 9.77 250 18:36 04.03.2022
4993 Clear -8 1028 62 9656 10.29 230 17:30 04.03.2022
4994 Clear -9 1029 57 4023 12.35 250 16:36 04.03.2022
4995 Clear -12 1030 56 10000 10.29 240 15:27 04.03.2022
4996 Clear -12 1030 56 10000 10.29 240 15:27 04.03.2022
4997 Clouds -16 1030 68 10000 3.6 180 13:53 04.03.2022
4998 Clouds -18 1030 74 10000 4.12 190 12:54 04.03.2022
4999 Clear -19 1030 77 10000 4.12 210 11:38 04.03.2022
5000 Clear -19 1030 74 10000 3.6 190 10:42 04.03.2022
5001 Clear -18 1030 71 10000 3.6 210 09:28 04.03.2022
5002 Clear -18 1030 69 10000 3.6 230 08:31 04.03.2022
5003 Clear -18 1030 66 10000 2.57 230 06:59 04.03.2022
5004 Clear -14 1029 58 10000 3.09 280 03:28 04.03.2022
5005 Clear -11 1026 54 10000 6.69 310 00:22 04.03.2022
5006 Clouds -9 1023 50 10000 8.23 260 22:21 03.03.2022
5007 Clouds -9 1022 50 4023 8.23 280 21:39 03.03.2022
5008 Clouds -8 1022 49 10000 6.69 290 20:59 03.03.2022
5009 Clear -9 1021 50 10000 8.75 290 19:48 03.03.2022
5010 Clouds -9 1021 52 10000 1.54 230 18:51 03.03.2022
5011 Clouds -9 1021 54 10000 7.2 290 18:22 03.03.2022
5012 Clouds -9 1021 54 10000 8.75 300 17:27 03.03.2022
5013 Clear -9 1020 52 10000 4.63 320 15:48 03.03.2022
5014 Clouds -10 1019 60 10000 5.14 340 14:59 03.03.2022
5015 Clouds -10 1019 64 10000 5.14 340 14:33 03.03.2022
5016 Clouds -10 1017 65 10000 7.2 350 13:18 03.03.2022
5017 Clouds -10 1017 65 10000 7.2 350 13:18 03.03.2022
5018 Clouds -10 1017 65 10000 7.2 350 13:18 03.03.2022
5019 Clouds -9 1014 69 10000 8.23 350 11:50 03.03.2022
5020 Clouds -8 1012 85 10000 3.6 310 10:41 03.03.2022
5021 Mist -8 1010 92 8047 2.57 360 08:52 03.03.2022
5022 Clouds -6 1010 89 10000 4.12 360 07:25 03.03.2022
5023 Snow -6 1009 90 8047 3.09 360 06:35 03.03.2022
5024 Clouds -5 1013 80 3621 2.57 170 01:52 03.03.2022
5025 Clouds -4 1014 63 10000 5.66 240 23:29 02.03.2022
5026 Clear -4 1015 61 10000 7.2 230 22:52 02.03.2022
5027 Clear -3 1014 60 10000 6.17 230 21:30 02.03.2022
5028 Clouds -3 1014 64 10000 7.2 240 20:46 02.03.2022
5029 Clouds -4 1014 65 10000 7.2 240 20:24 02.03.2022
5030 Clouds -4 1015 71 10000 6.17 200 19:36 02.03.2022
5031 Clouds -5 1016 74 10000 5.14 230 18:46 02.03.2022
5032 Clouds -5 1016 74 4828 5.14 230 18:18 02.03.2022
5033 Clouds -5 1016 74 10000 6.17 240 17:32 02.03.2022
5034 Clouds -7 1017 75 10000 4.12 260 16:51 02.03.2022
5035 Clouds -10 1017 85 10000 4.12 230 14:49 02.03.2022
5036 Clouds -12 1016 83 10000 4.63 240 13:29 02.03.2022
5037 Clear -12 1016 85 10000 4.12 240 12:44 02.03.2022
5038 Clear -12 1016 85 10000 3.6 230 11:53 02.03.2022
5039 Clear -12 1016 85 10000 3.6 230 11:25 02.03.2022
5040 Clear -12 1015 85 10000 5.14 250 10:25 02.03.2022
5041 Clear -10 1015 86 10000 5.14 250 09:25 02.03.2022
5042 Clouds -9 1014 86 10000 6.17 250 07:52 02.03.2022
5043 Clouds -9 1013 86 10000 4.63 250 06:57 02.03.2022
5044 Snow -9 1012 88 2414 3.6 330 03:46 02.03.2022
5045 Snow -8 1011 86 3219 4.12 360 00:39 02.03.2022
5046 Snow -8 1011 88 4023 5.14 10 22:50 01.03.2022
5047 Snow -8 1011 88 4828 6.17 20 22:31 01.03.2022
5048 Snow -8 1012 88 2414 6.69 30 21:25 01.03.2022
5049 Snow -9 1013 83 1207 8.23 30 20:37 01.03.2022
5050 Snow -8 1013 86 1207 7.72 30 20:19 01.03.2022
5051 Snow -8 1015 85 1207 6.17 30 18:52 01.03.2022
5052 Snow -8 1016 84 1207 6.17 40 18:21 01.03.2022
5053 Snow -8 1016 84 1207 6.17 40 18:21 01.03.2022
5054 Snow -9 1018 75 2816 4.63 30 17:39 01.03.2022
5055 Clouds -10 1018 73 2414 5.14 70 16:36 01.03.2022
5056 Clouds -11 1021 63 10000 4.63 90 15:47 01.03.2022
5057 Clouds -13 1022 63 10000 6.17 80 14:53 01.03.2022
5058 Clouds -13 1022 62 10000 6.17 80 14:31 01.03.2022
5059 Clear -15 1023 69 10000 4.63 80 13:26 01.03.2022
5060 Clear -15 1023 68 10000 4.63 90 12:35 01.03.2022
5061 Clouds -15 1024 68 10000 2.57 110 10:57 01.03.2022
5062 Clouds -15 1025 68 10000 2.57 100 09:43 01.03.2022
5063 Clouds -16 1026 72 10000 3.09 120 08:20 01.03.2022
5064 Clouds -16 1026 70 10000 2.57 170 06:47 01.03.2022
5065 Clear -16 1027 64 10000 2.06 240 03:26 01.03.2022
5066 Clear -13 1027 59 10000 4.63 240 00:48 01.03.2022
5067 Clear -12 1027 56 10000 6.69 250 23:39 28.02.2022
5068 Clear -11 1026 53 10000 6.17 240 22:38 28.02.2022
5069 Clear -11 1027 53 10000 6.69 250 21:47 28.02.2022
5070 Clear -11 1026 51 10000 6.17 240 20:46 28.02.2022
5071 Clear -12 1027 53 10000 6.17 270 19:51 28.02.2022
5072 Clear -13 1028 54 10000 6.17 270 18:56 28.02.2022
5073 Clear -13 1028 54 10000 6.17 250 17:43 28.02.2022
5074 Clear -14 1028 52 10000 6.17 250 17:22 28.02.2022
5075 Clear -15 1028 55 10000 4.63 260 16:25 28.02.2022
5076 Clear -16 1026 59 10000 6.17 290 14:33 28.02.2022
5077 Clear -17 1025 62 10000 4.12 310 13:56 28.02.2022
5078 Clear -18 1025 60 10000 1.03 340 13:24 28.02.2022
5079 Clear -18 1024 65 10000 3.6 310 12:29 28.02.2022
5080 Clear -17 1023 61 10000 3.6 320 11:20 28.02.2022
5081 Clear -16 1022 60 10000 4.12 310 10:23 28.02.2022
5082 Clear -16 1021 56 10000 4.12 310 09:51 28.02.2022
5083 Clear -16 1021 51 10000 4.12 310 09:23 28.02.2022
5084 Clear -15 1021 50 10000 5.14 330 08:22 28.02.2022
5085 Clear -13 1018 59 10000 6.69 340 06:31 28.02.2022
5086 Clouds -10 1016 58 10000 7.72 310 04:31 28.02.2022
5087 Clear -7 1012 50 10000 4.63 280 01:24 28.02.2022
5088 Haze -5 1009 54 9656 9.77 320 22:57 27.02.2022
5089 Haze -5 1008 54 6437 11.32 330 22:32 27.02.2022
5090 Haze -3 1006 58 8047 10.29 300 21:42 27.02.2022
5091 Haze -2 1004 68 4828 10.29 300 20:51 27.02.2022
5092 Clouds -2 1004 75 10000 10.29 300 20:22 27.02.2022
5093 Snow -1 1004 84 4023 11.32 260 19:50 27.02.2022
5094 Clouds -1 1004 78 9656 9.77 240 19:24 27.02.2022
5095 Clouds -1 1004 82 2816 11.83 250 18:37 27.02.2022
5096 Snow -2 1005 84 3219 11.83 240 17:53 27.02.2022
5097 Snow -2 1006 87 1207 9.26 230 16:31 27.02.2022
5098 Snow -3 1007 90 604 8.23 230 15:39 27.02.2022
5099 Clouds -4 1009 74 10000 9.26 230 12:43 27.02.2022
5100 Clouds -4 1009 73 10000 9.26 230 12:25 27.02.2022
5101 Clouds -4 1011 72 10000 9.26 230 10:37 27.02.2022
5102 Clouds -4 1012 72 10000 8.23 230 09:58 27.02.2022
5103 Clouds -4 1012 72 10000 8.23 230 09:24 27.02.2022
5104 Clouds -4 1013 71 10000 9.77 230 08:54 27.02.2022
5105 Clouds -4 1015 79 10000 8.75 230 06:42 27.02.2022
5106 Clouds -5 1017 73 10000 8.75 230 04:26 27.02.2022
5107 Clouds -5 1020 69 10000 7.2 220 00:37 27.02.2022
5108 Clear -5 1022 63 10000 7.72 230 22:51 26.02.2022
5109 Clear -5 1023 61 10000 8.23 240 21:38 26.02.2022
5110 Clear -5 1024 61 10000 8.75 240 20:48 26.02.2022
5111 Clear -6 1026 64 9656 7.72 240 19:59 26.02.2022
5112 Clear -6 1026 65 9656 7.72 240 19:37 26.02.2022
5113 Clear -7 1027 69 6437 2.57 200 18:49 26.02.2022
5114 Clouds -9 1028 76 10000 5.14 230 17:42 26.02.2022
5115 Clear -11 1028 80 10000 5.14 210 16:48 26.02.2022
5116 Clear -13 1029 83 10000 3.6 180 15:48 26.02.2022
5117 Clear -14 1029 85 10000 3.6 180 15:20 26.02.2022
5118 Clear -15 1030 84 10000 3.09 180 14:52 26.02.2022
5119 Clear -16 1030 85 10000 3.09 180 14:33 26.02.2022
5120 Clouds -18 1029 85 2816 4.63 190 13:19 26.02.2022
5121 Clear -19 1029 85 3621 3.09 180 12:20 26.02.2022
5122 Clear -18 1029 87 4828 3.09 200 11:28 26.02.2022
5123 Clear -18 1029 87 9656 3.09 210 10:39 26.02.2022
5124 Clear -17 1029 87 9656 2.06 230 08:48 26.02.2022
5125 Clear -17 1029 89 9656 2.57 220 06:51 26.02.2022
5126 Clouds -13 1026 83 6437 4.63 10 00:50 26.02.2022
5127 Snow -13 1022 85 1207 9.26 20 22:47 25.02.2022
5128 Snow -13 1021 85 604 10.8 10 21:43 25.02.2022
5129 Snow -13 1021 86 604 9.77 10 21:23 25.02.2022
5130 Snow -13 1020 85 604 9.77 30 20:32 25.02.2022
5131 Snow -14 1021 86 604 9.26 30 18:59 25.02.2022
5132 Snow -14 1023 84 805 10.29 40 17:27 25.02.2022
5133 Snow -14 1023 85 402 9.77 30 16:32 25.02.2022
5134 Snow -14 1024 83 1207 11.83 40 15:47 25.02.2022
5135 Snow -13 1024 83 1207 10.8 40 15:21 25.02.2022
5136 Clouds -13 1025 78 2012 10.29 40 14:42 25.02.2022
5137 Clouds -13 1025 78 2012 10.29 40 14:42 25.02.2022
5138 Clouds -13 1027 67 10000 10.29 50 13:36 25.02.2022
5139 Clouds -13 1028 63 10000 7.72 50 12:56 25.02.2022
5140 Clouds -12 1029 64 10000 8.23 40 11:28 25.02.2022
5141 Clouds -12 1030 63 10000 8.23 40 10:40 25.02.2022
5142 Clouds -12 1030 64 10000 8.23 40 10:22 25.02.2022
5143 Clouds -12 1031 68 10000 4.12 20 09:18 25.02.2022
5144 Clouds -12 1033 69 10000 4.12 20 07:42 25.02.2022
5145 Clouds -13 1034 72 10000 2.57 140 05:51 25.02.2022
5146 Clouds -13 1034 70 10000 2.57 130 04:41 25.02.2022
5147 Clear -11 1035 49 10000 1.54 100 00:22 25.02.2022
5148 Clear -9 1036 47 10000 2.57 190 21:59 24.02.2022
5149 Clear -9 1036 48 10000 2.57 190 21:40 24.02.2022
5150 Clear -9 1036 48 10000 2.57 190 21:20 24.02.2022
5151 Clear -10 1036 50 10000 3.6 230 19:53 24.02.2022
5152 Clear -11 1037 49 10000 2.06 340 18:45 24.02.2022
5153 Clear -11 1037 48 10000 2.57 70 18:19 24.02.2022
5154 Clear -12 1037 51 10000 2.57 40 17:42 24.02.2022
5155 Clear -12 1036 55 10000 3.6 20 16:50 24.02.2022
5156 Clear -13 1036 55 10000 3.6 20 16:25 24.02.2022
5157 Clouds -13 1036 61 10000 1.79 6 15:30 24.02.2022
5158 Clouds -15 1036 66 10000 4.12 320 14:37 24.02.2022
5159 Clear -16 1035 75 10000 3.09 270 13:42 24.02.2022
5160 Clear -16 1035 68 10000 3.09 270 13:24 24.02.2022
5161 Clear -15 1033 68 10000 3.09 280 10:43 24.02.2022
5162 Clear -14 1032 67 10000 3.6 270 09:41 24.02.2022
5163 Clear -14 1032 66 10000 3.6 280 08:42 24.02.2022
5164 Clear -13 1031 71 10000 5.14 270 06:25 24.02.2022
5165 Clear -12 1030 71 10000 5.66 280 05:36 24.02.2022
5166 Clouds -10 1024 64 10000 1.54 150 00:30 24.02.2022
5167 Clouds -7 1017 60 10000 17.49 280 21:55 23.02.2022
5168 Snow -5 1015 59 10000 14.92 260 20:32 23.02.2022
5169 Snow -5 1014 61 10000 13.89 270 19:56 23.02.2022
5170 Clouds -4 1012 70 10000 10.8 260 18:59 23.02.2022
5171 Clouds -3 1011 78 10000 13.89 260 17:47 23.02.2022
5172 Clouds 1 1008 83 10000 12.35 260 15:47 23.02.2022
5173 Mist 2 1006 93 9656 8.75 260 13:34 23.02.2022
5174 Clouds 2 1004 95 10000 1.54 110 12:29 23.02.2022
5175 Clouds 3 1004 97 10000 7.2 280 10:55 23.02.2022
5176 Rain 2 1003 97 4828 7.2 260 09:38 23.02.2022
5177 Mist 0 1003 96 1609 4.63 260 08:36 23.02.2022
5178 Mist -1 1003 95 10000 2.06 280 07:25 23.02.2022
5179 Snow -4 1008 93 3621 9.26 30 02:23 23.02.2022
5180 Snow -7 1014 88 8047 8.23 30 23:50 22.02.2022
5181 Snow -7 1015 87 8047 9.77 40 23:31 22.02.2022
5182 Snow -7 1016 81 9656 8.23 30 22:28 22.02.2022
5183 Clouds -7 1018 78 10000 9.77 30 21:44 22.02.2022
5184 Clouds -7 1018 77 10000 9.77 30 21:20 22.02.2022
5185 Clear -7 1019 75 10000 10.29 30 20:32 22.02.2022
5186 Clear -7 1020 75 10000 9.77 30 19:56 22.02.2022
5187 Clear -7 1020 75 10000 9.77 30 19:33 22.02.2022
5188 Clear -7 1022 76 10000 8.75 30 18:35 22.02.2022
5189 Clouds -7 1024 73 10000 9.77 30 17:27 22.02.2022
5190 Clouds -8 1025 76 10000 8.75 40 16:56 22.02.2022
5191 Clouds -8 1025 76 10000 8.75 40 16:21 22.02.2022
5192 Clouds -9 1026 78 10000 10.29 40 15:30 22.02.2022
5193 Clouds -9 1027 79 10000 10.8 50 14:28 22.02.2022
5194 Clouds -9 1029 77 10000 8.23 30 11:39 22.02.2022
5195 Clouds -9 1029 76 10000 10.29 40 09:45 22.02.2022
5196 Clouds -9 1031 72 10000 9.26 30 07:30 22.02.2022
5197 Clouds -9 1032 69 10000 9.77 40 06:54 22.02.2022
5198 Clouds -6 1032 63 10000 8.75 50 02:50 22.02.2022
5199 Clouds -3 1029 67 10000 6.69 60 23:18 21.02.2022
5200 Clouds -2 1028 71 10000 6.69 40 22:37 21.02.2022
5201 Clouds -1 1028 69 10000 7.2 50 21:21 21.02.2022
5202 Clouds 2 1026 64 10000 3.6 360 18:56 21.02.2022
5203 Clouds 2 1026 60 10000 3.6 360 18:37 21.02.2022
5204 Clouds 2 1024 55 10000 5.14 350 16:30 21.02.2022
5205 Clouds 1 1022 68 10000 0.51 20 14:23 21.02.2022
5206 Clouds 1 1021 77 10000 3.6 340 13:31 21.02.2022
5207 Clouds 2 1019 76 10000 2.57 320 12:46 21.02.2022
5208 Clouds 2 1019 76 10000 2.57 320 12:21 21.02.2022
5209 Clouds 2 1019 76 10000 2.57 320 12:21 21.02.2022
5210 Clouds 3 1016 69 10000 6.17 230 10:29 21.02.2022
5211 Clouds 3 1013 63 10000 8.75 230 07:51 21.02.2022
5212 Clouds -4 1011 69 10000 9.77 170 00:36 21.02.2022
5213 Haze -5 1013 67 9656 9.77 170 22:32 20.02.2022
5214 Clouds -6 1016 67 10000 9.26 170 21:44 20.02.2022
5215 Clouds -6 1016 68 10000 9.26 170 21:25 20.02.2022
5216 Clouds -7 1018 66 10000 10.8 150 20:43 20.02.2022
5217 Haze -7 1020 67 8047 11.32 160 19:51 20.02.2022
5218 Clouds -9 1022 69 10000 7.2 180 18:57 20.02.2022
5219 Clouds -9 1022 69 10000 7.2 180 18:37 20.02.2022
5220 Clouds -10 1024 67 10000 6.69 180 17:56 20.02.2022
5221 Clouds -10 1024 64 10000 5.14 170 17:24 20.02.2022
5222 Clear -13 1027 64 10000 3.6 170 15:28 20.02.2022
5223 Clear -16 1027 78 10000 2.57 190 13:59 20.02.2022
5224 Clear -18 1028 81 10000 2.57 230 12:47 20.02.2022
5225 Clouds -18 1027 75 10000 3.09 230 11:56 20.02.2022
5226 Clear -16 1027 74 10000 2.57 260 10:21 20.02.2022
5227 Clear -15 1027 71 10000 3.09 290 09:46 20.02.2022
5228 Clear -13 1024 69 10000 2.06 100 06:30 20.02.2022
5229 Clouds -8 1012 72 3621 10.8 280 00:33 20.02.2022
5230 Clouds -8 1012 72 3621 10.8 280 00:33 20.02.2022
5231 Clouds -7 1008 73 2816 12.35 280 23:39 19.02.2022
5232 Clouds -5 1006 75 4828 10.8 260 22:24 19.02.2022
5233 Snow -4 1005 83 1207 10.8 240 21:52 19.02.2022
5234 Snow -4 1003 88 3621 10.8 230 20:45 19.02.2022
5235 Snow -4 1002 86 402 10.8 280 19:36 19.02.2022
5236 Snow -3 1001 88 9656 11.32 210 18:41 19.02.2022
5237 Snow -5 1001 87 2816 8.75 180 17:59 19.02.2022
5238 Snow -5 1002 86 6437 8.75 180 17:32 19.02.2022
5239 Snow -7 1002 89 1006 11.32 170 15:59 19.02.2022
5240 Snow -8 1003 89 805 9.26 170 14:56 19.02.2022
5241 Snow -9 1005 89 2414 8.23 140 13:58 19.02.2022
5242 Clouds -11 1007 84 3219 8.23 140 11:58 19.02.2022
5243 Clouds -11 1008 84 10000 6.17 130 11:29 19.02.2022
5244 Clouds -14 1012 81 10000 4.63 120 09:21 19.02.2022
5245 Clouds -17 1017 90 10000 2.57 110 06:51 19.02.2022
5246 Clouds -12 1017 72 10000 7.2 250 00:55 19.02.2022
5247 Clouds -10 1014 75 10000 8.23 270 22:41 18.02.2022
5248 Clouds -9 1013 74 10000 9.26 260 21:27 18.02.2022
5249 Clouds -10 1012 76 9656 8.75 270 20:31 18.02.2022
5250 Clear -9 1011 76 3219 9.26 290 19:51 18.02.2022
5251 Clear -9 1011 76 3219 9.26 290 19:51 18.02.2022
5252 Clouds -9 1010 77 3621 8.23 280 18:39 18.02.2022
5253 Clouds -9 1011 79 10000 8.23 280 18:19 18.02.2022
5254 Clouds -10 1010 85 1609 8.75 280 17:20 18.02.2022
5255 Snow -9 1006 89 2816 7.2 330 14:39 18.02.2022
5256 Snow -9 1003 91 1207 8.23 330 13:47 18.02.2022
5257 Snow -9 1000 92 1207 9.77 330 12:51 18.02.2022
5258 Snow -8 998 93 805 8.75 340 11:57 18.02.2022
5259 Snow -8 996 93 805 6.69 340 10:58 18.02.2022
5260 Snow -7 994 93 1207 9.26 360 09:29 18.02.2022
5261 Snow -4 997 94 9656 9.26 20 06:50 18.02.2022
5262 Snow -3 1000 94 4828 11.32 30 05:36 18.02.2022
5263 Rain 5 1005 93 2012 3.09 180 22:46 17.02.2022
5264 Rain 5 1005 95 805 3.09 170 21:42 17.02.2022
5265 Rain 5 1007 96 4828 4.63 190 20:52 17.02.2022
5266 Rain 5 1007 95 4828 4.63 190 20:33 17.02.2022
5267 Rain 5 1007 96 2816 5.14 190 19:43 17.02.2022
5268 Rain 5 1008 95 10000 8.23 180 18:34 17.02.2022
5269 Mist 5 1009 94 9656 6.69 180 17:47 17.02.2022
5270 Rain 4 1010 94 9656 6.69 180 16:20 17.02.2022
5271 Rain 4 1011 91 8047 6.17 170 14:39 17.02.2022
5272 Rain 4 1011 89 10000 5.66 180 13:47 17.02.2022
5273 Clouds 4 1012 86 10000 5.66 180 11:59 17.02.2022
5274 Clouds 4 1012 85 10000 5.66 180 11:21 17.02.2022
5275 Clouds 4 1013 79 10000 6.69 180 08:37 17.02.2022
5276 Clouds 3 1016 63 10000 14.4 170 00:29 17.02.2022
5277 Clear 3 1018 61 10000 10.8 180 22:39 16.02.2022
5278 Clear 2 1019 59 10000 13.38 180 20:39 16.02.2022
5279 Clear 1 1021 59 10000 10.29 180 19:42 16.02.2022
5280 Clear -1 1022 58 10000 11.83 170 18:36 16.02.2022
5281 Clear -2 1024 59 10000 10.8 170 17:34 16.02.2022
5282 Clouds -6 1028 67 10000 2.68 182 15:26 16.02.2022
5283 Clouds -8 1031 66 10000 5.66 120 14:46 16.02.2022
5284 Clouds -11 1034 70 10000 5.14 120 12:34 16.02.2022
5285 Clouds -12 1036 72 10000 4.12 110 11:52 16.02.2022
5286 Clouds -13 1036 73 10000 4.12 120 10:52 16.02.2022
5287 Clouds -13 1036 73 10000 4.12 120 10:29 16.02.2022
5288 Clear -15 1038 75 10000 3.09 130 06:56 16.02.2022
5289 Clear -14 1039 67 10000 1.03 310 03:46 16.02.2022
5290 Clouds -9 1036 54 10000 5.66 270 23:35 15.02.2022
5291 Clouds -8 1036 56 10000 7.72 260 22:18 15.02.2022
5292 Clear -8 1035 54 10000 7.72 260 21:45 15.02.2022
5293 Clear -8 1035 54 10000 7.72 260 21:26 15.02.2022
5294 Clear -8 1034 55 10000 7.72 270 20:53 15.02.2022
5295 Clear -9 1034 57 10000 6.17 260 19:48 15.02.2022
5296 Clouds -9 1034 62 10000 5.66 260 18:45 15.02.2022
5297 Clouds -10 1034 63 10000 5.66 260 18:19 15.02.2022
5298 Clouds -10 1034 67 10000 5.66 260 17:47 15.02.2022
5299 Clouds -12 1033 72 10000 6.17 260 16:30 15.02.2022
5300 Clouds -14 1032 78 8047 6.69 250 14:47 15.02.2022
5301 Clouds -15 1030 78 10000 4.63 250 13:26 15.02.2022
5302 Clear -16 1029 70 10000 5.66 240 11:54 15.02.2022
5303 Clouds -16 1029 65 10000 5.14 240 10:57 15.02.2022
5304 Clouds -16 1028 62 10000 4.63 230 09:28 15.02.2022
5305 Clear -16 1027 66 10000 4.12 240 06:49 15.02.2022
5306 Clouds -14 1024 58 10000 7.72 240 00:48 15.02.2022
5307 Clear -12 1022 51 10000 7.2 250 22:20 14.02.2022
5308 Clear -12 1021 47 10000 8.23 260 21:27 14.02.2022
5309 Clear -12 1021 49 10000 5.14 260 20:24 14.02.2022
5310 Clear -13 1021 51 10000 5.66 290 19:30 14.02.2022
5311 Clouds -13 1021 55 10000 3.09 310 18:27 14.02.2022
5312 Clouds -13 1022 59 10000 3.09 250 17:58 14.02.2022
5313 Clouds -14 1022 59 10000 3.09 250 17:24 14.02.2022
5314 Clouds -15 1021 67 10000 3.09 330 15:59 14.02.2022
5315 Clouds -17 1021 74 9656 3.6 330 13:44 14.02.2022
5316 Clouds -17 1021 73 8047 3.6 330 13:23 14.02.2022
5317 Clouds -17 1020 72 10000 3.6 340 12:32 14.02.2022
5318 Clouds -17 1021 70 10000 3.09 330 11:54 14.02.2022
5319 Clouds -17 1021 70 10000 3.09 330 10:37 14.02.2022
5320 Clouds -17 1021 69 10000 5.14 20 08:43 14.02.2022
5321 Clouds -16 1022 69 10000 6.17 10 07:30 14.02.2022
5322 Clear -15 1024 62 10000 4.63 60 23:45 13.02.2022
5323 Clear -14 1025 60 10000 4.12 10 22:42 13.02.2022
5324 Clear -14 1025 59 10000 4.12 10 22:23 13.02.2022
5325 Clear -14 1026 56 10000 4.12 40 21:30 13.02.2022
5326 Clear -15 1026 58 10000 2.57 10 20:33 13.02.2022
5327 Clear -15 1027 59 10000 2.57 50 19:29 13.02.2022
5328 Clear -16 1028 59 10000 3.09 30 18:46 13.02.2022
5329 Clear -16 1028 60 10000 3.09 30 18:26 13.02.2022
5330 Clear -19 1029 64 10000 5.14 30 15:54 13.02.2022
5331 Clear -19 1029 65 10000 5.14 30 15:24 13.02.2022
5332 Clear -20 1029 65 10000 6.69 20 14:22 13.02.2022
5333 Clouds -20 1028 68 10000 7.2 30 12:51 13.02.2022
5334 Clouds -19 1028 68 10000 5.14 10 11:44 13.02.2022
5335 Clouds -18 1027 67 10000 7.2 10 10:33 13.02.2022
5336 Clouds -17 1027 65 10000 7.72 40 09:45 13.02.2022
5337 Clouds -16 1026 65 10000 5.66 10 07:49 13.02.2022
5338 Clouds -9 1020 69 10000 8.75 290 00:35 13.02.2022
5339 Clouds -8 1018 71 10000 8.23 270 23:42 12.02.2022
5340 Clouds -6 1016 74 10000 10.29 270 22:33 12.02.2022
5341 Clouds -4 1013 77 10000 10.29 250 21:30 12.02.2022
5342 Clouds -3 1010 80 10000 10.8 260 20:45 12.02.2022
5343 Clouds 1 1008 78 10000 9.77 260 19:35 12.02.2022
5344 Clouds 3 1006 79 10000 13.38 230 18:53 12.02.2022
5345 Clouds 4 1006 77 10000 13.38 230 18:35 12.02.2022
5346 Clouds 4 1006 79 10000 11.32 230 17:20 12.02.2022
5347 Clouds 4 1006 86 10000 7.2 220 16:29 12.02.2022
5348 Clouds 3 1006 89 10000 8.75 230 15:51 12.02.2022
5349 Clouds 3 1006 91 10000 7.72 220 14:44 12.02.2022
5350 Clouds 3 1006 91 10000 7.72 220 14:24 12.02.2022
5351 Clouds 3 1005 93 10000 7.2 230 11:18 12.02.2022
5352 Clouds 3 1005 94 10000 4.63 220 10:23 12.02.2022
5353 Rain 3 1004 93 10000 5.14 220 09:32 12.02.2022
5354 Rain 3 1004 91 10000 6.17 220 08:45 12.02.2022
5355 Clouds 4 1004 86 10000 6.69 250 05:40 12.02.2022
5356 Clouds 4 1004 72 10000 5.14 210 04:36 12.02.2022
5357 Clouds 5 1004 62 10000 7.72 190 02:19 12.02.2022
5358 Clouds 4 1005 66 10000 10.29 190 22:57 11.02.2022
5359 Clouds 4 1005 60 10000 7.72 170 22:20 11.02.2022
5360 Clouds 4 1006 64 10000 7.2 160 20:52 11.02.2022
5361 Clouds 4 1006 61 10000 7.2 160 20:21 11.02.2022
5362 Clear 4 1007 62 10000 7.2 170 19:27 11.02.2022
5363 Clouds 3 1009 60 10000 7.72 160 18:29 11.02.2022
5364 Clouds 3 1010 59 10000 7.72 190 17:26 11.02.2022
5365 Clouds 2 1011 64 10000 5.14 150 16:26 11.02.2022
5366 Clouds 1 1011 69 10000 4.63 150 15:18 11.02.2022
5367 Clouds 0 1011 72 10000 4.12 160 14:37 11.02.2022
5368 Clouds 0 1011 72 10000 4.12 160 14:19 11.02.2022
5369 Clouds 0 1011 80 10000 3.6 200 13:40 11.02.2022
5370 Clouds 0 1011 80 10000 4.63 200 12:45 11.02.2022
5371 Clouds 0 1011 80 10000 4.12 230 10:49 11.02.2022
5372 Clouds 0 1010 80 10000 5.66 240 09:31 11.02.2022
5373 Clouds 1 1010 77 10000 6.17 240 08:31 11.02.2022
5374 Clouds 1 1009 75 10000 2.06 190 07:40 11.02.2022
5375 Clouds 1 1008 74 10000 8.23 230 05:34 11.02.2022
5376 Rain 2 1006 86 10000 8.23 240 02:21 11.02.2022
5377 Clouds 3 1004 85 10000 8.23 230 23:45 10.02.2022
5378 Clouds 3 1003 83 10000 8.75 230 22:25 10.02.2022
5379 Clouds 3 1003 83 10000 7.72 220 21:40 10.02.2022
5380 Clouds 4 1003 81 10000 7.72 230 20:48 10.02.2022
5381 Clouds 4 1003 80 10000 7.72 230 19:49 10.02.2022
5382 Clouds 4 1003 81 10000 7.72 230 19:21 10.02.2022
5383 Clouds 3 1003 89 10000 7.2 220 18:22 10.02.2022
5384 Mist 2 1004 88 4828 6.69 210 17:21 10.02.2022
5385 Rain 3 1004 81 10000 4.63 210 16:39 10.02.2022
5386 Clouds 2 1004 80 10000 6.17 190 15:39 10.02.2022
5387 Clouds 2 1004 80 10000 6.17 190 15:20 10.02.2022
5388 Clouds 2 1004 82 10000 5.66 180 14:34 10.02.2022
5389 Clouds 1 1005 80 10000 7.72 180 13:40 10.02.2022
5390 Clouds 1 1005 80 10000 7.72 180 13:19 10.02.2022
5391 Clouds 2 1005 74 10000 6.17 180 11:52 10.02.2022
5392 Clouds 1 1005 74 10000 6.17 180 11:30 10.02.2022
5393 Clouds 2 1005 73 10000 7.72 170 10:23 10.02.2022
5394 Clouds 1 1006 74 10000 7.2 170 09:44 10.02.2022
5395 Clouds 1 1006 74 10000 7.2 170 08:25 10.02.2022
5396 Clouds 0 1008 75 10000 5.14 180 06:33 10.02.2022
5397 Clouds 0 1009 71 10000 2.57 130 02:43 10.02.2022
5398 Clouds 0 1009 69 10000 2.06 360 00:53 10.02.2022
5399 Clouds 0 1009 69 10000 2.06 360 00:30 10.02.2022
5400 Clouds 1 1009 67 10000 2.57 70 23:58 09.02.2022
5401 Clear 1 1009 65 10000 4.63 120 22:54 09.02.2022
5402 Clear 1 1009 64 10000 4.63 120 22:30 09.02.2022
5403 Clear 2 1010 62 10000 6.17 120 21:47 09.02.2022
5404 Clear 1 1010 62 10000 6.17 120 21:27 09.02.2022
5405 Clear 1 1010 61 10000 5.14 130 20:43 09.02.2022
5406 Clear 1 1010 62 10000 5.14 130 20:22 09.02.2022
5407 Clear 1 1011 63 10000 7.2 130 19:41 09.02.2022
5408 Clear 0 1013 64 10000 6.69 140 18:38 09.02.2022
5409 Clear 0 1013 64 10000 6.69 140 18:38 09.02.2022
5410 Clear -2 1015 65 10000 3.09 180 16:56 09.02.2022
5411 Clear -3 1015 65 10000 3.09 180 16:20 09.02.2022
5412 Clear -6 1015 78 10000 3.09 190 15:23 09.02.2022
5413 Clear -6 1015 86 10000 6.17 250 12:53 09.02.2022
5414 Clear -7 1014 86 10000 7.2 240 11:29 09.02.2022
5415 Clear -6 1014 85 10000 7.2 240 10:34 09.02.2022
5416 Clouds -5 1013 88 10000 5.66 240 09:50 09.02.2022
5417 Clouds -5 1013 89 10000 5.66 240 09:22 09.02.2022
5418 Clouds -4 1013 83 10000 4.12 250 08:45 09.02.2022
5419 Clouds -3 1012 87 10000 5.66 250 05:57 09.02.2022
5420 Clouds -3 1012 86 10000 5.14 250 04:30 09.02.2022
5421 Clouds -3 1012 85 10000 4.63 260 03:48 09.02.2022
5422 Mist -2 1012 82 9656 5.14 240 23:45 08.02.2022
5423 Mist -2 1012 82 9656 5.14 240 23:19 08.02.2022
5424 Mist -2 1012 82 9656 5.14 240 23:19 08.02.2022
5425 Clouds -2 1011 82 10000 4.12 240 22:38 08.02.2022
5426 Clouds -1 1011 82 10000 4.63 210 22:19 08.02.2022
5427 Clouds -1 1011 83 10000 2.06 280 21:22 08.02.2022
5428 Mist -1 1012 81 9656 3.09 310 20:58 08.02.2022
5429 Mist -2 1012 82 9656 3.09 310 20:34 08.02.2022
5430 Haze -2 1012 83 8047 3.09 300 19:27 08.02.2022
5431 Clouds -2 1013 84 10000 4.63 360 18:19 08.02.2022
5432 Clouds -4 1014 89 10000 4.12 360 16:56 08.02.2022
5433 Clouds -5 1014 87 10000 4.63 10 15:46 08.02.2022
5434 Clouds -6 1015 88 10000 5.14 20 14:58 08.02.2022
5435 Clear -8 1015 88 10000 3.6 10 13:48 08.02.2022
5436 Clear -8 1015 88 10000 5.66 10 12:24 08.02.2022
5437 Mist -8 1016 87 9656 5.14 20 10:49 08.02.2022
5438 Clear -8 1017 86 10000 6.17 20 09:48 08.02.2022
5439 Mist -8 1017 86 9656 6.17 20 08:39 08.02.2022
5440 Clear -7 1018 86 10000 5.66 20 06:38 08.02.2022
5441 Clouds -5 1020 79 10000 4.63 20 04:40 08.02.2022
5442 Clouds -5 1020 79 10000 4.63 20 04:22 08.02.2022
5443 Clouds -4 1020 76 10000 4.63 20 03:36 08.02.2022
5444 Clouds -4 1020 78 10000 4.63 20 03:18 08.02.2022
5445 Clouds -4 1020 79 10000 5.14 20 02:59 08.02.2022
5446 Clouds -4 1020 78 10000 5.14 20 02:36 08.02.2022
5447 Clouds -4 1020 78 10000 5.14 20 02:18 08.02.2022
5448 Clouds -4 1021 79 10000 4.63 20 01:44 08.02.2022
5449 Clouds -4 1021 79 10000 4.63 20 01:25 08.02.2022
5450 Clouds -4 1021 79 10000 1.54 360 01:25 08.02.2022
5451 Clouds -3 1021 79 10000 5.66 30 00:55 08.02.2022
5452 Clouds -3 1021 79 10000 5.66 30 00:21 08.02.2022
5453 Clouds -3 1021 76 10000 4.12 20 23:44 07.02.2022
5454 Clouds -2 1021 75 10000 4.12 20 23:18 07.02.2022
5455 Clouds -1 1021 72 10000 3.09 10 22:59 07.02.2022
5456 Clouds -1 1021 71 10000 3.09 10 22:19 07.02.2022
5457 Clouds -1 1022 69 10000 3.6 80 21:50 07.02.2022
5458 Clouds -1 1022 69 10000 3.6 80 21:27 07.02.2022
5459 Clouds -1 1022 67 10000 3.6 160 20:45 07.02.2022
5460 Clouds -1 1022 67 10000 3.6 160 20:27 07.02.2022
5461 Clouds -1 1023 66 10000 4.63 170 19:47 07.02.2022
5462 Clouds -1 1024 66 10000 4.12 170 18:37 07.02.2022
5463 Clear -2 1025 68 10000 5.14 170 17:23 07.02.2022
5464 Clear -3 1025 69 10000 4.12 180 16:52 07.02.2022
5465 Clouds -5 1026 75 10000 5.14 190 15:48 07.02.2022
5466 Clouds -8 1026 81 10000 4.63 170 14:19 07.02.2022
5467 Clouds -9 1026 82 10000 4.12 180 13:27 07.02.2022
5468 Clouds -9 1026 83 10000 1.54 200 12:35 07.02.2022
5469 Clear -9 1026 81 10000 2.06 200 11:50 07.02.2022
5470 Clear -9 1026 81 10000 2.06 200 11:24 07.02.2022
5471 Clouds -9 1026 79 10000 2.06 180 10:42 07.02.2022
5472 Clouds -8 1026 75 10000 2.06 180 10:24 07.02.2022
5473 Clouds -8 1026 77 10000 1.54 180 09:52 07.02.2022
5474 Clouds -7 1026 78 10000 1.54 180 09:18 07.02.2022
5475 Clouds -8 1026 78 10000 1.54 180 07:53 07.02.2022
5476 Clouds -8 1027 75 10000 1.54 170 06:34 07.02.2022
5477 Clouds -7 1027 75 10000 0 0 04:49 07.02.2022
5478 Clouds -9 1028 74 10000 2.06 350 02:38 07.02.2022
5479 Clouds -8 1028 64 10000 1.03 180 00:24 07.02.2022
5480 Clouds -7 1028 60 10000 2.06 170 23:20 06.02.2022
5481 Clouds -8 1028 60 10000 2.57 170 22:42 06.02.2022
5482 Clouds -8 1029 57 10000 2.57 160 21:47 06.02.2022
5483 Clouds -8 1029 56 10000 2.57 160 21:21 06.02.2022
5484 Clouds -9 1030 57 10000 2.06 140 20:48 06.02.2022
5485 Clouds -9 1030 58 10000 2.06 140 20:24 06.02.2022
5486 Clouds -10 1031 59 10000 2.06 160 19:22 06.02.2022
5487 Clouds -11 1033 58 10000 2.06 140 18:33 06.02.2022
5488 Clouds -12 1034 61 10000 2.06 130 17:39 06.02.2022
5489 Clouds -13 1035 66 10000 2.57 170 16:52 06.02.2022
5490 Clouds -14 1035 68 10000 2.57 170 16:29 06.02.2022
5491 Clouds -15 1036 74 10000 2.06 180 15:47 06.02.2022
5492 Clouds -15 1036 74 10000 2.06 180 15:47 06.02.2022
5493 Clouds -16 1036 73 10000 2.06 180 15:25 06.02.2022
5494 Clouds -19 1036 75 10000 2.06 140 14:23 06.02.2022
5495 Clouds -21 1036 71 10000 2.57 150 13:23 06.02.2022
5496 Clouds -22 1037 77 10000 1.54 140 12:33 06.02.2022
5497 Clouds -22 1036 77 10000 1.54 130 10:43 06.02.2022
5498 Clear -22 1037 74 10000 1.54 160 09:48 06.02.2022
5499 Clouds -21 1036 74 10000 1.54 140 08:41 06.02.2022
5500 Clear -21 1036 75 10000 2.06 180 07:36 06.02.2022
5501 Clear -18 1035 71 10000 1.03 160 05:29 06.02.2022
5502 Clear -16 1033 62 10000 1.54 230 02:26 06.02.2022
5503 Clear -14 1031 54 10000 1.54 240 00:51 06.02.2022
5504 Clouds -15 1031 64 10000 5.14 250 00:24 06.02.2022
5505 Clear -12 1028 54 10000 2.06 240 21:59 05.02.2022
5506 Clear -12 1027 57 10000 1.54 260 20:48 05.02.2022
5507 Clear -12 1027 57 10000 1.54 260 20:23 05.02.2022
5508 Clear -12 1026 59 10000 2.06 250 19:44 05.02.2022
5509 Clear -12 1025 60 10000 1.54 250 18:48 05.02.2022
5510 Clear -12 1025 62 10000 3.09 350 17:37 05.02.2022
5511 Clouds -13 1024 64 10000 3.09 330 16:33 05.02.2022
5512 Haze -14 1023 68 9656 3.09 340 15:31 05.02.2022
5513 Clouds -13 1021 81 4828 0.51 210 13:58 05.02.2022
5514 Clouds -13 1020 84 2816 0.51 230 12:46 05.02.2022
5515 Clouds -12 1020 83 8047 1.03 270 11:47 05.02.2022
5516 Clouds -12 1020 82 10000 1.54 310 10:44 05.02.2022
5517 Clouds -13 1020 80 10000 1.54 320 09:51 05.02.2022
5518 Clouds -13 1020 81 9656 1.54 320 09:23 05.02.2022
5519 Clouds -12 1020 82 8047 2.06 350 07:32 05.02.2022
5520 Clouds -12 1020 82 10000 2.57 360 06:55 05.02.2022
5521 Clouds -12 1022 79 10000 3.09 360 03:22 05.02.2022
5522 Clouds -12 1022 82 4828 2.57 360 01:18 05.02.2022
5523 Clouds -12 1021 82 8047 2.24 21 00:39 05.02.2022
5524 Clouds -12 1021 79 8047 3.09 10 23:33 04.02.2022
5525 Clouds -11 1022 77 10000 3.6 360 22:55 04.02.2022
5526 Clouds -11 1022 75 10000 4.12 10 21:36 04.02.2022
5527 Clouds -11 1022 76 10000 4.12 10 21:18 04.02.2022
5528 Clouds -11 1021 77 4828 3.6 10 20:40 04.02.2022
5529 Haze -11 1023 77 9656 4.12 20 19:29 04.02.2022
5530 Clouds -13 1025 82 4828 4.63 10 16:50 04.02.2022
5531 Clouds -13 1025 84 3219 4.63 10 15:34 04.02.2022
5532 Snow -13 1025 85 2816 3.6 10 14:51 04.02.2022
5533 Snow -13 1026 86 2414 2.24 20 12:43 04.02.2022
5534 Snow -13 1026 87 2414 4.63 10 11:46 04.02.2022
5535 Clouds -12 1026 85 2414 4.63 10 10:59 04.02.2022
5536 Clouds -12 1026 85 2414 4.63 10 10:22 04.02.2022
5537 Snow -12 1028 86 2012 3.6 20 08:33 04.02.2022
5538 Snow -10 1029 85 2816 4.12 10 04:53 04.02.2022
5539 Clouds -9 1031 84 2816 3.6 10 02:38 04.02.2022
5540 Clouds -6 1030 68 10000 3.09 360 00:18 04.02.2022
5541 Clouds -6 1029 66 10000 2.57 10 22:55 03.02.2022
5542 Clouds -6 1029 65 10000 2.57 10 22:22 03.02.2022
5543 Clouds -5 1029 66 10000 2.57 20 21:41 03.02.2022
5544 Clouds -5 1028 67 10000 2.57 10 20:22 03.02.2022
5545 Snow -4 1028 69 10000 3.09 10 19:57 03.02.2022
5546 Clouds -4 1028 71 10000 3.09 10 19:23 03.02.2022
5547 Clouds -4 1028 80 9656 2.57 360 18:26 03.02.2022
5548 Clouds -4 1027 81 9656 3.6 10 17:27 03.02.2022
5549 Snow -2 1026 85 10000 3.6 10 15:44 03.02.2022
5550 Clouds -1 1024 94 4828 4.12 360 14:22 03.02.2022
5551 Snow 1 1021 95 4023 1.03 180 12:37 03.02.2022
5552 Rain 1 1020 94 4828 1.03 180 09:29 03.02.2022
5553 Rain 1 1020 94 4023 1.03 190 08:19 03.02.2022
5554 Clouds 3 1020 77 10000 1.03 190 02:56 03.02.2022
5555 Clouds 3 1021 76 10000 1.54 230 00:29 03.02.2022
5556 Clouds 3 1022 74 10000 1.54 180 22:42 02.02.2022
5557 Clouds 3 1022 73 10000 2.06 180 21:53 02.02.2022
5558 Clouds 3 1022 72 10000 2.06 180 21:29 02.02.2022
5559 Clear 4 1022 67 10000 3.09 190 20:28 02.02.2022
5560 Clear 3 1023 62 10000 1.54 160 19:49 02.02.2022
5561 Clear 3 1023 66 10000 1.54 160 19:20 02.02.2022
5562 Clouds 3 1024 66 10000 1.54 170 18:25 02.02.2022
5563 Clouds 2 1024 71 10000 3.13 180 17:37 02.02.2022
5564 Clouds 2 1025 72 10000 0.89 207 17:18 02.02.2022
5565 Clouds 1 1024 72 10000 2.06 170 16:20 02.02.2022
5566 Clouds 0 1024 73 10000 2.06 190 12:50 02.02.2022
5567 Clouds -1 1024 74 10000 2.06 180 11:51 02.02.2022
5568 Clouds -1 1024 74 10000 2.06 180 11:31 02.02.2022
5569 Clouds -1 1025 73 10000 3.09 180 09:22 02.02.2022
5570 Clear -1 1025 70 10000 3.09 180 06:18 02.02.2022
5571 Clouds -7 1029 66 10000 1.03 10 22:44 01.02.2022
5572 Clear -6 1030 65 10000 1.54 10 21:30 01.02.2022
5573 Clear -7 1031 62 10000 1.54 30 19:56 01.02.2022
5574 Clear -12 1035 71 10000 2.06 360 17:38 01.02.2022
5575 Clear -14 1035 73 10000 2.57 350 16:33 01.02.2022
5576 Clear -17 1035 80 10000 2.57 360 13:28 01.02.2022
5577 Clear -17 1035 82 10000 3.09 350 12:28 01.02.2022
5578 Clear -17 1035 82 10000 3.09 350 12:28 01.02.2022
5579 Clear -17 1034 80 10000 3.09 350 10:44 01.02.2022
5580 Clear -13 1032 81 10000 2.57 360 02:29 01.02.2022
5581 Clouds -10 1029 69 10000 1.03 360 23:40 31.01.2022
5582 Clear -9 1029 71 10000 1.03 150 22:43 31.01.2022
5583 Clear -8 1028 66 10000 1.03 10 21:38 31.01.2022
5584 Clouds -8 1027 66 10000 1.03 10 20:44 31.01.2022
5585 Clouds -7 1027 66 10000 1.03 10 20:24 31.01.2022
5586 Clear -9 1027 68 10000 1.54 350 18:54 31.01.2022
5587 Clear -9 1027 69 10000 1.54 350 18:20 31.01.2022
5588 Clouds -10 1027 72 10000 1.54 330 17:25 31.01.2022
5589 Clear -11 1026 77 10000 2.06 10 16:25 31.01.2022
5590 Clouds -14 1025 84 10000 1.03 340 14:54 31.01.2022
5591 Clear -16 1024 89 10000 0.89 142 13:43 31.01.2022
5592 Clouds -16 1023 86 10000 2.57 260 12:38 31.01.2022
5593 Clouds -15 1022 85 10000 4.12 220 11:34 31.01.2022
5594 Clouds -16 1022 86 10000 2.57 210 10:49 31.01.2022
5595 Clouds -16 1021 81 10000 4.12 230 09:38 31.01.2022
5596 Clouds -15 1020 78 10000 2.57 240 08:57 31.01.2022
5597 Clouds -16 1020 78 10000 5.14 240 08:38 31.01.2022
5598 Clouds -15 1020 78 10000 2.57 240 08:19 31.01.2022
5599 Clouds -14 1019 72 10000 2.06 210 06:18 31.01.2022
5600 Clouds -11 1016 62 10000 2.06 180 00:43 31.01.2022
5601 Clear -11 1014 60 10000 1.54 200 22:34 30.01.2022
5602 Clear -10 1014 59 10000 1.54 210 21:56 30.01.2022
5603 Clear -10 1014 59 10000 1.54 210 21:37 30.01.2022
5604 Clear -10 1014 59 10000 1.54 210 21:18 30.01.2022
5605 Clear -10 1013 59 10000 3.09 200 20:43 30.01.2022
5606 Clear -11 1013 59 10000 3.09 200 20:25 30.01.2022
5607 Clear -11 1013 58 10000 2.06 200 19:23 30.01.2022
5608 Clear -12 1013 57 10000 2.06 240 18:35 30.01.2022
5609 Clear -13 1013 54 10000 2.06 230 17:40 30.01.2022
5610 Clear -13 1013 53 10000 2.06 230 17:19 30.01.2022
5611 Clear -15 1013 56 10000 3.09 260 16:36 30.01.2022
5612 Clear -16 1013 56 10000 3.09 260 16:18 30.01.2022
5613 Clear -17 1012 58 10000 4.12 260 15:45 30.01.2022
5614 Clear -18 1012 58 10000 4.12 260 15:25 30.01.2022
5615 Clear -18 1012 64 10000 4.12 250 14:44 30.01.2022
5616 Clear -19 1010 68 10000 4.12 260 12:46 30.01.2022
5617 Clear -18 1010 64 10000 3.09 260 11:52 30.01.2022
5618 Clear -18 1009 61 10000 1.03 280 10:27 30.01.2022
5619 Clear -18 1008 61 10000 2.06 300 09:48 30.01.2022
5620 Clear -17 1008 59 10000 2.06 300 08:48 30.01.2022
5621 Clear -16 1010 60 10000 2.57 350 05:30 30.01.2022
5622 Clear -15 1011 61 10000 2.57 310 01:55 30.01.2022
5623 Clouds -14 1012 58 10000 2.57 260 00:19 30.01.2022
5624 Clear -13 1013 50 10000 2.57 10 22:58 29.01.2022
5625 Clear -13 1014 51 10000 4.12 360 21:46 29.01.2022
5626 Clear -13 1014 52 10000 4.12 360 21:22 29.01.2022
5627 Clear -14 1016 58 10000 4.63 360 20:22 29.01.2022
5628 Clear -15 1017 61 10000 5.14 10 19:33 29.01.2022
5629 Haze -15 1019 65 9656 4.63 10 18:51 29.01.2022
5630 Haze -16 1019 68 9656 4.63 10 18:18 29.01.2022
5631 Haze -17 1021 69 4828 4.12 10 17:27 29.01.2022
5632 Clear -18 1022 74 10000 5.14 10 15:44 29.01.2022
5633 Clouds -19 1024 74 10000 4.12 10 13:58 29.01.2022
5634 Clouds -19 1024 76 10000 4.12 10 13:38 29.01.2022
5635 Clouds -19 1024 77 10000 4.12 10 13:20 29.01.2022
5636 Clouds -21 1025 77 10000 3.6 360 11:40 29.01.2022
5637 Clouds -21 1026 75 10000 2.06 20 10:46 29.01.2022
5638 Clouds -23 1027 69 10000 3.09 360 08:42 29.01.2022
5639 Haze -23 1027 70 9656 3.09 40 03:53 29.01.2022
5640 Clear -18 1026 63 10000 1.03 20 00:34 29.01.2022
5641 Clear -15 1026 50 10000 1.54 10 23:43 28.01.2022
5642 Clear -14 1025 47 10000 2.06 340 22:48 28.01.2022
5643 Clear -14 1025 52 10000 2.06 340 22:20 28.01.2022
5644 Clear -13 1025 52 10000 3.09 360 20:42 28.01.2022
5645 Clear -13 1025 52 10000 3.09 360 20:23 28.01.2022
5646 Clear -13 1025 52 10000 3.09 350 19:28 28.01.2022
5647 Clear -14 1025 55 10000 3.6 360 18:38 28.01.2022
5648 Clear -14 1024 60 10000 5.14 350 16:39 28.01.2022
5649 Clouds -13 1022 71 10000 3.09 360 14:59 28.01.2022
5650 Clouds -9 1020 71 10000 3.6 330 13:34 28.01.2022
5651 Clouds -7 1018 77 10000 2.06 330 12:26 28.01.2022
5652 Clouds -5 1016 91 2816 1.54 170 10:32 28.01.2022
5653 Clouds -5 1016 89 4023 1.54 190 09:48 28.01.2022
5654 Clouds -5 1015 88 3219 1.03 190 07:43 28.01.2022
5655 Clouds -6 1015 85 8047 1.54 200 06:31 28.01.2022
5656 Snow -7 1016 89 4828 1.03 180 03:52 28.01.2022
5657 Clouds -7 1017 87 2414 1.54 190 02:29 28.01.2022
5658 Clouds -7 1018 84 3219 2.06 190 01:57 28.01.2022
5659 Clouds -7 1018 78 8047 2.06 190 01:30 28.01.2022
5660 Clouds -8 1018 66 10000 2.06 190 22:40 27.01.2022
5661 Clear -8 1018 65 10000 2.57 180 21:41 27.01.2022
5662 Clear -8 1018 64 10000 2.57 180 21:21 27.01.2022
5663 Clouds -9 1021 67 10000 1.54 170 19:47 27.01.2022
5664 Clear -11 1022 69 10000 3.09 150 18:23 27.01.2022
5665 Clear -12 1024 69 10000 2.06 170 17:18 27.01.2022
5666 Clouds -18 1027 78 10000 1.54 180 14:24 27.01.2022
5667 Clear -21 1028 79 10000 2.06 170 12:53 27.01.2022
5668 Clear -21 1028 81 10000 2.06 170 12:20 27.01.2022
5669 Clear -24 1029 80 10000 0.89 146 09:51 27.01.2022
5670 Clear -24 1030 77 10000 2.06 130 08:41 27.01.2022
5671 Clear -26 1031 77 10000 1.54 140 07:58 27.01.2022
5672 Clear -23 1033 71 10000 0.51 240 03:34 27.01.2022
5673 Clear -21 1032 64 10000 0.51 290 00:25 27.01.2022
5674 Clear -18 1032 64 10000 1.03 310 22:31 26.01.2022
5675 Clouds -17 1031 62 10000 1.03 350 21:44 26.01.2022
5676 Clouds -17 1031 59 10000 1.03 340 20:57 26.01.2022
5677 Clear -17 1031 58 10000 1.03 340 20:33 26.01.2022
5678 Clear -17 1031 55 10000 1.54 180 19:52 26.01.2022
5679 Clear -18 1031 57 10000 2.06 10 18:52 26.01.2022
5680 Clear -18 1031 57 10000 2.06 10 18:52 26.01.2022
5681 Clear -18 1031 58 10000 2.06 10 18:24 26.01.2022
5682 Clear -19 1032 58 10000 1.54 350 17:39 26.01.2022
5683 Clouds -18 1032 59 10000 1.54 350 17:19 26.01.2022
5684 Clear -19 1032 62 10000 3.09 340 16:25 26.01.2022
5685 Clear -21 1031 66 10000 2.57 350 15:23 26.01.2022
5686 Clear -23 1028 74 10000 3.09 10 12:44 26.01.2022
5687 Clear -21 1026 71 10000 2.57 350 10:56 26.01.2022
5688 Clear -19 1025 69 10000 2.06 320 09:58 26.01.2022
5689 Clear -19 1025 69 10000 2.06 320 09:39 26.01.2022
5690 Clouds -17 1024 64 10000 2.06 300 07:28 26.01.2022
5691 Clear -11 1019 75 10000 2.06 180 00:42 26.01.2022
5692 Clear -11 1018 74 10000 1.54 190 23:43 25.01.2022
5693 Clear -10 1016 74 10000 2.06 200 22:49 25.01.2022
5694 Clear -10 1016 75 10000 2.06 200 22:19 25.01.2022
5695 Clouds -9 1015 74 10000 2.06 200 21:35 25.01.2022
5696 Clouds -9 1014 78 6437 1.54 180 20:46 25.01.2022
5697 Clouds -10 1014 77 8047 1.03 160 19:59 25.01.2022
5698 Clouds -10 1014 76 9656 1.03 160 19:34 25.01.2022
5699 Clouds -11 1013 77 3621 0.51 10 18:20 25.01.2022
5700 Clouds -11 1013 78 4828 1.54 340 17:39 25.01.2022
5701 Mist -13 1013 78 9656 1.54 30 16:35 25.01.2022
5702 Clouds -14 1013 82 8047 2.06 350 15:43 25.01.2022
5703 Clouds -14 1013 82 8047 2.06 350 15:25 25.01.2022
5704 Mist -15 1012 82 9656 2.06 350 14:56 25.01.2022
5705 Clouds -16 1011 84 9656 2.57 350 12:32 25.01.2022
5706 Clouds -15 1010 81 4828 2.57 360 09:58 25.01.2022
5707 Clouds -15 1010 82 2816 3.09 350 08:29 25.01.2022
5708 Clouds -15 1010 82 10000 3.09 350 07:28 25.01.2022
5709 Clouds -15 1012 80 2816 3.09 350 05:55 25.01.2022
5710 Clouds -14 1013 67 10000 1.54 10 00:58 25.01.2022
5711 Clouds -13 1013 66 10000 1.54 80 23:36 24.01.2022
5712 Clouds -13 1013 66 10000 1.54 80 23:18 24.01.2022
5713 Clouds -13 1013 63 10000 1.03 10 22:58 24.01.2022
5714 Clouds -13 1013 63 10000 1.03 10 22:40 24.01.2022
5715 Clouds -12 1013 59 10000 1.03 230 21:43 24.01.2022
5716 Clouds -12 1013 59 10000 1.03 230 21:25 24.01.2022
5717 Clouds -13 1013 62 10000 1.03 190 20:28 24.01.2022
5718 Clear -13 1014 63 10000 1.03 140 19:39 24.01.2022
5719 Clear -14 1014 68 10000 2.06 170 18:55 24.01.2022
5720 Clear -15 1016 73 10000 2.06 200 17:44 24.01.2022
5721 Clear -16 1016 74 10000 2.06 200 17:23 24.01.2022
5722 Mist -18 1016 81 6437 0.89 161 16:32 24.01.2022
5723 Mist -19 1015 79 4828 0.51 360 15:52 24.01.2022
5724 Haze -25 1015 78 604 1.03 40 14:27 24.01.2022
5725 Clouds -26 1015 76 10000 1.03 210 12:36 24.01.2022
5726 Clear -26 1014 80 10000 0 0 11:45 24.01.2022
5727 Clear -25 1014 77 10000 0 0 10:24 24.01.2022
5728 Clear -23 1013 77 10000 1.03 290 09:46 24.01.2022
5729 Clear -24 1013 84 10000 1.03 0 08:19 24.01.2022
5730 Clear -15 1011 56 10000 1.54 310 02:33 24.01.2022
5731 Clear -14 1011 56 10000 1.54 330 01:27 24.01.2022
5732 Clear -14 1011 56 10000 1.54 330 01:27 24.01.2022
5733 Clear -13 1010 55 10000 1.03 270 00:34 24.01.2022
5734 Clear -12 1009 56 10000 0.51 260 23:47 23.01.2022
5735 Clouds -10 1008 61 10000 1.79 326 22:21 23.01.2022
5736 Clear -9 1008 56 10000 1.54 280 21:42 23.01.2022
5737 Clear -9 1008 56 10000 1.54 280 21:23 23.01.2022
5738 Snow -8 1008 57 10000 2.57 260 20:28 23.01.2022
5739 Clouds -8 1008 62 10000 2.06 240 19:19 23.01.2022
5740 Snow -8 1008 62 10000 1.54 240 18:41 23.01.2022
5741 Clear -8 1008 66 10000 1.54 240 17:25 23.01.2022
5742 Clouds -8 1008 70 10000 1.54 170 16:27 23.01.2022
5743 Clouds -10 1008 85 10000 1.54 150 14:54 23.01.2022
5744 Clouds -10 1008 85 2414 1.54 150 14:19 23.01.2022
5745 Snow -11 1008 81 4828 2.06 150 12:47 23.01.2022
5746 Clouds -12 1008 83 4828 2.06 150 12:21 23.01.2022
5747 Clouds -12 1008 81 8047 1.03 150 11:51 23.01.2022
5748 Mist -13 1008 78 8047 1.03 150 11:18 23.01.2022
5749 Clouds -13 1008 79 4023 1.54 160 10:26 23.01.2022
5750 Clouds -14 1009 82 8047 1.54 160 09:37 23.01.2022
5751 Clouds -15 1010 80 9656 0.51 360 08:51 23.01.2022
5752 Clouds -17 1013 78 10000 0 0 05:37 23.01.2022
5753 Clouds -18 1017 75 10000 1.03 350 01:46 23.01.2022
5754 Clouds -18 1017 75 10000 1.03 350 01:23 23.01.2022
5755 Clouds -18 1019 74 10000 2.06 360 00:23 23.01.2022
5756 Clouds -18 1021 74 10000 1.54 10 23:34 22.01.2022
5757 Clear -17 1022 74 10000 1.54 10 22:34 22.01.2022
5758 Clear -18 1024 69 10000 1.54 10 21:19 22.01.2022
5759 Clear -17 1027 74 10000 0.51 190 19:49 22.01.2022
5760 Clear -18 1028 72 10000 0.51 130 18:49 22.01.2022
5761 Clouds -19 1030 76 10000 2.06 130 17:59 22.01.2022
5762 Clouds -19 1030 77 10000 2.06 130 17:35 22.01.2022
5763 Clouds -21 1031 79 10000 1.54 90 16:55 22.01.2022
5764 Haze -24 1032 78 9656 1.03 20 15:49 22.01.2022
5765 Haze -25 1033 79 9656 1.54 360 14:57 22.01.2022
5766 Mist -28 1033 82 10000 2.68 44 13:39 22.01.2022
5767 Clear -28 1034 81 10000 1.54 40 12:50 22.01.2022
5768 Clear -29 1034 80 10000 1.54 40 12:28 22.01.2022
5769 Haze -29 1035 76 9656 2.57 50 10:56 22.01.2022
5770 Clear -29 1035 78 10000 1.03 80 10:29 22.01.2022
5771 Haze -28 1036 77 9656 0 0 09:58 22.01.2022
5772 Mist -28 1036 82 9656 2.06 130 08:51 22.01.2022
5773 Mist -27 1037 77 8047 1.54 150 07:34 22.01.2022
5774 Mist -26 1038 78 9656 2.06 140 04:52 22.01.2022
5775 Clear -23 1039 69 10000 0.51 280 01:34 22.01.2022
5776 Clear -20 1040 61 10000 1.03 230 23:38 21.01.2022
5777 Clear -20 1040 61 10000 1.03 230 23:38 21.01.2022
5778 Clear -18 1040 67 10000 2.06 200 22:28 21.01.2022
5779 Clear -18 1040 65 10000 1.54 210 20:22 21.01.2022
5780 Clear -18 1040 69 10000 0.51 340 18:39 21.01.2022
5781 Clear -19 1040 70 10000 1.03 310 17:31 21.01.2022
5782 Clear -23 1040 75 10000 2.06 10 15:42 21.01.2022
5783 Clear -27 1039 80 10000 1.03 350 13:37 21.01.2022
5784 Clear -27 1038 76 10000 2.06 350 12:38 21.01.2022
5785 Clear -27 1037 76 10000 2.06 360 11:28 21.01.2022
5786 Clear -26 1036 80 10000 1.54 50 10:19 21.01.2022
5787 Clear -22 1036 72 10000 1.54 330 08:24 21.01.2022
5788 Clear -21 1035 69 10000 2.57 290 06:57 21.01.2022
5789 Clear -16 1029 68 10000 1.03 220 23:40 20.01.2022
5790 Clear -15 1029 68 10000 1.03 220 22:41 20.01.2022
5791 Clear -14 1028 65 10000 1.54 270 21:43 20.01.2022
5792 Clear -14 1028 63 10000 2.06 210 20:53 20.01.2022
5793 Clouds -14 1027 62 10000 1.54 270 19:20 20.01.2022
5794 Clouds -14 1027 62 10000 1.54 270 18:50 20.01.2022
5795 Clear -15 1027 65 10000 1.54 340 17:29 20.01.2022
5796 Clear -15 1025 67 10000 2.57 340 15:44 20.01.2022
5797 Clear -16 1025 66 10000 2.57 340 15:22 20.01.2022
5798 Clear -15 1024 66 10000 1.54 260 13:42 20.01.2022
5799 Clear -14 1022 67 10000 1.54 340 12:35 20.01.2022
5800 Clouds -13 1021 68 10000 2.06 330 11:57 20.01.2022
5801 Clouds -12 1019 66 10000 3.09 340 10:40 20.01.2022
5802 Clouds -9 1017 70 10000 1.03 110 09:40 20.01.2022
5803 Clouds -7 1015 75 10000 1.03 160 08:34 20.01.2022
5804 Clouds -7 1011 90 10000 2.06 200 05:34 20.01.2022
5805 Clouds -8 1005 92 10000 7.23 227 23:35 19.01.2022
5806 Clouds -12 1006 85 10000 2.06 360 22:37 19.01.2022
5807 Clouds -14 1006 85 10000 2.57 10 21:24 19.01.2022
5808 Snow -13 1006 85 10000 4.63 30 20:51 19.01.2022
5809 Clouds -13 1006 85 3219 2.57 360 19:58 19.01.2022
5810 Clouds -11 1007 82 10000 3.09 360 18:43 19.01.2022
5811 Snow -12 1007 81 10000 3.6 360 17:49 19.01.2022
5812 Snow -13 1008 81 2816 3.6 350 16:59 19.01.2022
5813 Snow -15 1011 82 2414 2.06 10 14:42 19.01.2022
5814 Snow -16 1014 76 3621 1.03 120 12:53 19.01.2022
5815 Clouds -16 1016 73 10000 2.06 140 11:43 19.01.2022
5816 Clouds -17 1018 75 10000 2.06 160 10:38 19.01.2022
5817 Clouds -18 1019 77 10000 1.54 140 09:34 19.01.2022
5818 Clear -21 1020 77 10000 2.06 140 07:18 19.01.2022
5819 Clear -21 1021 71 10000 2.06 150 05:19 19.01.2022
5820 Clear -15 1018 63 10000 1.03 260 23:41 18.01.2022
5821 Clear -15 1018 64 10000 1.03 260 23:18 18.01.2022
5822 Clear -13 1016 60 10000 1.54 300 21:20 18.01.2022
5823 Clear -13 1013 59 10000 1.54 230 19:55 18.01.2022
5824 Snow -13 1013 59 10000 1.54 230 19:37 18.01.2022
5825 Clear -13 1013 59 10000 1.54 230 19:18 18.01.2022
5826 Clear -13 1011 62 10000 1.54 270 17:59 18.01.2022
5827 Clear -13 1011 60 10000 1.54 270 17:27 18.01.2022
5828 Clear -13 1008 71 10000 1.54 240 15:50 18.01.2022
5829 Clear -13 1008 64 10000 1.54 240 15:23 18.01.2022
5830 Clouds -12 1005 75 10000 1.03 230 13:32 18.01.2022
5831 Clear -9 999 75 10000 2.06 110 10:49 18.01.2022
5832 Clouds -9 997 77 10000 1.54 230 09:39 18.01.2022
5833 Clouds -7 995 79 9656 1.03 350 08:19 18.01.2022
5834 Snow -7 993 81 10000 1.03 360 07:21 18.01.2022
5835 Snow -4 983 93 2816 2.57 340 00:21 18.01.2022
5836 Clouds -4 982 93 8047 4.12 360 22:31 17.01.2022
5837 Snow -4 982 93 1207 4.12 10 21:36 17.01.2022
5838 Snow -4 983 92 805 4.63 10 20:33 17.01.2022
5839 Snow -6 988 91 402 4.63 10 18:42 17.01.2022
5840 Snow -6 991 92 604 5.66 360 17:55 17.01.2022
5841 Snow -7 993 90 2816 4.63 360 16:53 17.01.2022
5842 Snow -8 995 90 1207 4.12 360 15:31 17.01.2022
5843 Snow -9 998 90 805 4.12 360 14:58 17.01.2022
5844 Snow -10 1001 88 2012 3.09 360 13:42 17.01.2022
5845 Snow -11 1004 86 2816 3.6 360 12:58 17.01.2022
5846 Clouds -13 1006 83 4023 4.12 350 11:51 17.01.2022
5847 Clouds -14 1009 82 4828 3.6 360 10:43 17.01.2022
5848 Clouds -15 1012 80 2816 2.57 360 09:35 17.01.2022
5849 Clouds -16 1014 77 10000 3.09 360 08:18 17.01.2022
5850 Clouds -16 1015 76 10000 2.57 360 07:19 17.01.2022
5851 Clear -17 1021 73 10000 2.06 10 00:57 17.01.2022
5852 Clear -16 1022 70 10000 1.54 20 23:27 16.01.2022
5853 Clear -13 1025 62 10000 1.54 130 20:41 16.01.2022
5854 Clear -14 1026 63 10000 2.57 160 19:44 16.01.2022
5855 Clear -15 1028 63 10000 2.06 150 18:42 16.01.2022
5856 Clear -16 1029 64 10000 2.57 180 17:46 16.01.2022
5857 Clear -17 1030 67 10000 2.06 160 16:50 16.01.2022
5858 Clear -19 1030 70 10000 1.54 190 15:34 16.01.2022
5859 Clear -22 1031 76 10000 2.06 210 14:29 16.01.2022
5860 Clear -23 1031 77 10000 2.06 200 12:51 16.01.2022
5861 Clear -23 1031 75 10000 1.03 200 11:49 16.01.2022
5862 Clear -23 1031 74 10000 1.03 200 10:58 16.01.2022
5863 Clear -23 1031 73 10000 1.03 200 10:26 16.01.2022
5864 Clear -22 1032 70 10000 2.06 190 09:56 16.01.2022
5865 Clear -22 1032 71 10000 2.06 190 09:23 16.01.2022
5866 Clear -22 1033 68 10000 0.51 140 08:52 16.01.2022
5867 Clear -22 1032 68 10000 1.03 210 05:35 16.01.2022
5868 Clear -20 1031 59 10000 1.54 220 23:51 15.01.2022
5869 Clear -19 1031 56 10000 1.54 230 22:37 15.01.2022
5870 Clear -19 1031 54 10000 1.54 210 21:21 15.01.2022
5871 Clear -19 1031 53 10000 2.06 210 20:43 15.01.2022
5872 Clear -19 1031 53 10000 3.09 240 19:52 15.01.2022
5873 Clear -20 1031 54 10000 3.09 240 19:19 15.01.2022
5874 Clear -21 1031 54 10000 1.54 250 17:35 15.01.2022
5875 Clear -21 1033 56 10000 2.68 11 16:38 15.01.2022
5876 Clear -25 1031 67 10000 2.06 310 13:57 15.01.2022
5877 Clear -24 1031 63 10000 2.57 340 12:23 15.01.2022
5878 Clear -24 1030 64 10000 2.57 340 11:18 15.01.2022
5879 Clear -23 1028 62 10000 3.09 350 08:36 15.01.2022
5880 Clear -17 1026 57 10000 5.14 10 00:49 15.01.2022
5881 Clear -13 1025 51 10000 4.63 360 21:56 14.01.2022
5882 Clear -12 1024 53 10000 4.63 10 20:42 14.01.2022
5883 Clear -12 1024 53 10000 4.63 10 20:23 14.01.2022
5884 Clear -11 1023 56 10000 5.14 360 19:40 14.01.2022
5885 Clear -10 1023 60 10000 4.63 360 18:27 14.01.2022
5886 Clouds -9 1022 67 10000 3.09 10 16:50 14.01.2022
5887 Clouds -8 1022 69 10000 3.6 10 15:48 14.01.2022
5888 Clouds -8 1020 74 10000 3.6 10 14:46 14.01.2022
5889 Mist -7 1018 85 9656 2.57 330 13:37 14.01.2022
5890 Haze -7 1017 85 9656 1.34 10 12:29 14.01.2022
5891 Clouds -7 1017 87 8047 1.03 290 11:27 14.01.2022
5892 Mist -7 1015 87 6437 0.51 180 09:50 14.01.2022
5893 Mist -7 1014 89 6437 0.51 290 08:51 14.01.2022
5894 Clouds -7 1014 89 4828 2.06 350 06:57 14.01.2022
5895 Clouds -8 1014 87 4828 2.06 10 01:33 14.01.2022
5896 Clouds -8 1014 84 8047 2.06 360 23:32 13.01.2022
5897 Clouds -8 1014 84 8047 2.57 360 21:40 13.01.2022
5898 Clouds -8 1014 84 9656 2.57 360 21:22 13.01.2022
5899 Clouds -9 1015 85 8047 2.57 360 19:40 13.01.2022
5900 Clouds -9 1015 85 8047 2.57 360 19:22 13.01.2022
5901 Clouds -9 1015 85 8047 2.57 360 19:22 13.01.2022
5902 Clouds -9 1016 84 10000 3.09 360 17:53 13.01.2022
5903 Clouds -9 1017 85 3621 2.57 360 16:21 13.01.2022
5904 Clouds -9 1017 85 3621 2.57 360 16:21 13.01.2022
5905 Clouds -10 1018 86 4828 3.09 10 15:37 13.01.2022
5906 Clouds -10 1018 86 3219 2.57 360 14:47 13.01.2022
5907 Snow -10 1018 84 3621 2.57 360 12:45 13.01.2022
5908 Clouds -10 1018 84 6437 1.54 20 10:25 13.01.2022
5909 Clouds -10 1018 81 10000 1.54 10 09:20 13.01.2022
5910 Clouds -10 1018 81 10000 2.06 20 08:27 13.01.2022
5911 Clouds -10 1018 85 10000 2.06 360 07:24 13.01.2022
5912 Clouds -10 1018 86 8047 1.54 360 06:38 13.01.2022
5913 Clouds -9 1018 87 10000 0.89 41 05:19 13.01.2022
5914 Mist -9 1017 87 8047 0.51 10 02:33 13.01.2022
5915 Snow -9 1015 88 4828 1.54 10 00:56 13.01.2022
5916 Clouds -8 1014 89 2816 1.03 10 23:49 12.01.2022
5917 Clouds -8 1014 89 2816 1.03 10 23:24 12.01.2022
5918 Clouds -8 1012 85 9656 0.51 10 21:58 12.01.2022
5919 Snow -8 1012 83 3219 0.51 10 21:23 12.01.2022
5920 Snow -7 1012 81 4023 1.03 130 20:57 12.01.2022
5921 Clouds -8 1011 79 10000 0.51 350 19:57 12.01.2022
5922 Clouds -7 1011 74 10000 1.54 180 18:43 12.01.2022
5923 Clouds -9 1012 77 10000 1.54 170 17:51 12.01.2022
5924 Clouds -9 1013 81 8047 1.54 170 16:39 12.01.2022
5925 Clouds -10 1013 72 10000 1.54 180 14:49 12.01.2022
5926 Clouds -11 1014 77 10000 2.06 170 13:34 12.01.2022
5927 Clouds -12 1014 82 9656 1.54 160 12:35 12.01.2022
5928 Clouds -14 1020 71 10000 3.09 170 08:50 12.01.2022
5929 Clouds -15 1023 68 10000 1.54 150 07:52 12.01.2022
5930 Clouds -16 1023 68 10000 1.54 150 07:32 12.01.2022
5931 Clear -21 1032 67 10000 1.03 240 01:33 12.01.2022
5932 Clear -21 1034 62 10000 1.54 270 23:25 11.01.2022
5933 Clear -20 1034 59 10000 1.03 160 22:24 11.01.2022
5934 Clear -20 1034 57 10000 1.54 250 21:28 11.01.2022
5935 Clear -20 1034 56 10000 2.06 260 20:35 11.01.2022
5936 Clear -21 1035 56 10000 2.06 250 18:52 11.01.2022
5937 Clouds -21 1036 58 10000 1.54 260 17:46 11.01.2022
5938 Clear -22 1036 59 10000 1.54 310 16:39 11.01.2022
5939 Clear -22 1036 59 10000 1.54 310 16:18 11.01.2022
5940 Clear -24 1035 65 10000 2.06 330 14:44 11.01.2022
5941 Clear -24 1035 66 10000 2.06 330 14:18 11.01.2022
5942 Clear -24 1034 65 10000 1.03 260 13:42 11.01.2022
5943 Clear -24 1034 65 10000 1.03 260 13:24 11.01.2022
5944 Clear -24 1034 64 10000 1.03 280 12:24 11.01.2022
5945 Clear -22 1030 62 10000 2.06 350 10:26 11.01.2022
5946 Clear -21 1027 59 10000 3.6 360 07:38 11.01.2022
5947 Clouds -17 1022 58 10000 3.6 350 03:47 11.01.2022
5948 Clouds -13 1019 52 10000 3.09 350 00:25 11.01.2022
5949 Clear -13 1018 55 10000 1.03 200 23:38 10.01.2022
5950 Clear -12 1017 54 10000 1.03 210 22:20 10.01.2022
5951 Clouds -11 1017 52 10000 1.54 170 21:57 10.01.2022
5952 Clouds -11 1017 52 10000 1.54 170 21:33 10.01.2022
5953 Clouds -11 1016 52 10000 2.57 210 20:58 10.01.2022
5954 Clouds -11 1016 53 10000 2.57 210 20:36 10.01.2022
5955 Clouds -10 1016 54 10000 2.57 210 20:18 10.01.2022
5956 Clouds -10 1017 56 10000 2.57 220 19:37 10.01.2022
5957 Clouds -10 1017 58 10000 2.57 220 19:18 10.01.2022
5958 Clouds -10 1017 61 10000 2.57 220 18:46 10.01.2022
5959 Clouds -11 1018 74 8047 2.06 360 16:48 10.01.2022
5960 Clouds -11 1018 73 10000 2.06 360 16:20 10.01.2022
5961 Clouds -12 1018 67 10000 1.03 280 14:43 10.01.2022
5962 Clouds -12 1018 66 10000 1.54 240 13:22 10.01.2022
5963 Clear -12 1017 62 10000 1.03 70 11:56 10.01.2022
5964 Clear -11 1017 59 10000 1.03 210 10:48 10.01.2022
5965 Clear -10 1016 60 10000 1.03 250 09:33 10.01.2022
5966 Clouds -3 1011 54 10000 1.54 270 05:51 10.01.2022
5967 Clouds 0 1007 66 10000 1.54 180 02:30 10.01.2022
5968 Clouds 1 1006 76 10000 1.54 180 01:20 10.01.2022
5969 Clouds 2 1005 88 10000 2.06 210 00:19 10.01.2022
5970 Snow 1 1004 94 10000 2.06 150 22:44 09.01.2022
5971 Rain 1 1004 95 3621 2.06 150 22:18 09.01.2022
5972 Mist 1 1004 94 4023 2.06 180 21:41 09.01.2022
5973 Mist 0 1004 94 4828 2.06 180 21:22 09.01.2022
5974 Mist 0 1004 94 6437 2.06 170 20:46 09.01.2022
5975 Clouds 0 1005 94 4828 2.06 170 20:28 09.01.2022
5976 Snow -1 1005 93 4023 2.06 190 19:39 09.01.2022
5977 Snow -1 1006 94 9656 2.06 190 19:20 09.01.2022
5978 Snow -1 1006 94 2012 1.54 180 18:38 09.01.2022
5979 Snow -2 1007 93 1609 1.54 180 18:18 09.01.2022
5980 Snow -2 1009 93 1609 2.06 170 17:30 09.01.2022
5981 Snow -3 1010 92 2414 2.06 180 16:49 09.01.2022
5982 Clouds -3 1011 90 2816 2.06 180 15:51 09.01.2022
5983 Clouds -3 1012 88 2816 2.06 180 15:32 09.01.2022
5984 Clouds -4 1013 79 10000 1.54 180 14:39 09.01.2022
5985 Clouds -4 1014 72 10000 1.54 180 13:49 09.01.2022
5986 Clouds -5 1016 74 10000 1.54 190 12:19 09.01.2022
5987 Clouds -6 1018 76 10000 0 0 11:45 09.01.2022
5988 Clouds -6 1021 69 10000 1.03 360 09:55 09.01.2022
5989 Clouds -7 1021 72 10000 1.03 360 09:29 09.01.2022
5990 Clouds -8 1022 72 10000 1.03 330 08:18 09.01.2022
5991 Clouds -13 1033 72 10000 1.54 160 01:43 09.01.2022
5992 Clouds -13 1033 73 10000 0.89 326 01:19 09.01.2022
5993 Clouds -14 1034 71 10000 2.06 160 23:38 08.01.2022
5994 Clear -14 1035 71 10000 1.54 180 22:58 08.01.2022
5995 Clear -13 1035 68 10000 1.54 170 21:32 08.01.2022
5996 Clear -13 1035 65 10000 2.06 190 20:44 08.01.2022
5997 Clear -13 1035 64 10000 2.06 190 20:23 08.01.2022
5998 Clear -13 1036 65 10000 2.06 190 19:55 08.01.2022
5999 Clear -15 1037 64 10000 2.06 220 17:49 08.01.2022
6000 Clear -16 1037 66 10000 3.09 270 16:57 08.01.2022
6001 Clear -17 1035 70 6437 1.54 210 15:47 08.01.2022
6002 Clear -18 1034 73 10000 5.14 290 14:40 08.01.2022
6003 Clear -18 1032 75 10000 3.09 250 12:36 08.01.2022
6004 Clear -17 1029 74 10000 1.54 200 10:59 08.01.2022
6005 Clear -17 1029 75 10000 1.54 200 10:24 08.01.2022
6006 Clear -16 1027 73 10000 1.03 250 09:43 08.01.2022
6007 Clouds -14 1024 77 10000 3.58 285 07:18 08.01.2022
6008 Clouds -10 1017 76 10000 1.34 323 02:33 08.01.2022
6009 Clouds -8 1014 83 10000 1.79 324 00:41 08.01.2022
6010 Clouds -6 1012 89 10000 0.89 179 22:40 07.01.2022
6011 Clouds -5 1010 87 4507 0.89 10 20:56 07.01.2022
6012 Clouds -5 1010 83 1435 1.34 1 19:56 07.01.2022
6013 Clouds -5 1010 83 1435 1.34 1 19:56 07.01.2022
6014 Clouds -5 1010 83 10000 1.34 15 18:54 07.01.2022
6015 Clouds -6 1010 83 10000 1.34 7 18:34 07.01.2022
6016 Clouds -6 1011 84 3489 1.34 24 17:25 07.01.2022
6017 Clouds -7 1012 85 960 1.34 32 16:23 07.01.2022
6018 Clouds -8 1011 87 5684 0.89 33 13:53 07.01.2022
6019 Clouds -8 1011 87 10000 0.89 26 13:21 07.01.2022
6020 Clouds -8 1012 87 10000 0.89 38 12:48 07.01.2022
6021 Clouds -7 1013 88 10000 0.89 34 09:37 07.01.2022
6022 Clouds -6 1014 76 10000 1.82 213 02:55 07.01.2022
6023 Clouds -6 1014 78 10000 1.91 239 01:54 07.01.2022
6024 Clouds -6 1014 77 10000 2.42 235 01:27 07.01.2022
6025 Clouds -6 1014 79 10000 2.42 235 00:57 07.01.2022
6026 Clouds -5 1013 79 10000 3.59 248 22:54 06.01.2022
6027 Clouds -3 1011 77 10000 5.2 257 21:28 06.01.2022
6028 Clouds -2 1009 77 10000 5.25 263 20:21 06.01.2022
6029 Clouds -2 1009 78 10000 5.25 263 19:44 06.01.2022
6030 Clouds -2 1007 79 10000 6.09 260 17:54 06.01.2022
6031 Clouds -2 1007 78 10000 6.09 260 17:34 06.01.2022
6032 Clouds -2 1007 77 8047 6.41 252 16:42 06.01.2022
6033 Clouds -2 1006 77 10000 6.23 245 15:46 06.01.2022
6034 Clouds -2 1005 76 10000 6.24 244 15:25 06.01.2022
6035 Clouds -2 1005 73 10000 2.06 170 14:43 06.01.2022
6036 Clouds -2 1005 73 10000 2.06 170 14:18 06.01.2022
6037 Clouds -1 1003 73 10000 2.57 200 12:50 06.01.2022
6038 Clouds 0 1002 67 10000 3.09 190 11:43 06.01.2022
6039 Clouds 0 1002 68 10000 3.09 190 11:22 06.01.2022
6040 Clouds 1 1000 73 10000 2.57 180 08:51 06.01.2022
6041 Snow -1 1002 80 10000 1.54 180 00:53 06.01.2022
6042 Clouds -1 1003 79 10000 1.03 190 23:37 05.01.2022
6043 Clouds -1 1003 78 10000 1.03 180 22:57 05.01.2022
6044 Clouds -1 1003 78 10000 1.03 180 22:32 05.01.2022
6045 Clouds -1 1004 79 10000 0.93 122 21:48 05.01.2022
6046 Clouds -1 1004 74 10000 1.54 180 20:57 05.01.2022
6047 Clouds 0 1004 72 10000 1.54 180 20:18 05.01.2022
6048 Clear -1 1006 73 10000 2.57 180 18:44 05.01.2022
6049 Clouds -2 1007 72 10000 2.06 170 17:26 05.01.2022
6050 Clouds -2 1008 73 10000 2.06 180 16:50 05.01.2022
6051 Clouds -4 1008 82 10000 1.03 150 15:26 05.01.2022
6052 Clouds -5 1010 83 10000 1.54 190 13:52 05.01.2022
6053 Clouds -5 1010 83 10000 1.54 190 13:22 05.01.2022
6054 Clouds -4 1013 81 10000 2.06 190 10:34 05.01.2022
6055 Clouds -4 1016 82 10000 2.06 170 07:47 05.01.2022
6056 Clouds -4 1016 82 10000 2.06 170 07:47 05.01.2022
6057 Clouds -4 1016 82 10000 2.06 170 07:47 05.01.2022
6058 Clear -4 1018 83 10000 2.57 160 06:25 05.01.2022
6059 Clouds -4 1022 83 10000 1.03 180 00:59 05.01.2022
6060 Clouds -5 1022 83 10000 1.03 180 23:28 04.01.2022
6061 Clouds -5 1022 82 10000 1.54 210 22:55 04.01.2022
6062 Snow -5 1022 81 10000 1.54 200 21:31 04.01.2022
6063 Snow -5 1022 81 10000 1.54 200 21:31 04.01.2022
6064 Snow -6 1022 79 10000 1.54 180 19:20 04.01.2022
6065 Snow -8 1023 78 10000 1.54 200 17:52 04.01.2022
6066 Snow -9 1024 79 10000 2.06 170 16:53 04.01.2022
6067 Snow -9 1024 80 10000 2.06 170 16:25 04.01.2022
6068 Snow -11 1024 79 10000 2.57 190 14:54 04.01.2022
6069 Snow -11 1024 80 10000 2.57 190 14:35 04.01.2022
6070 Clouds -12 1024 78 10000 2.06 180 13:29 04.01.2022
6071 Clouds -14 1026 80 10000 1.54 170 10:52 04.01.2022
6072 Snow -15 1026 79 10000 1.54 180 09:47 04.01.2022
6073 Snow -15 1026 77 10000 2.06 190 08:34 04.01.2022
6074 Clouds -17 1027 82 10000 0.51 280 02:52 04.01.2022
6075 Clear -17 1027 80 10000 1.03 290 00:42 04.01.2022
6076 Clear -16 1027 75 10000 1.03 280 23:41 03.01.2022
6077 Clear -14 1027 71 10000 0.51 310 22:21 03.01.2022
6078 Clear -13 1027 69 10000 1.03 340 21:35 03.01.2022
6079 Clear -13 1027 66 10000 0.51 60 20:28 03.01.2022
6080 Clear -14 1028 65 10000 0.51 60 18:54 03.01.2022
6081 Clear -14 1028 66 10000 0.51 60 18:28 03.01.2022
6082 Clear -14 1029 68 10000 1.03 40 17:18 03.01.2022
6083 Snow -16 1028 70 10000 2.06 350 15:50 03.01.2022
6084 Clear -18 1028 73 10000 2.06 340 14:31 03.01.2022
6085 Clear -18 1027 74 10000 2.57 350 12:49 03.01.2022
6086 Clear -18 1026 73 10000 2.57 350 11:39 03.01.2022
6087 Clear -17 1025 74 10000 3.6 360 10:37 03.01.2022
6088 Clear -16 1024 77 10000 2.06 350 08:48 03.01.2022
6089 Clear -15 1022 78 10000 1.03 290 07:51 03.01.2022
6090 Clouds -9 1016 75 10000 1.03 0 01:55 03.01.2022
6091 Clouds -7 1014 80 10000 0.51 270 23:22 02.01.2022
6092 Clouds -7 1013 82 10000 1.54 330 22:55 02.01.2022
6093 Clouds -7 1012 80 10000 1.54 320 21:52 02.01.2022
6094 Snow -7 1011 81 4828 2.06 360 20:45 02.01.2022
6095 Snow -7 1011 81 3219 2.06 360 20:25 02.01.2022
6096 Snow -8 1011 82 2816 2.06 350 19:31 02.01.2022
6097 Snow -8 1010 84 4828 2.57 360 18:51 02.01.2022
6098 Snow -8 1010 86 2816 2.57 350 17:56 02.01.2022
6099 Snow -9 1011 86 2816 2.57 350 17:38 02.01.2022
6100 Snow -9 1011 86 2816 2.57 350 17:19 02.01.2022
6101 Snow -9 1011 84 2816 3.6 10 16:27 02.01.2022
6102 Snow -8 1009 77 6437 4.12 10 14:38 02.01.2022
6103 Snow -7 1009 83 10000 3.09 10 13:25 02.01.2022
6104 Snow -7 1008 87 4828 4.12 360 12:31 02.01.2022
6105 Snow -7 1008 89 3219 3.09 10 11:36 02.01.2022
6106 Snow -6 1009 89 3219 4.12 360 10:50 02.01.2022
6107 Snow -5 1009 87 3219 3.6 10 09:52 02.01.2022
6108 Snow -2 1008 82 10000 3.6 10 07:29 02.01.2022
6109 Rain 1 1008 96 2414 0.89 26 02:20 02.01.2022
6110 Rain 1 1007 96 1207 1.03 350 23:41 01.01.2022
6111 Mist 1 1007 96 1006 1.03 350 23:22 01.01.2022
6112 Mist 1 1007 96 1609 2.57 20 22:24 01.01.2022
6113 Rain 1 1006 96 1006 2.57 20 21:44 01.01.2022
6114 Rain 1 1006 95 1609 1.54 360 20:56 01.01.2022
6115 Mist 1 1005 95 1207 1.54 360 20:19 01.01.2022
6116 Mist 2 1006 94 1609 1.03 360 19:32 01.01.2022
6117 Rain 1 1006 94 1609 1.03 360 18:29 01.01.2022
6118 Rain 1 1007 94 2012 1.54 360 16:55 01.01.2022
6119 Rain 1 1007 94 2414 1.54 360 16:34 01.01.2022
6120 Mist 1 1007 94 8047 1.54 200 15:33 01.01.2022
6121 Mist 1 1006 96 4828 1.54 160 14:22 01.01.2022
6122 Fog 0 1008 94 604 1.03 180 13:28 01.01.2022
6123 Clouds 0 1009 95 201 0.51 310 11:59 01.01.2022
6124 Snow 0 1010 95 201 0.51 310 11:24 01.01.2022
6125 Fog 0 1010 95 201 0.51 100 10:43 01.01.2022
6126 Fog 0 1011 94 201 1.03 180 09:47 01.01.2022
6127 Fog 0 1011 93 402 1.54 200 08:27 01.01.2022
6128 Fog 0 1011 93 604 1.03 210 07:56 01.01.2022
6129 Mist 0 1011 93 1609 1.03 210 07:37 01.01.2022
6130 Mist 0 1011 93 1609 1.03 210 07:37 01.01.2022
6131 Mist 0 1012 91 2414 1.03 200 06:43 01.01.2022
6132 Mist -1 1013 90 4023 1.03 320 04:39 01.01.2022
6133 Mist -1 1013 89 4023 0.51 310 03:48 01.01.2022
6134 Mist -1 1012 90 4828 1.03 20 23:53 31.12.2021
6135 Mist 0 1012 85 8047 1.03 40 21:56 31.12.2021
6136 Snow 0 1012 84 10000 1.03 40 21:32 31.12.2021
6137 Clouds 0 1013 84 10000 0.51 60 19:43 31.12.2021
6138 Clouds -1 1013 80 10000 1.03 30 18:47 31.12.2021
6139 Clouds -1 1014 83 10000 2.06 360 17:49 31.12.2021
6140 Clouds -1 1014 83 10000 2.06 360 17:24 31.12.2021
6141 Clouds -1 1015 84 10000 1.54 30 16:51 31.12.2021
6142 Clouds -2 1015 85 10000 1.54 30 16:18 31.12.2021
6143 Clouds -2 1015 86 10000 1.54 10 15:42 31.12.2021
6144 Clouds -2 1015 85 10000 1.54 10 15:20 31.12.2021
6145 Clouds -2 1015 87 10000 1.54 360 14:37 31.12.2021
6146 Mist -3 1015 88 10000 1.54 360 13:45 31.12.2021
6147 Mist -3 1015 88 10000 1.54 360 13:45 31.12.2021
6148 Mist -3 1014 88 9656 1.03 360 12:50 31.12.2021
6149 Mist -3 1014 88 9656 1.03 360 12:19 31.12.2021
6150 Mist -3 1014 88 9656 1.03 360 11:41 31.12.2021
6151 Mist -3 1014 88 8047 1.54 360 10:50 31.12.2021
6152 Mist -3 1014 90 8047 1.54 360 10:28 31.12.2021
6153 Mist -3 1014 89 9656 2.57 360 09:34 31.12.2021
6154 Mist -3 1014 87 9656 1.79 17 08:50 31.12.2021
6155 Mist -3 1014 88 9656 2.57 360 07:53 31.12.2021
6156 Snow -3 1015 87 4023 2.57 350 02:36 31.12.2021
6157 Snow -2 1014 81 10000 1.54 360 23:18 30.12.2021
6158 Clouds -2 1014 81 10000 0.51 360 22:31 30.12.2021
6159 Clouds -2 1014 80 10000 1.03 360 21:39 30.12.2021
6160 Clouds -2 1014 79 10000 1.03 360 21:18 30.12.2021
6161 Clouds -2 1014 79 10000 1.03 20 20:39 30.12.2021
6162 Clouds -2 1014 79 10000 1.03 30 19:55 30.12.2021
6163 Clouds -2 1014 79 10000 1.03 30 19:31 30.12.2021
6164 Clouds -3 1015 78 10000 0.51 10 18:26 30.12.2021
6165 Clouds -4 1016 82 10000 0.51 350 16:53 30.12.2021
6166 Clouds -5 1016 83 10000 0.51 20 15:53 30.12.2021
6167 Clouds -5 1015 84 10000 1.54 350 14:55 30.12.2021
6168 Clouds -5 1015 84 10000 1.54 350 14:36 30.12.2021
6169 Clouds -6 1015 84 10000 1.54 360 13:25 30.12.2021
6170 Clouds -6 1015 84 10000 1.54 360 13:25 30.12.2021
6171 Clouds -6 1014 85 10000 1.54 10 11:57 30.12.2021
6172 Snow -6 1014 85 9656 2.06 360 10:40 30.12.2021
6173 Snow -6 1014 84 9656 2.57 350 09:49 30.12.2021
6174 Clouds -6 1015 81 10000 1.54 20 06:59 30.12.2021
6175 Clouds -7 1015 81 10000 1.03 20 05:27 30.12.2021
6176 Clouds -7 1016 81 10000 2.06 350 03:41 30.12.2021
6177 Clouds -6 1016 80 10000 1.54 20 02:28 30.12.2021
6178 Clouds -5 1015 76 10000 1.54 10 23:39 29.12.2021
6179 Clouds -5 1015 75 10000 1.54 30 22:55 29.12.2021
6180 Clouds -4 1015 74 10000 1.54 30 22:18 29.12.2021
6181 Clouds -4 1015 74 10000 2.06 20 20:59 29.12.2021
6182 Clouds -4 1015 74 10000 2.06 20 20:30 29.12.2021
6183 Clouds -4 1015 74 10000 2.06 20 20:30 29.12.2021
6184 Clouds -4 1015 75 10000 2.06 20 19:38 29.12.2021
6185 Clouds -4 1015 75 10000 1.54 30 18:43 29.12.2021
6186 Clouds -4 1015 77 10000 2.06 20 17:52 29.12.2021
6187 Clouds -4 1015 77 10000 2.06 20 17:27 29.12.2021
6188 Clouds -4 1015 78 10000 2.57 20 16:22 29.12.2021
6189 Clouds -4 1015 78 10000 2.06 10 15:26 29.12.2021
6190 Clouds -4 1014 74 10000 2.06 20 13:42 29.12.2021
6191 Clouds -4 1013 72 10000 2.06 30 12:36 29.12.2021
6192 Clouds -4 1012 77 10000 1.54 70 11:26 29.12.2021
6193 Haze -3 1012 74 9656 1.54 20 09:46 29.12.2021
6194 Clouds -3 1012 77 10000 1.03 270 07:51 29.12.2021
6195 Clouds -3 1012 79 10000 2.06 350 06:38 29.12.2021
6196 Clouds -3 1012 81 10000 2.06 360 05:58 29.12.2021
6197 Snow -3 1012 81 10000 2.06 360 05:36 29.12.2021
6198 Clouds -3 1012 80 10000 1.54 360 02:22 29.12.2021
6199 Clouds -3 1012 81 10000 1.03 200 00:19 29.12.2021
6200 Clouds -3 1010 85 10000 1.54 180 23:31 28.12.2021
6201 Clear -4 1008 85 10000 1.54 170 22:42 28.12.2021
6202 Clear -3 1008 84 10000 1.54 170 22:23 28.12.2021
6203 Clouds -3 1008 83 10000 1.54 180 21:36 28.12.2021
6204 Snow -3 1008 82 10000 1.54 180 20:36 28.12.2021
6205 Snow -4 1007 85 2816 1.54 110 19:22 28.12.2021
6206 Snow -5 1007 86 8047 1.03 180 18:37 28.12.2021
6207 Snow -5 1007 86 10000 1.54 210 17:59 28.12.2021
6208 Snow -6 1007 83 10000 1.54 180 16:34 28.12.2021
6209 Snow -7 1007 86 10000 1.03 340 15:49 28.12.2021
6210 Snow -8 1007 86 10000 1.03 340 15:20 28.12.2021
6211 Snow -8 1006 87 10000 1.03 320 14:47 28.12.2021
6212 Snow -8 1006 87 4828 1.03 320 14:21 28.12.2021
6213 Snow -8 1006 86 1609 2.06 350 13:42 28.12.2021
6214 Snow -8 1006 86 1609 2.06 350 13:42 28.12.2021
6215 Snow -8 1006 86 1609 2.06 350 13:24 28.12.2021
6216 Snow -9 1005 88 2012 2.06 350 12:49 28.12.2021
6217 Snow -9 1005 85 4023 1.54 30 11:36 28.12.2021
6218 Clouds -9 1009 80 10000 3.09 360 08:30 28.12.2021
6219 Clouds -10 1010 75 10000 2.06 30 06:41 28.12.2021
6220 Clouds -9 1017 67 10000 1.54 20 23:43 27.12.2021
6221 Clouds -9 1017 67 10000 1.54 20 23:23 27.12.2021
6222 Clouds -8 1018 65 10000 1.54 40 21:42 27.12.2021
6223 Clouds -8 1018 65 10000 1.54 40 21:20 27.12.2021
6224 Clouds -8 1019 66 10000 1.54 60 20:23 27.12.2021
6225 Clouds -8 1020 67 10000 1.54 340 19:41 27.12.2021
6226 Clear -8 1021 67 10000 2.06 360 18:34 27.12.2021
6227 Clouds -9 1021 68 10000 1.03 30 17:48 27.12.2021
6228 Clouds -9 1022 70 10000 1.54 20 16:40 27.12.2021
6229 Clouds -10 1022 72 10000 2.06 10 15:52 27.12.2021
6230 Clear -10 1022 74 10000 2.06 50 14:33 27.12.2021
6231 Clear -10 1022 75 10000 3.09 360 13:39 27.12.2021
6232 Clouds -9 1023 75 10000 2.57 10 12:40 27.12.2021
6233 Clouds -6 1022 76 10000 1.54 320 10:32 27.12.2021
6234 Clouds -6 1022 73 10000 2.06 340 09:47 27.12.2021
6235 Clouds -4 1021 71 10000 2.06 350 07:50 27.12.2021
6236 Clouds -4 1021 73 10000 2.06 350 07:29 27.12.2021
6237 Snow -1 1018 77 10000 1.03 320 02:21 27.12.2021
6238 Snow -1 1016 77 10000 1.03 320 23:58 26.12.2021
6239 Snow -1 1016 77 10000 1.03 320 23:40 26.12.2021
6240 Snow -1 1015 75 10000 2.06 340 22:36 26.12.2021
6241 Clouds 0 1014 74 10000 2.57 340 20:59 26.12.2021
6242 Clouds -1 1013 74 10000 1.03 300 19:49 26.12.2021
6243 Clouds -1 1013 78 10000 0.51 330 18:24 26.12.2021
6244 Clouds -1 1013 81 10000 1.54 340 17:30 26.12.2021
6245 Snow -3 1011 90 3621 1.03 320 14:32 26.12.2021
6246 Snow -3 1010 91 2816 0.51 40 13:43 26.12.2021
6247 Snow -3 1010 91 9656 0.51 40 13:20 26.12.2021
6248 Snow -3 1009 91 8047 0.51 290 12:33 26.12.2021
6249 Snow -3 1008 91 4023 1.03 240 10:43 26.12.2021
6250 Snow -4 1008 89 4023 0.51 170 09:28 26.12.2021
6251 Snow -4 1007 85 10000 0.51 260 08:44 26.12.2021
6252 Snow -4 1006 81 10000 0.51 250 07:59 26.12.2021
6253 Snow -6 1003 87 10000 3.09 360 01:36 26.12.2021
6254 Snow -6 1002 88 10000 3.6 10 23:58 25.12.2021
6255 Snow -6 1002 87 10000 3.6 10 23:28 25.12.2021
6256 Snow -6 1001 87 10000 3.6 360 22:28 25.12.2021
6257 Snow -6 1001 87 8047 3.6 360 21:25 25.12.2021
6258 Snow -6 1001 87 3621 4.12 360 19:28 25.12.2021
6259 Snow -7 1002 85 3219 3.6 360 18:57 25.12.2021
6260 Snow -7 1002 84 4023 3.6 360 18:26 25.12.2021
6261 Snow -7 1003 77 10000 3.09 360 16:49 25.12.2021
6262 Snow -8 1004 80 10000 3.6 350 15:30 25.12.2021
6263 Snow -8 1006 79 8047 4.12 350 13:47 25.12.2021
6264 Snow -8 1006 76 10000 2.57 30 12:19 25.12.2021
6265 Clouds -8 1008 76 10000 2.57 10 10:36 25.12.2021
6266 Clouds -8 1009 75 10000 3.09 10 09:48 25.12.2021
6267 Clouds -9 1012 77 10000 2.06 350 07:27 25.12.2021
6268 Clouds -9 1016 73 10000 1.54 20 01:36 25.12.2021
6269 Clear -9 1017 75 10000 1.54 10 00:19 25.12.2021
6270 Clear -6 1018 64 10000 1.03 180 21:51 24.12.2021
6271 Clear -7 1018 65 10000 1.54 10 19:27 24.12.2021
6272 Clear -7 1020 64 10000 1.03 350 18:55 24.12.2021
6273 Clear -10 1021 71 10000 1.03 30 16:44 24.12.2021
6274 Clear -12 1021 77 10000 1.03 360 15:50 24.12.2021
6275 Clear -12 1021 77 10000 1.03 360 15:50 24.12.2021
6276 Clear -13 1021 77 10000 1.03 360 15:20 24.12.2021
6277 Clear -15 1021 81 10000 2.06 340 14:34 24.12.2021
6278 Clear -15 1021 81 10000 2.06 350 13:57 24.12.2021
6279 Clear -15 1021 82 10000 2.06 350 13:32 24.12.2021
6280 Clear -15 1021 80 10000 2.06 340 12:45 24.12.2021
6281 Clear -14 1021 76 10000 1.54 350 11:45 24.12.2021
6282 Clear -14 1021 76 10000 1.54 350 11:24 24.12.2021
6283 Clear -14 1021 76 10000 0.51 360 10:35 24.12.2021
6284 Clouds -13 1021 77 10000 1.54 190 08:58 24.12.2021
6285 Clouds -13 1021 78 10000 1.54 190 08:19 24.12.2021
6286 Clouds -13 1022 80 10000 1.03 180 07:42 24.12.2021
6287 Clear -13 1023 67 10000 1.03 250 00:47 24.12.2021
6288 Clear -12 1023 66 10000 1.03 240 23:50 23.12.2021
6289 Clear -12 1023 62 10000 1.03 240 22:53 23.12.2021
6290 Clear -12 1023 61 10000 1.03 240 22:25 23.12.2021
6291 Clear -11 1022 58 10000 1.03 290 21:50 23.12.2021
6292 Clear -11 1022 58 10000 1.03 250 20:53 23.12.2021
6293 Clear -11 1022 61 10000 1.54 230 19:31 23.12.2021
6294 Clear -12 1022 62 10000 2.06 260 18:28 23.12.2021
6295 Clear -12 1021 62 10000 1.54 210 17:47 23.12.2021
6296 Snow -13 1022 67 10000 1.03 250 16:40 23.12.2021
6297 Snow -13 1022 67 10000 1.03 250 16:20 23.12.2021
6298 Clear -13 1021 68 10000 1.03 250 15:31 23.12.2021
6299 Clear -14 1020 70 10000 0.51 200 14:42 23.12.2021
6300 Clear -14 1020 70 10000 0.51 200 14:42 23.12.2021
6301 Clear -14 1020 72 10000 0.51 200 14:19 23.12.2021
6302 Clear -13 1018 71 10000 1.54 280 12:39 23.12.2021
6303 Clear -12 1016 68 10000 1.54 350 10:41 23.12.2021
6304 Clear -11 1015 68 10000 1.03 180 09:34 23.12.2021
6305 Clear -10 1014 68 10000 1.54 170 08:59 23.12.2021
6306 Clear -9 1011 69 10000 2.06 230 06:48 23.12.2021
6307 Snow -5 1007 66 10000 1.54 340 03:41 23.12.2021
6308 Snow 0 1001 81 10000 2.06 190 22:57 22.12.2021
6309 Snow 0 1001 82 10000 2.06 190 22:32 22.12.2021
6310 Snow 0 1000 80 10000 1.54 170 21:53 22.12.2021
6311 Clouds 0 1000 80 10000 1.54 170 21:28 22.12.2021
6312 Snow -1 1000 81 10000 1.54 200 20:41 22.12.2021
6313 Snow -1 1000 81 10000 1.54 200 20:20 22.12.2021
6314 Rain 0 999 80 10000 1.03 300 19:19 22.12.2021
6315 Snow 0 999 81 10000 1.03 190 17:39 22.12.2021
6316 Snow -2 1000 83 10000 0.51 360 16:38 22.12.2021
6317 Snow -3 1000 81 9656 0.51 10 15:39 22.12.2021
6318 Clouds -5 1000 81 10000 0.51 110 13:32 22.12.2021
6319 Clouds -6 1001 81 10000 0.45 81 12:31 22.12.2021
6320 Clouds -6 1003 78 10000 1.54 360 09:53 22.12.2021
6321 Clouds -6 1003 77 10000 1.54 360 09:35 22.12.2021
6322 Clouds -6 1006 74 10000 3.09 360 07:25 22.12.2021
6323 Clouds -6 1009 72 10000 2.57 10 05:42 22.12.2021
6324 Clouds -6 1010 72 10000 2.57 10 05:24 22.12.2021
6325 Clouds -6 1011 71 10000 2.57 10 04:47 22.12.2021
6326 Clouds -6 1011 71 10000 2.57 10 04:24 22.12.2021
6327 Clouds -6 1013 68 10000 2.06 40 03:32 22.12.2021
6328 Clouds -5 1016 62 10000 1.54 50 00:33 22.12.2021
6329 Clouds -4 1018 58 10000 0.51 90 22:52 21.12.2021
6330 Clouds -4 1018 56 10000 0.51 90 22:28 21.12.2021
6331 Clear -3 1017 54 10000 1.54 340 21:44 21.12.2021
6332 Clear -3 1018 53 10000 1.03 10 20:55 21.12.2021
6333 Clear -2 1018 52 10000 1.03 10 20:21 21.12.2021
6334 Clear -2 1018 54 10000 1.54 300 19:41 21.12.2021
6335 Clear -3 1018 54 10000 2.06 350 18:46 21.12.2021
6336 Clear -3 1018 54 10000 2.06 350 18:21 21.12.2021
6337 Clouds -2 1019 56 10000 3.6 340 17:41 21.12.2021
6338 Clouds -2 1017 65 10000 2.57 340 15:59 21.12.2021
6339 Snow -2 1017 67 10000 2.57 340 15:24 21.12.2021
6340 Clear 0 1014 74 10000 1.54 230 13:50 21.12.2021
6341 Clear 0 1014 76 10000 1.54 230 13:30 21.12.2021
6342 Snow 1 1012 85 9656 2.57 200 11:49 21.12.2021
6343 Rain 1 1011 85 10000 2.57 180 10:25 21.12.2021
6344 Snow 1 1011 85 10000 2.06 180 09:27 21.12.2021
6345 Snow 1 1011 77 10000 1.03 160 07:59 21.12.2021
6346 Snow 0 1011 76 10000 1.03 160 07:29 21.12.2021
6347 Snow 0 1011 75 10000 1.54 180 06:50 21.12.2021
6348 Clouds -2 1015 77 10000 2.06 180 02:51 21.12.2021
6349 Snow -3 1017 78 10000 1.54 180 23:59 20.12.2021
6350 Snow -3 1017 78 10000 1.54 180 23:32 20.12.2021
6351 Snow -4 1018 77 4023 2.06 180 22:33 20.12.2021
6352 Clouds -4 1019 76 10000 2.57 170 21:48 20.12.2021
6353 Clouds -4 1019 76 10000 2.57 170 21:24 20.12.2021
6354 Clouds -4 1020 72 10000 2.06 170 20:45 20.12.2021
6355 Clouds -5 1021 71 10000 2.57 170 19:54 20.12.2021
6356 Clouds -5 1021 71 10000 2.57 170 19:31 20.12.2021
6357 Clouds -6 1023 71 10000 1.54 170 18:54 20.12.2021
6358 Clouds -7 1025 73 10000 1.54 190 17:55 20.12.2021
6359 Clouds -8 1025 74 10000 1.54 190 17:37 20.12.2021
6360 Clouds -9 1026 78 10000 2.06 180 16:42 20.12.2021
6361 Snow -10 1026 83 10000 2.06 200 15:51 20.12.2021
6362 Clouds -12 1027 87 10000 2.06 200 14:56 20.12.2021
6363 Clouds -13 1027 86 10000 1.54 190 13:18 20.12.2021
6364 Clouds -14 1027 84 10000 1.03 260 11:23 20.12.2021
6365 Clouds -14 1028 84 10000 0.51 300 09:51 20.12.2021
6366 Clouds -14 1028 83 10000 0.51 300 09:31 20.12.2021
6367 Clear -14 1028 82 10000 1.54 300 08:42 20.12.2021
6368 Clear -14 1027 82 10000 1.54 310 07:55 20.12.2021
6369 Clear -13 1027 82 10000 1.54 310 07:30 20.12.2021
6370 Clouds -11 1028 77 10000 2.06 310 04:36 20.12.2021
6371 Snow -8 1026 71 10000 1.54 330 00:18 20.12.2021
6372 Snow -6 1024 70 10000 1.03 250 22:53 19.12.2021
6373 Snow -5 1024 70 10000 1.54 230 21:55 19.12.2021
6374 Clouds -5 1024 70 10000 1.54 230 21:30 19.12.2021
6375 Clouds -4 1023 67 10000 1.54 240 20:34 19.12.2021
6376 Clouds -4 1022 69 10000 2.06 310 19:52 19.12.2021
6377 Clouds -4 1022 69 10000 2.06 310 19:27 19.12.2021
6378 Clouds -5 1022 69 10000 2.06 350 18:30 19.12.2021
6379 Clouds -5 1022 72 10000 2.57 330 17:53 19.12.2021
6380 Snow -5 1022 73 9656 2.57 330 17:20 19.12.2021
6381 Snow -6 1022 75 10000 2.57 320 16:26 19.12.2021
6382 Snow -6 1021 79 10000 1.54 310 15:43 19.12.2021
6383 Snow -6 1021 79 8047 1.54 310 15:21 19.12.2021
6384 Clouds -6 1020 80 10000 1.54 320 14:42 19.12.2021
6385 Clouds -6 1019 83 10000 2.06 320 13:24 19.12.2021
6386 Clouds -6 1018 84 10000 1.54 310 12:46 19.12.2021
6387 Clouds -6 1018 85 10000 1.54 310 12:23 19.12.2021
6388 Snow -6 1017 89 9656 2.57 340 11:21 19.12.2021
6389 Snow -6 1016 89 6437 3.09 360 10:26 19.12.2021
6390 Snow -6 1015 90 4828 3.6 360 09:48 19.12.2021
6391 Snow -6 1014 90 4828 4.12 360 08:43 19.12.2021
6392 Snow -6 1014 89 3219 3.09 360 04:45 19.12.2021
6393 Snow -6 1017 87 2414 3.09 360 01:34 19.12.2021
6394 Snow -6 1018 87 1609 2.06 30 00:53 19.12.2021
6395 Snow -5 1019 79 4023 2.06 40 22:42 18.12.2021
6396 Snow -5 1019 77 4828 2.06 40 22:20 18.12.2021
6397 Snow -5 1020 70 10000 2.06 50 21:41 18.12.2021
6398 Snow -4 1020 68 10000 2.06 50 21:22 18.12.2021
6399 Snow -4 1021 61 10000 1.54 30 20:20 18.12.2021
6400 Clouds -4 1022 60 10000 1.54 70 19:25 18.12.2021
6401 Clouds -4 1023 60 10000 2.06 40 18:22 18.12.2021
6402 Clouds -4 1024 61 10000 2.06 50 17:48 18.12.2021
6403 Clouds -4 1025 62 10000 3.09 40 16:26 18.12.2021
6404 Clouds -4 1025 63 10000 2.06 40 15:28 18.12.2021
6405 Clouds -5 1026 65 10000 2.57 30 14:51 18.12.2021
6406 Clouds -5 1026 65 10000 3.09 10 13:29 18.12.2021
6407 Clouds -5 1026 65 10000 3.09 10 13:29 18.12.2021
6408 Clouds -4 1026 66 10000 2.57 10 11:47 18.12.2021
6409 Clear -3 1025 64 10000 4.12 360 09:52 18.12.2021
6410 Clear -2 1025 63 10000 2.06 340 08:48 18.12.2021
6411 Clear -2 1025 64 10000 2.06 340 08:27 18.12.2021
6412 Clear 0 1023 61 10000 1.03 320 05:56 18.12.2021
6413 Clear 2 1019 57 10000 1.03 90 00:34 18.12.2021
6414 Clouds 2 1018 56 10000 2.57 30 23:46 17.12.2021
6415 Clouds 4 1015 58 10000 1.54 180 21:58 17.12.2021
6416 Clouds 5 1015 58 10000 1.54 180 21:23 17.12.2021
6417 Clouds 5 1014 58 10000 2.06 220 20:42 17.12.2021
6418 Clouds 5 1013 58 10000 2.06 220 19:45 17.12.2021
6419 Clouds 6 1013 59 10000 2.06 210 18:39 17.12.2021
6420 Clouds 6 1012 60 10000 1.54 210 17:40 17.12.2021
6421 Clouds 6 1012 61 10000 1.54 190 16:50 17.12.2021
6422 Clouds 6 1012 62 10000 1.54 190 16:25 17.12.2021
6423 Clouds 6 1011 61 10000 2.06 200 15:25 17.12.2021
6424 Clouds 6 1010 63 10000 2.57 180 14:41 17.12.2021
6425 Clouds 6 1009 66 10000 2.57 180 13:30 17.12.2021
6426 Clouds 6 1008 64 10000 2.57 180 12:21 17.12.2021
6427 Clouds 7 1004 63 10000 2.57 190 10:39 17.12.2021
6428 Clear 7 1003 64 10000 2.57 250 09:44 17.12.2021
6429 Clouds 9 1001 62 10000 1.03 200 08:31 17.12.2021
6430 Clear 12 1000 63 10000 4.12 180 07:20 17.12.2021
6431 Clouds 15 998 68 10000 0 0 04:40 17.12.2021
6432 Clouds 12 1002 83 10000 1.54 190 23:58 16.12.2021
6433 Clouds 11 1002 85 10000 2.06 190 22:24 16.12.2021
6434 Clouds 11 1003 85 10000 2.06 190 21:51 16.12.2021
6435 Clouds 10 1003 85 10000 2.06 190 21:30 16.12.2021
6436 Clouds 9 1003 86 10000 2.06 180 20:31 16.12.2021
6437 Clouds 9 1004 87 10000 2.06 180 19:51 16.12.2021
6438 Clouds 8 1005 89 10000 1.54 180 18:41 16.12.2021
6439 Clouds 8 1006 90 10000 2.06 180 17:57 16.12.2021
6440 Clouds 8 1007 90 10000 2.06 180 17:31 16.12.2021
6441 Clouds 6 1009 94 10000 1.79 196 16:23 16.12.2021
6442 Clouds 5 1010 95 10000 1.54 180 15:20 16.12.2021
6443 Clouds 4 1012 95 10000 1.54 190 13:43 16.12.2021
6444 Mist 2 1014 95 9656 0 0 11:46 16.12.2021
6445 Mist 2 1014 94 10000 0 0 11:18 16.12.2021
6446 Mist 2 1015 95 10000 0.51 340 10:32 16.12.2021
6447 Rain 2 1016 95 10000 1.03 190 08:56 16.12.2021
6448 Rain 1 1017 95 9656 1.54 190 06:22 16.12.2021
6449 Rain 1 1021 96 9656 0.51 140 02:59 16.12.2021
6450 Snow -2 1027 84 2012 1.03 20 23:35 15.12.2021
6451 Snow -1 1027 74 10000 2.06 350 22:49 15.12.2021
6452 Snow -1 1028 68 10000 1.54 10 21:58 15.12.2021
6453 Snow -1 1028 67 10000 1.54 10 21:31 15.12.2021
6454 Snow -1 1029 64 10000 1.54 70 20:32 15.12.2021
6455 Clouds -1 1031 63 10000 2.06 30 19:53 15.12.2021
6456 Clouds -1 1033 61 10000 2.06 10 18:40 15.12.2021
6457 Clouds -1 1035 61 10000 1.03 20 17:57 15.12.2021
6458 Clouds -1 1035 61 10000 1.03 20 17:39 15.12.2021
6459 Clouds -2 1036 62 10000 2.06 60 16:57 15.12.2021
6460 Clouds -3 1037 61 10000 2.57 70 15:47 15.12.2021
6461 Clouds -3 1037 61 10000 2.57 70 15:29 15.12.2021
6462 Clouds -4 1038 64 10000 2.57 110 14:44 15.12.2021
6463 Clouds -4 1039 64 10000 1.54 120 13:27 15.12.2021
6464 Clouds -4 1040 69 10000 0.51 270 10:58 15.12.2021
6465 Clouds -6 1040 73 10000 3.09 40 09:31 15.12.2021
6466 Clouds -6 1039 76 10000 1.03 30 07:47 15.12.2021
6467 Clear -3 1039 58 10000 1.54 320 02:40 15.12.2021
6468 Clear -1 1038 54 10000 0.51 310 23:46 14.12.2021
6469 Clear 0 1037 52 10000 1.03 280 22:52 14.12.2021
6470 Clear 0 1037 50 10000 1.03 280 22:34 14.12.2021
6471 Clear 2 1036 48 10000 1.03 300 21:24 14.12.2021
6472 Clear 2 1036 46 10000 1.03 340 20:18 14.12.2021
6473 Clear 2 1035 45 10000 1.03 20 19:21 14.12.2021
6474 Clear 2 1035 45 10000 1.03 20 19:21 14.12.2021
6475 Clear 1 1035 46 10000 2.06 350 18:38 14.12.2021
6476 Clear 1 1035 48 10000 3.6 360 17:50 14.12.2021
6477 Clear 1 1035 51 10000 3.09 360 16:43 14.12.2021
6478 Clear 1 1033 54 10000 2.57 10 15:52 14.12.2021
6479 Clear 1 1030 66 10000 3.09 350 13:35 14.12.2021
6480 Clear 1 1028 68 10000 2.57 360 12:41 14.12.2021
6481 Clear 2 1026 75 10000 1.54 30 11:24 14.12.2021
6482 Clear 3 1025 77 10000 1.54 210 10:27 14.12.2021
6483 Clear 3 1024 77 10000 1.03 200 09:53 14.12.2021
6484 Clear 4 1022 76 10000 1.54 190 08:40 14.12.2021
6485 Clear 4 1022 76 10000 1.54 190 08:20 14.12.2021
6486 Clear 4 1019 72 10000 2.06 170 06:27 14.12.2021
6487 Clear 6 1013 70 10000 3.09 180 23:39 13.12.2021
6488 Clear 8 1013 66 10000 2.57 190 21:57 13.12.2021
6489 Clear 8 1013 65 10000 2.57 190 21:34 13.12.2021
6490 Clouds 8 1013 63 10000 2.57 190 20:50 13.12.2021
6491 Clear 8 1014 61 10000 2.57 180 19:59 13.12.2021
6492 Clear 8 1014 61 10000 2.57 180 19:27 13.12.2021
6493 Clear 7 1015 63 10000 2.06 190 17:27 13.12.2021
6494 Clear 7 1016 66 10000 2.57 190 16:24 13.12.2021
6495 Clear 6 1016 67 10000 2.06 190 15:43 13.12.2021
6496 Clear 6 1016 67 10000 2.06 190 15:43 13.12.2021
6497 Clouds 5 1015 68 10000 2.06 190 13:57 13.12.2021
6498 Clouds 5 1015 68 10000 2.06 190 13:31 13.12.2021
6499 Clouds 5 1014 67 10000 2.57 190 12:36 13.12.2021
6500 Clouds 5 1014 67 10000 3.09 180 11:43 13.12.2021
6501 Clouds 5 1014 67 10000 3.09 180 11:24 13.12.2021
6502 Clouds 5 1013 67 10000 2.06 200 10:21 13.12.2021
6503 Clouds 5 1012 69 10000 2.06 190 08:43 13.12.2021
6504 Clear 5 1011 69 10000 2.57 190 05:38 13.12.2021
6505 Clouds 5 1012 69 10000 3.09 190 03:57 13.12.2021
6506 Clear 4 1012 62 10000 2.57 190 23:43 12.12.2021
6507 Clear 5 1011 47 10000 3.09 190 21:56 12.12.2021
6508 Clear 6 1011 46 10000 2.57 200 20:46 12.12.2021
6509 Clear 5 1011 53 10000 2.57 200 19:34 12.12.2021
6510 Clear 4 1011 60 10000 3.09 180 17:54 12.12.2021
6511 Clear 3 1011 63 10000 2.57 190 16:29 12.12.2021
6512 Clear 2 1011 64 10000 2.57 190 15:53 12.12.2021
6513 Clear 2 1011 64 10000 2.57 190 15:28 12.12.2021
6514 Clear 1 1010 65 10000 2.57 170 14:38 12.12.2021
6515 Clear 1 1010 62 10000 2.06 180 13:43 12.12.2021
6516 Clear 1 1009 61 10000 2.06 200 12:47 12.12.2021
6517 Clear 1 1007 62 10000 2.06 230 11:45 12.12.2021
6518 Clear 1 1007 62 10000 2.06 230 11:25 12.12.2021
6519 Clouds 2 1005 61 10000 2.57 210 10:43 12.12.2021
6520 Clouds 2 1004 62 10000 2.06 190 09:45 12.12.2021
6521 Clouds 3 1001 61 10000 3.09 200 08:38 12.12.2021
6522 Clouds 5 995 62 10000 4.63 180 06:38 12.12.2021
6523 Clouds 6 992 64 10000 4.63 190 05:28 12.12.2021
6524 Clouds 7 990 71 10000 3.6 190 03:58 12.12.2021
6525 Clouds 10 987 91 10000 2.06 180 00:45 12.12.2021
6526 Clouds 8 990 92 10000 2.06 190 22:42 11.12.2021
6527 Clouds 7 990 91 10000 2.06 190 22:20 11.12.2021
6528 Clouds 7 992 93 10000 2.57 200 21:25 11.12.2021
6529 Clouds 6 994 92 10000 2.06 180 19:46 11.12.2021
6530 Clouds 6 994 92 10000 2.06 180 19:21 11.12.2021
6531 Clouds 5 996 92 10000 2.57 180 18:39 11.12.2021
6532 Clouds 4 997 94 10000 2.57 180 17:41 11.12.2021
6533 Snow 1 1002 96 2414 0.51 60 15:57 11.12.2021
6534 Mist 1 1002 96 4023 0.51 60 15:39 11.12.2021
6535 Snow 0 1005 93 2816 1.03 10 14:33 11.12.2021
6536 Mist -2 1011 90 9656 3.09 350 12:20 11.12.2021
6537 Mist -3 1014 90 9656 3.09 350 10:49 11.12.2021
6538 Mist -3 1016 91 9656 2.57 360 09:40 11.12.2021
6539 Mist -3 1020 87 8047 2.06 360 03:57 11.12.2021
6540 Clouds -2 1019 87 10000 0.51 350 00:47 11.12.2021
6541 Clouds -2 1019 86 10000 0.51 10 23:42 10.12.2021
6542 Clouds -3 1019 86 10000 2.06 20 22:39 10.12.2021
6543 Clouds -2 1018 86 10000 2.06 10 21:40 10.12.2021
6544 Clouds -3 1017 86 10000 2.57 10 20:26 10.12.2021
6545 Clouds -3 1017 86 10000 1.54 350 19:18 10.12.2021
6546 Clouds -3 1018 89 10000 2.06 350 17:46 10.12.2021
6547 Snow -4 1019 91 10000 2.06 350 16:37 10.12.2021
6548 Snow -4 1018 88 9656 1.54 360 15:45 10.12.2021
6549 Snow -5 1018 90 4828 1.54 360 15:26 10.12.2021
6550 Snow -5 1018 91 9656 1.54 350 14:35 10.12.2021
6551 Snow -7 1019 86 9656 1.03 360 13:49 10.12.2021
6552 Snow -7 1019 86 4828 1.54 360 12:56 10.12.2021
6553 Snow -8 1020 81 10000 1.54 10 11:43 10.12.2021
6554 Snow -8 1020 82 10000 1.54 360 10:57 10.12.2021
6555 Clouds -8 1021 78 10000 1.54 50 09:49 10.12.2021
6556 Clouds -8 1022 76 10000 1.54 120 07:49 10.12.2021
6557 Clouds -8 1024 79 10000 1.54 180 04:57 10.12.2021
6558 Clouds -8 1024 83 10000 1.54 140 02:42 10.12.2021
6559 Clouds -7 1024 75 10000 1.03 290 23:42 09.12.2021
6560 Clouds -6 1024 74 10000 0.51 270 22:43 09.12.2021
6561 Clouds -6 1024 73 10000 0.51 270 22:23 09.12.2021
6562 Clouds -6 1024 72 10000 0.51 240 21:40 09.12.2021
6563 Clouds -5 1024 70 10000 1.03 230 20:36 09.12.2021
6564 Snow -6 1023 71 10000 1.54 220 19:45 09.12.2021
6565 Clouds -6 1023 72 10000 1.54 220 19:20 09.12.2021
6566 Clouds -6 1023 74 10000 2.06 320 18:22 09.12.2021
6567 Snow -7 1023 78 10000 2.06 270 17:48 09.12.2021
6568 Snow -7 1022 79 10000 2.06 270 17:24 09.12.2021
6569 Snow -7 1022 79 10000 1.03 340 16:41 09.12.2021
6570 Snow -9 1021 84 10000 1.54 340 15:19 09.12.2021
6571 Snow -9 1020 85 9656 2.06 350 14:36 09.12.2021
6572 Snow -10 1018 85 9656 2.57 360 12:49 09.12.2021
6573 Snow -10 1018 87 10000 2.57 360 12:24 09.12.2021
6574 Snow -9 1017 87 2012 0.51 280 10:40 09.12.2021
6575 Snow -9 1015 86 4828 2.57 360 07:53 09.12.2021
6576 Snow -10 1015 85 10000 3.6 350 03:59 09.12.2021
6577 Snow -10 1016 84 10000 2.57 10 01:43 09.12.2021
6578 Snow -9 1017 86 10000 3.6 10 23:38 08.12.2021
6579 Snow -8 1017 84 9656 3.09 360 22:59 08.12.2021
6580 Snow -8 1017 84 9656 3.09 360 22:37 08.12.2021
6581 Snow -8 1017 82 9656 3.09 360 21:39 08.12.2021
6582 Snow -8 1017 82 9656 3.09 360 21:39 08.12.2021
6583 Snow -8 1017 82 9656 2.57 10 20:58 08.12.2021
6584 Snow -8 1018 82 4023 2.57 10 19:57 08.12.2021
6585 Snow -8 1018 81 9656 2.57 10 19:29 08.12.2021
6586 Snow -8 1019 78 8047 2.57 50 18:28 08.12.2021
6587 Snow -8 1021 75 10000 1.54 30 17:24 08.12.2021
6588 Snow -8 1023 66 10000 1.54 80 15:45 08.12.2021
6589 Clouds -8 1023 66 10000 1.54 80 15:23 08.12.2021
6590 Clouds -9 1023 69 10000 1.03 80 13:40 08.12.2021
6591 Clouds -9 1024 70 10000 1.03 30 10:45 08.12.2021
6592 Clouds -9 1024 69 10000 1.03 30 10:23 08.12.2021
6593 Clouds -8 1024 67 10000 2.06 320 08:54 08.12.2021
6594 Clouds -8 1024 62 10000 1.03 320 06:52 08.12.2021
6595 Clouds -6 1023 55 10000 1.03 330 01:21 08.12.2021
6596 Clouds -5 1021 53 10000 1.03 300 23:29 07.12.2021
6597 Clouds -4 1019 57 10000 2.06 200 21:26 07.12.2021
6598 Clouds -3 1019 60 10000 2.06 210 20:30 07.12.2021
6599 Clouds -3 1019 60 10000 1.54 190 19:48 07.12.2021
6600 Clear -3 1019 61 10000 2.57 250 18:37 07.12.2021
6601 Clear -4 1019 64 10000 2.06 230 17:27 07.12.2021
6602 Snow -4 1019 64 10000 1.54 280 16:57 07.12.2021
6603 Snow -4 1019 64 10000 1.54 280 16:27 07.12.2021
6604 Clouds -5 1016 67 10000 1.54 190 14:47 07.12.2021
6605 Clear -5 1015 66 10000 1.03 220 13:46 07.12.2021
6606 Clear -4 1014 62 10000 1.54 230 12:41 07.12.2021
6607 Clouds -4 1012 61 10000 1.03 220 11:23 07.12.2021
6608 Clouds -1 1007 61 10000 2.06 220 09:44 07.12.2021
6609 Clouds 2 1002 69 10000 3.6 190 07:55 07.12.2021
6610 Clouds 2 1001 73 10000 2.68 213 05:55 07.12.2021
6611 Clouds 2 1001 74 10000 2.68 206 05:27 07.12.2021
6612 Rain 7 994 93 9656 2.06 180 23:45 06.12.2021
6613 Rain 7 993 95 10000 1.54 190 22:44 06.12.2021
6614 Rain 7 993 95 10000 1.54 190 22:18 06.12.2021
6615 Rain 7 993 95 10000 2.57 180 21:42 06.12.2021
6616 Rain 6 994 95 10000 2.57 180 20:33 06.12.2021
6617 Rain 6 995 94 8047 1.54 180 19:27 06.12.2021
6618 Rain 5 997 94 9656 2.57 190 18:57 06.12.2021
6619 Rain 5 999 93 10000 3.09 180 17:56 06.12.2021
6620 Rain 5 1000 93 10000 3.09 180 17:36 06.12.2021
6621 Rain 4 1002 92 10000 2.06 180 16:21 06.12.2021
6622 Clouds 3 1006 92 10000 2.06 180 14:54 06.12.2021
6623 Mist 2 1007 95 6437 2.06 180 13:45 06.12.2021
6624 Rain 1 1009 96 10000 1.03 130 12:39 06.12.2021
6625 Snow -1 1013 93 6437 1.54 20 10:31 06.12.2021
6626 Snow -3 1018 93 1207 1.03 60 08:35 06.12.2021
6627 Snow -5 1025 86 2816 1.54 20 04:28 06.12.2021
6628 Clouds -3 1030 66 10000 0.51 150 22:30 05.12.2021
6629 Clouds -3 1030 63 10000 1.03 300 21:26 05.12.2021
6630 Clear -3 1030 62 10000 1.54 180 20:59 05.12.2021
6631 Clear -3 1030 62 10000 1.54 180 20:19 05.12.2021
6632 Clouds -3 1030 62 10000 1.54 280 19:33 05.12.2021
6633 Clouds -3 1030 63 10000 2.06 340 18:41 05.12.2021
6634 Clouds -4 1030 64 10000 2.06 340 18:19 05.12.2021
6635 Clear -4 1030 66 10000 0.51 20 17:47 05.12.2021
6636 Clear -5 1030 70 10000 1.03 300 16:45 05.12.2021
6637 Clear -5 1030 72 10000 1.03 300 16:26 05.12.2021
6638 Clear -7 1028 87 10000 0.51 210 14:49 05.12.2021
6639 Clear -7 1028 87 10000 0.51 210 14:31 05.12.2021
6640 Clear -8 1026 85 10000 0.51 260 13:50 05.12.2021
6641 Clear -8 1026 86 10000 0.51 260 13:22 05.12.2021
6642 Clear -8 1026 85 10000 1.03 280 12:40 05.12.2021
6643 Clear -8 1026 85 10000 1.03 280 12:18 05.12.2021
6644 Clear -7 1024 86 10000 0.51 270 11:20 05.12.2021
6645 Clear -7 1022 88 10000 1.03 300 09:59 05.12.2021
6646 Clouds -6 1020 89 10000 1.03 240 07:55 05.12.2021
6647 Snow -6 1018 84 10000